<?xml version="1.0" encoding="UTF-8" standalone="no" ?>
<gpx xmlns="http://www.topografix.com/GPX/1/1" xmlns:xsi="http://www.w3.org/2001/XMLSchema-instance" xsi:schemaLocation="http://www.topografix.com/GPX/1/1 http://www.topografix.com/GPX/1/1/gpx.xsd" version="1.1" creator="VisuGPX - https://www.visugpx.com">
  <metadata>
    <name>Tour de Majorque - Day 2: Ses Salines - Cala Millor</name>
  </metadata>
  <trk>
    <name><![CDATA[Mallorca - Day 2: Ses Salines - Cala Millor]]></name>
    <extensions>
      <line xmlns="http://www.topografix.com/GPX/gpx_style/0/2">
        <color>0000FF</color>
        <width>4</width>
      </line>
    </extensions>
    <trkseg>
      <trkpt lat="39.34097" lon="3.05914">
        <ele>87.242509</ele>
        <time>2023-01-02T08:39:09.912Z</time>
      </trkpt>
      <trkpt lat="39.34089" lon="3.05906">
        <ele>87.242509</ele>
        <time>2023-01-02T08:39:15.900Z</time>
      </trkpt>
      <trkpt lat="39.34081" lon="3.05913">
        <ele>87.242509</ele>
        <time>2023-01-02T08:39:25.899Z</time>
      </trkpt>
      <trkpt lat="39.34078" lon="3.05925">
        <ele>87.242509</ele>
        <time>2023-01-02T08:39:29.923Z</time>
      </trkpt>
      <trkpt lat="39.34076" lon="3.05936">
        <ele>87.242509</ele>
        <time>2023-01-02T08:39:32.901Z</time>
      </trkpt>
      <trkpt lat="39.34074" lon="3.0595">
        <ele>87.242509</ele>
        <time>2023-01-02T08:39:35.914Z</time>
      </trkpt>
      <trkpt lat="39.34072" lon="3.05965">
        <ele>87.242509</ele>
        <time>2023-01-02T08:39:38.920Z</time>
      </trkpt>
      <trkpt lat="39.34069" lon="3.05979">
        <ele>87.242509</ele>
        <time>2023-01-02T08:39:41.909Z</time>
      </trkpt>
      <trkpt lat="39.34066" lon="3.05995">
        <ele>87.242509</ele>
        <time>2023-01-02T08:39:44.902Z</time>
      </trkpt>
      <trkpt lat="39.34064" lon="3.06006">
        <ele>87.167111</ele>
        <time>2023-01-02T08:39:46.928Z</time>
      </trkpt>
      <trkpt lat="39.3406" lon="3.06022">
        <ele>86.951449</ele>
        <time>2023-01-02T08:39:49.923Z</time>
      </trkpt>
      <trkpt lat="39.34057" lon="3.06038">
        <ele>86.732072</ele>
        <time>2023-01-02T08:39:52.910Z</time>
      </trkpt>
      <trkpt lat="39.34054" lon="3.06053">
        <ele>86.519153</ele>
        <time>2023-01-02T08:39:55.910Z</time>
      </trkpt>
      <trkpt lat="39.34051" lon="3.0607">
        <ele>86.295055</ele>
        <time>2023-01-02T08:39:58.902Z</time>
      </trkpt>
      <trkpt lat="39.34048" lon="3.06081">
        <ele>86.132835</ele>
        <time>2023-01-02T08:40:00.902Z</time>
      </trkpt>
      <trkpt lat="39.34046" lon="3.06093">
        <ele>85.973649</ele>
        <time>2023-01-02T08:40:02.912Z</time>
      </trkpt>
      <trkpt lat="39.34043" lon="3.06107">
        <ele>85.784376</ele>
        <time>2023-01-02T08:40:05.902Z</time>
      </trkpt>
      <trkpt lat="39.34041" lon="3.06122">
        <ele>85.580227</ele>
        <time>2023-01-02T08:40:39.915Z</time>
      </trkpt>
      <trkpt lat="39.3404" lon="3.06133">
        <ele>85.423366</ele>
        <time>2023-01-02T08:40:43.909Z</time>
      </trkpt>
      <trkpt lat="39.3404" lon="3.06149">
        <ele>85.214087</ele>
        <time>2023-01-02T08:40:47.927Z</time>
      </trkpt>
      <trkpt lat="39.34039" lon="3.06162">
        <ele>85.040433</ele>
        <time>2023-01-02T08:40:50.901Z</time>
      </trkpt>
      <trkpt lat="39.34038" lon="3.06178">
        <ele>84.832672</ele>
        <time>2023-01-02T08:40:53.922Z</time>
      </trkpt>
      <trkpt lat="39.34037" lon="3.0619">
        <ele>84.667208</ele>
        <time>2023-01-02T08:40:55.913Z</time>
      </trkpt>
      <trkpt lat="39.34036" lon="3.06203">
        <ele>84.497261</ele>
        <time>2023-01-02T08:40:57.923Z</time>
      </trkpt>
      <trkpt lat="39.34034" lon="3.06216">
        <ele>84.321592</ele>
        <time>2023-01-02T08:40:59.899Z</time>
      </trkpt>
      <trkpt lat="39.34032" lon="3.06228">
        <ele>84.149832</ele>
        <time>2023-01-02T08:41:01.923Z</time>
      </trkpt>
      <trkpt lat="39.3403" lon="3.06241">
        <ele>84.162548</ele>
        <time>2023-01-02T08:41:03.921Z</time>
      </trkpt>
      <trkpt lat="39.34028" lon="3.06253">
        <ele>84.182789</ele>
        <time>2023-01-02T08:41:05.909Z</time>
      </trkpt>
      <trkpt lat="39.34026" lon="3.06266">
        <ele>84.202696</ele>
        <time>2023-01-02T08:41:07.910Z</time>
      </trkpt>
      <trkpt lat="39.34024" lon="3.06279">
        <ele>84.223327</ele>
        <time>2023-01-02T08:41:09.925Z</time>
      </trkpt>
      <trkpt lat="39.34022" lon="3.06291">
        <ele>84.24389</ele>
        <time>2023-01-02T08:41:11.915Z</time>
      </trkpt>
      <trkpt lat="39.3402" lon="3.06304">
        <ele>84.264478</ele>
        <time>2023-01-02T08:41:13.911Z</time>
      </trkpt>
      <trkpt lat="39.34018" lon="3.06317">
        <ele>84.284412</ele>
        <time>2023-01-02T08:41:15.903Z</time>
      </trkpt>
      <trkpt lat="39.34015" lon="3.06329">
        <ele>84.304719</ele>
        <time>2023-01-02T08:41:17.907Z</time>
      </trkpt>
      <trkpt lat="39.34012" lon="3.06342">
        <ele>84.32514</ele>
        <time>2023-01-02T08:41:19.906Z</time>
      </trkpt>
      <trkpt lat="39.34008" lon="3.06353">
        <ele>84.345064</ele>
        <time>2023-01-02T08:41:21.911Z</time>
      </trkpt>
      <trkpt lat="39.34004" lon="3.06365">
        <ele>84.365475</ele>
        <time>2023-01-02T08:41:23.914Z</time>
      </trkpt>
      <trkpt lat="39.33999" lon="3.06377">
        <ele>84.385874</ele>
        <time>2023-01-02T08:41:25.930Z</time>
      </trkpt>
      <trkpt lat="39.33994" lon="3.06388">
        <ele>84.405813</ele>
        <time>2023-01-02T08:41:27.910Z</time>
      </trkpt>
      <trkpt lat="39.3399" lon="3.064">
        <ele>84.426815</ele>
        <time>2023-01-02T08:41:29.904Z</time>
      </trkpt>
      <trkpt lat="39.33985" lon="3.06412">
        <ele>84.448241</ele>
        <time>2023-01-02T08:41:31.931Z</time>
      </trkpt>
      <trkpt lat="39.3398" lon="3.06424">
        <ele>84.469109</ele>
        <time>2023-01-02T08:41:33.917Z</time>
      </trkpt>
      <trkpt lat="39.33977" lon="3.06436">
        <ele>84.489912</ele>
        <time>2023-01-02T08:41:35.911Z</time>
      </trkpt>
      <trkpt lat="39.33974" lon="3.0645">
        <ele>84.519183</ele>
        <time>2023-01-02T08:41:37.915Z</time>
      </trkpt>
      <trkpt lat="39.33973" lon="3.06463">
        <ele>84.584739</ele>
        <time>2023-01-02T08:41:39.910Z</time>
      </trkpt>
      <trkpt lat="39.33973" lon="3.06477">
        <ele>84.651724</ele>
        <time>2023-01-02T08:41:41.915Z</time>
      </trkpt>
      <trkpt lat="39.33975" lon="3.06492">
        <ele>84.720285</ele>
        <time>2023-01-02T08:41:43.904Z</time>
      </trkpt>
      <trkpt lat="39.33976" lon="3.06506">
        <ele>84.788846</ele>
        <time>2023-01-02T08:41:45.911Z</time>
      </trkpt>
      <trkpt lat="39.33978" lon="3.06519">
        <ele>84.855191</ele>
        <time>2023-01-02T08:41:47.912Z</time>
      </trkpt>
      <trkpt lat="39.33979" lon="3.06533">
        <ele>84.920965</ele>
        <time>2023-01-02T08:41:49.915Z</time>
      </trkpt>
      <trkpt lat="39.33981" lon="3.06546">
        <ele>84.986029</ele>
        <time>2023-01-02T08:41:51.922Z</time>
      </trkpt>
      <trkpt lat="39.33982" lon="3.0656">
        <ele>85.051277</ele>
        <time>2023-01-02T08:41:53.914Z</time>
      </trkpt>
      <trkpt lat="39.33984" lon="3.06572">
        <ele>85.111653</ele>
        <time>2023-01-02T08:41:55.915Z</time>
      </trkpt>
      <trkpt lat="39.33987" lon="3.06585">
        <ele>85.173808</ele>
        <time>2023-01-02T08:41:57.925Z</time>
      </trkpt>
      <trkpt lat="39.33991" lon="3.06597">
        <ele>85.237402</ele>
        <time>2023-01-02T08:41:59.932Z</time>
      </trkpt>
      <trkpt lat="39.33995" lon="3.06609">
        <ele>85.298991</ele>
        <time>2023-01-02T08:42:01.926Z</time>
      </trkpt>
      <trkpt lat="39.33999" lon="3.0662">
        <ele>85.360263</ele>
        <time>2023-01-02T08:42:03.917Z</time>
      </trkpt>
      <trkpt lat="39.34003" lon="3.06632">
        <ele>85.421712</ele>
        <time>2023-01-02T08:42:05.915Z</time>
      </trkpt>
      <trkpt lat="39.34007" lon="3.06645">
        <ele>85.486854</ele>
        <time>2023-01-02T08:42:07.908Z</time>
      </trkpt>
      <trkpt lat="39.34011" lon="3.06656">
        <ele>85.545975</ele>
        <time>2023-01-02T08:42:09.912Z</time>
      </trkpt>
      <trkpt lat="39.34014" lon="3.06668">
        <ele>85.604921</ele>
        <time>2023-01-02T08:42:11.911Z</time>
      </trkpt>
      <trkpt lat="39.34018" lon="3.06679">
        <ele>85.753529</ele>
        <time>2023-01-02T08:42:13.917Z</time>
      </trkpt>
      <trkpt lat="39.34022" lon="3.06689">
        <ele>85.934459</ele>
        <time>2023-01-02T08:42:15.911Z</time>
      </trkpt>
      <trkpt lat="39.34027" lon="3.06705">
        <ele>86.198185</ele>
        <time>2023-01-02T08:42:18.931Z</time>
      </trkpt>
      <trkpt lat="39.34033" lon="3.06721">
        <ele>86.45358</ele>
        <time>2023-01-02T08:42:21.913Z</time>
      </trkpt>
      <trkpt lat="39.34038" lon="3.06736">
        <ele>86.70449</ele>
        <time>2023-01-02T08:42:24.910Z</time>
      </trkpt>
      <trkpt lat="39.34042" lon="3.06751">
        <ele>86.945501</ele>
        <time>2023-01-02T08:42:27.908Z</time>
      </trkpt>
      <trkpt lat="39.34047" lon="3.06765">
        <ele>87.177533</ele>
        <time>2023-01-02T08:42:30.890Z</time>
      </trkpt>
      <trkpt lat="39.34052" lon="3.06779">
        <ele>87.409805</ele>
        <time>2023-01-02T08:42:33.930Z</time>
      </trkpt>
      <trkpt lat="39.34056" lon="3.06792">
        <ele>87.626739</ele>
        <time>2023-01-02T08:42:36.916Z</time>
      </trkpt>
      <trkpt lat="39.34061" lon="3.06805">
        <ele>87.852165</ele>
        <time>2023-01-02T08:42:39.910Z</time>
      </trkpt>
      <trkpt lat="39.34066" lon="3.06819">
        <ele>88.076184</ele>
        <time>2023-01-02T08:42:42.920Z</time>
      </trkpt>
      <trkpt lat="39.34069" lon="3.06833">
        <ele>88.299964</ele>
        <time>2023-01-02T08:42:45.899Z</time>
      </trkpt>
      <trkpt lat="39.3407" lon="3.06849">
        <ele>88.5457</ele>
        <time>2023-01-02T08:42:48.905Z</time>
      </trkpt>
      <trkpt lat="39.34069" lon="3.06865">
        <ele>88.778048</ele>
        <time>2023-01-02T08:42:51.912Z</time>
      </trkpt>
      <trkpt lat="39.34068" lon="3.0688">
        <ele>89.012203</ele>
        <time>2023-01-02T08:42:54.924Z</time>
      </trkpt>
      <trkpt lat="39.34067" lon="3.06895">
        <ele>89.148676</ele>
        <time>2023-01-02T08:42:57.933Z</time>
      </trkpt>
      <trkpt lat="39.34066" lon="3.0691">
        <ele>89.160704</ele>
        <time>2023-01-02T08:43:00.898Z</time>
      </trkpt>
      <trkpt lat="39.34065" lon="3.06925">
        <ele>89.172645</ele>
        <time>2023-01-02T08:43:03.917Z</time>
      </trkpt>
      <trkpt lat="39.34065" lon="3.0694">
        <ele>89.184491</ele>
        <time>2023-01-02T08:43:06.899Z</time>
      </trkpt>
      <trkpt lat="39.34064" lon="3.06956">
        <ele>89.196929</ele>
        <time>2023-01-02T08:43:09.914Z</time>
      </trkpt>
      <trkpt lat="39.34063" lon="3.06968">
        <ele>89.206248</ele>
        <time>2023-01-02T08:43:11.909Z</time>
      </trkpt>
      <trkpt lat="39.34063" lon="3.0698">
        <ele>89.215821</ele>
        <time>2023-01-02T08:43:13.908Z</time>
      </trkpt>
      <trkpt lat="39.34062" lon="3.06993">
        <ele>89.225893</ele>
        <time>2023-01-02T08:43:15.917Z</time>
      </trkpt>
      <trkpt lat="39.34061" lon="3.07006">
        <ele>89.236162</ele>
        <time>2023-01-02T08:43:17.907Z</time>
      </trkpt>
      <trkpt lat="39.34061" lon="3.07019">
        <ele>89.246263</ele>
        <time>2023-01-02T08:43:19.919Z</time>
      </trkpt>
      <trkpt lat="39.3406" lon="3.07031">
        <ele>89.256387</ele>
        <time>2023-01-02T08:43:21.911Z</time>
      </trkpt>
      <trkpt lat="39.3406" lon="3.07044">
        <ele>89.266111</ele>
        <time>2023-01-02T08:43:23.900Z</time>
      </trkpt>
      <trkpt lat="39.34059" lon="3.07056">
        <ele>89.275513</ele>
        <time>2023-01-02T08:43:25.902Z</time>
      </trkpt>
      <trkpt lat="39.34059" lon="3.07067">
        <ele>89.284765</ele>
        <time>2023-01-02T08:43:27.923Z</time>
      </trkpt>
      <trkpt lat="39.34058" lon="3.07085">
        <ele>89.298524</ele>
        <time>2023-01-02T08:43:30.907Z</time>
      </trkpt>
      <trkpt lat="39.34057" lon="3.07096">
        <ele>89.307782</ele>
        <time>2023-01-02T08:43:32.901Z</time>
      </trkpt>
      <trkpt lat="39.34056" lon="3.07108">
        <ele>89.317128</ele>
        <time>2023-01-02T08:43:34.910Z</time>
      </trkpt>
      <trkpt lat="39.34055" lon="3.0712">
        <ele>89.326552</ele>
        <time>2023-01-02T08:43:36.913Z</time>
      </trkpt>
      <trkpt lat="39.34055" lon="3.07132">
        <ele>89.459198</ele>
        <time>2023-01-02T08:43:38.910Z</time>
      </trkpt>
      <trkpt lat="39.34054" lon="3.07144">
        <ele>89.605722</ele>
        <time>2023-01-02T08:43:40.894Z</time>
      </trkpt>
      <trkpt lat="39.34054" lon="3.07156">
        <ele>89.753122</ele>
        <time>2023-01-02T08:43:42.911Z</time>
      </trkpt>
      <trkpt lat="39.34053" lon="3.07168">
        <ele>89.898222</ele>
        <time>2023-01-02T08:43:44.908Z</time>
      </trkpt>
      <trkpt lat="39.34052" lon="3.07181">
        <ele>90.046076</ele>
        <time>2023-01-02T08:43:46.917Z</time>
      </trkpt>
      <trkpt lat="39.34052" lon="3.07193">
        <ele>90.18862</ele>
        <time>2023-01-02T08:43:48.918Z</time>
      </trkpt>
      <trkpt lat="39.34051" lon="3.0721">
        <ele>90.392351</ele>
        <time>2023-01-02T08:43:51.928Z</time>
      </trkpt>
      <trkpt lat="39.3405" lon="3.07226">
        <ele>90.58935</ele>
        <time>2023-01-02T08:43:54.905Z</time>
      </trkpt>
      <trkpt lat="39.3405" lon="3.07241">
        <ele>90.773879</ele>
        <time>2023-01-02T08:43:57.922Z</time>
      </trkpt>
      <trkpt lat="39.34049" lon="3.07256">
        <ele>90.949824</ele>
        <time>2023-01-02T08:44:00.903Z</time>
      </trkpt>
      <trkpt lat="39.34048" lon="3.07269">
        <ele>91.109596</ele>
        <time>2023-01-02T08:44:03.927Z</time>
      </trkpt>
      <trkpt lat="39.34048" lon="3.07283">
        <ele>91.272821</ele>
        <time>2023-01-02T08:44:06.906Z</time>
      </trkpt>
      <trkpt lat="39.34047" lon="3.07297">
        <ele>91.437238</ele>
        <time>2023-01-02T08:44:09.915Z</time>
      </trkpt>
      <trkpt lat="39.34046" lon="3.0731">
        <ele>91.595478</ele>
        <time>2023-01-02T08:44:12.902Z</time>
      </trkpt>
      <trkpt lat="39.34046" lon="3.07322">
        <ele>91.736768</ele>
        <time>2023-01-02T08:44:15.924Z</time>
      </trkpt>
      <trkpt lat="39.34045" lon="3.07334">
        <ele>91.881868</ele>
        <time>2023-01-02T08:44:18.907Z</time>
      </trkpt>
      <trkpt lat="39.34045" lon="3.07346">
        <ele>92.032727</ele>
        <time>2023-01-02T08:44:21.913Z</time>
      </trkpt>
      <trkpt lat="39.34044" lon="3.07359">
        <ele>92.22086</ele>
        <time>2023-01-02T08:44:24.906Z</time>
      </trkpt>
      <trkpt lat="39.34044" lon="3.07371">
        <ele>92.468922</ele>
        <time>2023-01-02T08:44:27.913Z</time>
      </trkpt>
      <trkpt lat="39.34043" lon="3.07384">
        <ele>92.712742</ele>
        <time>2023-01-02T08:44:30.888Z</time>
      </trkpt>
      <trkpt lat="39.34042" lon="3.07397">
        <ele>92.96867</ele>
        <time>2023-01-02T08:44:33.908Z</time>
      </trkpt>
      <trkpt lat="39.34041" lon="3.0741">
        <ele>93.214319</ele>
        <time>2023-01-02T08:44:36.910Z</time>
      </trkpt>
      <trkpt lat="39.34041" lon="3.07423">
        <ele>93.461972</ele>
        <time>2023-01-02T08:44:39.911Z</time>
      </trkpt>
      <trkpt lat="39.3404" lon="3.07436">
        <ele>93.706044</ele>
        <time>2023-01-02T08:44:42.910Z</time>
      </trkpt>
      <trkpt lat="39.3404" lon="3.07449">
        <ele>93.96768</ele>
        <time>2023-01-02T08:44:45.920Z</time>
      </trkpt>
      <trkpt lat="39.34039" lon="3.07462">
        <ele>94.215742</ele>
        <time>2023-01-02T08:44:48.912Z</time>
      </trkpt>
      <trkpt lat="39.34038" lon="3.07475">
        <ele>94.456803</ele>
        <time>2023-01-02T08:44:51.907Z</time>
      </trkpt>
      <trkpt lat="39.34037" lon="3.07488">
        <ele>94.70254</ele>
        <time>2023-01-02T08:44:54.909Z</time>
      </trkpt>
      <trkpt lat="39.34037" lon="3.07501">
        <ele>94.958258</ele>
        <time>2023-01-02T08:44:57.909Z</time>
      </trkpt>
      <trkpt lat="39.34036" lon="3.07515">
        <ele>95.222471</ele>
        <time>2023-01-02T08:45:00.914Z</time>
      </trkpt>
      <trkpt lat="39.34035" lon="3.07529">
        <ele>95.496225</ele>
        <time>2023-01-02T08:45:03.916Z</time>
      </trkpt>
      <trkpt lat="39.34033" lon="3.07542">
        <ele>95.760997</ele>
        <time>2023-01-02T08:45:06.924Z</time>
      </trkpt>
      <trkpt lat="39.34032" lon="3.07558">
        <ele>96.052727</ele>
        <time>2023-01-02T08:45:09.919Z</time>
      </trkpt>
      <trkpt lat="39.34028" lon="3.07572">
        <ele>96.344106</ele>
        <time>2023-01-02T08:45:12.890Z</time>
      </trkpt>
      <trkpt lat="39.34024" lon="3.07587">
        <ele>96.611978</ele>
        <time>2023-01-02T08:45:15.897Z</time>
      </trkpt>
      <trkpt lat="39.34019" lon="3.076">
        <ele>96.770951</ele>
        <time>2023-01-02T08:45:18.904Z</time>
      </trkpt>
      <trkpt lat="39.34015" lon="3.07612">
        <ele>96.915243</ele>
        <time>2023-01-02T08:45:21.912Z</time>
      </trkpt>
      <trkpt lat="39.3401" lon="3.07626">
        <ele>97.072975</ele>
        <time>2023-01-02T08:45:24.915Z</time>
      </trkpt>
      <trkpt lat="39.34005" lon="3.07639">
        <ele>97.231299</ele>
        <time>2023-01-02T08:45:27.908Z</time>
      </trkpt>
      <trkpt lat="39.34001" lon="3.07651">
        <ele>97.379099</ele>
        <time>2023-01-02T08:45:30.890Z</time>
      </trkpt>
      <trkpt lat="39.33996" lon="3.07664">
        <ele>97.533147</ele>
        <time>2023-01-02T08:45:33.921Z</time>
      </trkpt>
      <trkpt lat="39.33991" lon="3.07678">
        <ele>97.690879</ele>
        <time>2023-01-02T08:45:36.903Z</time>
      </trkpt>
      <trkpt lat="39.33986" lon="3.07691">
        <ele>97.852712</ele>
        <time>2023-01-02T08:45:39.910Z</time>
      </trkpt>
      <trkpt lat="39.33981" lon="3.07706">
        <ele>98.02313</ele>
        <time>2023-01-02T08:45:42.908Z</time>
      </trkpt>
      <trkpt lat="39.33976" lon="3.0772">
        <ele>98.191981</ele>
        <time>2023-01-02T08:45:45.926Z</time>
      </trkpt>
      <trkpt lat="39.3397" lon="3.07734">
        <ele>98.363004</ele>
        <time>2023-01-02T08:45:48.919Z</time>
      </trkpt>
      <trkpt lat="39.33965" lon="3.07749">
        <ele>98.543583</ele>
        <time>2023-01-02T08:45:51.912Z</time>
      </trkpt>
      <trkpt lat="39.33959" lon="3.07764">
        <ele>98.727621</ele>
        <time>2023-01-02T08:45:54.910Z</time>
      </trkpt>
      <trkpt lat="39.33953" lon="3.0778">
        <ele>98.908945</ele>
        <time>2023-01-02T08:45:57.920Z</time>
      </trkpt>
      <trkpt lat="39.33947" lon="3.07795">
        <ele>99.088399</ele>
        <time>2023-01-02T08:46:00.898Z</time>
      </trkpt>
      <trkpt lat="39.33941" lon="3.0781">
        <ele>99.235709</ele>
        <time>2023-01-02T08:46:03.930Z</time>
      </trkpt>
      <trkpt lat="39.33937" lon="3.07821">
        <ele>99.338427</ele>
        <time>2023-01-02T08:46:05.912Z</time>
      </trkpt>
      <trkpt lat="39.33932" lon="3.07836">
        <ele>99.480215</ele>
        <time>2023-01-02T08:46:08.909Z</time>
      </trkpt>
      <trkpt lat="39.33926" lon="3.0785">
        <ele>99.616243</ele>
        <time>2023-01-02T08:46:11.911Z</time>
      </trkpt>
      <trkpt lat="39.33921" lon="3.07864">
        <ele>99.75364</ele>
        <time>2023-01-02T08:46:14.924Z</time>
      </trkpt>
      <trkpt lat="39.33916" lon="3.07878">
        <ele>99.88797</ele>
        <time>2023-01-02T08:46:17.930Z</time>
      </trkpt>
      <trkpt lat="39.33911" lon="3.07891">
        <ele>100.016079</ele>
        <time>2023-01-02T08:46:20.883Z</time>
      </trkpt>
      <trkpt lat="39.33906" lon="3.07905">
        <ele>100.148613</ele>
        <time>2023-01-02T08:46:23.910Z</time>
      </trkpt>
      <trkpt lat="39.33901" lon="3.07919">
        <ele>100.27707</ele>
        <time>2023-01-02T08:46:26.917Z</time>
      </trkpt>
      <trkpt lat="39.33897" lon="3.07931">
        <ele>100.391733</ele>
        <time>2023-01-02T08:46:29.929Z</time>
      </trkpt>
      <trkpt lat="39.33892" lon="3.07944">
        <ele>100.512193</ele>
        <time>2023-01-02T08:46:32.910Z</time>
      </trkpt>
      <trkpt lat="39.33888" lon="3.07955">
        <ele>100.624495</ele>
        <time>2023-01-02T08:46:35.923Z</time>
      </trkpt>
      <trkpt lat="39.33884" lon="3.07968">
        <ele>100.741194</ele>
        <time>2023-01-02T08:46:38.916Z</time>
      </trkpt>
      <trkpt lat="39.33879" lon="3.0798">
        <ele>100.858256</ele>
        <time>2023-01-02T08:46:41.920Z</time>
      </trkpt>
      <trkpt lat="39.33874" lon="3.07992">
        <ele>100.978913</ele>
        <time>2023-01-02T08:46:44.913Z</time>
      </trkpt>
      <trkpt lat="39.3387" lon="3.08005">
        <ele>101.102098</ele>
        <time>2023-01-02T08:46:47.913Z</time>
      </trkpt>
      <trkpt lat="39.33865" lon="3.08017">
        <ele>101.262267</ele>
        <time>2023-01-02T08:46:50.915Z</time>
      </trkpt>
      <trkpt lat="39.3386" lon="3.08031">
        <ele>101.439215</ele>
        <time>2023-01-02T08:46:53.926Z</time>
      </trkpt>
      <trkpt lat="39.33855" lon="3.08044">
        <ele>101.60568</ele>
        <time>2023-01-02T08:46:56.908Z</time>
      </trkpt>
      <trkpt lat="39.3385" lon="3.08057">
        <ele>101.775023</ele>
        <time>2023-01-02T08:46:59.919Z</time>
      </trkpt>
      <trkpt lat="39.33845" lon="3.0807">
        <ele>101.949525</ele>
        <time>2023-01-02T08:47:02.906Z</time>
      </trkpt>
      <trkpt lat="39.3384" lon="3.08084">
        <ele>102.123366</ele>
        <time>2023-01-02T08:47:05.917Z</time>
      </trkpt>
      <trkpt lat="39.33835" lon="3.08098">
        <ele>102.301168</ele>
        <time>2023-01-02T08:47:08.914Z</time>
      </trkpt>
      <trkpt lat="39.33829" lon="3.08111">
        <ele>102.475312</ele>
        <time>2023-01-02T08:47:11.938Z</time>
      </trkpt>
      <trkpt lat="39.33825" lon="3.08124">
        <ele>102.637575</ele>
        <time>2023-01-02T08:47:14.919Z</time>
      </trkpt>
      <trkpt lat="39.3382" lon="3.08138">
        <ele>102.815824</ele>
        <time>2023-01-02T08:47:17.910Z</time>
      </trkpt>
      <trkpt lat="39.33816" lon="3.08152">
        <ele>102.992823</ele>
        <time>2023-01-02T08:47:20.908Z</time>
      </trkpt>
      <trkpt lat="39.33814" lon="3.08166">
        <ele>103.158272</ele>
        <time>2023-01-02T08:47:23.930Z</time>
      </trkpt>
      <trkpt lat="39.33816" lon="3.08181">
        <ele>103.331621</ele>
        <time>2023-01-02T08:47:26.910Z</time>
      </trkpt>
      <trkpt lat="39.33818" lon="3.08197">
        <ele>103.519065</ele>
        <time>2023-01-02T08:47:29.919Z</time>
      </trkpt>
      <trkpt lat="39.33821" lon="3.08213">
        <ele>103.704819</ele>
        <time>2023-01-02T08:47:32.899Z</time>
      </trkpt>
      <trkpt lat="39.33822" lon="3.08228">
        <ele>103.876505</ele>
        <time>2023-01-02T08:47:35.898Z</time>
      </trkpt>
      <trkpt lat="39.33824" lon="3.08243">
        <ele>104.040912</ele>
        <time>2023-01-02T08:47:38.902Z</time>
      </trkpt>
      <trkpt lat="39.33826" lon="3.08257">
        <ele>104.189915</ele>
        <time>2023-01-02T08:47:41.902Z</time>
      </trkpt>
      <trkpt lat="39.33827" lon="3.0827">
        <ele>104.331332</ele>
        <time>2023-01-02T08:47:44.911Z</time>
      </trkpt>
      <trkpt lat="39.33829" lon="3.08283">
        <ele>104.469815</ele>
        <time>2023-01-02T08:47:47.898Z</time>
      </trkpt>
      <trkpt lat="39.33831" lon="3.08296">
        <ele>104.604697</ele>
        <time>2023-01-02T08:47:50.897Z</time>
      </trkpt>
      <trkpt lat="39.33832" lon="3.0831">
        <ele>104.755221</ele>
        <time>2023-01-02T08:47:53.898Z</time>
      </trkpt>
      <trkpt lat="39.33833" lon="3.08323">
        <ele>104.902761</ele>
        <time>2023-01-02T08:47:56.912Z</time>
      </trkpt>
      <trkpt lat="39.33835" lon="3.08337">
        <ele>105.049445</ele>
        <time>2023-01-02T08:47:59.912Z</time>
      </trkpt>
      <trkpt lat="39.33837" lon="3.0835">
        <ele>105.18898</ele>
        <time>2023-01-02T08:48:02.927Z</time>
      </trkpt>
      <trkpt lat="39.33838" lon="3.08363">
        <ele>105.329342</ele>
        <time>2023-01-02T08:48:05.916Z</time>
      </trkpt>
      <trkpt lat="39.3384" lon="3.08376">
        <ele>105.467</ele>
        <time>2023-01-02T08:48:08.913Z</time>
      </trkpt>
      <trkpt lat="39.33841" lon="3.0839">
        <ele>105.61982</ele>
        <time>2023-01-02T08:48:11.915Z</time>
      </trkpt>
      <trkpt lat="39.33842" lon="3.08405">
        <ele>105.782885</ele>
        <time>2023-01-02T08:48:14.905Z</time>
      </trkpt>
      <trkpt lat="39.33843" lon="3.08419">
        <ele>105.935763</ele>
        <time>2023-01-02T08:48:17.914Z</time>
      </trkpt>
      <trkpt lat="39.33843" lon="3.08434">
        <ele>106.092805</ele>
        <time>2023-01-02T08:48:20.899Z</time>
      </trkpt>
      <trkpt lat="39.33841" lon="3.08449">
        <ele>106.244244</ele>
        <time>2023-01-02T08:48:23.913Z</time>
      </trkpt>
      <trkpt lat="39.33839" lon="3.08466">
        <ele>106.00288</ele>
        <time>2023-01-02T08:48:26.906Z</time>
      </trkpt>
      <trkpt lat="39.33836" lon="3.08478">
        <ele>105.815205</ele>
        <time>2023-01-02T08:48:28.915Z</time>
      </trkpt>
      <trkpt lat="39.33834" lon="3.08491">
        <ele>105.616934</ele>
        <time>2023-01-02T08:48:30.899Z</time>
      </trkpt>
      <trkpt lat="39.33832" lon="3.08505">
        <ele>105.41651</ele>
        <time>2023-01-02T08:48:32.911Z</time>
      </trkpt>
      <trkpt lat="39.3383" lon="3.08519">
        <ele>105.210315</ele>
        <time>2023-01-02T08:48:34.911Z</time>
      </trkpt>
      <trkpt lat="39.33828" lon="3.08533">
        <ele>104.999824</ele>
        <time>2023-01-02T08:48:36.910Z</time>
      </trkpt>
      <trkpt lat="39.33826" lon="3.08548">
        <ele>104.778554</ele>
        <time>2023-01-02T08:48:38.912Z</time>
      </trkpt>
      <trkpt lat="39.33824" lon="3.08563">
        <ele>104.556989</ele>
        <time>2023-01-02T08:48:40.891Z</time>
      </trkpt>
      <trkpt lat="39.33821" lon="3.08578">
        <ele>104.323592</ele>
        <time>2023-01-02T08:48:42.917Z</time>
      </trkpt>
      <trkpt lat="39.33819" lon="3.08595">
        <ele>104.081537</ele>
        <time>2023-01-02T08:48:44.927Z</time>
      </trkpt>
      <trkpt lat="39.33816" lon="3.08611">
        <ele>103.838054</ele>
        <time>2023-01-02T08:48:46.918Z</time>
      </trkpt>
      <trkpt lat="39.33813" lon="3.08627">
        <ele>103.590666</ele>
        <time>2023-01-02T08:48:48.911Z</time>
      </trkpt>
      <trkpt lat="39.33811" lon="3.08644">
        <ele>103.339344</ele>
        <time>2023-01-02T08:48:50.902Z</time>
      </trkpt>
      <trkpt lat="39.33808" lon="3.08661">
        <ele>103.095548</ele>
        <time>2023-01-02T08:48:52.912Z</time>
      </trkpt>
      <trkpt lat="39.33806" lon="3.08677">
        <ele>102.855004</ele>
        <time>2023-01-02T08:48:54.898Z</time>
      </trkpt>
      <trkpt lat="39.33803" lon="3.08693">
        <ele>102.657076</ele>
        <time>2023-01-02T08:48:56.907Z</time>
      </trkpt>
      <trkpt lat="39.33801" lon="3.08709">
        <ele>102.457976</ele>
        <time>2023-01-02T08:48:58.899Z</time>
      </trkpt>
      <trkpt lat="39.33798" lon="3.08726">
        <ele>102.257388</ele>
        <time>2023-01-02T08:49:00.919Z</time>
      </trkpt>
      <trkpt lat="39.33796" lon="3.08743">
        <ele>102.050657</ele>
        <time>2023-01-02T08:49:02.901Z</time>
      </trkpt>
      <trkpt lat="39.33793" lon="3.08758">
        <ele>101.863258</ele>
        <time>2023-01-02T08:49:04.911Z</time>
      </trkpt>
      <trkpt lat="39.33791" lon="3.08774">
        <ele>101.67445</ele>
        <time>2023-01-02T08:49:06.912Z</time>
      </trkpt>
      <trkpt lat="39.33788" lon="3.0879">
        <ele>101.48065</ele>
        <time>2023-01-02T08:49:08.904Z</time>
      </trkpt>
      <trkpt lat="39.33786" lon="3.08806">
        <ele>101.283237</ele>
        <time>2023-01-02T08:49:10.905Z</time>
      </trkpt>
      <trkpt lat="39.33783" lon="3.08821">
        <ele>101.094132</ele>
        <time>2023-01-02T08:49:12.909Z</time>
      </trkpt>
      <trkpt lat="39.3378" lon="3.08837">
        <ele>100.897886</ele>
        <time>2023-01-02T08:49:14.910Z</time>
      </trkpt>
      <trkpt lat="39.33778" lon="3.08852">
        <ele>100.712892</ele>
        <time>2023-01-02T08:49:16.904Z</time>
      </trkpt>
      <trkpt lat="39.33776" lon="3.08868">
        <ele>100.523786</ele>
        <time>2023-01-02T08:49:18.915Z</time>
      </trkpt>
      <trkpt lat="39.33774" lon="3.08883">
        <ele>100.337327</ele>
        <time>2023-01-02T08:49:20.907Z</time>
      </trkpt>
      <trkpt lat="39.33771" lon="3.08898">
        <ele>100.153216</ele>
        <time>2023-01-02T08:49:22.906Z</time>
      </trkpt>
      <trkpt lat="39.33769" lon="3.08913">
        <ele>100.016614</ele>
        <time>2023-01-02T08:49:24.907Z</time>
      </trkpt>
      <trkpt lat="39.33767" lon="3.08929">
        <ele>99.916144</ele>
        <time>2023-01-02T08:49:26.908Z</time>
      </trkpt>
      <trkpt lat="39.33764" lon="3.08944">
        <ele>99.814716</ele>
        <time>2023-01-02T08:49:28.887Z</time>
      </trkpt>
      <trkpt lat="39.33762" lon="3.08959">
        <ele>99.711846</ele>
        <time>2023-01-02T08:49:30.889Z</time>
      </trkpt>
      <trkpt lat="39.33759" lon="3.08975">
        <ele>99.610247</ele>
        <time>2023-01-02T08:49:32.917Z</time>
      </trkpt>
      <trkpt lat="39.33758" lon="3.0899">
        <ele>99.510465</ele>
        <time>2023-01-02T08:49:34.910Z</time>
      </trkpt>
      <trkpt lat="39.33755" lon="3.09005">
        <ele>99.412387</ele>
        <time>2023-01-02T08:49:36.905Z</time>
      </trkpt>
      <trkpt lat="39.33753" lon="3.09019">
        <ele>99.313592</ele>
        <time>2023-01-02T08:49:38.920Z</time>
      </trkpt>
      <trkpt lat="39.33751" lon="3.09035">
        <ele>99.214058</ele>
        <time>2023-01-02T08:49:40.920Z</time>
      </trkpt>
      <trkpt lat="39.33749" lon="3.09049">
        <ele>99.115805</ele>
        <time>2023-01-02T08:49:42.903Z</time>
      </trkpt>
      <trkpt lat="39.33746" lon="3.09064">
        <ele>99.018017</ele>
        <time>2023-01-02T08:49:44.907Z</time>
      </trkpt>
      <trkpt lat="39.33744" lon="3.09079">
        <ele>98.920895</ele>
        <time>2023-01-02T08:49:46.908Z</time>
      </trkpt>
      <trkpt lat="39.33742" lon="3.09094">
        <ele>98.820577</ele>
        <time>2023-01-02T08:49:48.920Z</time>
      </trkpt>
      <trkpt lat="39.3374" lon="3.09109">
        <ele>98.724093</ele>
        <time>2023-01-02T08:49:50.892Z</time>
      </trkpt>
      <trkpt lat="39.33737" lon="3.09124">
        <ele>98.6234</ele>
        <time>2023-01-02T08:49:52.908Z</time>
      </trkpt>
      <trkpt lat="39.33735" lon="3.09139">
        <ele>98.504598</ele>
        <time>2023-01-02T08:49:54.916Z</time>
      </trkpt>
      <trkpt lat="39.33733" lon="3.09153">
        <ele>98.3533</ele>
        <time>2023-01-02T08:49:56.910Z</time>
      </trkpt>
      <trkpt lat="39.33731" lon="3.09168">
        <ele>98.202349</ele>
        <time>2023-01-02T08:49:58.910Z</time>
      </trkpt>
      <trkpt lat="39.33728" lon="3.09183">
        <ele>98.052478</ele>
        <time>2023-01-02T08:50:00.896Z</time>
      </trkpt>
      <trkpt lat="39.33726" lon="3.09197">
        <ele>97.905108</ele>
        <time>2023-01-02T08:50:02.913Z</time>
      </trkpt>
      <trkpt lat="39.33724" lon="3.09212">
        <ele>97.759702</ele>
        <time>2023-01-02T08:50:04.910Z</time>
      </trkpt>
      <trkpt lat="39.33722" lon="3.09226">
        <ele>97.613572</ele>
        <time>2023-01-02T08:50:06.914Z</time>
      </trkpt>
      <trkpt lat="39.3372" lon="3.0924">
        <ele>97.471869</ele>
        <time>2023-01-02T08:50:08.911Z</time>
      </trkpt>
      <trkpt lat="39.33718" lon="3.09254">
        <ele>97.329181</ele>
        <time>2023-01-02T08:50:10.925Z</time>
      </trkpt>
      <trkpt lat="39.33716" lon="3.09268">
        <ele>97.18694</ele>
        <time>2023-01-02T08:50:12.914Z</time>
      </trkpt>
      <trkpt lat="39.33714" lon="3.09281">
        <ele>97.053223</ele>
        <time>2023-01-02T08:50:14.913Z</time>
      </trkpt>
      <trkpt lat="39.33712" lon="3.09293">
        <ele>96.927669</ele>
        <time>2023-01-02T08:50:16.913Z</time>
      </trkpt>
      <trkpt lat="39.33709" lon="3.09308">
        <ele>96.772331</ele>
        <time>2023-01-02T08:50:19.911Z</time>
      </trkpt>
      <trkpt lat="39.33708" lon="3.0932">
        <ele>96.653358</ele>
        <time>2023-01-02T08:50:25.891Z</time>
      </trkpt>
      <trkpt lat="39.33713" lon="3.0933">
        <ele>96.533498</ele>
        <time>2023-01-02T08:51:49.911Z</time>
      </trkpt>
      <trkpt lat="39.33717" lon="3.09345">
        <ele>96.373148</ele>
        <time>2023-01-02T08:51:53.917Z</time>
      </trkpt>
      <trkpt lat="39.33723" lon="3.09357">
        <ele>96.232165</ele>
        <time>2023-01-02T08:51:56.901Z</time>
      </trkpt>
      <trkpt lat="39.33731" lon="3.09368">
        <ele>96.306277</ele>
        <time>2023-01-02T08:51:59.896Z</time>
      </trkpt>
      <trkpt lat="39.33741" lon="3.09379">
        <ele>96.386914</ele>
        <time>2023-01-02T08:52:02.901Z</time>
      </trkpt>
      <trkpt lat="39.33749" lon="3.09385">
        <ele>96.446476</ele>
        <time>2023-01-02T08:52:04.895Z</time>
      </trkpt>
      <trkpt lat="39.33758" lon="3.09391">
        <ele>96.507864</ele>
        <time>2023-01-02T08:52:06.891Z</time>
      </trkpt>
      <trkpt lat="39.33767" lon="3.09398">
        <ele>96.57376</ele>
        <time>2023-01-02T08:52:08.928Z</time>
      </trkpt>
      <trkpt lat="39.33776" lon="3.09405">
        <ele>96.642642</ele>
        <time>2023-01-02T08:52:10.887Z</time>
      </trkpt>
      <trkpt lat="39.33786" lon="3.09411">
        <ele>96.710817</ele>
        <time>2023-01-02T08:52:12.916Z</time>
      </trkpt>
      <trkpt lat="39.33795" lon="3.09419">
        <ele>96.779594</ele>
        <time>2023-01-02T08:52:14.921Z</time>
      </trkpt>
      <trkpt lat="39.33804" lon="3.09426">
        <ele>96.849752</ele>
        <time>2023-01-02T08:52:16.910Z</time>
      </trkpt>
      <trkpt lat="39.33813" lon="3.09432">
        <ele>96.915402</ele>
        <time>2023-01-02T08:52:18.927Z</time>
      </trkpt>
      <trkpt lat="39.33823" lon="3.09439">
        <ele>96.982091</ele>
        <time>2023-01-02T08:52:20.904Z</time>
      </trkpt>
      <trkpt lat="39.33832" lon="3.09447">
        <ele>97.04979</ele>
        <time>2023-01-02T08:52:22.913Z</time>
      </trkpt>
      <trkpt lat="39.33841" lon="3.09453">
        <ele>97.117643</ele>
        <time>2023-01-02T08:52:24.910Z</time>
      </trkpt>
      <trkpt lat="39.3385" lon="3.0946">
        <ele>97.18268</ele>
        <time>2023-01-02T08:52:26.911Z</time>
      </trkpt>
      <trkpt lat="39.33859" lon="3.09468">
        <ele>97.251969</ele>
        <time>2023-01-02T08:52:28.883Z</time>
      </trkpt>
      <trkpt lat="39.33868" lon="3.09475">
        <ele>97.321036</ele>
        <time>2023-01-02T08:52:30.893Z</time>
      </trkpt>
      <trkpt lat="39.33878" lon="3.09482">
        <ele>97.398239</ele>
        <time>2023-01-02T08:52:32.905Z</time>
      </trkpt>
      <trkpt lat="39.33887" lon="3.09489">
        <ele>97.497981</ele>
        <time>2023-01-02T08:52:34.899Z</time>
      </trkpt>
      <trkpt lat="39.33896" lon="3.09496">
        <ele>97.593752</ele>
        <time>2023-01-02T08:52:36.882Z</time>
      </trkpt>
      <trkpt lat="39.33905" lon="3.09503">
        <ele>97.692623</ele>
        <time>2023-01-02T08:52:38.905Z</time>
      </trkpt>
      <trkpt lat="39.33913" lon="3.0951">
        <ele>97.789494</ele>
        <time>2023-01-02T08:52:40.899Z</time>
      </trkpt>
      <trkpt lat="39.33922" lon="3.09517">
        <ele>97.886387</ele>
        <time>2023-01-02T08:52:42.895Z</time>
      </trkpt>
      <trkpt lat="39.33931" lon="3.09524">
        <ele>97.983662</ele>
        <time>2023-01-02T08:52:44.893Z</time>
      </trkpt>
      <trkpt lat="39.33939" lon="3.09531">
        <ele>98.07702</ele>
        <time>2023-01-02T08:52:46.917Z</time>
      </trkpt>
      <trkpt lat="39.33948" lon="3.09537">
        <ele>98.170181</ele>
        <time>2023-01-02T08:52:48.880Z</time>
      </trkpt>
      <trkpt lat="39.33956" lon="3.09543">
        <ele>98.256024</ele>
        <time>2023-01-02T08:52:50.899Z</time>
      </trkpt>
      <trkpt lat="39.33967" lon="3.09552">
        <ele>98.377449</ele>
        <time>2023-01-02T08:52:53.900Z</time>
      </trkpt>
      <trkpt lat="39.33978" lon="3.0956">
        <ele>98.496523</ele>
        <time>2023-01-02T08:52:56.898Z</time>
      </trkpt>
      <trkpt lat="39.33988" lon="3.09569">
        <ele>98.61162</ele>
        <time>2023-01-02T08:52:59.910Z</time>
      </trkpt>
      <trkpt lat="39.33998" lon="3.09578">
        <ele>98.725882</ele>
        <time>2023-01-02T08:53:02.902Z</time>
      </trkpt>
      <trkpt lat="39.34008" lon="3.09586">
        <ele>98.832989</ele>
        <time>2023-01-02T08:53:05.909Z</time>
      </trkpt>
      <trkpt lat="39.34018" lon="3.09592">
        <ele>98.93753</ele>
        <time>2023-01-02T08:53:08.910Z</time>
      </trkpt>
      <trkpt lat="39.34027" lon="3.096">
        <ele>99.03796</ele>
        <time>2023-01-02T08:53:11.908Z</time>
      </trkpt>
      <trkpt lat="39.34034" lon="3.09609">
        <ele>99.19803</ele>
        <time>2023-01-02T08:53:14.904Z</time>
      </trkpt>
      <trkpt lat="39.34041" lon="3.09621">
        <ele>99.376554</ele>
        <time>2023-01-02T08:53:17.898Z</time>
      </trkpt>
      <trkpt lat="39.34046" lon="3.09633">
        <ele>99.553323</ele>
        <time>2023-01-02T08:53:20.921Z</time>
      </trkpt>
      <trkpt lat="39.34051" lon="3.09645">
        <ele>99.727969</ele>
        <time>2023-01-02T08:53:23.909Z</time>
      </trkpt>
      <trkpt lat="39.34056" lon="3.09659">
        <ele>99.916408</ele>
        <time>2023-01-02T08:53:26.930Z</time>
      </trkpt>
      <trkpt lat="39.3406" lon="3.09673">
        <ele>100.107886</ele>
        <time>2023-01-02T08:53:29.901Z</time>
      </trkpt>
      <trkpt lat="39.34063" lon="3.09688">
        <ele>100.303083</ele>
        <time>2023-01-02T08:53:32.907Z</time>
      </trkpt>
      <trkpt lat="39.34067" lon="3.09703">
        <ele>100.494395</ele>
        <time>2023-01-02T08:53:35.909Z</time>
      </trkpt>
      <trkpt lat="39.3407" lon="3.09717">
        <ele>100.681807</ele>
        <time>2023-01-02T08:53:38.899Z</time>
      </trkpt>
      <trkpt lat="39.34072" lon="3.09732">
        <ele>100.870502</ele>
        <time>2023-01-02T08:53:41.896Z</time>
      </trkpt>
      <trkpt lat="39.3408" lon="3.09742">
        <ele>101.052229</ele>
        <time>2023-01-02T08:53:44.895Z</time>
      </trkpt>
      <trkpt lat="39.34091" lon="3.09743">
        <ele>101.231582</ele>
        <time>2023-01-02T08:53:47.914Z</time>
      </trkpt>
      <trkpt lat="39.34102" lon="3.09745">
        <ele>101.416995</ele>
        <time>2023-01-02T08:53:50.911Z</time>
      </trkpt>
      <trkpt lat="39.34113" lon="3.09749">
        <ele>101.602216</ele>
        <time>2023-01-02T08:53:53.903Z</time>
      </trkpt>
      <trkpt lat="39.34123" lon="3.0976">
        <ele>101.819721</ele>
        <time>2023-01-02T08:53:56.896Z</time>
      </trkpt>
      <trkpt lat="39.34129" lon="3.09773">
        <ele>101.972997</ele>
        <time>2023-01-02T08:53:59.907Z</time>
      </trkpt>
      <trkpt lat="39.34134" lon="3.09787">
        <ele>101.907736</ele>
        <time>2023-01-02T08:54:02.880Z</time>
      </trkpt>
      <trkpt lat="39.34133" lon="3.09802">
        <ele>101.839076</ele>
        <time>2023-01-02T08:54:05.898Z</time>
      </trkpt>
      <trkpt lat="39.34129" lon="3.09819">
        <ele>101.759859</ele>
        <time>2023-01-02T08:54:08.900Z</time>
      </trkpt>
      <trkpt lat="39.34126" lon="3.0983">
        <ele>101.707096</ele>
        <time>2023-01-02T08:54:10.898Z</time>
      </trkpt>
      <trkpt lat="39.34123" lon="3.09841">
        <ele>101.65188</ele>
        <time>2023-01-02T08:54:12.912Z</time>
      </trkpt>
      <trkpt lat="39.34119" lon="3.09853">
        <ele>101.594338</ele>
        <time>2023-01-02T08:54:14.919Z</time>
      </trkpt>
      <trkpt lat="39.34116" lon="3.09865">
        <ele>101.534483</ele>
        <time>2023-01-02T08:54:16.914Z</time>
      </trkpt>
      <trkpt lat="39.34112" lon="3.09879">
        <ele>101.470608</ele>
        <time>2023-01-02T08:54:18.905Z</time>
      </trkpt>
      <trkpt lat="39.34112" lon="3.09891">
        <ele>101.412764</ele>
        <time>2023-01-02T08:54:20.905Z</time>
      </trkpt>
      <trkpt lat="39.34115" lon="3.09905">
        <ele>101.350769</ele>
        <time>2023-01-02T08:54:22.912Z</time>
      </trkpt>
      <trkpt lat="39.34117" lon="3.09918">
        <ele>101.29037</ele>
        <time>2023-01-02T08:54:24.910Z</time>
      </trkpt>
      <trkpt lat="39.34119" lon="3.09931">
        <ele>101.230913</ele>
        <time>2023-01-02T08:54:26.911Z</time>
      </trkpt>
      <trkpt lat="39.34122" lon="3.09943">
        <ele>101.17416</ele>
        <time>2023-01-02T08:54:28.904Z</time>
      </trkpt>
      <trkpt lat="39.34125" lon="3.09954">
        <ele>101.119716</ele>
        <time>2023-01-02T08:54:30.903Z</time>
      </trkpt>
      <trkpt lat="39.3413" lon="3.09965">
        <ele>101.063879</ele>
        <time>2023-01-02T08:54:32.898Z</time>
      </trkpt>
      <trkpt lat="39.34135" lon="3.09976">
        <ele>101.006294</ele>
        <time>2023-01-02T08:54:34.903Z</time>
      </trkpt>
      <trkpt lat="39.3414" lon="3.09987">
        <ele>100.947068</ele>
        <time>2023-01-02T08:54:36.905Z</time>
      </trkpt>
      <trkpt lat="39.34145" lon="3.09998">
        <ele>101.021955</ele>
        <time>2023-01-02T08:54:38.907Z</time>
      </trkpt>
      <trkpt lat="39.3415" lon="3.10009">
        <ele>101.138555</ele>
        <time>2023-01-02T08:54:40.891Z</time>
      </trkpt>
      <trkpt lat="39.34156" lon="3.1002">
        <ele>101.256632</ele>
        <time>2023-01-02T08:54:42.920Z</time>
      </trkpt>
      <trkpt lat="39.3416" lon="3.10031">
        <ele>101.370415</ele>
        <time>2023-01-02T08:54:44.913Z</time>
      </trkpt>
      <trkpt lat="39.34164" lon="3.10043">
        <ele>101.48616</ele>
        <time>2023-01-02T08:54:46.889Z</time>
      </trkpt>
      <trkpt lat="39.34167" lon="3.10054">
        <ele>101.59686</ele>
        <time>2023-01-02T08:54:48.894Z</time>
      </trkpt>
      <trkpt lat="39.3417" lon="3.10066">
        <ele>101.707052</ele>
        <time>2023-01-02T08:54:50.890Z</time>
      </trkpt>
      <trkpt lat="39.34174" lon="3.10082">
        <ele>101.859666</ele>
        <time>2023-01-02T08:54:53.921Z</time>
      </trkpt>
      <trkpt lat="39.34178" lon="3.10098">
        <ele>102.009517</ele>
        <time>2023-01-02T08:54:56.907Z</time>
      </trkpt>
      <trkpt lat="39.34181" lon="3.10114">
        <ele>102.159708</ele>
        <time>2023-01-02T08:54:59.914Z</time>
      </trkpt>
      <trkpt lat="39.34185" lon="3.10128">
        <ele>102.295316</ele>
        <time>2023-01-02T08:55:02.907Z</time>
      </trkpt>
      <trkpt lat="39.34189" lon="3.10143">
        <ele>102.433865</ele>
        <time>2023-01-02T08:55:05.929Z</time>
      </trkpt>
      <trkpt lat="39.34193" lon="3.10158">
        <ele>102.579622</ele>
        <time>2023-01-02T08:55:08.914Z</time>
      </trkpt>
      <trkpt lat="39.34197" lon="3.10174">
        <ele>102.733265</ele>
        <time>2023-01-02T08:55:11.894Z</time>
      </trkpt>
      <trkpt lat="39.34199" lon="3.10186">
        <ele>102.839027</ele>
        <time>2023-01-02T08:55:13.907Z</time>
      </trkpt>
      <trkpt lat="39.342" lon="3.10203">
        <ele>102.992667</ele>
        <time>2023-01-02T08:55:16.891Z</time>
      </trkpt>
      <trkpt lat="39.34198" lon="3.10219">
        <ele>103.202029</ele>
        <time>2023-01-02T08:55:19.894Z</time>
      </trkpt>
      <trkpt lat="39.34196" lon="3.10235">
        <ele>103.425077</ele>
        <time>2023-01-02T08:55:22.899Z</time>
      </trkpt>
      <trkpt lat="39.34194" lon="3.10251">
        <ele>103.648729</ele>
        <time>2023-01-02T08:55:25.914Z</time>
      </trkpt>
      <trkpt lat="39.34192" lon="3.10266">
        <ele>103.855394</ele>
        <time>2023-01-02T08:55:28.891Z</time>
      </trkpt>
      <trkpt lat="39.34188" lon="3.10281">
        <ele>104.078477</ele>
        <time>2023-01-02T08:55:31.922Z</time>
      </trkpt>
      <trkpt lat="39.34186" lon="3.10298">
        <ele>104.309925</ele>
        <time>2023-01-02T08:55:34.914Z</time>
      </trkpt>
      <trkpt lat="39.34183" lon="3.10313">
        <ele>104.526356</ele>
        <time>2023-01-02T08:55:37.910Z</time>
      </trkpt>
      <trkpt lat="39.3418" lon="3.10329">
        <ele>104.758524</ele>
        <time>2023-01-02T08:55:40.910Z</time>
      </trkpt>
      <trkpt lat="39.34178" lon="3.10345">
        <ele>104.97945</ele>
        <time>2023-01-02T08:55:43.907Z</time>
      </trkpt>
      <trkpt lat="39.34175" lon="3.1036">
        <ele>105.200686</ele>
        <time>2023-01-02T08:55:46.899Z</time>
      </trkpt>
      <trkpt lat="39.34172" lon="3.10376">
        <ele>105.421648</ele>
        <time>2023-01-02T08:55:49.922Z</time>
      </trkpt>
      <trkpt lat="39.34169" lon="3.10391">
        <ele>105.643399</ele>
        <time>2023-01-02T08:55:52.896Z</time>
      </trkpt>
      <trkpt lat="39.34165" lon="3.10408">
        <ele>105.877595</ele>
        <time>2023-01-02T08:55:55.918Z</time>
      </trkpt>
      <trkpt lat="39.34164" lon="3.10423">
        <ele>106.097358</ele>
        <time>2023-01-02T08:55:58.904Z</time>
      </trkpt>
      <trkpt lat="39.3416" lon="3.1044">
        <ele>106.243032</ele>
        <time>2023-01-02T08:56:01.909Z</time>
      </trkpt>
      <trkpt lat="39.34157" lon="3.10456">
        <ele>106.215487</ele>
        <time>2023-01-02T08:56:04.914Z</time>
      </trkpt>
      <trkpt lat="39.34155" lon="3.10471">
        <ele>106.189939</ele>
        <time>2023-01-02T08:56:07.909Z</time>
      </trkpt>
      <trkpt lat="39.34152" lon="3.10487">
        <ele>106.164091</ele>
        <time>2023-01-02T08:56:10.897Z</time>
      </trkpt>
      <trkpt lat="39.34149" lon="3.10501">
        <ele>106.139097</ele>
        <time>2023-01-02T08:56:13.913Z</time>
      </trkpt>
      <trkpt lat="39.34146" lon="3.10517">
        <ele>106.11261</ele>
        <time>2023-01-02T08:56:16.923Z</time>
      </trkpt>
      <trkpt lat="39.34142" lon="3.10532">
        <ele>106.085749</ele>
        <time>2023-01-02T08:56:19.915Z</time>
      </trkpt>
      <trkpt lat="39.34139" lon="3.10548">
        <ele>106.058526</ele>
        <time>2023-01-02T08:56:22.911Z</time>
      </trkpt>
      <trkpt lat="39.34138" lon="3.10564">
        <ele>106.032331</ele>
        <time>2023-01-02T08:56:25.914Z</time>
      </trkpt>
      <trkpt lat="39.34138" lon="3.10576">
        <ele>106.013091</ele>
        <time>2023-01-02T08:56:27.905Z</time>
      </trkpt>
      <trkpt lat="39.3414" lon="3.10588">
        <ele>105.993345</ele>
        <time>2023-01-02T08:56:29.911Z</time>
      </trkpt>
      <trkpt lat="39.34143" lon="3.10601">
        <ele>105.971102</ele>
        <time>2023-01-02T08:56:31.893Z</time>
      </trkpt>
      <trkpt lat="39.34146" lon="3.10615">
        <ele>105.947222</ele>
        <time>2023-01-02T08:56:33.915Z</time>
      </trkpt>
      <trkpt lat="39.34149" lon="3.1063">
        <ele>105.922333</ele>
        <time>2023-01-02T08:56:35.912Z</time>
      </trkpt>
      <trkpt lat="39.34152" lon="3.10645">
        <ele>105.895323</ele>
        <time>2023-01-02T08:56:37.896Z</time>
      </trkpt>
      <trkpt lat="39.34155" lon="3.10661">
        <ele>105.857923</ele>
        <time>2023-01-02T08:56:39.915Z</time>
      </trkpt>
      <trkpt lat="39.34159" lon="3.10678">
        <ele>105.661964</ele>
        <time>2023-01-02T08:56:41.909Z</time>
      </trkpt>
      <trkpt lat="39.34162" lon="3.10695">
        <ele>105.464941</ele>
        <time>2023-01-02T08:56:43.923Z</time>
      </trkpt>
      <trkpt lat="39.34165" lon="3.10713">
        <ele>105.261644</ele>
        <time>2023-01-02T08:56:45.902Z</time>
      </trkpt>
      <trkpt lat="39.34168" lon="3.1073">
        <ele>105.058681</ele>
        <time>2023-01-02T08:56:47.911Z</time>
      </trkpt>
      <trkpt lat="39.3417" lon="3.10748">
        <ele>104.859558</ele>
        <time>2023-01-02T08:56:49.913Z</time>
      </trkpt>
      <trkpt lat="39.34171" lon="3.10765">
        <ele>104.658538</ele>
        <time>2023-01-02T08:56:51.911Z</time>
      </trkpt>
      <trkpt lat="39.34174" lon="3.10783">
        <ele>104.456542</ele>
        <time>2023-01-02T08:56:53.910Z</time>
      </trkpt>
      <trkpt lat="39.34176" lon="3.108">
        <ele>104.261233</ele>
        <time>2023-01-02T08:56:55.910Z</time>
      </trkpt>
      <trkpt lat="39.34178" lon="3.10817">
        <ele>104.068593</ele>
        <time>2023-01-02T08:56:57.915Z</time>
      </trkpt>
      <trkpt lat="39.34179" lon="3.10834">
        <ele>103.877654</ele>
        <time>2023-01-02T08:56:59.902Z</time>
      </trkpt>
      <trkpt lat="39.34181" lon="3.10851">
        <ele>103.687649</ele>
        <time>2023-01-02T08:57:01.894Z</time>
      </trkpt>
      <trkpt lat="39.34183" lon="3.10867">
        <ele>103.501482</ele>
        <time>2023-01-02T08:57:03.908Z</time>
      </trkpt>
      <trkpt lat="39.34184" lon="3.10883">
        <ele>103.320005</ele>
        <time>2023-01-02T08:57:05.918Z</time>
      </trkpt>
      <trkpt lat="39.34186" lon="3.10899">
        <ele>103.280992</ele>
        <time>2023-01-02T08:57:07.926Z</time>
      </trkpt>
      <trkpt lat="39.34187" lon="3.10915">
        <ele>103.340897</ele>
        <time>2023-01-02T08:57:09.916Z</time>
      </trkpt>
      <trkpt lat="39.34189" lon="3.1093">
        <ele>103.397425</ele>
        <time>2023-01-02T08:57:11.906Z</time>
      </trkpt>
      <trkpt lat="39.34191" lon="3.10945">
        <ele>103.45629</ele>
        <time>2023-01-02T08:57:13.910Z</time>
      </trkpt>
      <trkpt lat="39.34192" lon="3.10961">
        <ele>103.513684</ele>
        <time>2023-01-02T08:57:15.908Z</time>
      </trkpt>
      <trkpt lat="39.34194" lon="3.10975">
        <ele>103.568214</ele>
        <time>2023-01-02T08:57:17.925Z</time>
      </trkpt>
      <trkpt lat="39.34195" lon="3.10989">
        <ele>103.621677</ele>
        <time>2023-01-02T08:57:19.917Z</time>
      </trkpt>
      <trkpt lat="39.34197" lon="3.11003">
        <ele>103.672451</ele>
        <time>2023-01-02T08:57:21.908Z</time>
      </trkpt>
      <trkpt lat="39.34198" lon="3.11017">
        <ele>103.723093</ele>
        <time>2023-01-02T08:57:23.911Z</time>
      </trkpt>
      <trkpt lat="39.342" lon="3.11029">
        <ele>103.770138</ele>
        <time>2023-01-02T08:57:25.918Z</time>
      </trkpt>
      <trkpt lat="39.34201" lon="3.11042">
        <ele>103.816753</ele>
        <time>2023-01-02T08:57:27.907Z</time>
      </trkpt>
      <trkpt lat="39.34201" lon="3.11053">
        <ele>103.86115</ele>
        <time>2023-01-02T08:57:29.916Z</time>
      </trkpt>
      <trkpt lat="39.34203" lon="3.11065">
        <ele>103.905633</ele>
        <time>2023-01-02T08:57:31.922Z</time>
      </trkpt>
      <trkpt lat="39.34204" lon="3.11077">
        <ele>103.951429</ele>
        <time>2023-01-02T08:57:33.916Z</time>
      </trkpt>
      <trkpt lat="39.34205" lon="3.11089">
        <ele>103.995875</ele>
        <time>2023-01-02T08:57:35.912Z</time>
      </trkpt>
      <trkpt lat="39.34207" lon="3.11101">
        <ele>104.039262</ele>
        <time>2023-01-02T08:57:37.916Z</time>
      </trkpt>
      <trkpt lat="39.34209" lon="3.11118">
        <ele>104.102673</ele>
        <time>2023-01-02T08:57:40.901Z</time>
      </trkpt>
      <trkpt lat="39.3421" lon="3.11134">
        <ele>104.196487</ele>
        <time>2023-01-02T08:57:43.905Z</time>
      </trkpt>
      <trkpt lat="39.34212" lon="3.11151">
        <ele>104.296538</ele>
        <time>2023-01-02T08:57:46.907Z</time>
      </trkpt>
      <trkpt lat="39.34214" lon="3.11168">
        <ele>104.396344</ele>
        <time>2023-01-02T08:57:49.910Z</time>
      </trkpt>
      <trkpt lat="39.34215" lon="3.1118">
        <ele>104.465086</ele>
        <time>2023-01-02T08:57:51.907Z</time>
      </trkpt>
      <trkpt lat="39.34217" lon="3.11192">
        <ele>104.536775</ele>
        <time>2023-01-02T08:57:53.911Z</time>
      </trkpt>
      <trkpt lat="39.34218" lon="3.11204">
        <ele>104.607483</ele>
        <time>2023-01-02T08:57:55.909Z</time>
      </trkpt>
      <trkpt lat="39.34219" lon="3.11216">
        <ele>104.679352</ele>
        <time>2023-01-02T08:57:57.932Z</time>
      </trkpt>
      <trkpt lat="39.3422" lon="3.11228">
        <ele>104.750644</ele>
        <time>2023-01-02T08:57:59.911Z</time>
      </trkpt>
      <trkpt lat="39.34222" lon="3.1124">
        <ele>104.820078</ele>
        <time>2023-01-02T08:58:01.909Z</time>
      </trkpt>
      <trkpt lat="39.34223" lon="3.11257">
        <ele>104.920815</ele>
        <time>2023-01-02T08:58:04.921Z</time>
      </trkpt>
      <trkpt lat="39.34225" lon="3.11272">
        <ele>105.014269</ele>
        <time>2023-01-02T08:58:07.912Z</time>
      </trkpt>
      <trkpt lat="39.34225" lon="3.11288">
        <ele>105.10283</ele>
        <time>2023-01-02T08:58:10.890Z</time>
      </trkpt>
      <trkpt lat="39.34221" lon="3.11299">
        <ele>105.17805</ele>
        <time>2023-01-02T08:58:13.946Z</time>
      </trkpt>
      <trkpt lat="39.34218" lon="3.11313">
        <ele>105.262668</ele>
        <time>2023-01-02T08:58:16.898Z</time>
      </trkpt>
      <trkpt lat="39.34219" lon="3.11328">
        <ele>105.34915</ele>
        <time>2023-01-02T08:58:19.909Z</time>
      </trkpt>
      <trkpt lat="39.34226" lon="3.11339">
        <ele>105.431307</ele>
        <time>2023-01-02T08:58:22.893Z</time>
      </trkpt>
      <trkpt lat="39.34236" lon="3.11344">
        <ele>105.441787</ele>
        <time>2023-01-02T08:58:25.897Z</time>
      </trkpt>
      <trkpt lat="39.34248" lon="3.11347">
        <ele>105.372497</ele>
        <time>2023-01-02T08:58:28.913Z</time>
      </trkpt>
      <trkpt lat="39.34259" lon="3.11357">
        <ele>105.294647</ele>
        <time>2023-01-02T08:58:31.916Z</time>
      </trkpt>
      <trkpt lat="39.34267" lon="3.11365">
        <ele>105.239001</ele>
        <time>2023-01-02T08:58:33.894Z</time>
      </trkpt>
      <trkpt lat="39.34273" lon="3.11374">
        <ele>105.184261</ele>
        <time>2023-01-02T08:58:35.946Z</time>
      </trkpt>
      <trkpt lat="39.3428" lon="3.11383">
        <ele>105.127857</ele>
        <time>2023-01-02T08:58:37.913Z</time>
      </trkpt>
      <trkpt lat="39.34287" lon="3.11391">
        <ele>105.072292</ele>
        <time>2023-01-02T08:58:39.894Z</time>
      </trkpt>
      <trkpt lat="39.34293" lon="3.114">
        <ele>105.019251</ele>
        <time>2023-01-02T08:58:41.911Z</time>
      </trkpt>
      <trkpt lat="39.343" lon="3.11409">
        <ele>104.963656</ele>
        <time>2023-01-02T08:58:43.911Z</time>
      </trkpt>
      <trkpt lat="39.34307" lon="3.11417">
        <ele>104.909539</ele>
        <time>2023-01-02T08:58:45.899Z</time>
      </trkpt>
      <trkpt lat="39.34314" lon="3.11426">
        <ele>104.854984</ele>
        <time>2023-01-02T08:58:47.913Z</time>
      </trkpt>
      <trkpt lat="39.34319" lon="3.11435">
        <ele>104.802505</ele>
        <time>2023-01-02T08:58:49.897Z</time>
      </trkpt>
      <trkpt lat="39.34325" lon="3.11444">
        <ele>104.749658</ele>
        <time>2023-01-02T08:58:51.889Z</time>
      </trkpt>
      <trkpt lat="39.34331" lon="3.11454">
        <ele>104.695442</ele>
        <time>2023-01-02T08:58:53.921Z</time>
      </trkpt>
      <trkpt lat="39.34337" lon="3.11464">
        <ele>104.640169</ele>
        <time>2023-01-02T08:58:55.903Z</time>
      </trkpt>
      <trkpt lat="39.34343" lon="3.11474">
        <ele>104.582745</ele>
        <time>2023-01-02T08:58:57.922Z</time>
      </trkpt>
      <trkpt lat="39.34349" lon="3.11485">
        <ele>104.524301</ele>
        <time>2023-01-02T08:58:59.909Z</time>
      </trkpt>
      <trkpt lat="39.34355" lon="3.11496">
        <ele>104.462685</ele>
        <time>2023-01-02T08:59:01.922Z</time>
      </trkpt>
      <trkpt lat="39.34362" lon="3.11507">
        <ele>104.273199</ele>
        <time>2023-01-02T08:59:03.913Z</time>
      </trkpt>
      <trkpt lat="39.34369" lon="3.11519">
        <ele>104.007158</ele>
        <time>2023-01-02T08:59:05.921Z</time>
      </trkpt>
      <trkpt lat="39.34375" lon="3.11531">
        <ele>103.736543</ele>
        <time>2023-01-02T08:59:07.909Z</time>
      </trkpt>
      <trkpt lat="39.34382" lon="3.11543">
        <ele>103.455801</ele>
        <time>2023-01-02T08:59:09.917Z</time>
      </trkpt>
      <trkpt lat="39.34389" lon="3.11556">
        <ele>103.170864</ele>
        <time>2023-01-02T08:59:11.905Z</time>
      </trkpt>
      <trkpt lat="39.34397" lon="3.11567">
        <ele>102.886806</ele>
        <time>2023-01-02T08:59:13.909Z</time>
      </trkpt>
      <trkpt lat="39.34407" lon="3.11578">
        <ele>102.583771</ele>
        <time>2023-01-02T08:59:15.913Z</time>
      </trkpt>
      <trkpt lat="39.34416" lon="3.1159">
        <ele>102.275277</ele>
        <time>2023-01-02T08:59:17.897Z</time>
      </trkpt>
      <trkpt lat="39.34426" lon="3.11601">
        <ele>101.961306</ele>
        <time>2023-01-02T08:59:19.910Z</time>
      </trkpt>
      <trkpt lat="39.34436" lon="3.11613">
        <ele>101.638847</ele>
        <time>2023-01-02T08:59:21.929Z</time>
      </trkpt>
      <trkpt lat="39.34446" lon="3.11625">
        <ele>101.327868</ele>
        <time>2023-01-02T08:59:23.890Z</time>
      </trkpt>
      <trkpt lat="39.34455" lon="3.11637">
        <ele>101.00886</ele>
        <time>2023-01-02T08:59:25.917Z</time>
      </trkpt>
      <trkpt lat="39.34465" lon="3.11649">
        <ele>100.696651</ele>
        <time>2023-01-02T08:59:27.912Z</time>
      </trkpt>
      <trkpt lat="39.34474" lon="3.11661">
        <ele>100.382342</ele>
        <time>2023-01-02T08:59:29.915Z</time>
      </trkpt>
      <trkpt lat="39.34485" lon="3.11673">
        <ele>100.003353</ele>
        <time>2023-01-02T08:59:31.918Z</time>
      </trkpt>
      <trkpt lat="39.34496" lon="3.11685">
        <ele>99.543736</ele>
        <time>2023-01-02T08:59:33.908Z</time>
      </trkpt>
      <trkpt lat="39.34507" lon="3.11698">
        <ele>99.05474</ele>
        <time>2023-01-02T08:59:35.908Z</time>
      </trkpt>
      <trkpt lat="39.34519" lon="3.11713">
        <ele>98.53307</ele>
        <time>2023-01-02T08:59:37.912Z</time>
      </trkpt>
      <trkpt lat="39.3453" lon="3.11729">
        <ele>97.998517</ele>
        <time>2023-01-02T08:59:39.898Z</time>
      </trkpt>
      <trkpt lat="39.3454" lon="3.11747">
        <ele>97.454979</ele>
        <time>2023-01-02T08:59:41.912Z</time>
      </trkpt>
      <trkpt lat="39.34548" lon="3.11766">
        <ele>96.910766</ele>
        <time>2023-01-02T08:59:43.903Z</time>
      </trkpt>
      <trkpt lat="39.34555" lon="3.11785">
        <ele>96.384297</ele>
        <time>2023-01-02T08:59:45.898Z</time>
      </trkpt>
      <trkpt lat="39.34562" lon="3.11804">
        <ele>95.862939</ele>
        <time>2023-01-02T08:59:47.928Z</time>
      </trkpt>
      <trkpt lat="39.3457" lon="3.11823">
        <ele>95.334265</ele>
        <time>2023-01-02T08:59:49.906Z</time>
      </trkpt>
      <trkpt lat="39.34576" lon="3.11841">
        <ele>94.834255</ele>
        <time>2023-01-02T08:59:51.927Z</time>
      </trkpt>
      <trkpt lat="39.34583" lon="3.11859">
        <ele>94.368523</ele>
        <time>2023-01-02T08:59:53.906Z</time>
      </trkpt>
      <trkpt lat="39.3459" lon="3.11877">
        <ele>94.116356</ele>
        <time>2023-01-02T08:59:55.909Z</time>
      </trkpt>
      <trkpt lat="39.34596" lon="3.11894">
        <ele>93.87901</ele>
        <time>2023-01-02T08:59:57.907Z</time>
      </trkpt>
      <trkpt lat="39.34603" lon="3.11911">
        <ele>93.642924</ele>
        <time>2023-01-02T08:59:59.908Z</time>
      </trkpt>
      <trkpt lat="39.34609" lon="3.11926">
        <ele>93.42404</ele>
        <time>2023-01-02T09:00:01.912Z</time>
      </trkpt>
      <trkpt lat="39.34618" lon="3.11939">
        <ele>93.203847</ele>
        <time>2023-01-02T09:00:03.899Z</time>
      </trkpt>
      <trkpt lat="39.34629" lon="3.11949">
        <ele>92.97896</ele>
        <time>2023-01-02T09:00:05.902Z</time>
      </trkpt>
      <trkpt lat="39.34643" lon="3.11954">
        <ele>92.747455</ele>
        <time>2023-01-02T09:00:07.892Z</time>
      </trkpt>
      <trkpt lat="39.34657" lon="3.11956">
        <ele>92.52056</ele>
        <time>2023-01-02T09:00:09.893Z</time>
      </trkpt>
      <trkpt lat="39.34671" lon="3.11958">
        <ele>92.282578</ele>
        <time>2023-01-02T09:00:11.911Z</time>
      </trkpt>
      <trkpt lat="39.34686" lon="3.1196">
        <ele>92.04622</ele>
        <time>2023-01-02T09:00:13.915Z</time>
      </trkpt>
      <trkpt lat="39.347" lon="3.11962">
        <ele>91.811069</ele>
        <time>2023-01-02T09:00:15.906Z</time>
      </trkpt>
      <trkpt lat="39.34714" lon="3.11965">
        <ele>91.573289</ele>
        <time>2023-01-02T09:00:17.915Z</time>
      </trkpt>
      <trkpt lat="39.34728" lon="3.11968">
        <ele>91.422323</ele>
        <time>2023-01-02T09:00:19.912Z</time>
      </trkpt>
      <trkpt lat="39.34742" lon="3.1197">
        <ele>91.346577</ele>
        <time>2023-01-02T09:00:21.918Z</time>
      </trkpt>
      <trkpt lat="39.34755" lon="3.11972">
        <ele>91.270395</ele>
        <time>2023-01-02T09:00:23.914Z</time>
      </trkpt>
      <trkpt lat="39.34768" lon="3.11975">
        <ele>91.196488</ele>
        <time>2023-01-02T09:00:25.915Z</time>
      </trkpt>
      <trkpt lat="39.34781" lon="3.11977">
        <ele>91.125787</ele>
        <time>2023-01-02T09:00:27.913Z</time>
      </trkpt>
      <trkpt lat="39.34793" lon="3.11979">
        <ele>91.055702</ele>
        <time>2023-01-02T09:00:29.907Z</time>
      </trkpt>
      <trkpt lat="39.34805" lon="3.11982">
        <ele>90.986107</ele>
        <time>2023-01-02T09:00:31.914Z</time>
      </trkpt>
      <trkpt lat="39.34818" lon="3.11984">
        <ele>90.916512</ele>
        <time>2023-01-02T09:00:33.917Z</time>
      </trkpt>
      <trkpt lat="39.3483" lon="3.11989">
        <ele>90.846904</ele>
        <time>2023-01-02T09:00:35.900Z</time>
      </trkpt>
      <trkpt lat="39.3484" lon="3.11998">
        <ele>90.778074</ele>
        <time>2023-01-02T09:00:37.908Z</time>
      </trkpt>
      <trkpt lat="39.34849" lon="3.12008">
        <ele>90.711377</ele>
        <time>2023-01-02T09:00:39.909Z</time>
      </trkpt>
      <trkpt lat="39.34857" lon="3.12019">
        <ele>90.645973</ele>
        <time>2023-01-02T09:00:41.909Z</time>
      </trkpt>
      <trkpt lat="39.34864" lon="3.1203">
        <ele>90.583544</ele>
        <time>2023-01-02T09:00:43.917Z</time>
      </trkpt>
      <trkpt lat="39.34872" lon="3.1204">
        <ele>90.520938</ele>
        <time>2023-01-02T09:00:45.911Z</time>
      </trkpt>
      <trkpt lat="39.34879" lon="3.1205">
        <ele>90.460277</ele>
        <time>2023-01-02T09:00:47.903Z</time>
      </trkpt>
      <trkpt lat="39.34887" lon="3.12062">
        <ele>90.428264</ele>
        <time>2023-01-02T09:00:49.914Z</time>
      </trkpt>
      <trkpt lat="39.34894" lon="3.12073">
        <ele>90.398938</ele>
        <time>2023-01-02T09:00:51.920Z</time>
      </trkpt>
      <trkpt lat="39.34901" lon="3.12083">
        <ele>90.370257</ele>
        <time>2023-01-02T09:00:53.916Z</time>
      </trkpt>
      <trkpt lat="39.34908" lon="3.12092">
        <ele>90.342471</ele>
        <time>2023-01-02T09:00:55.909Z</time>
      </trkpt>
      <trkpt lat="39.34915" lon="3.12103">
        <ele>90.313361</ele>
        <time>2023-01-02T09:00:57.914Z</time>
      </trkpt>
      <trkpt lat="39.34922" lon="3.12113">
        <ele>90.28638</ele>
        <time>2023-01-02T09:00:59.910Z</time>
      </trkpt>
      <trkpt lat="39.34928" lon="3.12123">
        <ele>90.259346</ele>
        <time>2023-01-02T09:01:01.911Z</time>
      </trkpt>
      <trkpt lat="39.34935" lon="3.12132">
        <ele>90.23262</ele>
        <time>2023-01-02T09:01:03.913Z</time>
      </trkpt>
      <trkpt lat="39.34941" lon="3.12142">
        <ele>90.206117</ele>
        <time>2023-01-02T09:01:05.913Z</time>
      </trkpt>
      <trkpt lat="39.34948" lon="3.12151">
        <ele>90.17975</ele>
        <time>2023-01-02T09:01:07.908Z</time>
      </trkpt>
      <trkpt lat="39.34954" lon="3.12161">
        <ele>90.152929</ele>
        <time>2023-01-02T09:01:09.912Z</time>
      </trkpt>
      <trkpt lat="39.34961" lon="3.12171">
        <ele>90.12674</ele>
        <time>2023-01-02T09:01:11.907Z</time>
      </trkpt>
      <trkpt lat="39.34967" lon="3.1218">
        <ele>90.100472</ele>
        <time>2023-01-02T09:01:13.914Z</time>
      </trkpt>
      <trkpt lat="39.34974" lon="3.1219">
        <ele>90.073772</ele>
        <time>2023-01-02T09:01:15.911Z</time>
      </trkpt>
      <trkpt lat="39.34981" lon="3.12199">
        <ele>90.047133</ele>
        <time>2023-01-02T09:01:17.916Z</time>
      </trkpt>
      <trkpt lat="39.34987" lon="3.12209">
        <ele>90.020139</ele>
        <time>2023-01-02T09:01:19.908Z</time>
      </trkpt>
      <trkpt lat="39.34994" lon="3.12218">
        <ele>89.993773</ele>
        <time>2023-01-02T09:01:21.915Z</time>
      </trkpt>
      <trkpt lat="39.35" lon="3.12228">
        <ele>89.966929</ele>
        <time>2023-01-02T09:01:23.929Z</time>
      </trkpt>
      <trkpt lat="39.35007" lon="3.12237">
        <ele>89.940347</ele>
        <time>2023-01-02T09:01:25.928Z</time>
      </trkpt>
      <trkpt lat="39.35014" lon="3.12246">
        <ele>89.913451</ele>
        <time>2023-01-02T09:01:27.919Z</time>
      </trkpt>
      <trkpt lat="39.3502" lon="3.12256">
        <ele>89.885928</ele>
        <time>2023-01-02T09:01:29.929Z</time>
      </trkpt>
      <trkpt lat="39.35026" lon="3.12266">
        <ele>89.858921</ele>
        <time>2023-01-02T09:01:31.911Z</time>
      </trkpt>
      <trkpt lat="39.35033" lon="3.12275">
        <ele>89.831887</ele>
        <time>2023-01-02T09:01:33.915Z</time>
      </trkpt>
      <trkpt lat="39.35039" lon="3.12285">
        <ele>89.805013</ele>
        <time>2023-01-02T09:01:35.911Z</time>
      </trkpt>
      <trkpt lat="39.35045" lon="3.12294">
        <ele>89.778157</ele>
        <time>2023-01-02T09:01:37.921Z</time>
      </trkpt>
      <trkpt lat="39.35051" lon="3.12304">
        <ele>89.751995</ele>
        <time>2023-01-02T09:01:39.906Z</time>
      </trkpt>
      <trkpt lat="39.35058" lon="3.12313">
        <ele>89.725759</ele>
        <time>2023-01-02T09:01:41.909Z</time>
      </trkpt>
      <trkpt lat="39.35064" lon="3.12322">
        <ele>89.699148</ele>
        <time>2023-01-02T09:01:43.917Z</time>
      </trkpt>
      <trkpt lat="39.35071" lon="3.12331">
        <ele>89.673598</ele>
        <time>2023-01-02T09:01:45.938Z</time>
      </trkpt>
      <trkpt lat="39.35078" lon="3.12344">
        <ele>89.639009</ele>
        <time>2023-01-02T09:01:48.914Z</time>
      </trkpt>
      <trkpt lat="39.35083" lon="3.12358">
        <ele>89.605954</ele>
        <time>2023-01-02T09:01:51.913Z</time>
      </trkpt>
      <trkpt lat="39.35093" lon="3.12369">
        <ele>89.570228</ele>
        <time>2023-01-02T09:01:54.905Z</time>
      </trkpt>
      <trkpt lat="39.35103" lon="3.12381">
        <ele>89.533459</ele>
        <time>2023-01-02T09:01:57.924Z</time>
      </trkpt>
      <trkpt lat="39.35108" lon="3.1239">
        <ele>89.508653</ele>
        <time>2023-01-02T09:01:59.904Z</time>
      </trkpt>
      <trkpt lat="39.35119" lon="3.124">
        <ele>89.503077</ele>
        <time>2023-01-02T09:02:02.908Z</time>
      </trkpt>
      <trkpt lat="39.35128" lon="3.12412">
        <ele>89.660829</ele>
        <time>2023-01-02T09:02:05.912Z</time>
      </trkpt>
      <trkpt lat="39.35137" lon="3.12425">
        <ele>89.818444</ele>
        <time>2023-01-02T09:02:08.905Z</time>
      </trkpt>
      <trkpt lat="39.35143" lon="3.12433">
        <ele>89.928802</ele>
        <time>2023-01-02T09:02:10.903Z</time>
      </trkpt>
      <trkpt lat="39.35149" lon="3.12442">
        <ele>90.038039</ele>
        <time>2023-01-02T09:02:12.911Z</time>
      </trkpt>
      <trkpt lat="39.35157" lon="3.12454">
        <ele>90.186474</ele>
        <time>2023-01-02T09:02:15.925Z</time>
      </trkpt>
      <trkpt lat="39.35165" lon="3.12467">
        <ele>90.340739</ele>
        <time>2023-01-02T09:02:18.914Z</time>
      </trkpt>
      <trkpt lat="39.35171" lon="3.12476">
        <ele>90.449931</ele>
        <time>2023-01-02T09:02:20.894Z</time>
      </trkpt>
      <trkpt lat="39.35177" lon="3.12485">
        <ele>90.559122</ele>
        <time>2023-01-02T09:02:22.906Z</time>
      </trkpt>
      <trkpt lat="39.35185" lon="3.12498">
        <ele>90.716522</ele>
        <time>2023-01-02T09:02:25.905Z</time>
      </trkpt>
      <trkpt lat="39.35193" lon="3.12509">
        <ele>90.857455</ele>
        <time>2023-01-02T09:02:28.899Z</time>
      </trkpt>
      <trkpt lat="39.35201" lon="3.12521">
        <ele>90.998801</ele>
        <time>2023-01-02T09:02:31.885Z</time>
      </trkpt>
      <trkpt lat="39.35206" lon="3.12531">
        <ele>91.118357</ele>
        <time>2023-01-02T09:02:34.908Z</time>
      </trkpt>
      <trkpt lat="39.35213" lon="3.12541">
        <ele>91.239326</ele>
        <time>2023-01-02T09:02:37.904Z</time>
      </trkpt>
      <trkpt lat="39.35219" lon="3.12551">
        <ele>91.355234</ele>
        <time>2023-01-02T09:02:40.897Z</time>
      </trkpt>
      <trkpt lat="39.35226" lon="3.12559">
        <ele>91.475566</ele>
        <time>2023-01-02T09:02:43.905Z</time>
      </trkpt>
      <trkpt lat="39.35233" lon="3.12567">
        <ele>91.587897</ele>
        <time>2023-01-02T09:02:46.910Z</time>
      </trkpt>
      <trkpt lat="39.35242" lon="3.12573">
        <ele>91.716954</ele>
        <time>2023-01-02T09:02:49.894Z</time>
      </trkpt>
      <trkpt lat="39.35251" lon="3.12578">
        <ele>91.87161</ele>
        <time>2023-01-02T09:02:52.892Z</time>
      </trkpt>
      <trkpt lat="39.35261" lon="3.12582">
        <ele>92.024098</ele>
        <time>2023-01-02T09:02:55.908Z</time>
      </trkpt>
      <trkpt lat="39.35271" lon="3.12587">
        <ele>92.194961</ele>
        <time>2023-01-02T09:02:58.917Z</time>
      </trkpt>
      <trkpt lat="39.3528" lon="3.12598">
        <ele>92.369649</ele>
        <time>2023-01-02T09:03:01.895Z</time>
      </trkpt>
      <trkpt lat="39.35288" lon="3.12609">
        <ele>92.549506</ele>
        <time>2023-01-02T09:03:04.906Z</time>
      </trkpt>
      <trkpt lat="39.35297" lon="3.1262">
        <ele>92.731249</ele>
        <time>2023-01-02T09:03:07.919Z</time>
      </trkpt>
      <trkpt lat="39.35306" lon="3.12631">
        <ele>92.915969</ele>
        <time>2023-01-02T09:03:10.896Z</time>
      </trkpt>
      <trkpt lat="39.35314" lon="3.12641">
        <ele>93.090126</ele>
        <time>2023-01-02T09:03:13.906Z</time>
      </trkpt>
      <trkpt lat="39.35323" lon="3.1265">
        <ele>93.262725</ele>
        <time>2023-01-02T09:03:16.905Z</time>
      </trkpt>
      <trkpt lat="39.35333" lon="3.12658">
        <ele>93.431469</ele>
        <time>2023-01-02T09:03:19.907Z</time>
      </trkpt>
      <trkpt lat="39.35342" lon="3.12665">
        <ele>93.600319</ele>
        <time>2023-01-02T09:03:22.899Z</time>
      </trkpt>
      <trkpt lat="39.35353" lon="3.12673">
        <ele>93.788155</ele>
        <time>2023-01-02T09:03:25.906Z</time>
      </trkpt>
      <trkpt lat="39.35362" lon="3.1268">
        <ele>93.951351</ele>
        <time>2023-01-02T09:03:28.901Z</time>
      </trkpt>
      <trkpt lat="39.35371" lon="3.12687">
        <ele>94.104562</ele>
        <time>2023-01-02T09:03:31.908Z</time>
      </trkpt>
      <trkpt lat="39.35379" lon="3.12694">
        <ele>94.255123</ele>
        <time>2023-01-02T09:03:34.911Z</time>
      </trkpt>
      <trkpt lat="39.35388" lon="3.12702">
        <ele>94.472761</ele>
        <time>2023-01-02T09:03:37.911Z</time>
      </trkpt>
      <trkpt lat="39.35397" lon="3.12709">
        <ele>94.830543</ele>
        <time>2023-01-02T09:03:40.896Z</time>
      </trkpt>
      <trkpt lat="39.35406" lon="3.12715">
        <ele>95.183235</ele>
        <time>2023-01-02T09:03:43.906Z</time>
      </trkpt>
      <trkpt lat="39.35415" lon="3.12723">
        <ele>95.552436</ele>
        <time>2023-01-02T09:03:46.910Z</time>
      </trkpt>
      <trkpt lat="39.35424" lon="3.1273">
        <ele>95.917433</ele>
        <time>2023-01-02T09:03:49.906Z</time>
      </trkpt>
      <trkpt lat="39.35433" lon="3.12737">
        <ele>96.269535</ele>
        <time>2023-01-02T09:03:52.898Z</time>
      </trkpt>
      <trkpt lat="39.35441" lon="3.12744">
        <ele>96.607201</ele>
        <time>2023-01-02T09:03:55.898Z</time>
      </trkpt>
      <trkpt lat="39.35449" lon="3.12751">
        <ele>96.929228</ele>
        <time>2023-01-02T09:03:58.911Z</time>
      </trkpt>
      <trkpt lat="39.35458" lon="3.12758">
        <ele>97.303019</ele>
        <time>2023-01-02T09:04:02.907Z</time>
      </trkpt>
      <trkpt lat="39.35467" lon="3.12764">
        <ele>97.652727</ele>
        <time>2023-01-02T09:04:06.903Z</time>
      </trkpt>
      <trkpt lat="39.35476" lon="3.12771">
        <ele>98.023577</ele>
        <time>2023-01-02T09:04:10.920Z</time>
      </trkpt>
      <trkpt lat="39.35485" lon="3.12777">
        <ele>98.357906</ele>
        <time>2023-01-02T09:04:14.909Z</time>
      </trkpt>
      <trkpt lat="39.3549" lon="3.12789">
        <ele>98.716206</ele>
        <time>2023-01-02T09:04:19.898Z</time>
      </trkpt>
      <trkpt lat="39.35488" lon="3.12802">
        <ele>99.065686</ele>
        <time>2023-01-02T09:04:24.898Z</time>
      </trkpt>
      <trkpt lat="39.35487" lon="3.12814">
        <ele>99.387277</ele>
        <time>2023-01-02T09:04:28.911Z</time>
      </trkpt>
      <trkpt lat="39.35487" lon="3.12828">
        <ele>99.742591</ele>
        <time>2023-01-02T09:04:32.917Z</time>
      </trkpt>
      <trkpt lat="39.35488" lon="3.12841">
        <ele>100.097905</ele>
        <time>2023-01-02T09:04:36.906Z</time>
      </trkpt>
      <trkpt lat="39.35489" lon="3.12853">
        <ele>100.419186</ele>
        <time>2023-01-02T09:04:40.892Z</time>
      </trkpt>
      <trkpt lat="39.3549" lon="3.12866">
        <ele>100.542636</ele>
        <time>2023-01-02T09:04:44.902Z</time>
      </trkpt>
      <trkpt lat="39.35492" lon="3.12879">
        <ele>100.597824</ele>
        <time>2023-01-02T09:04:49.898Z</time>
      </trkpt>
      <trkpt lat="39.35493" lon="3.12893">
        <ele>100.651169</ele>
        <time>2023-01-02T09:04:55.904Z</time>
      </trkpt>
      <trkpt lat="39.35493" lon="3.12906">
        <ele>100.704878</ele>
        <time>2023-01-02T09:05:00.921Z</time>
      </trkpt>
      <trkpt lat="39.35497" lon="3.12917">
        <ele>100.753421</ele>
        <time>2023-01-02T09:05:05.906Z</time>
      </trkpt>
      <trkpt lat="39.35506" lon="3.1292">
        <ele>100.803562</ele>
        <time>2023-01-02T09:05:10.904Z</time>
      </trkpt>
      <trkpt lat="39.35514" lon="3.12928">
        <ele>100.853249</ele>
        <time>2023-01-02T09:05:18.891Z</time>
      </trkpt>
      <trkpt lat="39.3551" lon="3.1294">
        <ele>100.903335</ele>
        <time>2023-01-02T09:05:24.906Z</time>
      </trkpt>
      <trkpt lat="39.35517" lon="3.12929">
        <ele>100.95898</ele>
        <time>2023-01-02T09:05:36.888Z</time>
      </trkpt>
      <trkpt lat="39.35516" lon="3.12922">
        <ele>100.988048</ele>
        <time>2023-01-02T09:05:50.543Z</time>
      </trkpt>
      <trkpt lat="39.35508" lon="3.12938">
        <ele>101.065677</ele>
        <time>2023-01-02T09:07:52.906Z</time>
      </trkpt>
      <trkpt lat="39.35505" lon="3.1295">
        <ele>101.113944</ele>
        <time>2023-01-02T09:07:57.890Z</time>
      </trkpt>
      <trkpt lat="39.35499" lon="3.1296">
        <ele>101.165476</ele>
        <time>2023-01-02T09:08:03.890Z</time>
      </trkpt>
      <trkpt lat="39.35496" lon="3.12973">
        <ele>101.220498</ele>
        <time>2023-01-02T09:08:08.913Z</time>
      </trkpt>
      <trkpt lat="39.35496" lon="3.12985">
        <ele>101.268558</ele>
        <time>2023-01-02T09:08:12.894Z</time>
      </trkpt>
      <trkpt lat="39.35495" lon="3.12999">
        <ele>101.322598</ele>
        <time>2023-01-02T09:08:16.900Z</time>
      </trkpt>
      <trkpt lat="39.35497" lon="3.13011">
        <ele>101.372301</ele>
        <time>2023-01-02T09:08:20.903Z</time>
      </trkpt>
      <trkpt lat="39.35489" lon="3.13017">
        <ele>101.419318</ele>
        <time>2023-01-02T09:08:26.917Z</time>
      </trkpt>
      <trkpt lat="39.35479" lon="3.13022">
        <ele>101.129772</ele>
        <time>2023-01-02T09:08:30.902Z</time>
      </trkpt>
      <trkpt lat="39.35471" lon="3.13032">
        <ele>100.751661</ele>
        <time>2023-01-02T09:08:33.895Z</time>
      </trkpt>
      <trkpt lat="39.35462" lon="3.13041">
        <ele>100.373732</ele>
        <time>2023-01-02T09:08:36.887Z</time>
      </trkpt>
      <trkpt lat="39.35457" lon="3.13051">
        <ele>100.040934</ele>
        <time>2023-01-02T09:08:39.905Z</time>
      </trkpt>
      <trkpt lat="39.35451" lon="3.13063">
        <ele>99.641498</ele>
        <time>2023-01-02T09:08:43.907Z</time>
      </trkpt>
      <trkpt lat="39.35445" lon="3.13074">
        <ele>99.295164</ele>
        <time>2023-01-02T09:08:46.911Z</time>
      </trkpt>
      <trkpt lat="39.35444" lon="3.13087">
        <ele>98.956829</ele>
        <time>2023-01-02T09:08:50.891Z</time>
      </trkpt>
      <trkpt lat="39.35454" lon="3.13093">
        <ele>98.58166</ele>
        <time>2023-01-02T09:08:54.903Z</time>
      </trkpt>
      <trkpt lat="39.35462" lon="3.13098">
        <ele>98.268122</ele>
        <time>2023-01-02T09:08:57.922Z</time>
      </trkpt>
      <trkpt lat="39.35472" lon="3.13104">
        <ele>97.879175</ele>
        <time>2023-01-02T09:09:00.900Z</time>
      </trkpt>
      <trkpt lat="39.35483" lon="3.13112">
        <ele>97.44807</ele>
        <time>2023-01-02T09:09:03.907Z</time>
      </trkpt>
      <trkpt lat="39.35494" lon="3.13119">
        <ele>97.034252</ele>
        <time>2023-01-02T09:09:06.919Z</time>
      </trkpt>
      <trkpt lat="39.35503" lon="3.13125">
        <ele>96.66368</ele>
        <time>2023-01-02T09:09:09.907Z</time>
      </trkpt>
      <trkpt lat="39.35519" lon="3.13134">
        <ele>96.061084</ele>
        <time>2023-01-02T09:09:44.910Z</time>
      </trkpt>
      <trkpt lat="39.35529" lon="3.13138">
        <ele>95.712231</ele>
        <time>2023-01-02T09:09:47.924Z</time>
      </trkpt>
      <trkpt lat="39.35538" lon="3.13143">
        <ele>95.360448</ele>
        <time>2023-01-02T09:09:50.902Z</time>
      </trkpt>
      <trkpt lat="39.35548" lon="3.13149">
        <ele>95.397247</ele>
        <time>2023-01-02T09:09:53.914Z</time>
      </trkpt>
      <trkpt lat="39.35558" lon="3.13153">
        <ele>95.730747</ele>
        <time>2023-01-02T09:09:56.895Z</time>
      </trkpt>
      <trkpt lat="39.35567" lon="3.13159">
        <ele>96.092272</ele>
        <time>2023-01-02T09:09:59.902Z</time>
      </trkpt>
      <trkpt lat="39.35578" lon="3.13167">
        <ele>96.492544</ele>
        <time>2023-01-02T09:10:02.908Z</time>
      </trkpt>
      <trkpt lat="39.35589" lon="3.13175">
        <ele>96.937714</ele>
        <time>2023-01-02T09:10:05.892Z</time>
      </trkpt>
      <trkpt lat="39.356" lon="3.13182">
        <ele>97.352177</ele>
        <time>2023-01-02T09:10:08.898Z</time>
      </trkpt>
      <trkpt lat="39.35608" lon="3.13192">
        <ele>97.732991</ele>
        <time>2023-01-02T09:10:11.904Z</time>
      </trkpt>
      <trkpt lat="39.35618" lon="3.13201">
        <ele>98.151122</ele>
        <time>2023-01-02T09:10:14.910Z</time>
      </trkpt>
      <trkpt lat="39.35628" lon="3.13212">
        <ele>98.597516</ele>
        <time>2023-01-02T09:10:17.897Z</time>
      </trkpt>
      <trkpt lat="39.35637" lon="3.13224">
        <ele>99.02489</ele>
        <time>2023-01-02T09:10:20.888Z</time>
      </trkpt>
      <trkpt lat="39.35646" lon="3.13237">
        <ele>99.475615</ele>
        <time>2023-01-02T09:10:23.915Z</time>
      </trkpt>
      <trkpt lat="39.35653" lon="3.13246">
        <ele>99.814107</ele>
        <time>2023-01-02T09:10:25.916Z</time>
      </trkpt>
      <trkpt lat="39.3566" lon="3.13255">
        <ele>100.156305</ele>
        <time>2023-01-02T09:10:27.930Z</time>
      </trkpt>
      <trkpt lat="39.35667" lon="3.13264">
        <ele>100.496645</ele>
        <time>2023-01-02T09:10:29.924Z</time>
      </trkpt>
      <trkpt lat="39.35674" lon="3.13273">
        <ele>100.830889</ele>
        <time>2023-01-02T09:10:31.890Z</time>
      </trkpt>
      <trkpt lat="39.35681" lon="3.13283">
        <ele>101.16141</ele>
        <time>2023-01-02T09:10:33.916Z</time>
      </trkpt>
      <trkpt lat="39.35688" lon="3.13291">
        <ele>101.373064</ele>
        <time>2023-01-02T09:10:35.913Z</time>
      </trkpt>
      <trkpt lat="39.35694" lon="3.13301">
        <ele>101.520857</ele>
        <time>2023-01-02T09:10:37.897Z</time>
      </trkpt>
      <trkpt lat="39.35701" lon="3.1331">
        <ele>101.66675</ele>
        <time>2023-01-02T09:10:39.909Z</time>
      </trkpt>
      <trkpt lat="39.35707" lon="3.13319">
        <ele>101.812252</ele>
        <time>2023-01-02T09:10:41.910Z</time>
      </trkpt>
      <trkpt lat="39.35714" lon="3.13333">
        <ele>102.009931</ele>
        <time>2023-01-02T09:10:44.900Z</time>
      </trkpt>
      <trkpt lat="39.35722" lon="3.13343">
        <ele>102.180204</ele>
        <time>2023-01-02T09:10:47.919Z</time>
      </trkpt>
      <trkpt lat="39.35732" lon="3.13345">
        <ele>102.331309</ele>
        <time>2023-01-02T09:10:50.914Z</time>
      </trkpt>
      <trkpt lat="39.35741" lon="3.13342">
        <ele>102.467935</ele>
        <time>2023-01-02T09:10:53.912Z</time>
      </trkpt>
      <trkpt lat="39.35749" lon="3.13351">
        <ele>102.631765</ele>
        <time>2023-01-02T09:10:58.908Z</time>
      </trkpt>
      <trkpt lat="39.35752" lon="3.13364">
        <ele>102.786153</ele>
        <time>2023-01-02T09:11:01.907Z</time>
      </trkpt>
      <trkpt lat="39.35756" lon="3.13377">
        <ele>102.953662</ele>
        <time>2023-01-02T09:11:04.914Z</time>
      </trkpt>
      <trkpt lat="39.35759" lon="3.13391">
        <ele>103.127894</ele>
        <time>2023-01-02T09:11:07.925Z</time>
      </trkpt>
      <trkpt lat="39.35763" lon="3.13407">
        <ele>103.323432</ele>
        <time>2023-01-02T09:11:10.904Z</time>
      </trkpt>
      <trkpt lat="39.35767" lon="3.13423">
        <ele>103.520993</ele>
        <time>2023-01-02T09:11:13.904Z</time>
      </trkpt>
      <trkpt lat="39.35769" lon="3.13434">
        <ele>103.657459</ele>
        <time>2023-01-02T09:11:15.927Z</time>
      </trkpt>
      <trkpt lat="39.35771" lon="3.13446">
        <ele>103.798113</ele>
        <time>2023-01-02T09:11:17.906Z</time>
      </trkpt>
      <trkpt lat="39.35774" lon="3.13457">
        <ele>103.935338</ele>
        <time>2023-01-02T09:11:19.908Z</time>
      </trkpt>
      <trkpt lat="39.35777" lon="3.13474">
        <ele>104.062726</ele>
        <time>2023-01-02T09:11:22.916Z</time>
      </trkpt>
      <trkpt lat="39.35779" lon="3.13486">
        <ele>104.115622</ele>
        <time>2023-01-02T09:11:24.910Z</time>
      </trkpt>
      <trkpt lat="39.3578" lon="3.13498">
        <ele>104.169343</ele>
        <time>2023-01-02T09:11:26.910Z</time>
      </trkpt>
      <trkpt lat="39.35783" lon="3.13511">
        <ele>104.225923</ele>
        <time>2023-01-02T09:11:28.920Z</time>
      </trkpt>
      <trkpt lat="39.35786" lon="3.13523">
        <ele>104.282639</ele>
        <time>2023-01-02T09:11:30.902Z</time>
      </trkpt>
      <trkpt lat="39.35789" lon="3.13536">
        <ele>104.340358</ele>
        <time>2023-01-02T09:11:32.906Z</time>
      </trkpt>
      <trkpt lat="39.35792" lon="3.13548">
        <ele>104.395108</ele>
        <time>2023-01-02T09:11:34.933Z</time>
      </trkpt>
      <trkpt lat="39.35795" lon="3.13559">
        <ele>104.448688</ele>
        <time>2023-01-02T09:11:36.922Z</time>
      </trkpt>
      <trkpt lat="39.35799" lon="3.13571">
        <ele>104.504592</ele>
        <time>2023-01-02T09:11:38.930Z</time>
      </trkpt>
      <trkpt lat="39.35802" lon="3.13583">
        <ele>104.559342</ele>
        <time>2023-01-02T09:11:40.907Z</time>
      </trkpt>
      <trkpt lat="39.35806" lon="3.13596">
        <ele>104.615648</ele>
        <time>2023-01-02T09:11:42.904Z</time>
      </trkpt>
      <trkpt lat="39.35809" lon="3.13607">
        <ele>104.670743</ele>
        <time>2023-01-02T09:11:44.925Z</time>
      </trkpt>
      <trkpt lat="39.35812" lon="3.13619">
        <ele>104.724039</ele>
        <time>2023-01-02T09:11:46.905Z</time>
      </trkpt>
      <trkpt lat="39.35815" lon="3.13631">
        <ele>104.776213</ele>
        <time>2023-01-02T09:11:48.903Z</time>
      </trkpt>
      <trkpt lat="39.3582" lon="3.13647">
        <ele>104.850923</ele>
        <time>2023-01-02T09:11:51.936Z</time>
      </trkpt>
      <trkpt lat="39.35823" lon="3.13663">
        <ele>104.92319</ele>
        <time>2023-01-02T09:11:54.920Z</time>
      </trkpt>
      <trkpt lat="39.35828" lon="3.13678">
        <ele>104.994453</ele>
        <time>2023-01-02T09:11:57.919Z</time>
      </trkpt>
      <trkpt lat="39.35833" lon="3.13693">
        <ele>104.967626</ele>
        <time>2023-01-02T09:12:00.889Z</time>
      </trkpt>
      <trkpt lat="39.35837" lon="3.13709">
        <ele>104.867797</ele>
        <time>2023-01-02T09:12:03.915Z</time>
      </trkpt>
      <trkpt lat="39.35838" lon="3.13725">
        <ele>104.765191</ele>
        <time>2023-01-02T09:12:06.918Z</time>
      </trkpt>
      <trkpt lat="39.35835" lon="3.1374">
        <ele>104.669176</ele>
        <time>2023-01-02T09:12:09.910Z</time>
      </trkpt>
      <trkpt lat="39.35829" lon="3.13755">
        <ele>104.567559</ele>
        <time>2023-01-02T09:12:12.921Z</time>
      </trkpt>
      <trkpt lat="39.35825" lon="3.13766">
        <ele>104.495346</ele>
        <time>2023-01-02T09:12:14.911Z</time>
      </trkpt>
      <trkpt lat="39.35821" lon="3.13777">
        <ele>104.421694</ele>
        <time>2023-01-02T09:12:16.908Z</time>
      </trkpt>
      <trkpt lat="39.35817" lon="3.13793">
        <ele>104.3155</ele>
        <time>2023-01-02T09:12:19.910Z</time>
      </trkpt>
      <trkpt lat="39.35814" lon="3.13805">
        <ele>104.239904</ele>
        <time>2023-01-02T09:12:21.907Z</time>
      </trkpt>
      <trkpt lat="39.35812" lon="3.13817">
        <ele>104.162541</ele>
        <time>2023-01-02T09:12:23.918Z</time>
      </trkpt>
      <trkpt lat="39.35809" lon="3.1383">
        <ele>104.083409</ele>
        <time>2023-01-02T09:12:25.923Z</time>
      </trkpt>
      <trkpt lat="39.35807" lon="3.13843">
        <ele>103.998952</ele>
        <time>2023-01-02T09:12:27.910Z</time>
      </trkpt>
      <trkpt lat="39.35803" lon="3.13857">
        <ele>103.914032</ele>
        <time>2023-01-02T09:12:29.915Z</time>
      </trkpt>
      <trkpt lat="39.358" lon="3.13871">
        <ele>103.822063</ele>
        <time>2023-01-02T09:12:31.913Z</time>
      </trkpt>
      <trkpt lat="39.35796" lon="3.13885">
        <ele>103.729678</ele>
        <time>2023-01-02T09:12:33.917Z</time>
      </trkpt>
      <trkpt lat="39.35792" lon="3.13899">
        <ele>103.640116</ele>
        <time>2023-01-02T09:12:35.926Z</time>
      </trkpt>
      <trkpt lat="39.35788" lon="3.13913">
        <ele>103.532375</ele>
        <time>2023-01-02T09:12:37.909Z</time>
      </trkpt>
      <trkpt lat="39.35783" lon="3.13927">
        <ele>103.412333</ele>
        <time>2023-01-02T09:12:39.910Z</time>
      </trkpt>
      <trkpt lat="39.35779" lon="3.13942">
        <ele>103.293014</ele>
        <time>2023-01-02T09:12:41.926Z</time>
      </trkpt>
      <trkpt lat="39.35775" lon="3.13956">
        <ele>103.174045</ele>
        <time>2023-01-02T09:12:43.905Z</time>
      </trkpt>
      <trkpt lat="39.3577" lon="3.1397">
        <ele>103.054349</ele>
        <time>2023-01-02T09:12:45.907Z</time>
      </trkpt>
      <trkpt lat="39.35765" lon="3.13985">
        <ele>102.933085</ele>
        <time>2023-01-02T09:12:47.906Z</time>
      </trkpt>
      <trkpt lat="39.35761" lon="3.13998">
        <ele>102.815354</ele>
        <time>2023-01-02T09:12:49.908Z</time>
      </trkpt>
      <trkpt lat="39.35756" lon="3.14012">
        <ele>102.69733</ele>
        <time>2023-01-02T09:12:51.912Z</time>
      </trkpt>
      <trkpt lat="39.3575" lon="3.14026">
        <ele>102.578619</ele>
        <time>2023-01-02T09:12:53.910Z</time>
      </trkpt>
      <trkpt lat="39.35743" lon="3.14038">
        <ele>102.460541</ele>
        <time>2023-01-02T09:12:55.912Z</time>
      </trkpt>
      <trkpt lat="39.35736" lon="3.14049">
        <ele>102.348855</ele>
        <time>2023-01-02T09:12:57.907Z</time>
      </trkpt>
      <trkpt lat="39.35728" lon="3.14061">
        <ele>102.230914</ele>
        <time>2023-01-02T09:12:59.912Z</time>
      </trkpt>
      <trkpt lat="39.35722" lon="3.14073">
        <ele>102.116194</ele>
        <time>2023-01-02T09:13:01.926Z</time>
      </trkpt>
      <trkpt lat="39.35715" lon="3.14084">
        <ele>102.004562</ele>
        <time>2023-01-02T09:13:03.910Z</time>
      </trkpt>
      <trkpt lat="39.35708" lon="3.14096">
        <ele>101.892321</ele>
        <time>2023-01-02T09:13:05.923Z</time>
      </trkpt>
      <trkpt lat="39.35701" lon="3.14108">
        <ele>101.788229</ele>
        <time>2023-01-02T09:13:07.928Z</time>
      </trkpt>
      <trkpt lat="39.35695" lon="3.1412">
        <ele>101.737682</ele>
        <time>2023-01-02T09:13:09.917Z</time>
      </trkpt>
      <trkpt lat="39.35687" lon="3.14132">
        <ele>101.686066</ele>
        <time>2023-01-02T09:13:11.917Z</time>
      </trkpt>
      <trkpt lat="39.35681" lon="3.14143">
        <ele>101.635538</ele>
        <time>2023-01-02T09:13:13.909Z</time>
      </trkpt>
      <trkpt lat="39.35674" lon="3.14155">
        <ele>101.585268</ele>
        <time>2023-01-02T09:13:15.930Z</time>
      </trkpt>
      <trkpt lat="39.35667" lon="3.14167">
        <ele>101.535013</ele>
        <time>2023-01-02T09:13:17.923Z</time>
      </trkpt>
      <trkpt lat="39.3566" lon="3.14178">
        <ele>101.484211</ele>
        <time>2023-01-02T09:13:19.913Z</time>
      </trkpt>
      <trkpt lat="39.35653" lon="3.1419">
        <ele>101.434217</ele>
        <time>2023-01-02T09:13:21.924Z</time>
      </trkpt>
      <trkpt lat="39.35647" lon="3.14203">
        <ele>101.382405</ele>
        <time>2023-01-02T09:13:23.915Z</time>
      </trkpt>
      <trkpt lat="39.3564" lon="3.14215">
        <ele>101.329697</ele>
        <time>2023-01-02T09:13:25.908Z</time>
      </trkpt>
      <trkpt lat="39.35633" lon="3.14228">
        <ele>101.278255</ele>
        <time>2023-01-02T09:13:27.921Z</time>
      </trkpt>
      <trkpt lat="39.35627" lon="3.1424">
        <ele>101.22628</ele>
        <time>2023-01-02T09:13:29.910Z</time>
      </trkpt>
      <trkpt lat="39.35621" lon="3.14253">
        <ele>101.175759</ele>
        <time>2023-01-02T09:13:31.926Z</time>
      </trkpt>
      <trkpt lat="39.35614" lon="3.14265">
        <ele>101.124317</ele>
        <time>2023-01-02T09:13:33.926Z</time>
      </trkpt>
      <trkpt lat="39.35608" lon="3.14277">
        <ele>101.073724</ele>
        <time>2023-01-02T09:13:35.910Z</time>
      </trkpt>
      <trkpt lat="39.35601" lon="3.14289">
        <ele>101.025048</ele>
        <time>2023-01-02T09:13:37.905Z</time>
      </trkpt>
      <trkpt lat="39.35595" lon="3.143">
        <ele>100.983116</ele>
        <time>2023-01-02T09:13:39.928Z</time>
      </trkpt>
      <trkpt lat="39.35587" lon="3.14311">
        <ele>100.945089</ele>
        <time>2023-01-02T09:13:41.910Z</time>
      </trkpt>
      <trkpt lat="39.35581" lon="3.14322">
        <ele>100.908651</ele>
        <time>2023-01-02T09:13:43.897Z</time>
      </trkpt>
      <trkpt lat="39.35573" lon="3.14333">
        <ele>100.871155</ele>
        <time>2023-01-02T09:13:45.910Z</time>
      </trkpt>
      <trkpt lat="39.35567" lon="3.14345">
        <ele>100.8345</ele>
        <time>2023-01-02T09:13:47.915Z</time>
      </trkpt>
      <trkpt lat="39.35561" lon="3.14355">
        <ele>100.800085</ele>
        <time>2023-01-02T09:13:49.926Z</time>
      </trkpt>
      <trkpt lat="39.35556" lon="3.14367">
        <ele>100.765846</ele>
        <time>2023-01-02T09:13:51.910Z</time>
      </trkpt>
      <trkpt lat="39.35552" lon="3.14379">
        <ele>100.733298</ele>
        <time>2023-01-02T09:13:53.897Z</time>
      </trkpt>
      <trkpt lat="39.35548" lon="3.14391">
        <ele>100.700177</ele>
        <time>2023-01-02T09:13:55.908Z</time>
      </trkpt>
      <trkpt lat="39.35546" lon="3.14403">
        <ele>100.666937</ele>
        <time>2023-01-02T09:13:57.907Z</time>
      </trkpt>
      <trkpt lat="39.35543" lon="3.14416">
        <ele>100.632883</ele>
        <time>2023-01-02T09:13:59.910Z</time>
      </trkpt>
      <trkpt lat="39.3554" lon="3.14429">
        <ele>100.597384</ele>
        <time>2023-01-02T09:14:01.910Z</time>
      </trkpt>
      <trkpt lat="39.35537" lon="3.14442">
        <ele>100.562492</ele>
        <time>2023-01-02T09:14:03.919Z</time>
      </trkpt>
      <trkpt lat="39.35535" lon="3.14455">
        <ele>100.527674</ele>
        <time>2023-01-02T09:14:05.922Z</time>
      </trkpt>
      <trkpt lat="39.35533" lon="3.14469">
        <ele>100.493062</ele>
        <time>2023-01-02T09:14:07.923Z</time>
      </trkpt>
      <trkpt lat="39.35532" lon="3.14482">
        <ele>100.4578</ele>
        <time>2023-01-02T09:14:09.934Z</time>
      </trkpt>
      <trkpt lat="39.3553" lon="3.14496">
        <ele>100.423261</ele>
        <time>2023-01-02T09:14:11.926Z</time>
      </trkpt>
      <trkpt lat="39.35529" lon="3.14509">
        <ele>100.391348</ele>
        <time>2023-01-02T09:14:13.922Z</time>
      </trkpt>
      <trkpt lat="39.35527" lon="3.14523">
        <ele>100.362395</ele>
        <time>2023-01-02T09:14:15.906Z</time>
      </trkpt>
      <trkpt lat="39.35528" lon="3.14537">
        <ele>100.333508</ele>
        <time>2023-01-02T09:14:17.914Z</time>
      </trkpt>
      <trkpt lat="39.35529" lon="3.14552">
        <ele>100.303843</ele>
        <time>2023-01-02T09:14:19.923Z</time>
      </trkpt>
      <trkpt lat="39.35531" lon="3.14566">
        <ele>100.273761</ele>
        <time>2023-01-02T09:14:21.922Z</time>
      </trkpt>
      <trkpt lat="39.35534" lon="3.1458">
        <ele>100.244867</ele>
        <time>2023-01-02T09:14:23.914Z</time>
      </trkpt>
      <trkpt lat="39.35537" lon="3.14594">
        <ele>100.215677</ele>
        <time>2023-01-02T09:14:25.915Z</time>
      </trkpt>
      <trkpt lat="39.3554" lon="3.14607">
        <ele>100.186834</ele>
        <time>2023-01-02T09:14:27.926Z</time>
      </trkpt>
      <trkpt lat="39.35544" lon="3.14621">
        <ele>100.156866</ele>
        <time>2023-01-02T09:14:29.901Z</time>
      </trkpt>
      <trkpt lat="39.35547" lon="3.14634">
        <ele>100.128878</ele>
        <time>2023-01-02T09:14:31.906Z</time>
      </trkpt>
      <trkpt lat="39.35549" lon="3.14648">
        <ele>100.100052</ele>
        <time>2023-01-02T09:14:33.905Z</time>
      </trkpt>
      <trkpt lat="39.35552" lon="3.14661">
        <ele>100.072333</ele>
        <time>2023-01-02T09:14:35.911Z</time>
      </trkpt>
      <trkpt lat="39.35556" lon="3.14675">
        <ele>100.043337</ele>
        <time>2023-01-02T09:14:37.903Z</time>
      </trkpt>
      <trkpt lat="39.35559" lon="3.14689">
        <ele>100.013392</ele>
        <time>2023-01-02T09:14:39.912Z</time>
      </trkpt>
      <trkpt lat="39.35562" lon="3.14703">
        <ele>99.983181</ele>
        <time>2023-01-02T09:14:41.909Z</time>
      </trkpt>
      <trkpt lat="39.35566" lon="3.14718">
        <ele>99.952346</ele>
        <time>2023-01-02T09:14:43.923Z</time>
      </trkpt>
      <trkpt lat="39.35571" lon="3.14732">
        <ele>99.868103</ele>
        <time>2023-01-02T09:14:45.885Z</time>
      </trkpt>
      <trkpt lat="39.35575" lon="3.14746">
        <ele>99.609592</ele>
        <time>2023-01-02T09:14:47.915Z</time>
      </trkpt>
      <trkpt lat="39.35581" lon="3.1476">
        <ele>99.352061</ele>
        <time>2023-01-02T09:14:49.912Z</time>
      </trkpt>
      <trkpt lat="39.35586" lon="3.14775">
        <ele>99.082096</ele>
        <time>2023-01-02T09:14:51.915Z</time>
      </trkpt>
      <trkpt lat="39.35591" lon="3.1479">
        <ele>98.813472</ele>
        <time>2023-01-02T09:14:53.926Z</time>
      </trkpt>
      <trkpt lat="39.35596" lon="3.14805">
        <ele>98.540318</ele>
        <time>2023-01-02T09:14:55.911Z</time>
      </trkpt>
      <trkpt lat="39.35601" lon="3.14821">
        <ele>98.255876</ele>
        <time>2023-01-02T09:14:57.912Z</time>
      </trkpt>
      <trkpt lat="39.35606" lon="3.14837">
        <ele>97.971381</ele>
        <time>2023-01-02T09:14:59.912Z</time>
      </trkpt>
      <trkpt lat="39.35613" lon="3.14854">
        <ele>97.669879</ele>
        <time>2023-01-02T09:15:01.909Z</time>
      </trkpt>
      <trkpt lat="39.35619" lon="3.1487">
        <ele>97.366513</ele>
        <time>2023-01-02T09:15:03.907Z</time>
      </trkpt>
      <trkpt lat="39.35624" lon="3.14887">
        <ele>97.063595</ele>
        <time>2023-01-02T09:15:05.895Z</time>
      </trkpt>
      <trkpt lat="39.3563" lon="3.14904">
        <ele>96.764797</ele>
        <time>2023-01-02T09:15:07.918Z</time>
      </trkpt>
      <trkpt lat="39.35636" lon="3.1492">
        <ele>96.459007</ele>
        <time>2023-01-02T09:15:09.908Z</time>
      </trkpt>
      <trkpt lat="39.35642" lon="3.14937">
        <ele>96.152686</ele>
        <time>2023-01-02T09:15:11.907Z</time>
      </trkpt>
      <trkpt lat="39.35648" lon="3.14954">
        <ele>96.150526</ele>
        <time>2023-01-02T09:15:13.907Z</time>
      </trkpt>
      <trkpt lat="39.35653" lon="3.14971">
        <ele>96.220141</ele>
        <time>2023-01-02T09:15:15.913Z</time>
      </trkpt>
      <trkpt lat="39.35658" lon="3.14987">
        <ele>96.286192</ele>
        <time>2023-01-02T09:15:17.910Z</time>
      </trkpt>
      <trkpt lat="39.35664" lon="3.15002">
        <ele>96.351043</ele>
        <time>2023-01-02T09:15:19.908Z</time>
      </trkpt>
      <trkpt lat="39.35669" lon="3.15018">
        <ele>96.415099</ele>
        <time>2023-01-02T09:15:21.930Z</time>
      </trkpt>
      <trkpt lat="39.35674" lon="3.15032">
        <ele>96.475436</ele>
        <time>2023-01-02T09:15:23.923Z</time>
      </trkpt>
      <trkpt lat="39.35679" lon="3.15045">
        <ele>96.532422</ele>
        <time>2023-01-02T09:15:25.907Z</time>
      </trkpt>
      <trkpt lat="39.35683" lon="3.15059">
        <ele>96.588299</ele>
        <time>2023-01-02T09:15:27.910Z</time>
      </trkpt>
      <trkpt lat="39.35687" lon="3.15072">
        <ele>96.642851</ele>
        <time>2023-01-02T09:15:29.906Z</time>
      </trkpt>
      <trkpt lat="39.35687" lon="3.15086">
        <ele>96.694634</ele>
        <time>2023-01-02T09:15:31.910Z</time>
      </trkpt>
      <trkpt lat="39.35684" lon="3.15097">
        <ele>96.741852</ele>
        <time>2023-01-02T09:15:33.903Z</time>
      </trkpt>
      <trkpt lat="39.35678" lon="3.15111">
        <ele>96.805063</ele>
        <time>2023-01-02T09:15:36.914Z</time>
      </trkpt>
      <trkpt lat="39.35671" lon="3.15124">
        <ele>96.866102</ele>
        <time>2023-01-02T09:15:39.911Z</time>
      </trkpt>
      <trkpt lat="39.35665" lon="3.15137">
        <ele>96.92236</ele>
        <time>2023-01-02T09:15:42.917Z</time>
      </trkpt>
      <trkpt lat="39.35661" lon="3.15148">
        <ele>96.969119</ele>
        <time>2023-01-02T09:15:45.909Z</time>
      </trkpt>
      <trkpt lat="39.3566" lon="3.15163">
        <ele>96.822812</ele>
        <time>2023-01-02T09:15:49.911Z</time>
      </trkpt>
      <trkpt lat="39.35664" lon="3.15177">
        <ele>96.585332</ele>
        <time>2023-01-02T09:15:52.912Z</time>
      </trkpt>
      <trkpt lat="39.35669" lon="3.15192">
        <ele>96.316807</ele>
        <time>2023-01-02T09:15:55.914Z</time>
      </trkpt>
      <trkpt lat="39.35675" lon="3.15208">
        <ele>96.039649</ele>
        <time>2023-01-02T09:15:58.901Z</time>
      </trkpt>
      <trkpt lat="39.35678" lon="3.15219">
        <ele>95.84949</ele>
        <time>2023-01-02T09:16:00.895Z</time>
      </trkpt>
      <trkpt lat="39.35683" lon="3.15232">
        <ele>95.635557</ele>
        <time>2023-01-02T09:16:02.890Z</time>
      </trkpt>
      <trkpt lat="39.35686" lon="3.15245">
        <ele>95.41432</ele>
        <time>2023-01-02T09:16:04.893Z</time>
      </trkpt>
      <trkpt lat="39.3569" lon="3.15258">
        <ele>95.181941</ele>
        <time>2023-01-02T09:16:06.893Z</time>
      </trkpt>
      <trkpt lat="39.35695" lon="3.15273">
        <ele>94.922621</ele>
        <time>2023-01-02T09:16:08.881Z</time>
      </trkpt>
      <trkpt lat="39.35701" lon="3.15288">
        <ele>94.6682</ele>
        <time>2023-01-02T09:16:10.919Z</time>
      </trkpt>
      <trkpt lat="39.35707" lon="3.15303">
        <ele>94.392372</ele>
        <time>2023-01-02T09:16:12.896Z</time>
      </trkpt>
      <trkpt lat="39.35714" lon="3.15318">
        <ele>94.120603</ele>
        <time>2023-01-02T09:16:14.903Z</time>
      </trkpt>
      <trkpt lat="39.35717" lon="3.15335">
        <ele>93.836408</ele>
        <time>2023-01-02T09:16:16.911Z</time>
      </trkpt>
      <trkpt lat="39.35717" lon="3.15353">
        <ele>93.547672</ele>
        <time>2023-01-02T09:16:18.914Z</time>
      </trkpt>
      <trkpt lat="39.35716" lon="3.15372">
        <ele>93.208723</ele>
        <time>2023-01-02T09:16:20.903Z</time>
      </trkpt>
      <trkpt lat="39.35718" lon="3.1539">
        <ele>92.660031</ele>
        <time>2023-01-02T09:16:22.908Z</time>
      </trkpt>
      <trkpt lat="39.35722" lon="3.15408">
        <ele>92.082427</ele>
        <time>2023-01-02T09:16:24.920Z</time>
      </trkpt>
      <trkpt lat="39.35727" lon="3.15426">
        <ele>91.493748</ele>
        <time>2023-01-02T09:16:26.909Z</time>
      </trkpt>
      <trkpt lat="39.35732" lon="3.15445">
        <ele>90.876527</ele>
        <time>2023-01-02T09:16:28.908Z</time>
      </trkpt>
      <trkpt lat="39.35739" lon="3.15464">
        <ele>90.247671</ele>
        <time>2023-01-02T09:16:30.909Z</time>
      </trkpt>
      <trkpt lat="39.35747" lon="3.15482">
        <ele>89.615735</ele>
        <time>2023-01-02T09:16:32.911Z</time>
      </trkpt>
      <trkpt lat="39.35755" lon="3.15499">
        <ele>88.987082</ele>
        <time>2023-01-02T09:16:34.905Z</time>
      </trkpt>
      <trkpt lat="39.35761" lon="3.15518">
        <ele>88.380785</ele>
        <time>2023-01-02T09:16:36.906Z</time>
      </trkpt>
      <trkpt lat="39.35765" lon="3.15537">
        <ele>87.768016</ele>
        <time>2023-01-02T09:16:38.898Z</time>
      </trkpt>
      <trkpt lat="39.35766" lon="3.15559">
        <ele>87.092979</ele>
        <time>2023-01-02T09:16:40.906Z</time>
      </trkpt>
      <trkpt lat="39.35766" lon="3.15581">
        <ele>86.414392</ele>
        <time>2023-01-02T09:16:42.905Z</time>
      </trkpt>
      <trkpt lat="39.35763" lon="3.15603">
        <ele>85.955089</ele>
        <time>2023-01-02T09:16:44.904Z</time>
      </trkpt>
      <trkpt lat="39.3576" lon="3.15624">
        <ele>85.60552</ele>
        <time>2023-01-02T09:16:46.912Z</time>
      </trkpt>
      <trkpt lat="39.35758" lon="3.15647">
        <ele>85.244744</ele>
        <time>2023-01-02T09:16:48.906Z</time>
      </trkpt>
      <trkpt lat="39.35754" lon="3.1567">
        <ele>84.871219</ele>
        <time>2023-01-02T09:16:50.914Z</time>
      </trkpt>
      <trkpt lat="39.35753" lon="3.15682">
        <ele>84.677543</ele>
        <time>2023-01-02T09:16:51.908Z</time>
      </trkpt>
      <trkpt lat="39.35752" lon="3.15694">
        <ele>84.48679</ele>
        <time>2023-01-02T09:16:52.904Z</time>
      </trkpt>
      <trkpt lat="39.35753" lon="3.15705">
        <ele>84.299053</ele>
        <time>2023-01-02T09:16:53.903Z</time>
      </trkpt>
      <trkpt lat="39.35757" lon="3.15728">
        <ele>83.92987</ele>
        <time>2023-01-02T09:16:55.910Z</time>
      </trkpt>
      <trkpt lat="39.3576" lon="3.15749">
        <ele>83.582495</ele>
        <time>2023-01-02T09:16:57.917Z</time>
      </trkpt>
      <trkpt lat="39.35763" lon="3.15769">
        <ele>83.266216</ele>
        <time>2023-01-02T09:16:59.899Z</time>
      </trkpt>
      <trkpt lat="39.35765" lon="3.15788">
        <ele>82.958415</ele>
        <time>2023-01-02T09:17:01.903Z</time>
      </trkpt>
      <trkpt lat="39.35767" lon="3.15806">
        <ele>82.66714</ele>
        <time>2023-01-02T09:17:03.903Z</time>
      </trkpt>
      <trkpt lat="39.3577" lon="3.15823">
        <ele>82.574146</ele>
        <time>2023-01-02T09:17:05.903Z</time>
      </trkpt>
      <trkpt lat="39.35772" lon="3.1584">
        <ele>82.927726</ele>
        <time>2023-01-02T09:17:07.912Z</time>
      </trkpt>
      <trkpt lat="39.35774" lon="3.15856">
        <ele>83.266008</ele>
        <time>2023-01-02T09:17:09.908Z</time>
      </trkpt>
      <trkpt lat="39.35776" lon="3.1587">
        <ele>83.568819</ele>
        <time>2023-01-02T09:17:11.911Z</time>
      </trkpt>
      <trkpt lat="39.35778" lon="3.15884">
        <ele>83.87723</ele>
        <time>2023-01-02T09:17:13.907Z</time>
      </trkpt>
      <trkpt lat="39.3578" lon="3.15899">
        <ele>84.183328</ele>
        <time>2023-01-02T09:17:15.910Z</time>
      </trkpt>
      <trkpt lat="39.35782" lon="3.15913">
        <ele>84.490225</ele>
        <time>2023-01-02T09:17:17.938Z</time>
      </trkpt>
      <trkpt lat="39.35784" lon="3.15927">
        <ele>84.779168</ele>
        <time>2023-01-02T09:17:19.904Z</time>
      </trkpt>
      <trkpt lat="39.35786" lon="3.15939">
        <ele>85.042013</ele>
        <time>2023-01-02T09:17:21.913Z</time>
      </trkpt>
      <trkpt lat="39.35788" lon="3.15956">
        <ele>85.387739</ele>
        <time>2023-01-02T09:17:24.918Z</time>
      </trkpt>
      <trkpt lat="39.3579" lon="3.15971">
        <ele>85.720815</ele>
        <time>2023-01-02T09:17:27.908Z</time>
      </trkpt>
      <trkpt lat="39.35792" lon="3.15985">
        <ele>86.005873</ele>
        <time>2023-01-02T09:17:30.891Z</time>
      </trkpt>
      <trkpt lat="39.35794" lon="3.15998">
        <ele>86.289742</ele>
        <time>2023-01-02T09:17:33.903Z</time>
      </trkpt>
      <trkpt lat="39.35796" lon="3.16013">
        <ele>86.595592</ele>
        <time>2023-01-02T09:17:36.890Z</time>
      </trkpt>
      <trkpt lat="39.35798" lon="3.16027">
        <ele>86.889748</ele>
        <time>2023-01-02T09:17:39.905Z</time>
      </trkpt>
      <trkpt lat="39.358" lon="3.16041">
        <ele>87.190515</ele>
        <time>2023-01-02T09:17:42.896Z</time>
      </trkpt>
      <trkpt lat="39.35802" lon="3.16053">
        <ele>87.359855</ele>
        <time>2023-01-02T09:17:45.897Z</time>
      </trkpt>
      <trkpt lat="39.35804" lon="3.16067">
        <ele>87.438252</ele>
        <time>2023-01-02T09:17:48.914Z</time>
      </trkpt>
      <trkpt lat="39.35806" lon="3.1608">
        <ele>87.517781</ele>
        <time>2023-01-02T09:17:51.915Z</time>
      </trkpt>
      <trkpt lat="39.35807" lon="3.16094">
        <ele>87.601228</ele>
        <time>2023-01-02T09:17:54.908Z</time>
      </trkpt>
      <trkpt lat="39.35809" lon="3.16108">
        <ele>87.679479</ele>
        <time>2023-01-02T09:17:57.917Z</time>
      </trkpt>
      <trkpt lat="39.35811" lon="3.16121">
        <ele>87.757571</ele>
        <time>2023-01-02T09:18:00.897Z</time>
      </trkpt>
      <trkpt lat="39.35813" lon="3.16134">
        <ele>87.837009</ele>
        <time>2023-01-02T09:18:03.910Z</time>
      </trkpt>
      <trkpt lat="39.35815" lon="3.16148">
        <ele>87.918537</ele>
        <time>2023-01-02T09:18:06.907Z</time>
      </trkpt>
      <trkpt lat="39.35816" lon="3.16162">
        <ele>87.995019</ele>
        <time>2023-01-02T09:18:09.903Z</time>
      </trkpt>
      <trkpt lat="39.35816" lon="3.16175">
        <ele>88.073595</ele>
        <time>2023-01-02T09:18:12.896Z</time>
      </trkpt>
      <trkpt lat="39.35817" lon="3.16189">
        <ele>88.154573</ele>
        <time>2023-01-02T09:18:15.906Z</time>
      </trkpt>
      <trkpt lat="39.35816" lon="3.16203">
        <ele>88.236993</ele>
        <time>2023-01-02T09:18:18.902Z</time>
      </trkpt>
      <trkpt lat="39.35815" lon="3.16219">
        <ele>88.324892</ele>
        <time>2023-01-02T09:18:21.900Z</time>
      </trkpt>
      <trkpt lat="39.35814" lon="3.16234">
        <ele>88.415431</ele>
        <time>2023-01-02T09:18:24.895Z</time>
      </trkpt>
      <trkpt lat="39.35814" lon="3.1625">
        <ele>88.509581</ele>
        <time>2023-01-02T09:18:27.920Z</time>
      </trkpt>
      <trkpt lat="39.35813" lon="3.16263">
        <ele>88.581009</ele>
        <time>2023-01-02T09:18:29.920Z</time>
      </trkpt>
      <trkpt lat="39.3581" lon="3.16277">
        <ele>88.663991</ele>
        <time>2023-01-02T09:18:31.899Z</time>
      </trkpt>
      <trkpt lat="39.35807" lon="3.16291">
        <ele>88.794335</ele>
        <time>2023-01-02T09:18:33.900Z</time>
      </trkpt>
      <trkpt lat="39.35803" lon="3.16304">
        <ele>88.926779</ele>
        <time>2023-01-02T09:18:35.904Z</time>
      </trkpt>
      <trkpt lat="39.35801" lon="3.16318">
        <ele>89.056955</ele>
        <time>2023-01-02T09:18:37.900Z</time>
      </trkpt>
      <trkpt lat="39.35799" lon="3.16332">
        <ele>89.183138</ele>
        <time>2023-01-02T09:18:39.912Z</time>
      </trkpt>
      <trkpt lat="39.35797" lon="3.16345">
        <ele>89.30785</ele>
        <time>2023-01-02T09:18:41.914Z</time>
      </trkpt>
      <trkpt lat="39.35798" lon="3.16359">
        <ele>89.426819</ele>
        <time>2023-01-02T09:18:43.924Z</time>
      </trkpt>
      <trkpt lat="39.35801" lon="3.16371">
        <ele>89.543744</ele>
        <time>2023-01-02T09:18:45.898Z</time>
      </trkpt>
      <trkpt lat="39.35806" lon="3.16382">
        <ele>89.655891</ele>
        <time>2023-01-02T09:18:47.897Z</time>
      </trkpt>
      <trkpt lat="39.35811" lon="3.16395">
        <ele>89.799644</ele>
        <time>2023-01-02T09:18:50.894Z</time>
      </trkpt>
      <trkpt lat="39.35816" lon="3.1641">
        <ele>89.939788</ele>
        <time>2023-01-02T09:18:53.898Z</time>
      </trkpt>
      <trkpt lat="39.35823" lon="3.16423">
        <ele>90.080777</ele>
        <time>2023-01-02T09:18:56.897Z</time>
      </trkpt>
      <trkpt lat="39.35831" lon="3.16434">
        <ele>90.222371</ele>
        <time>2023-01-02T09:18:59.912Z</time>
      </trkpt>
      <trkpt lat="39.35838" lon="3.16447">
        <ele>90.367246</ele>
        <time>2023-01-02T09:19:02.929Z</time>
      </trkpt>
      <trkpt lat="39.35845" lon="3.16461">
        <ele>90.515739</ele>
        <time>2023-01-02T09:19:05.889Z</time>
      </trkpt>
      <trkpt lat="39.35849" lon="3.16476">
        <ele>90.661787</ele>
        <time>2023-01-02T09:19:08.894Z</time>
      </trkpt>
      <trkpt lat="39.3585" lon="3.16491">
        <ele>90.733245</ele>
        <time>2023-01-02T09:19:11.909Z</time>
      </trkpt>
      <trkpt lat="39.35853" lon="3.16506">
        <ele>90.518367</ele>
        <time>2023-01-02T09:19:14.889Z</time>
      </trkpt>
      <trkpt lat="39.35856" lon="3.1652">
        <ele>90.31351</ele>
        <time>2023-01-02T09:19:17.922Z</time>
      </trkpt>
      <trkpt lat="39.3586" lon="3.16534">
        <ele>90.099785</ele>
        <time>2023-01-02T09:19:20.911Z</time>
      </trkpt>
      <trkpt lat="39.35863" lon="3.16549">
        <ele>89.8781</ele>
        <time>2023-01-02T09:19:23.912Z</time>
      </trkpt>
      <trkpt lat="39.35864" lon="3.16565">
        <ele>89.65359</ele>
        <time>2023-01-02T09:19:26.908Z</time>
      </trkpt>
      <trkpt lat="39.35863" lon="3.16576">
        <ele>89.48391</ele>
        <time>2023-01-02T09:19:28.916Z</time>
      </trkpt>
      <trkpt lat="39.35862" lon="3.16589">
        <ele>89.308763</ele>
        <time>2023-01-02T09:19:30.906Z</time>
      </trkpt>
      <trkpt lat="39.35861" lon="3.16601">
        <ele>89.134435</ele>
        <time>2023-01-02T09:19:32.901Z</time>
      </trkpt>
      <trkpt lat="39.3586" lon="3.16615">
        <ele>88.938145</ele>
        <time>2023-01-02T09:19:34.910Z</time>
      </trkpt>
      <trkpt lat="39.35859" lon="3.16629">
        <ele>88.725668</ele>
        <time>2023-01-02T09:19:36.902Z</time>
      </trkpt>
      <trkpt lat="39.35855" lon="3.16645">
        <ele>88.493873</ele>
        <time>2023-01-02T09:19:38.902Z</time>
      </trkpt>
      <trkpt lat="39.35853" lon="3.16661">
        <ele>88.261077</ele>
        <time>2023-01-02T09:19:40.899Z</time>
      </trkpt>
      <trkpt lat="39.35851" lon="3.16678">
        <ele>88.016711</ele>
        <time>2023-01-02T09:19:42.937Z</time>
      </trkpt>
      <trkpt lat="39.3585" lon="3.16696">
        <ele>87.757512</ele>
        <time>2023-01-02T09:19:44.925Z</time>
      </trkpt>
      <trkpt lat="39.35851" lon="3.16715">
        <ele>87.484435</ele>
        <time>2023-01-02T09:19:46.913Z</time>
      </trkpt>
      <trkpt lat="39.35854" lon="3.16735">
        <ele>87.254161</ele>
        <time>2023-01-02T09:19:48.902Z</time>
      </trkpt>
      <trkpt lat="39.35857" lon="3.16755">
        <ele>87.034746</ele>
        <time>2023-01-02T09:19:50.922Z</time>
      </trkpt>
      <trkpt lat="39.35857" lon="3.16773">
        <ele>86.839222</ele>
        <time>2023-01-02T09:19:52.904Z</time>
      </trkpt>
      <trkpt lat="39.35854" lon="3.16789">
        <ele>86.661405</ele>
        <time>2023-01-02T09:19:54.902Z</time>
      </trkpt>
      <trkpt lat="39.3585" lon="3.16803">
        <ele>86.491216</ele>
        <time>2023-01-02T09:19:56.909Z</time>
      </trkpt>
      <trkpt lat="39.35845" lon="3.16818">
        <ele>86.319034</ele>
        <time>2023-01-02T09:19:58.910Z</time>
      </trkpt>
      <trkpt lat="39.35842" lon="3.16833">
        <ele>86.148934</ele>
        <time>2023-01-02T09:20:00.896Z</time>
      </trkpt>
      <trkpt lat="39.35839" lon="3.16846">
        <ele>85.993401</ele>
        <time>2023-01-02T09:20:02.919Z</time>
      </trkpt>
      <trkpt lat="39.35835" lon="3.16859">
        <ele>85.845648</ele>
        <time>2023-01-02T09:20:04.911Z</time>
      </trkpt>
      <trkpt lat="39.35832" lon="3.16871">
        <ele>85.706527</ele>
        <time>2023-01-02T09:20:06.903Z</time>
      </trkpt>
      <trkpt lat="39.35829" lon="3.16884">
        <ele>85.560171</ele>
        <time>2023-01-02T09:20:08.911Z</time>
      </trkpt>
      <trkpt lat="39.35827" lon="3.16897">
        <ele>85.413496</ele>
        <time>2023-01-02T09:20:10.901Z</time>
      </trkpt>
      <trkpt lat="39.35823" lon="3.1691">
        <ele>85.265743</ele>
        <time>2023-01-02T09:20:12.903Z</time>
      </trkpt>
      <trkpt lat="39.35818" lon="3.16922">
        <ele>85.116843</ele>
        <time>2023-01-02T09:20:14.905Z</time>
      </trkpt>
      <trkpt lat="39.35814" lon="3.16934">
        <ele>84.973956</ele>
        <time>2023-01-02T09:20:16.896Z</time>
      </trkpt>
      <trkpt lat="39.35811" lon="3.16945">
        <ele>84.748408</ele>
        <time>2023-01-02T09:20:18.915Z</time>
      </trkpt>
      <trkpt lat="39.35809" lon="3.16957">
        <ele>84.444779</ele>
        <time>2023-01-02T09:20:20.901Z</time>
      </trkpt>
      <trkpt lat="39.35806" lon="3.1697">
        <ele>84.125296</ele>
        <time>2023-01-02T09:20:22.914Z</time>
      </trkpt>
      <trkpt lat="39.35803" lon="3.16983">
        <ele>83.792185</ele>
        <time>2023-01-02T09:20:24.902Z</time>
      </trkpt>
      <trkpt lat="39.35804" lon="3.16995">
        <ele>83.482075</ele>
        <time>2023-01-02T09:20:26.912Z</time>
      </trkpt>
      <trkpt lat="39.35811" lon="3.17004">
        <ele>83.183466</ele>
        <time>2023-01-02T09:20:28.898Z</time>
      </trkpt>
      <trkpt lat="39.35818" lon="3.17015">
        <ele>82.835823</ele>
        <time>2023-01-02T09:20:30.900Z</time>
      </trkpt>
      <trkpt lat="39.35825" lon="3.17029">
        <ele>82.407767</ele>
        <time>2023-01-02T09:20:32.910Z</time>
      </trkpt>
      <trkpt lat="39.35832" lon="3.17044">
        <ele>82.003109</ele>
        <time>2023-01-02T09:20:34.895Z</time>
      </trkpt>
      <trkpt lat="39.35836" lon="3.17058">
        <ele>81.612684</ele>
        <time>2023-01-02T09:20:36.915Z</time>
      </trkpt>
      <trkpt lat="39.35841" lon="3.17073">
        <ele>81.226619</ele>
        <time>2023-01-02T09:20:38.900Z</time>
      </trkpt>
      <trkpt lat="39.35846" lon="3.17086">
        <ele>80.852273</ele>
        <time>2023-01-02T09:20:40.901Z</time>
      </trkpt>
      <trkpt lat="39.3585" lon="3.17099">
        <ele>80.517982</ele>
        <time>2023-01-02T09:20:42.921Z</time>
      </trkpt>
      <trkpt lat="39.35855" lon="3.17112">
        <ele>80.158521</ele>
        <time>2023-01-02T09:20:44.906Z</time>
      </trkpt>
      <trkpt lat="39.35859" lon="3.17126">
        <ele>79.801436</ele>
        <time>2023-01-02T09:20:46.906Z</time>
      </trkpt>
      <trkpt lat="39.35863" lon="3.1714">
        <ele>79.435074</ele>
        <time>2023-01-02T09:20:48.902Z</time>
      </trkpt>
      <trkpt lat="39.35866" lon="3.17155">
        <ele>79.249944</ele>
        <time>2023-01-02T09:20:50.908Z</time>
      </trkpt>
      <trkpt lat="39.35869" lon="3.17169">
        <ele>79.44088</ele>
        <time>2023-01-02T09:20:52.931Z</time>
      </trkpt>
      <trkpt lat="39.35871" lon="3.17185">
        <ele>79.640742</ele>
        <time>2023-01-02T09:20:54.908Z</time>
      </trkpt>
      <trkpt lat="39.35872" lon="3.17201">
        <ele>79.849468</ele>
        <time>2023-01-02T09:20:56.895Z</time>
      </trkpt>
      <trkpt lat="39.35873" lon="3.17217">
        <ele>80.047186</ele>
        <time>2023-01-02T09:20:58.924Z</time>
      </trkpt>
      <trkpt lat="39.35874" lon="3.17232">
        <ele>80.234423</ele>
        <time>2023-01-02T09:21:00.906Z</time>
      </trkpt>
      <trkpt lat="39.35875" lon="3.17246">
        <ele>80.415634</ele>
        <time>2023-01-02T09:21:02.911Z</time>
      </trkpt>
      <trkpt lat="39.35875" lon="3.17259">
        <ele>80.585636</ele>
        <time>2023-01-02T09:21:04.905Z</time>
      </trkpt>
      <trkpt lat="39.35877" lon="3.17272">
        <ele>80.743583</ele>
        <time>2023-01-02T09:21:06.926Z</time>
      </trkpt>
      <trkpt lat="39.35878" lon="3.17284">
        <ele>80.895719</ele>
        <time>2023-01-02T09:21:08.909Z</time>
      </trkpt>
      <trkpt lat="39.35879" lon="3.17295">
        <ele>81.042386</ele>
        <time>2023-01-02T09:21:10.905Z</time>
      </trkpt>
      <trkpt lat="39.35881" lon="3.17307">
        <ele>81.192282</ele>
        <time>2023-01-02T09:21:12.908Z</time>
      </trkpt>
      <trkpt lat="39.35883" lon="3.17318">
        <ele>81.342505</ele>
        <time>2023-01-02T09:21:14.901Z</time>
      </trkpt>
      <trkpt lat="39.35885" lon="3.17331">
        <ele>81.501968</ele>
        <time>2023-01-02T09:21:16.903Z</time>
      </trkpt>
      <trkpt lat="39.35887" lon="3.17342">
        <ele>81.652744</ele>
        <time>2023-01-02T09:21:18.906Z</time>
      </trkpt>
      <trkpt lat="39.35889" lon="3.17354">
        <ele>81.800491</ele>
        <time>2023-01-02T09:21:20.898Z</time>
      </trkpt>
      <trkpt lat="39.35891" lon="3.17365">
        <ele>81.949715</ele>
        <time>2023-01-02T09:21:22.910Z</time>
      </trkpt>
      <trkpt lat="39.35892" lon="3.17378">
        <ele>82.107097</ele>
        <time>2023-01-02T09:21:24.903Z</time>
      </trkpt>
      <trkpt lat="39.35894" lon="3.1739">
        <ele>82.090627</ele>
        <time>2023-01-02T09:21:26.918Z</time>
      </trkpt>
      <trkpt lat="39.35894" lon="3.17402">
        <ele>82.048734</ele>
        <time>2023-01-02T09:21:28.901Z</time>
      </trkpt>
      <trkpt lat="39.35892" lon="3.17414">
        <ele>82.009873</ele>
        <time>2023-01-02T09:21:30.904Z</time>
      </trkpt>
      <trkpt lat="39.35889" lon="3.1743">
        <ele>81.953441</ele>
        <time>2023-01-02T09:21:33.923Z</time>
      </trkpt>
      <trkpt lat="39.35885" lon="3.17444">
        <ele>81.904061</ele>
        <time>2023-01-02T09:21:36.894Z</time>
      </trkpt>
      <trkpt lat="39.35882" lon="3.17459">
        <ele>81.856042</ele>
        <time>2023-01-02T09:21:39.914Z</time>
      </trkpt>
      <trkpt lat="39.35879" lon="3.17472">
        <ele>81.810047</ele>
        <time>2023-01-02T09:21:42.906Z</time>
      </trkpt>
      <trkpt lat="39.35877" lon="3.17485">
        <ele>81.767209</ele>
        <time>2023-01-02T09:21:45.906Z</time>
      </trkpt>
      <trkpt lat="39.35874" lon="3.17497">
        <ele>81.725789</ele>
        <time>2023-01-02T09:21:48.914Z</time>
      </trkpt>
      <trkpt lat="39.35871" lon="3.17509">
        <ele>81.681481</ele>
        <time>2023-01-02T09:21:51.913Z</time>
      </trkpt>
      <trkpt lat="39.35868" lon="3.17522">
        <ele>81.638893</ele>
        <time>2023-01-02T09:21:54.909Z</time>
      </trkpt>
      <trkpt lat="39.35865" lon="3.17534">
        <ele>81.59792</ele>
        <time>2023-01-02T09:21:57.906Z</time>
      </trkpt>
      <trkpt lat="39.35859" lon="3.17546">
        <ele>81.548698</ele>
        <time>2023-01-02T09:22:01.902Z</time>
      </trkpt>
      <trkpt lat="39.35855" lon="3.17557">
        <ele>81.508822</ele>
        <time>2023-01-02T09:22:04.895Z</time>
      </trkpt>
      <trkpt lat="39.3585" lon="3.17569">
        <ele>81.46455</ele>
        <time>2023-01-02T09:22:07.911Z</time>
      </trkpt>
      <trkpt lat="39.35843" lon="3.17579">
        <ele>81.419925</ele>
        <time>2023-01-02T09:22:10.911Z</time>
      </trkpt>
      <trkpt lat="39.35837" lon="3.17591">
        <ele>81.374164</ele>
        <time>2023-01-02T09:22:13.911Z</time>
      </trkpt>
      <trkpt lat="39.35831" lon="3.17604">
        <ele>81.272051</ele>
        <time>2023-01-02T09:22:16.906Z</time>
      </trkpt>
      <trkpt lat="39.35826" lon="3.17617">
        <ele>81.140359</ele>
        <time>2023-01-02T09:22:19.911Z</time>
      </trkpt>
      <trkpt lat="39.35823" lon="3.1763">
        <ele>81.024909</ele>
        <time>2023-01-02T09:22:23.910Z</time>
      </trkpt>
      <trkpt lat="39.35823" lon="3.17632">
        <ele>81.005154</ele>
        <time>2023-01-02T09:23:17.048Z</time>
      </trkpt>
      <trkpt lat="39.35824" lon="3.17653">
        <ele>80.824944</ele>
        <time>2023-01-02T09:25:46.913Z</time>
      </trkpt>
      <trkpt lat="39.35823" lon="3.17667">
        <ele>80.711205</ele>
        <time>2023-01-02T09:25:49.920Z</time>
      </trkpt>
      <trkpt lat="39.35823" lon="3.17684">
        <ele>80.562844</ele>
        <time>2023-01-02T09:25:52.911Z</time>
      </trkpt>
      <trkpt lat="39.35823" lon="3.17697">
        <ele>80.44956</ele>
        <time>2023-01-02T09:25:54.925Z</time>
      </trkpt>
      <trkpt lat="39.35824" lon="3.1771">
        <ele>80.334455</ele>
        <time>2023-01-02T09:25:56.901Z</time>
      </trkpt>
      <trkpt lat="39.35824" lon="3.17726">
        <ele>80.204732</ele>
        <time>2023-01-02T09:25:58.906Z</time>
      </trkpt>
      <trkpt lat="39.35825" lon="3.17741">
        <ele>80.068219</ele>
        <time>2023-01-02T09:26:00.903Z</time>
      </trkpt>
      <trkpt lat="39.35825" lon="3.17757">
        <ele>79.935131</ele>
        <time>2023-01-02T09:26:02.907Z</time>
      </trkpt>
      <trkpt lat="39.35826" lon="3.17774">
        <ele>79.792738</ele>
        <time>2023-01-02T09:26:04.899Z</time>
      </trkpt>
      <trkpt lat="39.35827" lon="3.1779">
        <ele>79.654312</ele>
        <time>2023-01-02T09:26:06.924Z</time>
      </trkpt>
      <trkpt lat="39.35827" lon="3.17805">
        <ele>79.521951</ele>
        <time>2023-01-02T09:26:08.901Z</time>
      </trkpt>
      <trkpt lat="39.35828" lon="3.1782">
        <ele>79.396728</ele>
        <time>2023-01-02T09:26:10.897Z</time>
      </trkpt>
      <trkpt lat="39.35826" lon="3.17833">
        <ele>79.310482</ele>
        <time>2023-01-02T09:26:12.891Z</time>
      </trkpt>
      <trkpt lat="39.35823" lon="3.17846">
        <ele>79.236957</ele>
        <time>2023-01-02T09:26:14.907Z</time>
      </trkpt>
      <trkpt lat="39.35819" lon="3.17857">
        <ele>79.168161</ele>
        <time>2023-01-02T09:26:16.912Z</time>
      </trkpt>
      <trkpt lat="39.35814" lon="3.17867">
        <ele>79.101758</ele>
        <time>2023-01-02T09:26:18.891Z</time>
      </trkpt>
      <trkpt lat="39.35807" lon="3.17881">
        <ele>79.009674</ele>
        <time>2023-01-02T09:26:21.910Z</time>
      </trkpt>
      <trkpt lat="39.35799" lon="3.17892">
        <ele>78.92498</ele>
        <time>2023-01-02T09:26:24.907Z</time>
      </trkpt>
      <trkpt lat="39.35791" lon="3.17904">
        <ele>78.842365</ele>
        <time>2023-01-02T09:26:27.918Z</time>
      </trkpt>
      <trkpt lat="39.35782" lon="3.17914">
        <ele>78.756514</ele>
        <time>2023-01-02T09:26:30.921Z</time>
      </trkpt>
      <trkpt lat="39.35771" lon="3.17921">
        <ele>78.669119</ele>
        <time>2023-01-02T09:26:33.923Z</time>
      </trkpt>
      <trkpt lat="39.3576" lon="3.1793">
        <ele>78.577432</ele>
        <time>2023-01-02T09:26:36.909Z</time>
      </trkpt>
      <trkpt lat="39.35752" lon="3.17936">
        <ele>78.510381</ele>
        <time>2023-01-02T09:26:38.928Z</time>
      </trkpt>
      <trkpt lat="39.35744" lon="3.17944">
        <ele>78.43682</ele>
        <time>2023-01-02T09:26:40.916Z</time>
      </trkpt>
      <trkpt lat="39.35735" lon="3.17953">
        <ele>78.357042</ele>
        <time>2023-01-02T09:26:42.911Z</time>
      </trkpt>
      <trkpt lat="39.35727" lon="3.17962">
        <ele>78.281427</ele>
        <time>2023-01-02T09:26:44.921Z</time>
      </trkpt>
      <trkpt lat="39.35718" lon="3.17971">
        <ele>78.202952</ele>
        <time>2023-01-02T09:26:46.905Z</time>
      </trkpt>
      <trkpt lat="39.3571" lon="3.17979">
        <ele>78.129276</ele>
        <time>2023-01-02T09:26:48.916Z</time>
      </trkpt>
      <trkpt lat="39.35702" lon="3.17989">
        <ele>77.900258</ele>
        <time>2023-01-02T09:26:50.900Z</time>
      </trkpt>
      <trkpt lat="39.35693" lon="3.17998">
        <ele>77.394478</ele>
        <time>2023-01-02T09:26:52.887Z</time>
      </trkpt>
      <trkpt lat="39.35683" lon="3.1801">
        <ele>76.801324</ele>
        <time>2023-01-02T09:26:54.911Z</time>
      </trkpt>
      <trkpt lat="39.35672" lon="3.18024">
        <ele>76.14369</ele>
        <time>2023-01-02T09:26:56.903Z</time>
      </trkpt>
      <trkpt lat="39.35661" lon="3.18038">
        <ele>75.461485</ele>
        <time>2023-01-02T09:26:58.924Z</time>
      </trkpt>
      <trkpt lat="39.35648" lon="3.18053">
        <ele>74.710239</ele>
        <time>2023-01-02T09:27:00.901Z</time>
      </trkpt>
      <trkpt lat="39.35634" lon="3.18067">
        <ele>73.959878</ele>
        <time>2023-01-02T09:27:02.920Z</time>
      </trkpt>
      <trkpt lat="39.35621" lon="3.1808">
        <ele>73.238872</ele>
        <time>2023-01-02T09:27:04.915Z</time>
      </trkpt>
      <trkpt lat="39.3561" lon="3.18096">
        <ele>72.539639</ele>
        <time>2023-01-02T09:27:06.897Z</time>
      </trkpt>
      <trkpt lat="39.35602" lon="3.18113">
        <ele>71.868416</ele>
        <time>2023-01-02T09:27:08.903Z</time>
      </trkpt>
      <trkpt lat="39.35594" lon="3.1813">
        <ele>71.197027</ele>
        <time>2023-01-02T09:27:10.913Z</time>
      </trkpt>
      <trkpt lat="39.35585" lon="3.18146">
        <ele>70.521213</ele>
        <time>2023-01-02T09:27:12.905Z</time>
      </trkpt>
      <trkpt lat="39.35577" lon="3.18162">
        <ele>70.544198</ele>
        <time>2023-01-02T09:27:14.910Z</time>
      </trkpt>
      <trkpt lat="39.35571" lon="3.1818">
        <ele>70.919172</ele>
        <time>2023-01-02T09:27:16.909Z</time>
      </trkpt>
      <trkpt lat="39.35566" lon="3.18198">
        <ele>71.298424</ele>
        <time>2023-01-02T09:27:18.910Z</time>
      </trkpt>
      <trkpt lat="39.35561" lon="3.18215">
        <ele>71.653141</ele>
        <time>2023-01-02T09:27:20.889Z</time>
      </trkpt>
      <trkpt lat="39.35555" lon="3.18229">
        <ele>71.973229</ele>
        <time>2023-01-02T09:27:22.912Z</time>
      </trkpt>
      <trkpt lat="39.35549" lon="3.1824">
        <ele>72.245263</ele>
        <time>2023-01-02T09:27:24.911Z</time>
      </trkpt>
      <trkpt lat="39.35542" lon="3.18248">
        <ele>72.480656</ele>
        <time>2023-01-02T09:27:26.899Z</time>
      </trkpt>
      <trkpt lat="39.35533" lon="3.18255">
        <ele>72.746224</ele>
        <time>2023-01-02T09:27:29.899Z</time>
      </trkpt>
      <trkpt lat="39.35525" lon="3.18263">
        <ele>72.987485</ele>
        <time>2023-01-02T09:27:32.902Z</time>
      </trkpt>
      <trkpt lat="39.35518" lon="3.18275">
        <ele>73.288968</ele>
        <time>2023-01-02T09:27:36.908Z</time>
      </trkpt>
      <trkpt lat="39.35513" lon="3.18285">
        <ele>73.520522</ele>
        <time>2023-01-02T09:27:39.900Z</time>
      </trkpt>
      <trkpt lat="39.35506" lon="3.18297">
        <ele>73.820586</ele>
        <time>2023-01-02T09:27:43.910Z</time>
      </trkpt>
      <trkpt lat="39.355" lon="3.18306">
        <ele>74.05061</ele>
        <time>2023-01-02T09:27:46.914Z</time>
      </trkpt>
      <trkpt lat="39.35494" lon="3.18315">
        <ele>74.288508</ele>
        <time>2023-01-02T09:27:49.911Z</time>
      </trkpt>
      <trkpt lat="39.35486" lon="3.18327">
        <ele>74.584154</ele>
        <time>2023-01-02T09:27:53.919Z</time>
      </trkpt>
      <trkpt lat="39.3548" lon="3.18336">
        <ele>74.816075</ele>
        <time>2023-01-02T09:27:56.906Z</time>
      </trkpt>
      <trkpt lat="39.35475" lon="3.18348">
        <ele>74.654357</ele>
        <time>2023-01-02T09:27:59.912Z</time>
      </trkpt>
      <trkpt lat="39.35469" lon="3.18362">
        <ele>74.343036</ele>
        <time>2023-01-02T09:28:02.934Z</time>
      </trkpt>
      <trkpt lat="39.35464" lon="3.18372">
        <ele>74.119178</ele>
        <time>2023-01-02T09:28:04.906Z</time>
      </trkpt>
      <trkpt lat="39.35456" lon="3.18385">
        <ele>73.786202</ele>
        <time>2023-01-02T09:28:07.915Z</time>
      </trkpt>
      <trkpt lat="39.35449" lon="3.18394">
        <ele>73.550209</ele>
        <time>2023-01-02T09:28:09.916Z</time>
      </trkpt>
      <trkpt lat="39.35441" lon="3.18402">
        <ele>73.304853</ele>
        <time>2023-01-02T09:28:11.910Z</time>
      </trkpt>
      <trkpt lat="39.35434" lon="3.18411">
        <ele>73.063252</ele>
        <time>2023-01-02T09:28:13.932Z</time>
      </trkpt>
      <trkpt lat="39.35427" lon="3.18419">
        <ele>72.814674</ele>
        <time>2023-01-02T09:28:15.915Z</time>
      </trkpt>
      <trkpt lat="39.3542" lon="3.1843">
        <ele>72.551607</ele>
        <time>2023-01-02T09:28:17.907Z</time>
      </trkpt>
      <trkpt lat="39.35414" lon="3.18443">
        <ele>72.258892</ele>
        <time>2023-01-02T09:28:19.911Z</time>
      </trkpt>
      <trkpt lat="39.35407" lon="3.18456">
        <ele>71.951262</ele>
        <time>2023-01-02T09:28:21.923Z</time>
      </trkpt>
      <trkpt lat="39.35396" lon="3.18469">
        <ele>71.595304</ele>
        <time>2023-01-02T09:28:23.897Z</time>
      </trkpt>
      <trkpt lat="39.35384" lon="3.18482">
        <ele>71.197806</ele>
        <time>2023-01-02T09:28:25.910Z</time>
      </trkpt>
      <trkpt lat="39.35372" lon="3.18498">
        <ele>70.77251</ele>
        <time>2023-01-02T09:28:27.914Z</time>
      </trkpt>
      <trkpt lat="39.35366" lon="3.18507">
        <ele>70.541374</ele>
        <time>2023-01-02T09:28:28.900Z</time>
      </trkpt>
      <trkpt lat="39.35361" lon="3.18517">
        <ele>70.192067</ele>
        <time>2023-01-02T09:28:29.906Z</time>
      </trkpt>
      <trkpt lat="39.35356" lon="3.18527">
        <ele>69.660369</ele>
        <time>2023-01-02T09:28:30.899Z</time>
      </trkpt>
      <trkpt lat="39.35352" lon="3.18538">
        <ele>69.116063</ele>
        <time>2023-01-02T09:28:31.909Z</time>
      </trkpt>
      <trkpt lat="39.35347" lon="3.18549">
        <ele>68.571758</ele>
        <time>2023-01-02T09:28:32.896Z</time>
      </trkpt>
      <trkpt lat="39.35342" lon="3.18559">
        <ele>68.028403</ele>
        <time>2023-01-02T09:28:33.912Z</time>
      </trkpt>
      <trkpt lat="39.35337" lon="3.18568">
        <ele>67.500422</ele>
        <time>2023-01-02T09:28:34.920Z</time>
      </trkpt>
      <trkpt lat="39.3533" lon="3.18577">
        <ele>66.97318</ele>
        <time>2023-01-02T09:28:35.913Z</time>
      </trkpt>
      <trkpt lat="39.35316" lon="3.1859">
        <ele>65.954539</ele>
        <time>2023-01-02T09:28:37.899Z</time>
      </trkpt>
      <trkpt lat="39.35301" lon="3.18601">
        <ele>64.971019</ele>
        <time>2023-01-02T09:28:39.907Z</time>
      </trkpt>
      <trkpt lat="39.35287" lon="3.1861">
        <ele>64.054408</ele>
        <time>2023-01-02T09:28:41.908Z</time>
      </trkpt>
      <trkpt lat="39.35275" lon="3.18619">
        <ele>63.244539</ele>
        <time>2023-01-02T09:28:43.912Z</time>
      </trkpt>
      <trkpt lat="39.35267" lon="3.1863">
        <ele>62.580317</ele>
        <time>2023-01-02T09:28:45.916Z</time>
      </trkpt>
      <trkpt lat="39.3526" lon="3.1864">
        <ele>61.999032</ele>
        <time>2023-01-02T09:28:47.912Z</time>
      </trkpt>
      <trkpt lat="39.35256" lon="3.18651">
        <ele>61.417979</ele>
        <time>2023-01-02T09:28:51.894Z</time>
      </trkpt>
      <trkpt lat="39.35254" lon="3.18669">
        <ele>60.636328</ele>
        <time>2023-01-02T09:29:20.899Z</time>
      </trkpt>
      <trkpt lat="39.35248" lon="3.18679">
        <ele>60.05079</ele>
        <time>2023-01-02T09:29:28.909Z</time>
      </trkpt>
      <trkpt lat="39.3525" lon="3.18691">
        <ele>59.366968</ele>
        <time>2023-01-02T09:29:35.901Z</time>
      </trkpt>
      <trkpt lat="39.3526" lon="3.18689">
        <ele>58.578854</ele>
        <time>2023-01-02T09:29:53.904Z</time>
      </trkpt>
      <trkpt lat="39.3526" lon="3.18701">
        <ele>57.846822</ele>
        <time>2023-01-02T09:30:09.896Z</time>
      </trkpt>
      <trkpt lat="39.35256" lon="3.18714">
        <ele>57.009769</ele>
        <time>2023-01-02T09:30:15.895Z</time>
      </trkpt>
      <trkpt lat="39.3525" lon="3.18724">
        <ele>56.262653</ele>
        <time>2023-01-02T09:30:20.903Z</time>
      </trkpt>
      <trkpt lat="39.35245" lon="3.18736">
        <ele>55.468307</ele>
        <time>2023-01-02T09:30:26.895Z</time>
      </trkpt>
      <trkpt lat="39.35238" lon="3.18745">
        <ele>54.692637</ele>
        <time>2023-01-02T09:30:32.899Z</time>
      </trkpt>
      <trkpt lat="39.35231" lon="3.18754">
        <ele>53.884697</ele>
        <time>2023-01-02T09:30:37.917Z</time>
      </trkpt>
      <trkpt lat="39.35223" lon="3.18764">
        <ele>53.058526</ele>
        <time>2023-01-02T09:30:42.903Z</time>
      </trkpt>
      <trkpt lat="39.35218" lon="3.18775">
        <ele>52.262777</ele>
        <time>2023-01-02T09:30:47.912Z</time>
      </trkpt>
      <trkpt lat="39.35213" lon="3.18791">
        <ele>51.247283</ele>
        <time>2023-01-02T09:31:22.902Z</time>
      </trkpt>
      <trkpt lat="39.35212" lon="3.18794">
        <ele>51.028123</ele>
        <time>2023-01-02T09:31:43.994Z</time>
      </trkpt>
      <trkpt lat="39.35243" lon="3.18827">
        <ele>47.967952</ele>
        <time>2023-01-02T09:41:17.935Z</time>
      </trkpt>
      <trkpt lat="39.35238" lon="3.18838">
        <ele>47.245408</ele>
        <time>2023-01-02T09:41:24.906Z</time>
      </trkpt>
      <trkpt lat="39.35245" lon="3.18847">
        <ele>46.46533</ele>
        <time>2023-01-02T09:41:47.910Z</time>
      </trkpt>
      <trkpt lat="39.35248" lon="3.18861">
        <ele>46.32479</ele>
        <time>2023-01-02T09:41:53.895Z</time>
      </trkpt>
      <trkpt lat="39.35247" lon="3.18874">
        <ele>46.868982</ele>
        <time>2023-01-02T09:41:58.896Z</time>
      </trkpt>
      <trkpt lat="39.35248" lon="3.18886">
        <ele>47.346508</ele>
        <time>2023-01-02T09:42:04.889Z</time>
      </trkpt>
      <trkpt lat="39.35256" lon="3.18891">
        <ele>47.840548</ele>
        <time>2023-01-02T09:42:10.904Z</time>
      </trkpt>
      <trkpt lat="39.35257" lon="3.18904">
        <ele>48.357555</ele>
        <time>2023-01-02T09:42:16.903Z</time>
      </trkpt>
      <trkpt lat="39.35262" lon="3.18914">
        <ele>48.8675</ele>
        <time>2023-01-02T09:42:22.901Z</time>
      </trkpt>
      <trkpt lat="39.3527" lon="3.18923">
        <ele>49.416858</ele>
        <time>2023-01-02T09:42:28.914Z</time>
      </trkpt>
      <trkpt lat="39.35274" lon="3.18937">
        <ele>49.994285</ele>
        <time>2023-01-02T09:42:34.889Z</time>
      </trkpt>
      <trkpt lat="39.35273" lon="3.18951">
        <ele>50.577811</ele>
        <time>2023-01-02T09:42:39.907Z</time>
      </trkpt>
      <trkpt lat="39.35273" lon="3.18964">
        <ele>51.123621</ele>
        <time>2023-01-02T09:42:44.895Z</time>
      </trkpt>
      <trkpt lat="39.35275" lon="3.18978">
        <ele>51.675797</ele>
        <time>2023-01-02T09:42:49.908Z</time>
      </trkpt>
      <trkpt lat="39.35281" lon="3.18988">
        <ele>52.194931</ele>
        <time>2023-01-02T09:42:54.898Z</time>
      </trkpt>
      <trkpt lat="39.3529" lon="3.18994">
        <ele>52.72536</ele>
        <time>2023-01-02T09:42:59.907Z</time>
      </trkpt>
      <trkpt lat="39.353" lon="3.18994">
        <ele>53.26857</ele>
        <time>2023-01-02T09:43:05.913Z</time>
      </trkpt>
      <trkpt lat="39.35311" lon="3.18996">
        <ele>53.832168</ele>
        <time>2023-01-02T09:43:10.898Z</time>
      </trkpt>
      <trkpt lat="39.35322" lon="3.18996">
        <ele>54.416777</ele>
        <time>2023-01-02T09:43:15.914Z</time>
      </trkpt>
      <trkpt lat="39.35331" lon="3.18994">
        <ele>54.893992</ele>
        <time>2023-01-02T09:43:19.922Z</time>
      </trkpt>
      <trkpt lat="39.3534" lon="3.18991">
        <ele>55.405402</ele>
        <time>2023-01-02T09:43:23.911Z</time>
      </trkpt>
      <trkpt lat="39.35352" lon="3.1899">
        <ele>55.906512</ele>
        <time>2023-01-02T09:43:27.904Z</time>
      </trkpt>
      <trkpt lat="39.35363" lon="3.18988">
        <ele>56.368661</ele>
        <time>2023-01-02T09:43:31.910Z</time>
      </trkpt>
      <trkpt lat="39.35373" lon="3.18984">
        <ele>56.801996</ele>
        <time>2023-01-02T09:43:35.884Z</time>
      </trkpt>
      <trkpt lat="39.35384" lon="3.18981">
        <ele>57.251112</ele>
        <time>2023-01-02T09:43:39.913Z</time>
      </trkpt>
      <trkpt lat="39.35395" lon="3.18978">
        <ele>57.744084</ele>
        <time>2023-01-02T09:43:43.909Z</time>
      </trkpt>
      <trkpt lat="39.35404" lon="3.18975">
        <ele>58.123309</ele>
        <time>2023-01-02T09:43:46.912Z</time>
      </trkpt>
      <trkpt lat="39.35414" lon="3.18974">
        <ele>58.520958</ele>
        <time>2023-01-02T09:43:49.902Z</time>
      </trkpt>
      <trkpt lat="39.35424" lon="3.18972">
        <ele>58.93375</ele>
        <time>2023-01-02T09:43:52.902Z</time>
      </trkpt>
      <trkpt lat="39.35433" lon="3.18969">
        <ele>59.312975</ele>
        <time>2023-01-02T09:43:55.915Z</time>
      </trkpt>
      <trkpt lat="39.35442" lon="3.18968">
        <ele>59.695832</ele>
        <time>2023-01-02T09:44:00.909Z</time>
      </trkpt>
      <trkpt lat="39.35452" lon="3.18966">
        <ele>60.09459</ele>
        <time>2023-01-02T09:44:05.898Z</time>
      </trkpt>
      <trkpt lat="39.35461" lon="3.18966">
        <ele>60.494209</ele>
        <time>2023-01-02T09:44:11.919Z</time>
      </trkpt>
      <trkpt lat="39.35471" lon="3.18964">
        <ele>60.887191</ele>
        <time>2023-01-02T09:44:18.898Z</time>
      </trkpt>
      <trkpt lat="39.3548" lon="3.18964">
        <ele>61.282999</ele>
        <time>2023-01-02T09:44:25.911Z</time>
      </trkpt>
      <trkpt lat="39.35489" lon="3.18966">
        <ele>61.665856</ele>
        <time>2023-01-02T09:44:31.907Z</time>
      </trkpt>
      <trkpt lat="39.35498" lon="3.18971">
        <ele>62.048144</ele>
        <time>2023-01-02T09:44:36.899Z</time>
      </trkpt>
      <trkpt lat="39.35506" lon="3.18978">
        <ele>62.433878</ele>
        <time>2023-01-02T09:44:43.910Z</time>
      </trkpt>
      <trkpt lat="39.35515" lon="3.18984">
        <ele>62.874515</ele>
        <time>2023-01-02T09:44:48.911Z</time>
      </trkpt>
      <trkpt lat="39.35524" lon="3.18991">
        <ele>63.323607</ele>
        <time>2023-01-02T09:44:52.895Z</time>
      </trkpt>
      <trkpt lat="39.35534" lon="3.18995">
        <ele>63.788617</ele>
        <time>2023-01-02T09:44:56.898Z</time>
      </trkpt>
      <trkpt lat="39.35543" lon="3.19001">
        <ele>64.25745</ele>
        <time>2023-01-02T09:45:00.890Z</time>
      </trkpt>
      <trkpt lat="39.35553" lon="3.19008">
        <ele>64.763252</ele>
        <time>2023-01-02T09:45:04.899Z</time>
      </trkpt>
      <trkpt lat="39.35562" lon="3.19016">
        <ele>65.276112</ele>
        <time>2023-01-02T09:45:08.911Z</time>
      </trkpt>
      <trkpt lat="39.35571" lon="3.19025">
        <ele>65.781228</ele>
        <time>2023-01-02T09:45:12.906Z</time>
      </trkpt>
      <trkpt lat="39.3558" lon="3.19034">
        <ele>66.278086</ele>
        <time>2023-01-02T09:45:16.884Z</time>
      </trkpt>
      <trkpt lat="39.35589" lon="3.19043">
        <ele>66.802944</ele>
        <time>2023-01-02T09:45:20.904Z</time>
      </trkpt>
      <trkpt lat="39.35597" lon="3.19052">
        <ele>67.272939</ele>
        <time>2023-01-02T09:45:24.908Z</time>
      </trkpt>
      <trkpt lat="39.35605" lon="3.19059">
        <ele>67.725057</ele>
        <time>2023-01-02T09:45:28.890Z</time>
      </trkpt>
      <trkpt lat="39.35613" lon="3.19068">
        <ele>68.201819</ele>
        <time>2023-01-02T09:45:32.907Z</time>
      </trkpt>
      <trkpt lat="39.3562" lon="3.19077">
        <ele>68.655898</ele>
        <time>2023-01-02T09:45:36.911Z</time>
      </trkpt>
      <trkpt lat="39.35628" lon="3.19086">
        <ele>69.119109</ele>
        <time>2023-01-02T09:45:40.897Z</time>
      </trkpt>
      <trkpt lat="39.35636" lon="3.19096">
        <ele>69.615261</ele>
        <time>2023-01-02T09:45:44.898Z</time>
      </trkpt>
      <trkpt lat="39.35644" lon="3.19103">
        <ele>70.082458</ele>
        <time>2023-01-02T09:45:48.900Z</time>
      </trkpt>
      <trkpt lat="39.35652" lon="3.19114">
        <ele>70.576709</ele>
        <time>2023-01-02T09:45:52.907Z</time>
      </trkpt>
      <trkpt lat="39.35659" lon="3.19125">
        <ele>71.059289</ele>
        <time>2023-01-02T09:45:56.887Z</time>
      </trkpt>
      <trkpt lat="39.35665" lon="3.19135">
        <ele>71.21284</ele>
        <time>2023-01-02T09:46:00.898Z</time>
      </trkpt>
      <trkpt lat="39.35671" lon="3.19146">
        <ele>71.370104</ele>
        <time>2023-01-02T09:46:04.903Z</time>
      </trkpt>
      <trkpt lat="39.35677" lon="3.19156">
        <ele>71.525626</ele>
        <time>2023-01-02T09:46:08.909Z</time>
      </trkpt>
      <trkpt lat="39.35683" lon="3.19169">
        <ele>71.699808</ele>
        <time>2023-01-02T09:46:12.899Z</time>
      </trkpt>
      <trkpt lat="39.35688" lon="3.19179">
        <ele>71.835952</ele>
        <time>2023-01-02T09:46:15.914Z</time>
      </trkpt>
      <trkpt lat="39.35694" lon="3.19191">
        <ele>72.006754</ele>
        <time>2023-01-02T09:46:19.895Z</time>
      </trkpt>
      <trkpt lat="39.35698" lon="3.19202">
        <ele>72.149114</ele>
        <time>2023-01-02T09:46:22.908Z</time>
      </trkpt>
      <trkpt lat="39.357" lon="3.19218">
        <ele>72.330448</ele>
        <time>2023-01-02T09:46:26.919Z</time>
      </trkpt>
      <trkpt lat="39.35703" lon="3.19231">
        <ele>72.495755</ele>
        <time>2023-01-02T09:46:30.900Z</time>
      </trkpt>
      <trkpt lat="39.35707" lon="3.19245">
        <ele>72.669185</ele>
        <time>2023-01-02T09:46:34.905Z</time>
      </trkpt>
      <trkpt lat="39.35707" lon="3.19257">
        <ele>72.80595</ele>
        <time>2023-01-02T09:46:37.921Z</time>
      </trkpt>
      <trkpt lat="39.35709" lon="3.19271">
        <ele>72.977233</ele>
        <time>2023-01-02T09:46:41.917Z</time>
      </trkpt>
      <trkpt lat="39.35711" lon="3.19285">
        <ele>73.138191</ele>
        <time>2023-01-02T09:46:45.916Z</time>
      </trkpt>
      <trkpt lat="39.35709" lon="3.193">
        <ele>73.316934</ele>
        <time>2023-01-02T09:46:49.914Z</time>
      </trkpt>
      <trkpt lat="39.35706" lon="3.19313">
        <ele>73.47327</ele>
        <time>2023-01-02T09:46:52.898Z</time>
      </trkpt>
      <trkpt lat="39.35702" lon="3.19325">
        <ele>73.630905</ele>
        <time>2023-01-02T09:46:55.904Z</time>
      </trkpt>
      <trkpt lat="39.35697" lon="3.19337">
        <ele>73.767084</ele>
        <time>2023-01-02T09:46:58.892Z</time>
      </trkpt>
      <trkpt lat="39.35694" lon="3.19349">
        <ele>73.676444</ele>
        <time>2023-01-02T09:47:01.915Z</time>
      </trkpt>
      <trkpt lat="39.35689" lon="3.19361">
        <ele>73.585776</ele>
        <time>2023-01-02T09:47:04.919Z</time>
      </trkpt>
      <trkpt lat="39.35684" lon="3.19373">
        <ele>73.492256</ele>
        <time>2023-01-02T09:47:07.919Z</time>
      </trkpt>
      <trkpt lat="39.35679" lon="3.19385">
        <ele>73.397476</ele>
        <time>2023-01-02T09:47:10.905Z</time>
      </trkpt>
      <trkpt lat="39.35674" lon="3.19398">
        <ele>73.296806</ele>
        <time>2023-01-02T09:47:13.898Z</time>
      </trkpt>
      <trkpt lat="39.3567" lon="3.19413">
        <ele>73.191389</ele>
        <time>2023-01-02T09:47:16.913Z</time>
      </trkpt>
      <trkpt lat="39.35664" lon="3.19426">
        <ele>73.085009</ele>
        <time>2023-01-02T09:47:19.913Z</time>
      </trkpt>
      <trkpt lat="39.35659" lon="3.19441">
        <ele>72.968976</ele>
        <time>2023-01-02T09:47:22.911Z</time>
      </trkpt>
      <trkpt lat="39.35655" lon="3.19452">
        <ele>72.888079</ele>
        <time>2023-01-02T09:47:24.904Z</time>
      </trkpt>
      <trkpt lat="39.35651" lon="3.19464">
        <ele>72.799049</ele>
        <time>2023-01-02T09:47:26.909Z</time>
      </trkpt>
      <trkpt lat="39.35647" lon="3.19476">
        <ele>72.710612</ele>
        <time>2023-01-02T09:47:28.900Z</time>
      </trkpt>
      <trkpt lat="39.35644" lon="3.19488">
        <ele>72.622861</ele>
        <time>2023-01-02T09:47:30.903Z</time>
      </trkpt>
      <trkpt lat="39.35639" lon="3.195">
        <ele>72.529206</ele>
        <time>2023-01-02T09:47:32.905Z</time>
      </trkpt>
      <trkpt lat="39.35636" lon="3.19512">
        <ele>72.437927</ele>
        <time>2023-01-02T09:47:34.903Z</time>
      </trkpt>
      <trkpt lat="39.35632" lon="3.19525">
        <ele>72.348257</ele>
        <time>2023-01-02T09:47:36.911Z</time>
      </trkpt>
      <trkpt lat="39.35628" lon="3.19536">
        <ele>72.260986</ele>
        <time>2023-01-02T09:47:38.904Z</time>
      </trkpt>
      <trkpt lat="39.35624" lon="3.19548">
        <ele>72.17451</ele>
        <time>2023-01-02T09:47:40.893Z</time>
      </trkpt>
      <trkpt lat="39.35621" lon="3.1956">
        <ele>72.02831</ele>
        <time>2023-01-02T09:47:42.912Z</time>
      </trkpt>
      <trkpt lat="39.35618" lon="3.19572">
        <ele>71.878131</ele>
        <time>2023-01-02T09:47:44.899Z</time>
      </trkpt>
      <trkpt lat="39.35619" lon="3.19584">
        <ele>71.735058</ele>
        <time>2023-01-02T09:47:46.908Z</time>
      </trkpt>
      <trkpt lat="39.35621" lon="3.19596">
        <ele>71.592015</ele>
        <time>2023-01-02T09:47:48.893Z</time>
      </trkpt>
      <trkpt lat="39.35624" lon="3.19608">
        <ele>71.448825</ele>
        <time>2023-01-02T09:47:50.904Z</time>
      </trkpt>
      <trkpt lat="39.35629" lon="3.1962">
        <ele>71.283368</ele>
        <time>2023-01-02T09:47:52.900Z</time>
      </trkpt>
      <trkpt lat="39.35636" lon="3.19634">
        <ele>71.100044</ele>
        <time>2023-01-02T09:47:54.900Z</time>
      </trkpt>
      <trkpt lat="39.35643" lon="3.19649">
        <ele>70.894967</ele>
        <time>2023-01-02T09:47:56.898Z</time>
      </trkpt>
      <trkpt lat="39.35651" lon="3.19664">
        <ele>70.680775</ele>
        <time>2023-01-02T09:47:58.907Z</time>
      </trkpt>
      <trkpt lat="39.35658" lon="3.19682">
        <ele>70.448435</ele>
        <time>2023-01-02T09:48:00.908Z</time>
      </trkpt>
      <trkpt lat="39.35664" lon="3.19701">
        <ele>70.209826</ele>
        <time>2023-01-02T09:48:02.902Z</time>
      </trkpt>
      <trkpt lat="39.35669" lon="3.1972">
        <ele>69.977438</ele>
        <time>2023-01-02T09:48:04.896Z</time>
      </trkpt>
      <trkpt lat="39.35672" lon="3.19736">
        <ele>69.786797</ele>
        <time>2023-01-02T09:48:06.909Z</time>
      </trkpt>
      <trkpt lat="39.35674" lon="3.1975">
        <ele>69.615557</ele>
        <time>2023-01-02T09:48:08.909Z</time>
      </trkpt>
      <trkpt lat="39.35676" lon="3.19764">
        <ele>69.47025</ele>
        <time>2023-01-02T09:48:10.896Z</time>
      </trkpt>
      <trkpt lat="39.35678" lon="3.19777">
        <ele>69.503005</ele>
        <time>2023-01-02T09:48:12.899Z</time>
      </trkpt>
      <trkpt lat="39.3568" lon="3.19789">
        <ele>69.53569</ele>
        <time>2023-01-02T09:48:14.909Z</time>
      </trkpt>
      <trkpt lat="39.35683" lon="3.19801">
        <ele>69.566033</ele>
        <time>2023-01-02T09:48:16.908Z</time>
      </trkpt>
      <trkpt lat="39.35685" lon="3.19812">
        <ele>69.595359</ele>
        <time>2023-01-02T09:48:18.913Z</time>
      </trkpt>
      <trkpt lat="39.35688" lon="3.19824">
        <ele>69.625606</ele>
        <time>2023-01-02T09:48:20.902Z</time>
      </trkpt>
      <trkpt lat="39.35691" lon="3.19836">
        <ele>69.657585</ele>
        <time>2023-01-02T09:48:22.908Z</time>
      </trkpt>
      <trkpt lat="39.35694" lon="3.19848">
        <ele>69.690671</ele>
        <time>2023-01-02T09:48:24.905Z</time>
      </trkpt>
      <trkpt lat="39.35696" lon="3.1986">
        <ele>69.722109</ele>
        <time>2023-01-02T09:48:26.920Z</time>
      </trkpt>
      <trkpt lat="39.35698" lon="3.19873">
        <ele>69.754493</ele>
        <time>2023-01-02T09:48:28.894Z</time>
      </trkpt>
      <trkpt lat="39.357" lon="3.19886">
        <ele>69.788098</ele>
        <time>2023-01-02T09:48:30.929Z</time>
      </trkpt>
      <trkpt lat="39.35702" lon="3.19899">
        <ele>69.820784</ele>
        <time>2023-01-02T09:48:32.903Z</time>
      </trkpt>
      <trkpt lat="39.35703" lon="3.19912">
        <ele>69.853965</ele>
        <time>2023-01-02T09:48:34.900Z</time>
      </trkpt>
      <trkpt lat="39.35704" lon="3.19925">
        <ele>69.885915</ele>
        <time>2023-01-02T09:48:36.898Z</time>
      </trkpt>
      <trkpt lat="39.35706" lon="3.19937">
        <ele>69.916756</ele>
        <time>2023-01-02T09:48:38.900Z</time>
      </trkpt>
      <trkpt lat="39.35707" lon="3.19948">
        <ele>69.946709</ele>
        <time>2023-01-02T09:48:40.909Z</time>
      </trkpt>
      <trkpt lat="39.35709" lon="3.19965">
        <ele>69.989849</ele>
        <time>2023-01-02T09:48:43.911Z</time>
      </trkpt>
      <trkpt lat="39.3571" lon="3.19977">
        <ele>70.019597</ele>
        <time>2023-01-02T09:48:45.909Z</time>
      </trkpt>
      <trkpt lat="39.35712" lon="3.19993">
        <ele>70.023036</ele>
        <time>2023-01-02T09:48:48.905Z</time>
      </trkpt>
      <trkpt lat="39.35713" lon="3.20008">
        <ele>69.849691</ele>
        <time>2023-01-02T09:48:51.904Z</time>
      </trkpt>
      <trkpt lat="39.35715" lon="3.20023">
        <ele>69.677229</ele>
        <time>2023-01-02T09:48:54.900Z</time>
      </trkpt>
      <trkpt lat="39.35717" lon="3.20037">
        <ele>69.510018</ele>
        <time>2023-01-02T09:48:57.912Z</time>
      </trkpt>
      <trkpt lat="39.35719" lon="3.20052">
        <ele>69.333032</ele>
        <time>2023-01-02T09:49:00.905Z</time>
      </trkpt>
      <trkpt lat="39.35721" lon="3.20067">
        <ele>69.162416</ele>
        <time>2023-01-02T09:49:03.905Z</time>
      </trkpt>
      <trkpt lat="39.3572" lon="3.20083">
        <ele>68.977314</ele>
        <time>2023-01-02T09:49:06.890Z</time>
      </trkpt>
      <trkpt lat="39.35711" lon="3.20095">
        <ele>68.786634</ele>
        <time>2023-01-02T09:49:09.920Z</time>
      </trkpt>
      <trkpt lat="39.35703" lon="3.20101">
        <ele>68.646313</ele>
        <time>2023-01-02T09:49:11.939Z</time>
      </trkpt>
      <trkpt lat="39.35695" lon="3.2011">
        <ele>68.491018</ele>
        <time>2023-01-02T09:49:13.899Z</time>
      </trkpt>
      <trkpt lat="39.35687" lon="3.20119">
        <ele>68.33022</ele>
        <time>2023-01-02T09:49:15.907Z</time>
      </trkpt>
      <trkpt lat="39.35679" lon="3.20127">
        <ele>68.175783</ele>
        <time>2023-01-02T09:49:17.916Z</time>
      </trkpt>
      <trkpt lat="39.35671" lon="3.20137">
        <ele>68.015321</ele>
        <time>2023-01-02T09:49:19.920Z</time>
      </trkpt>
      <trkpt lat="39.35663" lon="3.20147">
        <ele>67.844249</ele>
        <time>2023-01-02T09:49:21.917Z</time>
      </trkpt>
      <trkpt lat="39.35655" lon="3.20159">
        <ele>67.667008</ele>
        <time>2023-01-02T09:49:23.913Z</time>
      </trkpt>
      <trkpt lat="39.35647" lon="3.20171">
        <ele>67.484157</ele>
        <time>2023-01-02T09:49:25.909Z</time>
      </trkpt>
      <trkpt lat="39.35639" lon="3.20185">
        <ele>67.348226</ele>
        <time>2023-01-02T09:49:27.916Z</time>
      </trkpt>
      <trkpt lat="39.35631" lon="3.20199">
        <ele>67.278273</ele>
        <time>2023-01-02T09:49:29.912Z</time>
      </trkpt>
      <trkpt lat="39.35622" lon="3.20213">
        <ele>67.206109</ele>
        <time>2023-01-02T09:49:31.900Z</time>
      </trkpt>
      <trkpt lat="39.35615" lon="3.20227">
        <ele>67.138374</ele>
        <time>2023-01-02T09:49:33.904Z</time>
      </trkpt>
      <trkpt lat="39.35606" lon="3.2024">
        <ele>67.071245</ele>
        <time>2023-01-02T09:49:35.911Z</time>
      </trkpt>
      <trkpt lat="39.35597" lon="3.20252">
        <ele>67.002688</ele>
        <time>2023-01-02T09:49:37.911Z</time>
      </trkpt>
      <trkpt lat="39.35588" lon="3.20263">
        <ele>66.936264</ele>
        <time>2023-01-02T09:49:39.917Z</time>
      </trkpt>
      <trkpt lat="39.35579" lon="3.20273">
        <ele>66.875506</ele>
        <time>2023-01-02T09:49:41.903Z</time>
      </trkpt>
      <trkpt lat="39.35571" lon="3.20283">
        <ele>66.818144</ele>
        <time>2023-01-02T09:49:43.900Z</time>
      </trkpt>
      <trkpt lat="39.35564" lon="3.20292">
        <ele>66.76526</ele>
        <time>2023-01-02T09:49:45.921Z</time>
      </trkpt>
      <trkpt lat="39.35557" lon="3.20301">
        <ele>66.717215</ele>
        <time>2023-01-02T09:49:47.910Z</time>
      </trkpt>
      <trkpt lat="39.35548" lon="3.20312">
        <ele>66.652958</ele>
        <time>2023-01-02T09:49:50.908Z</time>
      </trkpt>
      <trkpt lat="39.3554" lon="3.20323">
        <ele>66.592275</ele>
        <time>2023-01-02T09:49:53.894Z</time>
      </trkpt>
      <trkpt lat="39.35532" lon="3.20334">
        <ele>66.530294</ele>
        <time>2023-01-02T09:49:56.911Z</time>
      </trkpt>
      <trkpt lat="39.35523" lon="3.20342">
        <ele>66.471368</ele>
        <time>2023-01-02T09:49:59.914Z</time>
      </trkpt>
      <trkpt lat="39.35513" lon="3.20349">
        <ele>66.150169</ele>
        <time>2023-01-02T09:50:02.890Z</time>
      </trkpt>
      <trkpt lat="39.35503" lon="3.20358">
        <ele>65.604485</ele>
        <time>2023-01-02T09:50:05.917Z</time>
      </trkpt>
      <trkpt lat="39.35494" lon="3.2037">
        <ele>65.00613</ele>
        <time>2023-01-02T09:50:08.910Z</time>
      </trkpt>
      <trkpt lat="39.35488" lon="3.20379">
        <ele>64.573774</ele>
        <time>2023-01-02T09:50:10.910Z</time>
      </trkpt>
      <trkpt lat="39.35483" lon="3.20391">
        <ele>64.105749</ele>
        <time>2023-01-02T09:50:12.935Z</time>
      </trkpt>
      <trkpt lat="39.3548" lon="3.20404">
        <ele>63.630514</ele>
        <time>2023-01-02T09:50:14.915Z</time>
      </trkpt>
      <trkpt lat="39.35475" lon="3.20416">
        <ele>63.159042</ele>
        <time>2023-01-02T09:50:16.903Z</time>
      </trkpt>
      <trkpt lat="39.35472" lon="3.20427">
        <ele>62.741115</ele>
        <time>2023-01-02T09:50:18.901Z</time>
      </trkpt>
      <trkpt lat="39.35467" lon="3.20438">
        <ele>62.30443</ele>
        <time>2023-01-02T09:50:20.903Z</time>
      </trkpt>
      <trkpt lat="39.35463" lon="3.2045">
        <ele>61.845682</ele>
        <time>2023-01-02T09:50:22.891Z</time>
      </trkpt>
      <trkpt lat="39.35459" lon="3.20463">
        <ele>61.324297</ele>
        <time>2023-01-02T09:50:24.887Z</time>
      </trkpt>
      <trkpt lat="39.35457" lon="3.20481">
        <ele>60.717481</ele>
        <time>2023-01-02T09:50:26.889Z</time>
      </trkpt>
      <trkpt lat="39.35461" lon="3.20502">
        <ele>59.961881</ele>
        <time>2023-01-02T09:50:28.903Z</time>
      </trkpt>
      <trkpt lat="39.35465" lon="3.20518">
        <ele>59.331931</ele>
        <time>2023-01-02T09:50:30.899Z</time>
      </trkpt>
      <trkpt lat="39.3547" lon="3.20536">
        <ele>58.679102</ele>
        <time>2023-01-02T09:50:32.896Z</time>
      </trkpt>
      <trkpt lat="39.35477" lon="3.20554">
        <ele>58.004118</ele>
        <time>2023-01-02T09:50:34.908Z</time>
      </trkpt>
      <trkpt lat="39.35481" lon="3.20573">
        <ele>57.311355</ele>
        <time>2023-01-02T09:50:36.919Z</time>
      </trkpt>
      <trkpt lat="39.35484" lon="3.20595">
        <ele>56.598388</ele>
        <time>2023-01-02T09:50:38.902Z</time>
      </trkpt>
      <trkpt lat="39.35486" lon="3.20616">
        <ele>55.89091</ele>
        <time>2023-01-02T09:50:40.913Z</time>
      </trkpt>
      <trkpt lat="39.35488" lon="3.20636">
        <ele>55.224866</ele>
        <time>2023-01-02T09:50:42.907Z</time>
      </trkpt>
      <trkpt lat="39.3549" lon="3.20656">
        <ele>54.554111</ele>
        <time>2023-01-02T09:50:44.904Z</time>
      </trkpt>
      <trkpt lat="39.35492" lon="3.20672">
        <ele>53.989705</ele>
        <time>2023-01-02T09:50:46.917Z</time>
      </trkpt>
      <trkpt lat="39.35494" lon="3.2069">
        <ele>53.38926</ele>
        <time>2023-01-02T09:50:48.892Z</time>
      </trkpt>
      <trkpt lat="39.35494" lon="3.2071">
        <ele>52.723925</ele>
        <time>2023-01-02T09:50:50.890Z</time>
      </trkpt>
      <trkpt lat="39.35493" lon="3.2073">
        <ele>52.059862</ele>
        <time>2023-01-02T09:50:52.897Z</time>
      </trkpt>
      <trkpt lat="39.35491" lon="3.20749">
        <ele>51.419886</ele>
        <time>2023-01-02T09:50:54.897Z</time>
      </trkpt>
      <trkpt lat="39.3549" lon="3.20768">
        <ele>50.805856</ele>
        <time>2023-01-02T09:50:56.910Z</time>
      </trkpt>
      <trkpt lat="39.35489" lon="3.20785">
        <ele>50.437324</ele>
        <time>2023-01-02T09:50:58.892Z</time>
      </trkpt>
      <trkpt lat="39.35488" lon="3.20801">
        <ele>50.288054</ele>
        <time>2023-01-02T09:51:00.910Z</time>
      </trkpt>
      <trkpt lat="39.35489" lon="3.20817">
        <ele>50.140624</ele>
        <time>2023-01-02T09:51:02.904Z</time>
      </trkpt>
      <trkpt lat="39.35488" lon="3.20832">
        <ele>50.001656</ele>
        <time>2023-01-02T09:51:04.906Z</time>
      </trkpt>
      <trkpt lat="39.35486" lon="3.20846">
        <ele>49.86986</ele>
        <time>2023-01-02T09:51:06.894Z</time>
      </trkpt>
      <trkpt lat="39.35484" lon="3.20863">
        <ele>49.716628</ele>
        <time>2023-01-02T09:51:09.906Z</time>
      </trkpt>
      <trkpt lat="39.35482" lon="3.20876">
        <ele>49.5889</ele>
        <time>2023-01-02T09:51:13.910Z</time>
      </trkpt>
      <trkpt lat="39.3549" lon="3.20888">
        <ele>49.450229</ele>
        <time>2023-01-02T09:51:39.906Z</time>
      </trkpt>
      <trkpt lat="39.35499" lon="3.20892">
        <ele>49.337103</ele>
        <time>2023-01-02T09:51:45.910Z</time>
      </trkpt>
      <trkpt lat="39.35509" lon="3.20897">
        <ele>49.211721</ele>
        <time>2023-01-02T09:51:51.906Z</time>
      </trkpt>
      <trkpt lat="39.35517" lon="3.20902">
        <ele>49.099807</ele>
        <time>2023-01-02T09:51:55.901Z</time>
      </trkpt>
      <trkpt lat="39.35526" lon="3.20905">
        <ele>48.99071</ele>
        <time>2023-01-02T09:51:59.915Z</time>
      </trkpt>
      <trkpt lat="39.35535" lon="3.20909">
        <ele>48.879323</ele>
        <time>2023-01-02T09:52:03.907Z</time>
      </trkpt>
      <trkpt lat="39.35545" lon="3.20908">
        <ele>48.757747</ele>
        <time>2023-01-02T09:52:08.899Z</time>
      </trkpt>
      <trkpt lat="39.35554" lon="3.20909">
        <ele>48.65039</ele>
        <time>2023-01-02T09:52:13.914Z</time>
      </trkpt>
      <trkpt lat="39.35565" lon="3.2091">
        <ele>48.526066</ele>
        <time>2023-01-02T09:52:19.905Z</time>
      </trkpt>
      <trkpt lat="39.3557" lon="3.20909">
        <ele>48.463469</ele>
        <time>2023-01-02T09:52:35.763Z</time>
      </trkpt>
      <trkpt lat="39.35829" lon="3.20854">
        <ele>52.467808</ele>
        <time>2023-01-02T10:05:48.898Z</time>
      </trkpt>
      <trkpt lat="39.35832" lon="3.20842">
        <ele>52.919546</ele>
        <time>2023-01-02T10:06:36.891Z</time>
      </trkpt>
      <trkpt lat="39.3584" lon="3.20836">
        <ele>53.348624</ele>
        <time>2023-01-02T10:06:45.892Z</time>
      </trkpt>
      <trkpt lat="39.35849" lon="3.20833">
        <ele>53.802114</ele>
        <time>2023-01-02T10:06:54.889Z</time>
      </trkpt>
      <trkpt lat="39.35858" lon="3.2083">
        <ele>54.225267</ele>
        <time>2023-01-02T10:07:03.895Z</time>
      </trkpt>
      <trkpt lat="39.35867" lon="3.20826">
        <ele>54.644935</ele>
        <time>2023-01-02T10:07:13.897Z</time>
      </trkpt>
      <trkpt lat="39.35876" lon="3.20824">
        <ele>55.082517</ele>
        <time>2023-01-02T10:07:22.887Z</time>
      </trkpt>
      <trkpt lat="39.35884" lon="3.2083">
        <ele>55.516225</ele>
        <time>2023-01-02T10:07:32.885Z</time>
      </trkpt>
      <trkpt lat="39.35889" lon="3.20837">
        <ele>55.829544</ele>
        <time>2023-01-02T10:07:39.147Z</time>
      </trkpt>
      <trkpt lat="39.35894" lon="3.20847">
        <ele>56.262269</ele>
        <time>2023-01-02T10:07:47.892Z</time>
      </trkpt>
      <trkpt lat="39.35901" lon="3.20856">
        <ele>56.714911</ele>
        <time>2023-01-02T10:07:56.900Z</time>
      </trkpt>
      <trkpt lat="39.35906" lon="3.20866">
        <ele>57.150523</ele>
        <time>2023-01-02T10:08:04.893Z</time>
      </trkpt>
      <trkpt lat="39.35913" lon="3.20877">
        <ele>56.962848</ele>
        <time>2023-01-02T10:08:12.903Z</time>
      </trkpt>
      <trkpt lat="39.35919" lon="3.20888">
        <ele>56.538969</ele>
        <time>2023-01-02T10:08:17.891Z</time>
      </trkpt>
      <trkpt lat="39.35925" lon="3.20896">
        <ele>56.15092</ele>
        <time>2023-01-02T10:08:21.909Z</time>
      </trkpt>
      <trkpt lat="39.35928" lon="3.20908">
        <ele>55.749002</ele>
        <time>2023-01-02T10:08:26.891Z</time>
      </trkpt>
      <trkpt lat="39.35936" lon="3.20915">
        <ele>55.294615</ele>
        <time>2023-01-02T10:08:34.895Z</time>
      </trkpt>
      <trkpt lat="39.35943" lon="3.20927">
        <ele>54.830932</ele>
        <time>2023-01-02T10:08:38.911Z</time>
      </trkpt>
      <trkpt lat="39.35948" lon="3.20938">
        <ele>54.405554</ele>
        <time>2023-01-02T10:08:42.904Z</time>
      </trkpt>
      <trkpt lat="39.35954" lon="3.20947">
        <ele>53.999672</ele>
        <time>2023-01-02T10:08:50.900Z</time>
      </trkpt>
      <trkpt lat="39.35965" lon="3.20944">
        <ele>53.541608</ele>
        <time>2023-01-02T10:08:55.903Z</time>
      </trkpt>
      <trkpt lat="39.35971" lon="3.20933">
        <ele>53.083713</ele>
        <time>2023-01-02T10:08:58.897Z</time>
      </trkpt>
      <trkpt lat="39.35978" lon="3.2092">
        <ele>52.565615</ele>
        <time>2023-01-02T10:09:01.896Z</time>
      </trkpt>
      <trkpt lat="39.35985" lon="3.20911">
        <ele>52.139865</ele>
        <time>2023-01-02T10:09:03.899Z</time>
      </trkpt>
      <trkpt lat="39.35993" lon="3.20902">
        <ele>51.717478</ele>
        <time>2023-01-02T10:09:05.897Z</time>
      </trkpt>
      <trkpt lat="39.36001" lon="3.20893">
        <ele>51.219624</ele>
        <time>2023-01-02T10:09:07.903Z</time>
      </trkpt>
      <trkpt lat="39.3601" lon="3.20884">
        <ele>50.757182</ele>
        <time>2023-01-02T10:09:09.895Z</time>
      </trkpt>
      <trkpt lat="39.3602" lon="3.20875">
        <ele>50.213652</ele>
        <time>2023-01-02T10:09:12.904Z</time>
      </trkpt>
      <trkpt lat="39.36029" lon="3.20868">
        <ele>49.760746</ele>
        <time>2023-01-02T10:09:15.902Z</time>
      </trkpt>
      <trkpt lat="39.36038" lon="3.20859">
        <ele>49.475475</ele>
        <time>2023-01-02T10:09:18.903Z</time>
      </trkpt>
      <trkpt lat="39.36049" lon="3.20851">
        <ele>49.255722</ele>
        <time>2023-01-02T10:09:21.902Z</time>
      </trkpt>
      <trkpt lat="39.36058" lon="3.20846">
        <ele>49.09346</ele>
        <time>2023-01-02T10:09:23.897Z</time>
      </trkpt>
      <trkpt lat="39.36067" lon="3.2084">
        <ele>48.925996</ele>
        <time>2023-01-02T10:09:25.915Z</time>
      </trkpt>
      <trkpt lat="39.36075" lon="3.20835">
        <ele>48.768331</ele>
        <time>2023-01-02T10:09:27.909Z</time>
      </trkpt>
      <trkpt lat="39.36086" lon="3.20827">
        <ele>48.554362</ele>
        <time>2023-01-02T10:09:30.900Z</time>
      </trkpt>
      <trkpt lat="39.36095" lon="3.20823">
        <ele>48.393642</ele>
        <time>2023-01-02T10:09:33.892Z</time>
      </trkpt>
      <trkpt lat="39.36104" lon="3.20822">
        <ele>48.233059</ele>
        <time>2023-01-02T10:09:37.902Z</time>
      </trkpt>
      <trkpt lat="39.36115" lon="3.20826">
        <ele>48.041485</ele>
        <time>2023-01-02T10:09:42.913Z</time>
      </trkpt>
      <trkpt lat="39.36124" lon="3.20827">
        <ele>47.886589</ele>
        <time>2023-01-02T10:09:47.901Z</time>
      </trkpt>
      <trkpt lat="39.3613" lon="3.20817">
        <ele>47.708417</ele>
        <time>2023-01-02T10:09:54.904Z</time>
      </trkpt>
      <trkpt lat="39.36131" lon="3.20805">
        <ele>47.553917</ele>
        <time>2023-01-02T10:09:59.905Z</time>
      </trkpt>
      <trkpt lat="39.36131" lon="3.20793">
        <ele>47.386962</ele>
        <time>2023-01-02T10:10:06.894Z</time>
      </trkpt>
      <trkpt lat="39.36135" lon="3.20782">
        <ele>47.228722</ele>
        <time>2023-01-02T10:10:13.905Z</time>
      </trkpt>
      <trkpt lat="39.36134" lon="3.20794">
        <ele>47.065453</ele>
        <time>2023-01-02T10:10:26.892Z</time>
      </trkpt>
      <trkpt lat="39.36139" lon="3.20805">
        <ele>46.892662</ele>
        <time>2023-01-02T10:10:34.889Z</time>
      </trkpt>
      <trkpt lat="39.36144" lon="3.20823">
        <ele>46.649051</ele>
        <time>2023-01-02T10:11:03.900Z</time>
      </trkpt>
      <trkpt lat="39.36138" lon="3.20834">
        <ele>46.518221</ele>
        <time>2023-01-02T10:11:08.901Z</time>
      </trkpt>
      <trkpt lat="39.36132" lon="3.20845">
        <ele>46.539951</ele>
        <time>2023-01-02T10:11:13.903Z</time>
      </trkpt>
      <trkpt lat="39.36129" lon="3.20857">
        <ele>46.558811</ele>
        <time>2023-01-02T10:11:19.902Z</time>
      </trkpt>
      <trkpt lat="39.3612" lon="3.20864">
        <ele>46.580348</ele>
        <time>2023-01-02T10:11:26.903Z</time>
      </trkpt>
      <trkpt lat="39.36113" lon="3.20875">
        <ele>46.603553</ele>
        <time>2023-01-02T10:11:30.887Z</time>
      </trkpt>
      <trkpt lat="39.36107" lon="3.20885">
        <ele>46.622717</ele>
        <time>2023-01-02T10:11:33.906Z</time>
      </trkpt>
      <trkpt lat="39.36101" lon="3.20895">
        <ele>46.642256</ele>
        <time>2023-01-02T10:11:36.897Z</time>
      </trkpt>
      <trkpt lat="39.36094" lon="3.20908">
        <ele>46.6676</ele>
        <time>2023-01-02T10:11:40.898Z</time>
      </trkpt>
      <trkpt lat="39.36089" lon="3.2092">
        <ele>46.689169</ele>
        <time>2023-01-02T10:11:43.915Z</time>
      </trkpt>
      <trkpt lat="39.36084" lon="3.20934">
        <ele>46.71357</ele>
        <time>2023-01-02T10:11:46.899Z</time>
      </trkpt>
      <trkpt lat="39.36081" lon="3.20948">
        <ele>46.736628</ele>
        <time>2023-01-02T10:11:49.909Z</time>
      </trkpt>
      <trkpt lat="39.36078" lon="3.20963">
        <ele>46.760391</ele>
        <time>2023-01-02T10:11:52.908Z</time>
      </trkpt>
      <trkpt lat="39.36078" lon="3.20976">
        <ele>46.780841</ele>
        <time>2023-01-02T10:11:55.891Z</time>
      </trkpt>
      <trkpt lat="39.3608" lon="3.20989">
        <ele>46.801101</ele>
        <time>2023-01-02T10:11:58.908Z</time>
      </trkpt>
      <trkpt lat="39.36087" lon="3.20998">
        <ele>46.821998</ele>
        <time>2023-01-02T10:12:01.906Z</time>
      </trkpt>
      <trkpt lat="39.36095" lon="3.21003">
        <ele>46.840258</ele>
        <time>2023-01-02T10:12:04.910Z</time>
      </trkpt>
      <trkpt lat="39.36103" lon="3.21009">
        <ele>46.858917</ele>
        <time>2023-01-02T10:12:07.887Z</time>
      </trkpt>
      <trkpt lat="39.36112" lon="3.21018">
        <ele>46.882488</ele>
        <time>2023-01-02T10:12:11.891Z</time>
      </trkpt>
      <trkpt lat="39.36122" lon="3.21024">
        <ele>46.913356</ele>
        <time>2023-01-02T10:12:15.896Z</time>
      </trkpt>
      <trkpt lat="39.3613" lon="3.21032">
        <ele>46.942422</ele>
        <time>2023-01-02T10:12:18.914Z</time>
      </trkpt>
      <trkpt lat="39.36139" lon="3.21039">
        <ele>46.973655</ele>
        <time>2023-01-02T10:12:21.894Z</time>
      </trkpt>
      <trkpt lat="39.3615" lon="3.21043">
        <ele>47.004285</ele>
        <time>2023-01-02T10:12:25.896Z</time>
      </trkpt>
      <trkpt lat="39.36159" lon="3.21037">
        <ele>47.035323</ele>
        <time>2023-01-02T10:12:29.903Z</time>
      </trkpt>
      <trkpt lat="39.36165" lon="3.21027">
        <ele>47.061468</ele>
        <time>2023-01-02T10:12:33.899Z</time>
      </trkpt>
      <trkpt lat="39.36172" lon="3.21018">
        <ele>47.08966</ele>
        <time>2023-01-02T10:12:38.903Z</time>
      </trkpt>
      <trkpt lat="39.36182" lon="3.21024">
        <ele>47.120712</ele>
        <time>2023-01-02T10:12:43.892Z</time>
      </trkpt>
      <trkpt lat="39.36189" lon="3.2103">
        <ele>47.147144</ele>
        <time>2023-01-02T10:12:47.898Z</time>
      </trkpt>
      <trkpt lat="39.36198" lon="3.21036">
        <ele>47.174672</ele>
        <time>2023-01-02T10:12:51.888Z</time>
      </trkpt>
      <trkpt lat="39.36206" lon="3.21042">
        <ele>47.20151</ele>
        <time>2023-01-02T10:12:55.892Z</time>
      </trkpt>
      <trkpt lat="39.36214" lon="3.21049">
        <ele>47.229018</ele>
        <time>2023-01-02T10:12:59.898Z</time>
      </trkpt>
      <trkpt lat="39.36222" lon="3.21056">
        <ele>47.256527</ele>
        <time>2023-01-02T10:13:03.885Z</time>
      </trkpt>
      <trkpt lat="39.36231" lon="3.21063">
        <ele>47.285356</ele>
        <time>2023-01-02T10:13:07.897Z</time>
      </trkpt>
      <trkpt lat="39.3624" lon="3.21067">
        <ele>47.312395</ele>
        <time>2023-01-02T10:13:11.904Z</time>
      </trkpt>
      <trkpt lat="39.36251" lon="3.21066">
        <ele>47.344064</ele>
        <time>2023-01-02T10:13:15.898Z</time>
      </trkpt>
      <trkpt lat="39.3626" lon="3.21064">
        <ele>47.370116</ele>
        <time>2023-01-02T10:13:18.884Z</time>
      </trkpt>
      <trkpt lat="39.36269" lon="3.2106">
        <ele>47.405969</ele>
        <time>2023-01-02T10:13:21.902Z</time>
      </trkpt>
      <trkpt lat="39.36279" lon="3.21056">
        <ele>47.47351</ele>
        <time>2023-01-02T10:13:24.907Z</time>
      </trkpt>
      <trkpt lat="39.36288" lon="3.21051">
        <ele>47.535421</ele>
        <time>2023-01-02T10:13:27.894Z</time>
      </trkpt>
      <trkpt lat="39.36297" lon="3.21047">
        <ele>47.596178</ele>
        <time>2023-01-02T10:13:30.878Z</time>
      </trkpt>
      <trkpt lat="39.36305" lon="3.21042">
        <ele>47.654518</ele>
        <time>2023-01-02T10:13:33.903Z</time>
      </trkpt>
      <trkpt lat="39.36314" lon="3.21038">
        <ele>47.715324</ele>
        <time>2023-01-02T10:13:36.889Z</time>
      </trkpt>
      <trkpt lat="39.36323" lon="3.21034">
        <ele>47.777015</ele>
        <time>2023-01-02T10:13:39.896Z</time>
      </trkpt>
      <trkpt lat="39.36333" lon="3.21032">
        <ele>47.844313</ele>
        <time>2023-01-02T10:13:42.900Z</time>
      </trkpt>
      <trkpt lat="39.36345" lon="3.21031">
        <ele>47.922298</ele>
        <time>2023-01-02T10:13:45.892Z</time>
      </trkpt>
      <trkpt lat="39.36357" lon="3.21031">
        <ele>47.999447</ele>
        <time>2023-01-02T10:13:48.902Z</time>
      </trkpt>
      <trkpt lat="39.36368" lon="3.21029">
        <ele>48.068818</ele>
        <time>2023-01-02T10:13:51.899Z</time>
      </trkpt>
      <trkpt lat="39.36379" lon="3.21026">
        <ele>48.142582</ele>
        <time>2023-01-02T10:13:54.896Z</time>
      </trkpt>
      <trkpt lat="39.3639" lon="3.21025">
        <ele>48.214679</ele>
        <time>2023-01-02T10:13:57.894Z</time>
      </trkpt>
      <trkpt lat="39.364" lon="3.21027">
        <ele>48.280129</ele>
        <time>2023-01-02T10:14:00.898Z</time>
      </trkpt>
      <trkpt lat="39.36411" lon="3.21026">
        <ele>48.348313</ele>
        <time>2023-01-02T10:14:04.968Z</time>
      </trkpt>
      <trkpt lat="39.3642" lon="3.21024">
        <ele>48.407689</ele>
        <time>2023-01-02T10:14:30.888Z</time>
      </trkpt>
      <trkpt lat="39.36427" lon="3.21033">
        <ele>48.471783</ele>
        <time>2023-01-02T10:14:34.895Z</time>
      </trkpt>
      <trkpt lat="39.36426" lon="3.21047">
        <ele>48.543189</ele>
        <time>2023-01-02T10:14:37.905Z</time>
      </trkpt>
      <trkpt lat="39.36423" lon="3.21061">
        <ele>48.4849</ele>
        <time>2023-01-02T10:14:40.900Z</time>
      </trkpt>
      <trkpt lat="39.36426" lon="3.21072">
        <ele>48.41252</ele>
        <time>2023-01-02T10:14:43.913Z</time>
      </trkpt>
      <trkpt lat="39.36438" lon="3.21079">
        <ele>48.306629</ele>
        <time>2023-01-02T10:14:46.899Z</time>
      </trkpt>
      <trkpt lat="39.36449" lon="3.21081">
        <ele>48.224361</ele>
        <time>2023-01-02T10:14:48.904Z</time>
      </trkpt>
      <trkpt lat="39.36459" lon="3.21082">
        <ele>48.139749</ele>
        <time>2023-01-02T10:14:50.885Z</time>
      </trkpt>
      <trkpt lat="39.3647" lon="3.21084">
        <ele>48.052465</ele>
        <time>2023-01-02T10:14:52.897Z</time>
      </trkpt>
      <trkpt lat="39.3648" lon="3.2109">
        <ele>47.963679</ele>
        <time>2023-01-02T10:14:54.883Z</time>
      </trkpt>
      <trkpt lat="39.36486" lon="3.21102">
        <ele>47.879124</ele>
        <time>2023-01-02T10:14:56.904Z</time>
      </trkpt>
      <trkpt lat="39.36485" lon="3.21116">
        <ele>47.791318</ele>
        <time>2023-01-02T10:14:58.899Z</time>
      </trkpt>
      <trkpt lat="39.3648" lon="3.21129">
        <ele>47.700269</ele>
        <time>2023-01-02T10:15:00.898Z</time>
      </trkpt>
      <trkpt lat="39.36473" lon="3.21141">
        <ele>47.609762</ele>
        <time>2023-01-02T10:15:02.897Z</time>
      </trkpt>
      <trkpt lat="39.36467" lon="3.21153">
        <ele>47.518653</ele>
        <time>2023-01-02T10:15:04.909Z</time>
      </trkpt>
      <trkpt lat="39.36459" lon="3.21164">
        <ele>47.432287</ele>
        <time>2023-01-02T10:15:06.916Z</time>
      </trkpt>
      <trkpt lat="39.36452" lon="3.21173">
        <ele>47.346527</ele>
        <time>2023-01-02T10:15:08.915Z</time>
      </trkpt>
      <trkpt lat="39.36444" lon="3.21183">
        <ele>47.261926</ele>
        <time>2023-01-02T10:15:10.906Z</time>
      </trkpt>
      <trkpt lat="39.36436" lon="3.21192">
        <ele>47.175436</ele>
        <time>2023-01-02T10:15:12.890Z</time>
      </trkpt>
      <trkpt lat="39.36427" lon="3.212">
        <ele>47.252379</ele>
        <time>2023-01-02T10:15:14.900Z</time>
      </trkpt>
      <trkpt lat="39.36417" lon="3.21204">
        <ele>47.536477</ele>
        <time>2023-01-02T10:15:16.900Z</time>
      </trkpt>
      <trkpt lat="39.36406" lon="3.21205">
        <ele>47.842027</ele>
        <time>2023-01-02T10:15:18.884Z</time>
      </trkpt>
      <trkpt lat="39.36395" lon="3.21205">
        <ele>48.128234</ele>
        <time>2023-01-02T10:15:20.895Z</time>
      </trkpt>
      <trkpt lat="39.36386" lon="3.21205">
        <ele>48.384466</ele>
        <time>2023-01-02T10:15:22.908Z</time>
      </trkpt>
      <trkpt lat="39.36374" lon="3.21204">
        <ele>48.709081</ele>
        <time>2023-01-02T10:15:25.909Z</time>
      </trkpt>
      <trkpt lat="39.36364" lon="3.21204">
        <ele>48.979065</ele>
        <time>2023-01-02T10:15:28.919Z</time>
      </trkpt>
      <trkpt lat="39.36355" lon="3.21203">
        <ele>49.238152</ele>
        <time>2023-01-02T10:15:31.910Z</time>
      </trkpt>
      <trkpt lat="39.36345" lon="3.21202">
        <ele>49.505811</ele>
        <time>2023-01-02T10:15:34.896Z</time>
      </trkpt>
      <trkpt lat="39.36335" lon="3.21203">
        <ele>49.778462</ele>
        <time>2023-01-02T10:15:37.897Z</time>
      </trkpt>
      <trkpt lat="39.36325" lon="3.21205">
        <ele>50.05461</ele>
        <time>2023-01-02T10:15:40.890Z</time>
      </trkpt>
      <trkpt lat="39.36315" lon="3.21208">
        <ele>50.325369</ele>
        <time>2023-01-02T10:15:43.911Z</time>
      </trkpt>
      <trkpt lat="39.36306" lon="3.21214">
        <ele>50.589323</ele>
        <time>2023-01-02T10:15:46.903Z</time>
      </trkpt>
      <trkpt lat="39.36298" lon="3.2122">
        <ele>50.853801</ele>
        <time>2023-01-02T10:15:49.904Z</time>
      </trkpt>
      <trkpt lat="39.36291" lon="3.21228">
        <ele>51.116689</ele>
        <time>2023-01-02T10:15:52.899Z</time>
      </trkpt>
      <trkpt lat="39.36283" lon="3.21235">
        <ele>51.369649</ele>
        <time>2023-01-02T10:15:55.908Z</time>
      </trkpt>
      <trkpt lat="39.36276" lon="3.21242">
        <ele>51.620859</ele>
        <time>2023-01-02T10:15:58.892Z</time>
      </trkpt>
      <trkpt lat="39.36274" lon="3.21255">
        <ele>51.893696</ele>
        <time>2023-01-02T10:16:02.891Z</time>
      </trkpt>
      <trkpt lat="39.36283" lon="3.2126">
        <ele>52.284941</ele>
        <time>2023-01-02T10:16:06.896Z</time>
      </trkpt>
      <trkpt lat="39.36294" lon="3.21256">
        <ele>52.818456</ele>
        <time>2023-01-02T10:16:10.882Z</time>
      </trkpt>
      <trkpt lat="39.36304" lon="3.21255">
        <ele>53.34257</ele>
        <time>2023-01-02T10:16:14.902Z</time>
      </trkpt>
      <trkpt lat="39.36314" lon="3.21255">
        <ele>53.833748</ele>
        <time>2023-01-02T10:16:18.894Z</time>
      </trkpt>
      <trkpt lat="39.36323" lon="3.2126">
        <ele>54.291445</ele>
        <time>2023-01-02T10:16:22.900Z</time>
      </trkpt>
      <trkpt lat="39.36333" lon="3.21265">
        <ele>54.829465</ele>
        <time>2023-01-02T10:16:27.906Z</time>
      </trkpt>
      <trkpt lat="39.36341" lon="3.21272">
        <ele>55.317303</ele>
        <time>2023-01-02T10:16:32.894Z</time>
      </trkpt>
      <trkpt lat="39.36348" lon="3.2128">
        <ele>55.762918</ele>
        <time>2023-01-02T10:16:36.902Z</time>
      </trkpt>
      <trkpt lat="39.36356" lon="3.21289">
        <ele>56.292508</ele>
        <time>2023-01-02T10:16:41.898Z</time>
      </trkpt>
      <trkpt lat="39.36362" lon="3.21301">
        <ele>56.801239</ele>
        <time>2023-01-02T10:16:46.898Z</time>
      </trkpt>
      <trkpt lat="39.36364" lon="3.21315">
        <ele>57.354923</ele>
        <time>2023-01-02T10:16:51.905Z</time>
      </trkpt>
      <trkpt lat="39.36363" lon="3.21328">
        <ele>57.862908</ele>
        <time>2023-01-02T10:16:56.902Z</time>
      </trkpt>
      <trkpt lat="39.36362" lon="3.21341">
        <ele>58.351429</ele>
        <time>2023-01-02T10:17:01.901Z</time>
      </trkpt>
      <trkpt lat="39.3636" lon="3.21353">
        <ele>58.795014</ele>
        <time>2023-01-02T10:17:05.902Z</time>
      </trkpt>
      <trkpt lat="39.36359" lon="3.21364">
        <ele>59.241738</ele>
        <time>2023-01-02T10:17:09.895Z</time>
      </trkpt>
      <trkpt lat="39.36359" lon="3.21376">
        <ele>59.697516</ele>
        <time>2023-01-02T10:17:13.911Z</time>
      </trkpt>
      <trkpt lat="39.36357" lon="3.2139">
        <ele>60.207683</ele>
        <time>2023-01-02T10:17:17.910Z</time>
      </trkpt>
      <trkpt lat="39.36357" lon="3.21403">
        <ele>60.704421</ele>
        <time>2023-01-02T10:17:21.898Z</time>
      </trkpt>
      <trkpt lat="39.36357" lon="3.21418">
        <ele>61.03612</ele>
        <time>2023-01-02T10:17:25.894Z</time>
      </trkpt>
      <trkpt lat="39.36354" lon="3.21432">
        <ele>61.293694</ele>
        <time>2023-01-02T10:17:29.894Z</time>
      </trkpt>
      <trkpt lat="39.36351" lon="3.21442">
        <ele>61.476838</ele>
        <time>2023-01-02T10:18:32.994Z</time>
      </trkpt>
      <trkpt lat="39.36348" lon="3.21465">
        <ele>61.867186</ele>
        <time>2023-01-02T10:21:02.897Z</time>
      </trkpt>
      <trkpt lat="39.36346" lon="3.21477">
        <ele>62.075803</ele>
        <time>2023-01-02T10:21:06.901Z</time>
      </trkpt>
      <trkpt lat="39.36334" lon="3.2149">
        <ele>62.430441</ele>
        <time>2023-01-02T10:21:50.884Z</time>
      </trkpt>
      <trkpt lat="39.36321" lon="3.21492">
        <ele>62.713591</ele>
        <time>2023-01-02T10:21:54.886Z</time>
      </trkpt>
      <trkpt lat="39.36308" lon="3.21496">
        <ele>63.007803</ele>
        <time>2023-01-02T10:21:57.888Z</time>
      </trkpt>
      <trkpt lat="39.36299" lon="3.215">
        <ele>63.233427</ele>
        <time>2023-01-02T10:21:59.904Z</time>
      </trkpt>
      <trkpt lat="39.36288" lon="3.21504">
        <ele>63.468981</ele>
        <time>2023-01-02T10:22:01.913Z</time>
      </trkpt>
      <trkpt lat="39.36279" lon="3.2151">
        <ele>63.698517</ele>
        <time>2023-01-02T10:22:03.887Z</time>
      </trkpt>
      <trkpt lat="39.36272" lon="3.21519">
        <ele>63.92689</ele>
        <time>2023-01-02T10:22:05.903Z</time>
      </trkpt>
      <trkpt lat="39.36267" lon="3.21529">
        <ele>64.126475</ele>
        <time>2023-01-02T10:22:07.902Z</time>
      </trkpt>
      <trkpt lat="39.36272" lon="3.21542">
        <ele>64.362207</ele>
        <time>2023-01-02T10:22:10.909Z</time>
      </trkpt>
      <trkpt lat="39.36278" lon="3.21552">
        <ele>64.582362</ele>
        <time>2023-01-02T10:22:13.897Z</time>
      </trkpt>
      <trkpt lat="39.36286" lon="3.21561">
        <ele>64.813889</ele>
        <time>2023-01-02T10:22:16.898Z</time>
      </trkpt>
      <trkpt lat="39.36294" lon="3.21573">
        <ele>64.999565</ele>
        <time>2023-01-02T10:22:19.909Z</time>
      </trkpt>
      <trkpt lat="39.36302" lon="3.21584">
        <ele>65.188135</ele>
        <time>2023-01-02T10:22:22.913Z</time>
      </trkpt>
      <trkpt lat="39.36311" lon="3.21595">
        <ele>65.370596</ele>
        <time>2023-01-02T10:22:25.900Z</time>
      </trkpt>
      <trkpt lat="39.36319" lon="3.21607">
        <ele>65.561097</ele>
        <time>2023-01-02T10:22:28.906Z</time>
      </trkpt>
      <trkpt lat="39.36327" lon="3.21619">
        <ele>65.757347</ele>
        <time>2023-01-02T10:22:31.906Z</time>
      </trkpt>
      <trkpt lat="39.36336" lon="3.21629">
        <ele>65.937065</ele>
        <time>2023-01-02T10:22:34.897Z</time>
      </trkpt>
      <trkpt lat="39.36343" lon="3.21639">
        <ele>66.105305</ele>
        <time>2023-01-02T10:22:37.900Z</time>
      </trkpt>
      <trkpt lat="39.36351" lon="3.21649">
        <ele>66.276376</ele>
        <time>2023-01-02T10:22:40.894Z</time>
      </trkpt>
      <trkpt lat="39.36359" lon="3.2166">
        <ele>66.450828</ele>
        <time>2023-01-02T10:22:43.908Z</time>
      </trkpt>
      <trkpt lat="39.36366" lon="3.2167">
        <ele>66.618902</ele>
        <time>2023-01-02T10:22:46.898Z</time>
      </trkpt>
      <trkpt lat="39.36374" lon="3.2168">
        <ele>66.780018</ele>
        <time>2023-01-02T10:22:49.910Z</time>
      </trkpt>
      <trkpt lat="39.36381" lon="3.21689">
        <ele>66.940283</ele>
        <time>2023-01-02T10:22:52.907Z</time>
      </trkpt>
      <trkpt lat="39.36388" lon="3.21699">
        <ele>67.098381</ele>
        <time>2023-01-02T10:22:55.915Z</time>
      </trkpt>
      <trkpt lat="39.36396" lon="3.21709">
        <ele>67.270894</ele>
        <time>2023-01-02T10:22:58.890Z</time>
      </trkpt>
      <trkpt lat="39.36404" lon="3.2172">
        <ele>67.453952</ele>
        <time>2023-01-02T10:23:01.901Z</time>
      </trkpt>
      <trkpt lat="39.36414" lon="3.21732">
        <ele>67.571402</ele>
        <time>2023-01-02T10:23:04.902Z</time>
      </trkpt>
      <trkpt lat="39.36421" lon="3.2174">
        <ele>67.514395</ele>
        <time>2023-01-02T10:23:06.900Z</time>
      </trkpt>
      <trkpt lat="39.36428" lon="3.21749">
        <ele>67.455901</ele>
        <time>2023-01-02T10:23:08.906Z</time>
      </trkpt>
      <trkpt lat="39.36434" lon="3.21758">
        <ele>67.40021</ele>
        <time>2023-01-02T10:23:10.891Z</time>
      </trkpt>
      <trkpt lat="39.36441" lon="3.21767">
        <ele>67.341067</ele>
        <time>2023-01-02T10:23:12.903Z</time>
      </trkpt>
      <trkpt lat="39.36448" lon="3.21777">
        <ele>67.27992</ele>
        <time>2023-01-02T10:23:14.900Z</time>
      </trkpt>
      <trkpt lat="39.36455" lon="3.21786">
        <ele>67.219457</ele>
        <time>2023-01-02T10:23:16.912Z</time>
      </trkpt>
      <trkpt lat="39.36463" lon="3.21796">
        <ele>67.156033</ele>
        <time>2023-01-02T10:23:18.913Z</time>
      </trkpt>
      <trkpt lat="39.3647" lon="3.21806">
        <ele>67.093018</ele>
        <time>2023-01-02T10:23:20.880Z</time>
      </trkpt>
      <trkpt lat="39.36478" lon="3.21816">
        <ele>67.028351</ele>
        <time>2023-01-02T10:23:22.899Z</time>
      </trkpt>
      <trkpt lat="39.36485" lon="3.21826">
        <ele>66.964516</ele>
        <time>2023-01-02T10:23:24.899Z</time>
      </trkpt>
      <trkpt lat="39.36493" lon="3.21837">
        <ele>66.90002</ele>
        <time>2023-01-02T10:23:26.904Z</time>
      </trkpt>
      <trkpt lat="39.365" lon="3.21847">
        <ele>66.83526</ele>
        <time>2023-01-02T10:23:28.904Z</time>
      </trkpt>
      <trkpt lat="39.36508" lon="3.21857">
        <ele>66.772576</ele>
        <time>2023-01-02T10:23:30.889Z</time>
      </trkpt>
      <trkpt lat="39.36515" lon="3.21866">
        <ele>66.711706</ele>
        <time>2023-01-02T10:23:32.910Z</time>
      </trkpt>
      <trkpt lat="39.36522" lon="3.21877">
        <ele>66.647541</ele>
        <time>2023-01-02T10:23:34.916Z</time>
      </trkpt>
      <trkpt lat="39.36529" lon="3.21886">
        <ele>66.588558</ele>
        <time>2023-01-02T10:23:36.912Z</time>
      </trkpt>
      <trkpt lat="39.36536" lon="3.21896">
        <ele>66.53802</ele>
        <time>2023-01-02T10:23:38.916Z</time>
      </trkpt>
      <trkpt lat="39.36544" lon="3.21906">
        <ele>66.688312</ele>
        <time>2023-01-02T10:23:40.902Z</time>
      </trkpt>
      <trkpt lat="39.36551" lon="3.21915">
        <ele>66.839059</ele>
        <time>2023-01-02T10:23:42.916Z</time>
      </trkpt>
      <trkpt lat="39.36559" lon="3.21925">
        <ele>66.99646</ele>
        <time>2023-01-02T10:23:44.898Z</time>
      </trkpt>
      <trkpt lat="39.36567" lon="3.21935">
        <ele>67.147207</ele>
        <time>2023-01-02T10:23:46.919Z</time>
      </trkpt>
      <trkpt lat="39.36574" lon="3.21944">
        <ele>67.289565</ele>
        <time>2023-01-02T10:23:48.901Z</time>
      </trkpt>
      <trkpt lat="39.3658" lon="3.21952">
        <ele>67.421514</ele>
        <time>2023-01-02T10:23:50.898Z</time>
      </trkpt>
      <trkpt lat="39.36587" lon="3.21961">
        <ele>67.552144</ele>
        <time>2023-01-02T10:23:52.903Z</time>
      </trkpt>
      <trkpt lat="39.36596" lon="3.21973">
        <ele>67.741156</ele>
        <time>2023-01-02T10:23:55.904Z</time>
      </trkpt>
      <trkpt lat="39.36605" lon="3.21985">
        <ele>67.923794</ele>
        <time>2023-01-02T10:23:58.916Z</time>
      </trkpt>
      <trkpt lat="39.36614" lon="3.21997">
        <ele>68.097758</ele>
        <time>2023-01-02T10:24:01.901Z</time>
      </trkpt>
      <trkpt lat="39.36622" lon="3.22008">
        <ele>68.26682</ele>
        <time>2023-01-02T10:24:04.911Z</time>
      </trkpt>
      <trkpt lat="39.36627" lon="3.22022">
        <ele>68.441707</ele>
        <time>2023-01-02T10:24:07.901Z</time>
      </trkpt>
      <trkpt lat="39.36636" lon="3.2203">
        <ele>68.587722</ele>
        <time>2023-01-02T10:24:10.895Z</time>
      </trkpt>
      <trkpt lat="39.36645" lon="3.22022">
        <ele>68.74269</ele>
        <time>2023-01-02T10:24:13.894Z</time>
      </trkpt>
      <trkpt lat="39.36653" lon="3.22012">
        <ele>68.896238</ele>
        <time>2023-01-02T10:24:16.922Z</time>
      </trkpt>
      <trkpt lat="39.36663" lon="3.22002">
        <ele>69.07561</ele>
        <time>2023-01-02T10:24:19.904Z</time>
      </trkpt>
      <trkpt lat="39.36673" lon="3.21991">
        <ele>69.091423</ele>
        <time>2023-01-02T10:24:22.897Z</time>
      </trkpt>
      <trkpt lat="39.36683" lon="3.21981">
        <ele>69.101164</ele>
        <time>2023-01-02T10:24:25.901Z</time>
      </trkpt>
      <trkpt lat="39.36693" lon="3.2197">
        <ele>69.111075</ele>
        <time>2023-01-02T10:24:28.907Z</time>
      </trkpt>
      <trkpt lat="39.36703" lon="3.21959">
        <ele>69.120818</ele>
        <time>2023-01-02T10:24:31.914Z</time>
      </trkpt>
      <trkpt lat="39.36713" lon="3.21949">
        <ele>69.129861</ele>
        <time>2023-01-02T10:24:34.896Z</time>
      </trkpt>
      <trkpt lat="39.36723" lon="3.2194">
        <ele>69.139294</ele>
        <time>2023-01-02T10:24:37.912Z</time>
      </trkpt>
      <trkpt lat="39.36733" lon="3.2193">
        <ele>69.148646</ele>
        <time>2023-01-02T10:24:40.889Z</time>
      </trkpt>
      <trkpt lat="39.36743" lon="3.2192">
        <ele>69.158257</ele>
        <time>2023-01-02T10:24:43.920Z</time>
      </trkpt>
      <trkpt lat="39.36753" lon="3.2191">
        <ele>69.167717</ele>
        <time>2023-01-02T10:24:46.914Z</time>
      </trkpt>
      <trkpt lat="39.36763" lon="3.21899">
        <ele>69.177157</ele>
        <time>2023-01-02T10:24:49.907Z</time>
      </trkpt>
      <trkpt lat="39.36772" lon="3.21889">
        <ele>69.186691</ele>
        <time>2023-01-02T10:24:52.916Z</time>
      </trkpt>
      <trkpt lat="39.3678" lon="3.21881">
        <ele>69.193519</ele>
        <time>2023-01-02T10:24:54.910Z</time>
      </trkpt>
      <trkpt lat="39.3679" lon="3.21871">
        <ele>69.202941</ele>
        <time>2023-01-02T10:24:57.905Z</time>
      </trkpt>
      <trkpt lat="39.368" lon="3.21862">
        <ele>69.212406</ele>
        <time>2023-01-02T10:25:00.884Z</time>
      </trkpt>
      <trkpt lat="39.36811" lon="3.21854">
        <ele>69.121506</ele>
        <time>2023-01-02T10:25:03.894Z</time>
      </trkpt>
      <trkpt lat="39.36823" lon="3.21848">
        <ele>68.968858</ele>
        <time>2023-01-02T10:25:06.894Z</time>
      </trkpt>
      <trkpt lat="39.36835" lon="3.21844">
        <ele>68.808142</ele>
        <time>2023-01-02T10:25:09.908Z</time>
      </trkpt>
      <trkpt lat="39.36847" lon="3.21842">
        <ele>68.649499</ele>
        <time>2023-01-02T10:25:12.905Z</time>
      </trkpt>
      <trkpt lat="39.3686" lon="3.21841">
        <ele>68.48356</ele>
        <time>2023-01-02T10:25:15.915Z</time>
      </trkpt>
      <trkpt lat="39.36873" lon="3.21841">
        <ele>68.326615</ele>
        <time>2023-01-02T10:25:18.914Z</time>
      </trkpt>
      <trkpt lat="39.36885" lon="3.21842">
        <ele>68.17239</ele>
        <time>2023-01-02T10:25:21.896Z</time>
      </trkpt>
      <trkpt lat="39.36897" lon="3.21843">
        <ele>68.019037</ele>
        <time>2023-01-02T10:25:24.915Z</time>
      </trkpt>
      <trkpt lat="39.36908" lon="3.21847">
        <ele>67.872241</ele>
        <time>2023-01-02T10:25:27.904Z</time>
      </trkpt>
      <trkpt lat="39.36921" lon="3.21851">
        <ele>67.710055</ele>
        <time>2023-01-02T10:25:30.897Z</time>
      </trkpt>
      <trkpt lat="39.36929" lon="3.21855">
        <ele>67.591706</ele>
        <time>2023-01-02T10:25:32.915Z</time>
      </trkpt>
      <trkpt lat="39.36939" lon="3.21859">
        <ele>67.46555</ele>
        <time>2023-01-02T10:25:34.904Z</time>
      </trkpt>
      <trkpt lat="39.36949" lon="3.21865">
        <ele>67.332694</ele>
        <time>2023-01-02T10:25:36.907Z</time>
      </trkpt>
      <trkpt lat="39.36959" lon="3.2187">
        <ele>67.190162</ele>
        <time>2023-01-02T10:25:38.897Z</time>
      </trkpt>
      <trkpt lat="39.36969" lon="3.21877">
        <ele>67.043844</ele>
        <time>2023-01-02T10:25:40.907Z</time>
      </trkpt>
      <trkpt lat="39.3698" lon="3.21886">
        <ele>66.883872</ele>
        <time>2023-01-02T10:25:42.897Z</time>
      </trkpt>
      <trkpt lat="39.36991" lon="3.21894">
        <ele>66.705372</ele>
        <time>2023-01-02T10:25:44.914Z</time>
      </trkpt>
      <trkpt lat="39.37002" lon="3.21905">
        <ele>66.511972</ele>
        <time>2023-01-02T10:25:46.892Z</time>
      </trkpt>
      <trkpt lat="39.37014" lon="3.21916">
        <ele>66.317435</ele>
        <time>2023-01-02T10:25:48.900Z</time>
      </trkpt>
      <trkpt lat="39.37024" lon="3.21927">
        <ele>66.128252</ele>
        <time>2023-01-02T10:25:50.896Z</time>
      </trkpt>
      <trkpt lat="39.37035" lon="3.21938">
        <ele>65.9404</ele>
        <time>2023-01-02T10:25:52.914Z</time>
      </trkpt>
      <trkpt lat="39.37045" lon="3.21948">
        <ele>65.774403</ele>
        <time>2023-01-02T10:25:54.909Z</time>
      </trkpt>
      <trkpt lat="39.37053" lon="3.21958">
        <ele>65.617096</ele>
        <time>2023-01-02T10:25:56.908Z</time>
      </trkpt>
      <trkpt lat="39.37062" lon="3.21965">
        <ele>65.475477</ele>
        <time>2023-01-02T10:25:58.907Z</time>
      </trkpt>
      <trkpt lat="39.37072" lon="3.21976">
        <ele>65.29628</ele>
        <time>2023-01-02T10:26:01.908Z</time>
      </trkpt>
      <trkpt lat="39.3708" lon="3.21984">
        <ele>65.155159</ele>
        <time>2023-01-02T10:26:04.910Z</time>
      </trkpt>
      <trkpt lat="39.37085" lon="3.21994">
        <ele>65.029953</ele>
        <time>2023-01-02T10:26:07.913Z</time>
      </trkpt>
      <trkpt lat="39.3709" lon="3.22006">
        <ele>64.886776</ele>
        <time>2023-01-02T10:26:10.890Z</time>
      </trkpt>
      <trkpt lat="39.37093" lon="3.22021">
        <ele>64.723557</ele>
        <time>2023-01-02T10:26:13.897Z</time>
      </trkpt>
      <trkpt lat="39.371" lon="3.22033">
        <ele>64.55931</ele>
        <time>2023-01-02T10:26:16.895Z</time>
      </trkpt>
      <trkpt lat="39.37111" lon="3.22033">
        <ele>64.332462</ele>
        <time>2023-01-02T10:26:19.911Z</time>
      </trkpt>
      <trkpt lat="39.37121" lon="3.22034">
        <ele>64.04225</ele>
        <time>2023-01-02T10:26:22.895Z</time>
      </trkpt>
      <trkpt lat="39.3713" lon="3.22037">
        <ele>63.733339</ele>
        <time>2023-01-02T10:26:25.902Z</time>
      </trkpt>
      <trkpt lat="39.3714" lon="3.22042">
        <ele>63.420742</ele>
        <time>2023-01-02T10:26:28.903Z</time>
      </trkpt>
      <trkpt lat="39.3715" lon="3.22047">
        <ele>63.094585</ele>
        <time>2023-01-02T10:26:31.918Z</time>
      </trkpt>
      <trkpt lat="39.3716" lon="3.22051">
        <ele>62.749826</ele>
        <time>2023-01-02T10:26:34.899Z</time>
      </trkpt>
      <trkpt lat="39.37174" lon="3.22053">
        <ele>62.33247</ele>
        <time>2023-01-02T10:26:37.885Z</time>
      </trkpt>
      <trkpt lat="39.37184" lon="3.22053">
        <ele>62.027812</ele>
        <time>2023-01-02T10:26:39.896Z</time>
      </trkpt>
      <trkpt lat="39.37195" lon="3.22052">
        <ele>61.691739</ele>
        <time>2023-01-02T10:26:41.921Z</time>
      </trkpt>
      <trkpt lat="39.37206" lon="3.22049">
        <ele>61.326459</ele>
        <time>2023-01-02T10:26:43.901Z</time>
      </trkpt>
      <trkpt lat="39.37219" lon="3.22044">
        <ele>60.931215</ele>
        <time>2023-01-02T10:26:45.904Z</time>
      </trkpt>
      <trkpt lat="39.37232" lon="3.22037">
        <ele>60.497017</ele>
        <time>2023-01-02T10:26:47.887Z</time>
      </trkpt>
      <trkpt lat="39.37245" lon="3.22028">
        <ele>60.024228</ele>
        <time>2023-01-02T10:26:49.898Z</time>
      </trkpt>
      <trkpt lat="39.3726" lon="3.22018">
        <ele>59.512039</ele>
        <time>2023-01-02T10:26:51.906Z</time>
      </trkpt>
      <trkpt lat="39.37277" lon="3.22009">
        <ele>58.956176</ele>
        <time>2023-01-02T10:26:53.917Z</time>
      </trkpt>
      <trkpt lat="39.37285" lon="3.22004">
        <ele>58.980118</ele>
        <time>2023-01-02T10:26:54.904Z</time>
      </trkpt>
      <trkpt lat="39.37293" lon="3.21998">
        <ele>59.020085</ele>
        <time>2023-01-02T10:26:55.904Z</time>
      </trkpt>
      <trkpt lat="39.37308" lon="3.21989">
        <ele>59.091987</ele>
        <time>2023-01-02T10:26:57.903Z</time>
      </trkpt>
      <trkpt lat="39.3732" lon="3.21982">
        <ele>59.148641</ele>
        <time>2023-01-02T10:26:59.925Z</time>
      </trkpt>
      <trkpt lat="39.3733" lon="3.21975">
        <ele>59.197832</ele>
        <time>2023-01-02T10:27:01.920Z</time>
      </trkpt>
      <trkpt lat="39.37338" lon="3.2197">
        <ele>59.238483</ele>
        <time>2023-01-02T10:27:03.921Z</time>
      </trkpt>
      <trkpt lat="39.37349" lon="3.21964">
        <ele>59.287166</ele>
        <time>2023-01-02T10:27:06.900Z</time>
      </trkpt>
      <trkpt lat="39.37358" lon="3.2196">
        <ele>59.328818</ele>
        <time>2023-01-02T10:27:09.911Z</time>
      </trkpt>
      <trkpt lat="39.37367" lon="3.21956">
        <ele>59.371118</ele>
        <time>2023-01-02T10:27:12.915Z</time>
      </trkpt>
      <trkpt lat="39.37377" lon="3.21955">
        <ele>59.416002</ele>
        <time>2023-01-02T10:27:15.900Z</time>
      </trkpt>
      <trkpt lat="39.37387" lon="3.21955">
        <ele>59.457607</ele>
        <time>2023-01-02T10:27:18.890Z</time>
      </trkpt>
      <trkpt lat="39.37396" lon="3.21958">
        <ele>59.499266</ele>
        <time>2023-01-02T10:27:21.904Z</time>
      </trkpt>
      <trkpt lat="39.37405" lon="3.2196">
        <ele>59.539803</ele>
        <time>2023-01-02T10:27:24.902Z</time>
      </trkpt>
      <trkpt lat="39.37416" lon="3.21964">
        <ele>59.585118</ele>
        <time>2023-01-02T10:27:27.903Z</time>
      </trkpt>
      <trkpt lat="39.37426" lon="3.21968">
        <ele>59.63228</ele>
        <time>2023-01-02T10:27:30.893Z</time>
      </trkpt>
      <trkpt lat="39.37435" lon="3.21971">
        <ele>59.671667</ele>
        <time>2023-01-02T10:27:32.905Z</time>
      </trkpt>
      <trkpt lat="39.37445" lon="3.21974">
        <ele>59.717735</ele>
        <time>2023-01-02T10:27:34.906Z</time>
      </trkpt>
      <trkpt lat="39.37456" lon="3.21978">
        <ele>59.61456</ele>
        <time>2023-01-02T10:27:36.899Z</time>
      </trkpt>
      <trkpt lat="39.37467" lon="3.21982">
        <ele>59.486724</ele>
        <time>2023-01-02T10:27:38.906Z</time>
      </trkpt>
      <trkpt lat="39.37478" lon="3.21987">
        <ele>59.363443</ele>
        <time>2023-01-02T10:27:40.900Z</time>
      </trkpt>
      <trkpt lat="39.37489" lon="3.21991">
        <ele>59.239696</ele>
        <time>2023-01-02T10:27:42.909Z</time>
      </trkpt>
      <trkpt lat="39.375" lon="3.21999">
        <ele>59.108244</ele>
        <time>2023-01-02T10:27:44.911Z</time>
      </trkpt>
      <trkpt lat="39.3751" lon="3.22012">
        <ele>58.963495</ele>
        <time>2023-01-02T10:27:46.894Z</time>
      </trkpt>
      <trkpt lat="39.37515" lon="3.22028">
        <ele>58.817068</ele>
        <time>2023-01-02T10:27:48.882Z</time>
      </trkpt>
      <trkpt lat="39.37514" lon="3.22046">
        <ele>58.67337</ele>
        <time>2023-01-02T10:27:50.892Z</time>
      </trkpt>
      <trkpt lat="39.37509" lon="3.22062">
        <ele>58.530351</ele>
        <time>2023-01-02T10:27:52.891Z</time>
      </trkpt>
      <trkpt lat="39.375" lon="3.22074">
        <ele>58.393318</ele>
        <time>2023-01-02T10:27:54.911Z</time>
      </trkpt>
      <trkpt lat="39.37489" lon="3.22082">
        <ele>58.260378</ele>
        <time>2023-01-02T10:27:56.894Z</time>
      </trkpt>
      <trkpt lat="39.3748" lon="3.22091">
        <ele>58.135345</ele>
        <time>2023-01-02T10:27:58.902Z</time>
      </trkpt>
      <trkpt lat="39.37471" lon="3.221">
        <ele>58.019294</ele>
        <time>2023-01-02T10:28:00.915Z</time>
      </trkpt>
      <trkpt lat="39.37463" lon="3.22109">
        <ele>57.910568</ele>
        <time>2023-01-02T10:28:02.903Z</time>
      </trkpt>
      <trkpt lat="39.37457" lon="3.22117">
        <ele>57.812046</ele>
        <time>2023-01-02T10:28:04.902Z</time>
      </trkpt>
      <trkpt lat="39.37449" lon="3.22131">
        <ele>57.800501</ele>
        <time>2023-01-02T10:28:07.901Z</time>
      </trkpt>
      <trkpt lat="39.37442" lon="3.22145">
        <ele>57.795909</ele>
        <time>2023-01-02T10:28:10.898Z</time>
      </trkpt>
      <trkpt lat="39.37436" lon="3.2216">
        <ele>57.791529</ele>
        <time>2023-01-02T10:28:13.917Z</time>
      </trkpt>
      <trkpt lat="39.37432" lon="3.22173">
        <ele>57.787511</ele>
        <time>2023-01-02T10:28:16.894Z</time>
      </trkpt>
      <trkpt lat="39.37429" lon="3.22187">
        <ele>57.783695</ele>
        <time>2023-01-02T10:28:19.900Z</time>
      </trkpt>
      <trkpt lat="39.37427" lon="3.22201">
        <ele>57.779878</ele>
        <time>2023-01-02T10:28:22.917Z</time>
      </trkpt>
      <trkpt lat="39.37426" lon="3.22214">
        <ele>57.776135</ele>
        <time>2023-01-02T10:28:25.897Z</time>
      </trkpt>
      <trkpt lat="39.37424" lon="3.22227">
        <ele>57.772655</ele>
        <time>2023-01-02T10:28:28.914Z</time>
      </trkpt>
      <trkpt lat="39.37424" lon="3.2224">
        <ele>57.769201</ele>
        <time>2023-01-02T10:28:31.905Z</time>
      </trkpt>
      <trkpt lat="39.37425" lon="3.22254">
        <ele>57.765411</ele>
        <time>2023-01-02T10:28:35.892Z</time>
      </trkpt>
      <trkpt lat="39.37426" lon="3.22268">
        <ele>57.761544</ele>
        <time>2023-01-02T10:28:39.884Z</time>
      </trkpt>
      <trkpt lat="39.37429" lon="3.22282">
        <ele>57.757448</ele>
        <time>2023-01-02T10:28:43.905Z</time>
      </trkpt>
      <trkpt lat="39.37431" lon="3.22295">
        <ele>57.753957</ele>
        <time>2023-01-02T10:28:46.918Z</time>
      </trkpt>
      <trkpt lat="39.37434" lon="3.22307">
        <ele>57.750492</ele>
        <time>2023-01-02T10:28:49.904Z</time>
      </trkpt>
      <trkpt lat="39.37437" lon="3.22323">
        <ele>57.746133</ele>
        <time>2023-01-02T10:28:52.911Z</time>
      </trkpt>
      <trkpt lat="39.3744" lon="3.22336">
        <ele>57.742456</ele>
        <time>2023-01-02T10:28:54.896Z</time>
      </trkpt>
      <trkpt lat="39.37444" lon="3.22352">
        <ele>57.772282</ele>
        <time>2023-01-02T10:28:56.904Z</time>
      </trkpt>
      <trkpt lat="39.37448" lon="3.22371">
        <ele>57.814252</ele>
        <time>2023-01-02T10:28:58.906Z</time>
      </trkpt>
      <trkpt lat="39.37453" lon="3.22392">
        <ele>57.860146</ele>
        <time>2023-01-02T10:29:00.899Z</time>
      </trkpt>
      <trkpt lat="39.37457" lon="3.22412">
        <ele>57.903953</ele>
        <time>2023-01-02T10:29:02.898Z</time>
      </trkpt>
      <trkpt lat="39.37461" lon="3.2243">
        <ele>57.943685</ele>
        <time>2023-01-02T10:29:04.901Z</time>
      </trkpt>
      <trkpt lat="39.37463" lon="3.22446">
        <ele>57.977632</ele>
        <time>2023-01-02T10:29:06.897Z</time>
      </trkpt>
      <trkpt lat="39.37463" lon="3.22459">
        <ele>58.005916</ele>
        <time>2023-01-02T10:29:08.889Z</time>
      </trkpt>
      <trkpt lat="39.37463" lon="3.22474">
        <ele>58.03675</ele>
        <time>2023-01-02T10:29:11.899Z</time>
      </trkpt>
      <trkpt lat="39.37467" lon="3.22485">
        <ele>58.062274</ele>
        <time>2023-01-02T10:29:14.894Z</time>
      </trkpt>
      <trkpt lat="39.37476" lon="3.22489">
        <ele>58.087741</ele>
        <time>2023-01-02T10:29:17.907Z</time>
      </trkpt>
      <trkpt lat="39.37486" lon="3.22488">
        <ele>58.115399</ele>
        <time>2023-01-02T10:29:20.909Z</time>
      </trkpt>
      <trkpt lat="39.37496" lon="3.22491">
        <ele>58.144003</ele>
        <time>2023-01-02T10:29:23.899Z</time>
      </trkpt>
      <trkpt lat="39.37506" lon="3.22496">
        <ele>58.170711</ele>
        <time>2023-01-02T10:29:26.912Z</time>
      </trkpt>
      <trkpt lat="39.37515" lon="3.22499">
        <ele>58.196433</ele>
        <time>2023-01-02T10:29:29.912Z</time>
      </trkpt>
      <trkpt lat="39.37524" lon="3.22503">
        <ele>58.22177</ele>
        <time>2023-01-02T10:29:32.913Z</time>
      </trkpt>
      <trkpt lat="39.37535" lon="3.22507">
        <ele>58.394036</ele>
        <time>2023-01-02T10:29:36.901Z</time>
      </trkpt>
      <trkpt lat="39.37546" lon="3.22512">
        <ele>58.645126</ele>
        <time>2023-01-02T10:29:40.902Z</time>
      </trkpt>
      <trkpt lat="39.37556" lon="3.22516">
        <ele>58.890076</ele>
        <time>2023-01-02T10:29:45.884Z</time>
      </trkpt>
      <trkpt lat="39.37564" lon="3.22522">
        <ele>59.090085</ele>
        <time>2023-01-02T10:29:50.906Z</time>
      </trkpt>
      <trkpt lat="39.37574" lon="3.22522">
        <ele>59.304239</ele>
        <time>2023-01-02T10:29:57.898Z</time>
      </trkpt>
      <trkpt lat="39.37584" lon="3.22526">
        <ele>59.519336</ele>
        <time>2023-01-02T10:30:01.914Z</time>
      </trkpt>
      <trkpt lat="39.37595" lon="3.22531">
        <ele>59.769952</ele>
        <time>2023-01-02T10:30:05.911Z</time>
      </trkpt>
      <trkpt lat="39.37604" lon="3.22534">
        <ele>59.981062</ele>
        <time>2023-01-02T10:30:08.896Z</time>
      </trkpt>
      <trkpt lat="39.37614" lon="3.22538">
        <ele>60.196636</ele>
        <time>2023-01-02T10:30:11.897Z</time>
      </trkpt>
      <trkpt lat="39.37623" lon="3.22543">
        <ele>60.421262</ele>
        <time>2023-01-02T10:30:14.903Z</time>
      </trkpt>
      <trkpt lat="39.37632" lon="3.22548">
        <ele>60.635143</ele>
        <time>2023-01-02T10:30:17.901Z</time>
      </trkpt>
      <trkpt lat="39.37641" lon="3.22558">
        <ele>60.882752</ele>
        <time>2023-01-02T10:30:21.899Z</time>
      </trkpt>
      <trkpt lat="39.37648" lon="3.2257">
        <ele>61.136727</ele>
        <time>2023-01-02T10:30:25.905Z</time>
      </trkpt>
      <trkpt lat="39.37655" lon="3.22582">
        <ele>61.394687</ele>
        <time>2023-01-02T10:30:29.923Z</time>
      </trkpt>
      <trkpt lat="39.37662" lon="3.22594">
        <ele>61.643479</ele>
        <time>2023-01-02T10:30:33.895Z</time>
      </trkpt>
      <trkpt lat="39.37668" lon="3.22603">
        <ele>61.839254</ele>
        <time>2023-01-02T10:30:36.905Z</time>
      </trkpt>
      <trkpt lat="39.37675" lon="3.22613">
        <ele>62.051567</ele>
        <time>2023-01-02T10:30:39.881Z</time>
      </trkpt>
      <trkpt lat="39.37682" lon="3.22624">
        <ele>62.256958</ele>
        <time>2023-01-02T10:30:43.900Z</time>
      </trkpt>
      <trkpt lat="39.37689" lon="3.22636">
        <ele>62.44325</ele>
        <time>2023-01-02T10:30:47.899Z</time>
      </trkpt>
      <trkpt lat="39.37696" lon="3.22647">
        <ele>62.632644</ele>
        <time>2023-01-02T10:30:51.887Z</time>
      </trkpt>
      <trkpt lat="39.37703" lon="3.22658">
        <ele>62.820282</ele>
        <time>2023-01-02T10:30:55.899Z</time>
      </trkpt>
      <trkpt lat="39.3771" lon="3.2267">
        <ele>62.999777</ele>
        <time>2023-01-02T10:30:59.910Z</time>
      </trkpt>
      <trkpt lat="39.37717" lon="3.22682">
        <ele>63.191112</ele>
        <time>2023-01-02T10:31:03.905Z</time>
      </trkpt>
      <trkpt lat="39.37722" lon="3.22694">
        <ele>63.371375</ele>
        <time>2023-01-02T10:31:09.894Z</time>
      </trkpt>
      <trkpt lat="39.37727" lon="3.22706">
        <ele>63.538196</ele>
        <time>2023-01-02T10:31:13.906Z</time>
      </trkpt>
      <trkpt lat="39.37734" lon="3.22718">
        <ele>63.730531</ele>
        <time>2023-01-02T10:31:17.911Z</time>
      </trkpt>
      <trkpt lat="39.3774" lon="3.2273">
        <ele>63.919115</ele>
        <time>2023-01-02T10:31:21.922Z</time>
      </trkpt>
      <trkpt lat="39.37744" lon="3.22742">
        <ele>64.08832</ele>
        <time>2023-01-02T10:31:26.920Z</time>
      </trkpt>
      <trkpt lat="39.37742" lon="3.22762">
        <ele>64.344989</ele>
        <time>2023-01-02T10:32:23.912Z</time>
      </trkpt>
      <trkpt lat="39.37735" lon="3.22774">
        <ele>64.536324</ele>
        <time>2023-01-02T10:32:27.900Z</time>
      </trkpt>
      <trkpt lat="39.37726" lon="3.22782">
        <ele>64.70853</ele>
        <time>2023-01-02T10:32:30.900Z</time>
      </trkpt>
      <trkpt lat="39.37718" lon="3.22788">
        <ele>64.871257</ele>
        <time>2023-01-02T10:32:33.904Z</time>
      </trkpt>
      <trkpt lat="39.3771" lon="3.22796">
        <ele>65.035437</ele>
        <time>2023-01-02T10:32:36.910Z</time>
      </trkpt>
      <trkpt lat="39.37701" lon="3.22803">
        <ele>65.190475</ele>
        <time>2023-01-02T10:32:39.917Z</time>
      </trkpt>
      <trkpt lat="39.37692" lon="3.22811">
        <ele>65.344617</ele>
        <time>2023-01-02T10:32:42.921Z</time>
      </trkpt>
      <trkpt lat="39.37683" lon="3.22819">
        <ele>65.505444</ele>
        <time>2023-01-02T10:32:45.903Z</time>
      </trkpt>
      <trkpt lat="39.37674" lon="3.22828">
        <ele>65.665879</ele>
        <time>2023-01-02T10:32:48.913Z</time>
      </trkpt>
      <trkpt lat="39.37666" lon="3.22836">
        <ele>65.816769</ele>
        <time>2023-01-02T10:32:51.899Z</time>
      </trkpt>
      <trkpt lat="39.37656" lon="3.22843">
        <ele>65.971387</ele>
        <time>2023-01-02T10:32:54.902Z</time>
      </trkpt>
      <trkpt lat="39.37646" lon="3.22849">
        <ele>66.130577</ele>
        <time>2023-01-02T10:32:57.899Z</time>
      </trkpt>
      <trkpt lat="39.37636" lon="3.22855">
        <ele>66.290787</ele>
        <time>2023-01-02T10:33:00.917Z</time>
      </trkpt>
      <trkpt lat="39.37626" lon="3.22859">
        <ele>66.444273</ele>
        <time>2023-01-02T10:33:03.906Z</time>
      </trkpt>
      <trkpt lat="39.37616" lon="3.22863">
        <ele>66.595874</ele>
        <time>2023-01-02T10:33:06.898Z</time>
      </trkpt>
      <trkpt lat="39.37606" lon="3.22866">
        <ele>66.733068</ele>
        <time>2023-01-02T10:33:10.909Z</time>
      </trkpt>
      <trkpt lat="39.37598" lon="3.22871">
        <ele>66.869161</ele>
        <time>2023-01-02T10:33:21.903Z</time>
      </trkpt>
      <trkpt lat="39.37587" lon="3.22875">
        <ele>67.023334</ele>
        <time>2023-01-02T10:33:25.930Z</time>
      </trkpt>
      <trkpt lat="39.37577" lon="3.22881">
        <ele>67.186686</ele>
        <time>2023-01-02T10:33:29.899Z</time>
      </trkpt>
      <trkpt lat="39.37568" lon="3.22885">
        <ele>67.321783</ele>
        <time>2023-01-02T10:33:32.911Z</time>
      </trkpt>
      <trkpt lat="39.37559" lon="3.22886">
        <ele>67.45461</ele>
        <time>2023-01-02T10:33:37.903Z</time>
      </trkpt>
      <trkpt lat="39.37558" lon="3.22886">
        <ele>67.461779</ele>
        <time>2023-01-02T10:34:16.202Z</time>
      </trkpt>
      <trkpt lat="39.37551" lon="3.22906">
        <ele>67.656863</ele>
        <time>2023-01-02T10:42:40.900Z</time>
      </trkpt>
      <trkpt lat="39.3756" lon="3.229">
        <ele>67.633166</ele>
        <time>2023-01-02T10:42:44.914Z</time>
      </trkpt>
      <trkpt lat="39.37571" lon="3.22894">
        <ele>67.604666</ele>
        <time>2023-01-02T10:42:48.890Z</time>
      </trkpt>
      <trkpt lat="39.3758" lon="3.22889">
        <ele>67.582146</ele>
        <time>2023-01-02T10:42:51.928Z</time>
      </trkpt>
      <trkpt lat="39.37589" lon="3.22886">
        <ele>67.560126</ele>
        <time>2023-01-02T10:42:54.901Z</time>
      </trkpt>
      <trkpt lat="39.37599" lon="3.22881">
        <ele>67.534614</ele>
        <time>2023-01-02T10:42:57.912Z</time>
      </trkpt>
      <trkpt lat="39.37609" lon="3.22876">
        <ele>67.508733</ele>
        <time>2023-01-02T10:43:00.888Z</time>
      </trkpt>
      <trkpt lat="39.3762" lon="3.22872">
        <ele>67.482708</ele>
        <time>2023-01-02T10:43:03.903Z</time>
      </trkpt>
      <trkpt lat="39.3763" lon="3.22868">
        <ele>67.456012</ele>
        <time>2023-01-02T10:43:06.908Z</time>
      </trkpt>
      <trkpt lat="39.37641" lon="3.22863">
        <ele>67.428509</ele>
        <time>2023-01-02T10:43:09.912Z</time>
      </trkpt>
      <trkpt lat="39.37653" lon="3.22856">
        <ele>67.398723</ele>
        <time>2023-01-02T10:43:12.893Z</time>
      </trkpt>
      <trkpt lat="39.37663" lon="3.2285">
        <ele>67.370904</ele>
        <time>2023-01-02T10:43:15.916Z</time>
      </trkpt>
      <trkpt lat="39.37674" lon="3.22841">
        <ele>67.341909</ele>
        <time>2023-01-02T10:43:18.905Z</time>
      </trkpt>
      <trkpt lat="39.37684" lon="3.22832">
        <ele>67.311806</ele>
        <time>2023-01-02T10:43:21.914Z</time>
      </trkpt>
      <trkpt lat="39.37694" lon="3.22822">
        <ele>67.283275</ele>
        <time>2023-01-02T10:43:24.894Z</time>
      </trkpt>
      <trkpt lat="39.37704" lon="3.22813">
        <ele>67.252793</ele>
        <time>2023-01-02T10:43:27.917Z</time>
      </trkpt>
      <trkpt lat="39.37715" lon="3.22803">
        <ele>67.288794</ele>
        <time>2023-01-02T10:43:30.891Z</time>
      </trkpt>
      <trkpt lat="39.37726" lon="3.22794">
        <ele>67.396053</ele>
        <time>2023-01-02T10:43:33.912Z</time>
      </trkpt>
      <trkpt lat="39.37737" lon="3.22784">
        <ele>67.50391</ele>
        <time>2023-01-02T10:43:36.898Z</time>
      </trkpt>
      <trkpt lat="39.37749" lon="3.22778">
        <ele>67.606879</ele>
        <time>2023-01-02T10:43:39.904Z</time>
      </trkpt>
      <trkpt lat="39.37762" lon="3.2278">
        <ele>67.71529</ele>
        <time>2023-01-02T10:43:42.899Z</time>
      </trkpt>
      <trkpt lat="39.37771" lon="3.22776">
        <ele>67.793146</ele>
        <time>2023-01-02T10:43:44.895Z</time>
      </trkpt>
      <trkpt lat="39.37777" lon="3.22766">
        <ele>67.872305</ele>
        <time>2023-01-02T10:43:46.899Z</time>
      </trkpt>
      <trkpt lat="39.37784" lon="3.22752">
        <ele>67.978726</ele>
        <time>2023-01-02T10:43:49.910Z</time>
      </trkpt>
      <trkpt lat="39.37794" lon="3.22743">
        <ele>68.075436</ele>
        <time>2023-01-02T10:43:52.894Z</time>
      </trkpt>
      <trkpt lat="39.37803" lon="3.22736">
        <ele>68.163373</ele>
        <time>2023-01-02T10:43:55.894Z</time>
      </trkpt>
      <trkpt lat="39.37812" lon="3.2273">
        <ele>68.247225</ele>
        <time>2023-01-02T10:43:58.900Z</time>
      </trkpt>
      <trkpt lat="39.37822" lon="3.22724">
        <ele>68.336375</ele>
        <time>2023-01-02T10:44:01.936Z</time>
      </trkpt>
      <trkpt lat="39.37832" lon="3.22718">
        <ele>68.431035</ele>
        <time>2023-01-02T10:44:04.903Z</time>
      </trkpt>
      <trkpt lat="39.37843" lon="3.22712">
        <ele>68.527197</ele>
        <time>2023-01-02T10:44:07.908Z</time>
      </trkpt>
      <trkpt lat="39.37854" lon="3.22705">
        <ele>68.625466</ele>
        <time>2023-01-02T10:44:10.887Z</time>
      </trkpt>
      <trkpt lat="39.37865" lon="3.22698">
        <ele>68.717738</ele>
        <time>2023-01-02T10:44:13.908Z</time>
      </trkpt>
      <trkpt lat="39.37876" lon="3.22691">
        <ele>68.776181</ele>
        <time>2023-01-02T10:44:16.911Z</time>
      </trkpt>
      <trkpt lat="39.37886" lon="3.22684">
        <ele>68.83173</ele>
        <time>2023-01-02T10:44:19.907Z</time>
      </trkpt>
      <trkpt lat="39.37897" lon="3.22678">
        <ele>68.888428</ele>
        <time>2023-01-02T10:44:22.898Z</time>
      </trkpt>
      <trkpt lat="39.37908" lon="3.22671">
        <ele>68.944505</ele>
        <time>2023-01-02T10:44:25.900Z</time>
      </trkpt>
      <trkpt lat="39.37917" lon="3.22665">
        <ele>68.994103</ele>
        <time>2023-01-02T10:44:28.918Z</time>
      </trkpt>
      <trkpt lat="39.37927" lon="3.22661">
        <ele>69.045126</ele>
        <time>2023-01-02T10:44:32.912Z</time>
      </trkpt>
      <trkpt lat="39.37917" lon="3.22662">
        <ele>69.094446</ele>
        <time>2023-01-02T10:44:47.908Z</time>
      </trkpt>
      <trkpt lat="39.37909" lon="3.22655">
        <ele>69.137812</ele>
        <time>2023-01-02T10:44:54.901Z</time>
      </trkpt>
      <trkpt lat="39.37905" lon="3.22645">
        <ele>69.183593</ele>
        <time>2023-01-02T10:44:59.913Z</time>
      </trkpt>
      <trkpt lat="39.37898" lon="3.22635">
        <ele>69.231033</ele>
        <time>2023-01-02T10:45:05.892Z</time>
      </trkpt>
      <trkpt lat="39.37891" lon="3.22625">
        <ele>69.280175</ele>
        <time>2023-01-02T10:45:10.898Z</time>
      </trkpt>
      <trkpt lat="39.37885" lon="3.22621">
        <ele>69.314128</ele>
        <time>2023-01-02T10:45:28.483Z</time>
      </trkpt>
      <trkpt lat="39.3793" lon="3.22662">
        <ele>69.61433</ele>
        <time>2023-01-02T11:41:31.914Z</time>
      </trkpt>
      <trkpt lat="39.3794" lon="3.22667">
        <ele>69.771202</ele>
        <time>2023-01-02T11:41:36.909Z</time>
      </trkpt>
      <trkpt lat="39.37952" lon="3.22668">
        <ele>69.953921</ele>
        <time>2023-01-02T11:41:40.907Z</time>
      </trkpt>
      <trkpt lat="39.37961" lon="3.22662">
        <ele>70.117829</ele>
        <time>2023-01-02T11:41:43.908Z</time>
      </trkpt>
      <trkpt lat="39.3797" lon="3.22654">
        <ele>70.281405</ele>
        <time>2023-01-02T11:41:46.903Z</time>
      </trkpt>
      <trkpt lat="39.37975" lon="3.22642">
        <ele>70.442188</ele>
        <time>2023-01-02T11:41:49.906Z</time>
      </trkpt>
      <trkpt lat="39.37977" lon="3.2263">
        <ele>70.591534</ele>
        <time>2023-01-02T11:41:52.910Z</time>
      </trkpt>
      <trkpt lat="39.37984" lon="3.2262">
        <ele>70.73994</ele>
        <time>2023-01-02T11:41:55.909Z</time>
      </trkpt>
      <trkpt lat="39.37993" lon="3.22614">
        <ele>70.899383</ele>
        <time>2023-01-02T11:41:58.894Z</time>
      </trkpt>
      <trkpt lat="39.38002" lon="3.22608">
        <ele>71.052058</ele>
        <time>2023-01-02T11:42:01.900Z</time>
      </trkpt>
      <trkpt lat="39.3801" lon="3.22603">
        <ele>71.199963</ele>
        <time>2023-01-02T11:42:04.894Z</time>
      </trkpt>
      <trkpt lat="39.38019" lon="3.22597">
        <ele>71.342746</ele>
        <time>2023-01-02T11:42:07.888Z</time>
      </trkpt>
      <trkpt lat="39.38029" lon="3.22591">
        <ele>71.522854</ele>
        <time>2023-01-02T11:42:11.899Z</time>
      </trkpt>
      <trkpt lat="39.3804" lon="3.22584">
        <ele>71.706063</ele>
        <time>2023-01-02T11:42:15.899Z</time>
      </trkpt>
      <trkpt lat="39.38049" lon="3.22579">
        <ele>71.851645</ele>
        <time>2023-01-02T11:42:18.897Z</time>
      </trkpt>
      <trkpt lat="39.38057" lon="3.22574">
        <ele>71.998644</ele>
        <time>2023-01-02T11:42:21.906Z</time>
      </trkpt>
      <trkpt lat="39.38066" lon="3.22569">
        <ele>72.144759</ele>
        <time>2023-01-02T11:42:24.884Z</time>
      </trkpt>
      <trkpt lat="39.38075" lon="3.22565">
        <ele>72.285187</ele>
        <time>2023-01-02T11:42:27.894Z</time>
      </trkpt>
      <trkpt lat="39.38085" lon="3.22558">
        <ele>72.319422</ele>
        <time>2023-01-02T11:42:31.904Z</time>
      </trkpt>
      <trkpt lat="39.38093" lon="3.22553">
        <ele>72.316378</ele>
        <time>2023-01-02T11:42:34.900Z</time>
      </trkpt>
      <trkpt lat="39.38101" lon="3.22547">
        <ele>72.313218</ele>
        <time>2023-01-02T11:42:37.908Z</time>
      </trkpt>
      <trkpt lat="39.38111" lon="3.22541">
        <ele>72.309267</ele>
        <time>2023-01-02T11:42:41.900Z</time>
      </trkpt>
      <trkpt lat="39.38122" lon="3.22535">
        <ele>72.305315</ele>
        <time>2023-01-02T11:42:45.898Z</time>
      </trkpt>
      <trkpt lat="39.3813" lon="3.22529">
        <ele>72.302191</ele>
        <time>2023-01-02T11:42:48.889Z</time>
      </trkpt>
      <trkpt lat="39.38139" lon="3.22524">
        <ele>72.298831</ele>
        <time>2023-01-02T11:42:51.900Z</time>
      </trkpt>
      <trkpt lat="39.38148" lon="3.22518">
        <ele>72.295364</ele>
        <time>2023-01-02T11:42:54.902Z</time>
      </trkpt>
      <trkpt lat="39.38158" lon="3.22512">
        <ele>72.291618</ele>
        <time>2023-01-02T11:42:57.906Z</time>
      </trkpt>
      <trkpt lat="39.38169" lon="3.22505">
        <ele>72.287561</ele>
        <time>2023-01-02T11:43:00.890Z</time>
      </trkpt>
      <trkpt lat="39.3818" lon="3.22499">
        <ele>72.283662</ele>
        <time>2023-01-02T11:43:03.903Z</time>
      </trkpt>
      <trkpt lat="39.38191" lon="3.22492">
        <ele>72.279596</ele>
        <time>2023-01-02T11:43:06.890Z</time>
      </trkpt>
      <trkpt lat="39.38203" lon="3.22485">
        <ele>72.274844</ele>
        <time>2023-01-02T11:43:09.914Z</time>
      </trkpt>
      <trkpt lat="39.38213" lon="3.22478">
        <ele>72.27121</ele>
        <time>2023-01-02T11:43:11.892Z</time>
      </trkpt>
      <trkpt lat="39.38223" lon="3.22472">
        <ele>72.267255</ele>
        <time>2023-01-02T11:43:13.894Z</time>
      </trkpt>
      <trkpt lat="39.38235" lon="3.22465">
        <ele>72.263044</ele>
        <time>2023-01-02T11:43:15.886Z</time>
      </trkpt>
      <trkpt lat="39.38246" lon="3.22458">
        <ele>72.191801</ele>
        <time>2023-01-02T11:43:17.898Z</time>
      </trkpt>
      <trkpt lat="39.38258" lon="3.22451">
        <ele>72.081326</ele>
        <time>2023-01-02T11:43:19.891Z</time>
      </trkpt>
      <trkpt lat="39.38269" lon="3.22445">
        <ele>71.976435</ele>
        <time>2023-01-02T11:43:21.904Z</time>
      </trkpt>
      <trkpt lat="39.38281" lon="3.22438">
        <ele>71.866243</ele>
        <time>2023-01-02T11:43:23.909Z</time>
      </trkpt>
      <trkpt lat="39.38292" lon="3.22431">
        <ele>71.756092</ele>
        <time>2023-01-02T11:43:25.903Z</time>
      </trkpt>
      <trkpt lat="39.38304" lon="3.22425">
        <ele>71.646735</ele>
        <time>2023-01-02T11:43:27.893Z</time>
      </trkpt>
      <trkpt lat="39.38316" lon="3.22419">
        <ele>71.539223</ele>
        <time>2023-01-02T11:43:29.899Z</time>
      </trkpt>
      <trkpt lat="39.38326" lon="3.22412">
        <ele>71.436984</ele>
        <time>2023-01-02T11:43:31.890Z</time>
      </trkpt>
      <trkpt lat="39.38337" lon="3.22406">
        <ele>71.337621</ele>
        <time>2023-01-02T11:43:33.898Z</time>
      </trkpt>
      <trkpt lat="39.38347" lon="3.22401">
        <ele>71.244839</ele>
        <time>2023-01-02T11:43:35.888Z</time>
      </trkpt>
      <trkpt lat="39.38357" lon="3.22396">
        <ele>71.152346</ele>
        <time>2023-01-02T11:43:37.897Z</time>
      </trkpt>
      <trkpt lat="39.38367" lon="3.2239">
        <ele>71.059853</ele>
        <time>2023-01-02T11:43:39.893Z</time>
      </trkpt>
      <trkpt lat="39.38376" lon="3.22385">
        <ele>70.970257</ele>
        <time>2023-01-02T11:43:41.900Z</time>
      </trkpt>
      <trkpt lat="39.38385" lon="3.2238">
        <ele>70.885144</ele>
        <time>2023-01-02T11:43:43.893Z</time>
      </trkpt>
      <trkpt lat="39.38395" lon="3.22375">
        <ele>70.796204</ele>
        <time>2023-01-02T11:43:45.905Z</time>
      </trkpt>
      <trkpt lat="39.38405" lon="3.22371">
        <ele>70.728446</ele>
        <time>2023-01-02T11:43:47.901Z</time>
      </trkpt>
      <trkpt lat="39.38415" lon="3.22365">
        <ele>70.903311</ele>
        <time>2023-01-02T11:43:49.882Z</time>
      </trkpt>
      <trkpt lat="39.38425" lon="3.22359">
        <ele>71.080635</ele>
        <time>2023-01-02T11:43:51.900Z</time>
      </trkpt>
      <trkpt lat="39.38435" lon="3.22355">
        <ele>71.253281</ele>
        <time>2023-01-02T11:43:53.891Z</time>
      </trkpt>
      <trkpt lat="39.38445" lon="3.22349">
        <ele>71.433578</ele>
        <time>2023-01-02T11:43:55.897Z</time>
      </trkpt>
      <trkpt lat="39.38455" lon="3.22343">
        <ele>71.613993</ele>
        <time>2023-01-02T11:43:57.902Z</time>
      </trkpt>
      <trkpt lat="39.38464" lon="3.22338">
        <ele>71.79026</ele>
        <time>2023-01-02T11:43:59.895Z</time>
      </trkpt>
      <trkpt lat="39.38473" lon="3.22333">
        <ele>71.945874</ele>
        <time>2023-01-02T11:44:01.907Z</time>
      </trkpt>
      <trkpt lat="39.38481" lon="3.22329">
        <ele>72.094505</ele>
        <time>2023-01-02T11:44:03.904Z</time>
      </trkpt>
      <trkpt lat="39.3849" lon="3.22324">
        <ele>72.254672</ele>
        <time>2023-01-02T11:44:05.901Z</time>
      </trkpt>
      <trkpt lat="39.38499" lon="3.22319">
        <ele>72.407784</ele>
        <time>2023-01-02T11:44:07.901Z</time>
      </trkpt>
      <trkpt lat="39.38507" lon="3.22314">
        <ele>72.560452</ele>
        <time>2023-01-02T11:44:09.890Z</time>
      </trkpt>
      <trkpt lat="39.38516" lon="3.22309">
        <ele>72.715062</ele>
        <time>2023-01-02T11:44:11.918Z</time>
      </trkpt>
      <trkpt lat="39.38525" lon="3.22305">
        <ele>72.866757</ele>
        <time>2023-01-02T11:44:13.890Z</time>
      </trkpt>
      <trkpt lat="39.38533" lon="3.223">
        <ele>73.018351</ele>
        <time>2023-01-02T11:44:15.901Z</time>
      </trkpt>
      <trkpt lat="39.38545" lon="3.22293">
        <ele>73.231932</ele>
        <time>2023-01-02T11:44:18.899Z</time>
      </trkpt>
      <trkpt lat="39.38556" lon="3.22287">
        <ele>73.436395</ele>
        <time>2023-01-02T11:44:21.904Z</time>
      </trkpt>
      <trkpt lat="39.38567" lon="3.2228">
        <ele>73.632374</ele>
        <time>2023-01-02T11:44:24.887Z</time>
      </trkpt>
      <trkpt lat="39.38577" lon="3.22275">
        <ele>73.903697</ele>
        <time>2023-01-02T11:44:27.895Z</time>
      </trkpt>
      <trkpt lat="39.38587" lon="3.22269">
        <ele>74.192059</ele>
        <time>2023-01-02T11:44:30.910Z</time>
      </trkpt>
      <trkpt lat="39.38597" lon="3.22264">
        <ele>74.472174</ele>
        <time>2023-01-02T11:44:33.903Z</time>
      </trkpt>
      <trkpt lat="39.38606" lon="3.2226">
        <ele>74.745503</ele>
        <time>2023-01-02T11:44:36.911Z</time>
      </trkpt>
      <trkpt lat="39.38616" lon="3.22254">
        <ele>75.017401</ele>
        <time>2023-01-02T11:44:39.908Z</time>
      </trkpt>
      <trkpt lat="39.38625" lon="3.2225">
        <ele>75.278853</ele>
        <time>2023-01-02T11:44:42.905Z</time>
      </trkpt>
      <trkpt lat="39.38634" lon="3.22245">
        <ele>75.54259</ele>
        <time>2023-01-02T11:44:45.896Z</time>
      </trkpt>
      <trkpt lat="39.38643" lon="3.2224">
        <ele>75.813715</ele>
        <time>2023-01-02T11:44:48.898Z</time>
      </trkpt>
      <trkpt lat="39.38652" lon="3.22235">
        <ele>76.074947</ele>
        <time>2023-01-02T11:44:51.900Z</time>
      </trkpt>
      <trkpt lat="39.38661" lon="3.2223">
        <ele>76.333722</ele>
        <time>2023-01-02T11:44:54.896Z</time>
      </trkpt>
      <trkpt lat="39.3867" lon="3.22224">
        <ele>76.596003</ele>
        <time>2023-01-02T11:44:57.904Z</time>
      </trkpt>
      <trkpt lat="39.38678" lon="3.22218">
        <ele>76.849167</ele>
        <time>2023-01-02T11:45:00.891Z</time>
      </trkpt>
      <trkpt lat="39.38686" lon="3.22212">
        <ele>77.108704</ele>
        <time>2023-01-02T11:45:03.901Z</time>
      </trkpt>
      <trkpt lat="39.38695" lon="3.22206">
        <ele>77.365712</ele>
        <time>2023-01-02T11:45:06.894Z</time>
      </trkpt>
      <trkpt lat="39.38702" lon="3.22199">
        <ele>77.615449</ele>
        <time>2023-01-02T11:45:09.904Z</time>
      </trkpt>
      <trkpt lat="39.3871" lon="3.22192">
        <ele>77.868007</ele>
        <time>2023-01-02T11:45:12.894Z</time>
      </trkpt>
      <trkpt lat="39.38717" lon="3.22184">
        <ele>78.125791</ele>
        <time>2023-01-02T11:45:15.890Z</time>
      </trkpt>
      <trkpt lat="39.38724" lon="3.22176">
        <ele>78.383988</ele>
        <time>2023-01-02T11:45:18.890Z</time>
      </trkpt>
      <trkpt lat="39.38732" lon="3.22167">
        <ele>78.596653</ele>
        <time>2023-01-02T11:45:21.900Z</time>
      </trkpt>
      <trkpt lat="39.38739" lon="3.22157">
        <ele>78.767698</ele>
        <time>2023-01-02T11:45:24.892Z</time>
      </trkpt>
      <trkpt lat="39.38747" lon="3.22147">
        <ele>78.948463</ele>
        <time>2023-01-02T11:45:27.900Z</time>
      </trkpt>
      <trkpt lat="39.38753" lon="3.22136">
        <ele>79.131615</ele>
        <time>2023-01-02T11:45:30.897Z</time>
      </trkpt>
      <trkpt lat="39.38761" lon="3.22125">
        <ele>79.317264</ele>
        <time>2023-01-02T11:45:33.895Z</time>
      </trkpt>
      <trkpt lat="39.38768" lon="3.22114">
        <ele>79.499533</ele>
        <time>2023-01-02T11:45:36.888Z</time>
      </trkpt>
      <trkpt lat="39.38775" lon="3.22104">
        <ele>79.677283</ele>
        <time>2023-01-02T11:45:39.910Z</time>
      </trkpt>
      <trkpt lat="39.38783" lon="3.22094">
        <ele>79.858443</ele>
        <time>2023-01-02T11:45:42.896Z</time>
      </trkpt>
      <trkpt lat="39.3879" lon="3.22084">
        <ele>80.029849</ele>
        <time>2023-01-02T11:45:45.908Z</time>
      </trkpt>
      <trkpt lat="39.38797" lon="3.22074">
        <ele>80.201416</ele>
        <time>2023-01-02T11:45:48.895Z</time>
      </trkpt>
      <trkpt lat="39.38804" lon="3.22064">
        <ele>80.371312</ele>
        <time>2023-01-02T11:45:51.912Z</time>
      </trkpt>
      <trkpt lat="39.38811" lon="3.22054">
        <ele>80.546472</ele>
        <time>2023-01-02T11:45:54.898Z</time>
      </trkpt>
      <trkpt lat="39.38817" lon="3.22044">
        <ele>80.712677</ele>
        <time>2023-01-02T11:45:57.909Z</time>
      </trkpt>
      <trkpt lat="39.38824" lon="3.22034">
        <ele>80.880729</ele>
        <time>2023-01-02T11:46:00.888Z</time>
      </trkpt>
      <trkpt lat="39.38831" lon="3.22025">
        <ele>81.039589</ele>
        <time>2023-01-02T11:46:03.898Z</time>
      </trkpt>
      <trkpt lat="39.38837" lon="3.22016">
        <ele>81.194701</ele>
        <time>2023-01-02T11:46:06.906Z</time>
      </trkpt>
      <trkpt lat="39.38843" lon="3.22006">
        <ele>81.349599</ele>
        <time>2023-01-02T11:46:09.901Z</time>
      </trkpt>
      <trkpt lat="39.38849" lon="3.21997">
        <ele>81.508681</ele>
        <time>2023-01-02T11:46:12.894Z</time>
      </trkpt>
      <trkpt lat="39.38855" lon="3.21989">
        <ele>81.693562</ele>
        <time>2023-01-02T11:46:15.894Z</time>
      </trkpt>
      <trkpt lat="39.38862" lon="3.2198">
        <ele>81.880407</ele>
        <time>2023-01-02T11:46:18.883Z</time>
      </trkpt>
      <trkpt lat="39.38869" lon="3.21972">
        <ele>82.066305</ele>
        <time>2023-01-02T11:46:21.890Z</time>
      </trkpt>
      <trkpt lat="39.38878" lon="3.21962">
        <ele>82.305347</ele>
        <time>2023-01-02T11:46:25.881Z</time>
      </trkpt>
      <trkpt lat="39.38885" lon="3.21954">
        <ele>82.490705</ele>
        <time>2023-01-02T11:46:28.881Z</time>
      </trkpt>
      <trkpt lat="39.38892" lon="3.21947">
        <ele>82.680665</ele>
        <time>2023-01-02T11:46:31.899Z</time>
      </trkpt>
      <trkpt lat="39.389" lon="3.21938">
        <ele>82.887293</ele>
        <time>2023-01-02T11:46:34.910Z</time>
      </trkpt>
      <trkpt lat="39.38909" lon="3.21928">
        <ele>83.116715</ele>
        <time>2023-01-02T11:46:37.899Z</time>
      </trkpt>
      <trkpt lat="39.38917" lon="3.21918">
        <ele>83.343874</ele>
        <time>2023-01-02T11:46:40.898Z</time>
      </trkpt>
      <trkpt lat="39.38925" lon="3.21909">
        <ele>83.571773</ele>
        <time>2023-01-02T11:46:43.891Z</time>
      </trkpt>
      <trkpt lat="39.38934" lon="3.21898">
        <ele>83.807962</ele>
        <time>2023-01-02T11:46:46.892Z</time>
      </trkpt>
      <trkpt lat="39.38943" lon="3.21888">
        <ele>84.045519</ele>
        <time>2023-01-02T11:46:49.890Z</time>
      </trkpt>
      <trkpt lat="39.38952" lon="3.21878">
        <ele>84.293678</ele>
        <time>2023-01-02T11:46:52.894Z</time>
      </trkpt>
      <trkpt lat="39.38962" lon="3.21867">
        <ele>84.547911</ele>
        <time>2023-01-02T11:46:55.899Z</time>
      </trkpt>
      <trkpt lat="39.38971" lon="3.21856">
        <ele>84.802214</ele>
        <time>2023-01-02T11:46:58.919Z</time>
      </trkpt>
      <trkpt lat="39.38982" lon="3.21845">
        <ele>85.072159</ele>
        <time>2023-01-02T11:47:01.904Z</time>
      </trkpt>
      <trkpt lat="39.38992" lon="3.21834">
        <ele>85.534101</ele>
        <time>2023-01-02T11:47:04.902Z</time>
      </trkpt>
      <trkpt lat="39.39002" lon="3.21824">
        <ele>85.99813</ele>
        <time>2023-01-02T11:47:07.898Z</time>
      </trkpt>
      <trkpt lat="39.39011" lon="3.21814">
        <ele>86.428792</ele>
        <time>2023-01-02T11:47:10.902Z</time>
      </trkpt>
      <trkpt lat="39.39019" lon="3.21804">
        <ele>86.833072</ele>
        <time>2023-01-02T11:47:13.909Z</time>
      </trkpt>
      <trkpt lat="39.39027" lon="3.21795">
        <ele>87.21558</ele>
        <time>2023-01-02T11:47:16.903Z</time>
      </trkpt>
      <trkpt lat="39.39035" lon="3.21787">
        <ele>87.586433</ele>
        <time>2023-01-02T11:47:19.899Z</time>
      </trkpt>
      <trkpt lat="39.39043" lon="3.21777">
        <ele>87.990132</ele>
        <time>2023-01-02T11:47:22.894Z</time>
      </trkpt>
      <trkpt lat="39.39052" lon="3.21768">
        <ele>88.37398</ele>
        <time>2023-01-02T11:47:25.904Z</time>
      </trkpt>
      <trkpt lat="39.3906" lon="3.21758">
        <ele>88.776568</ele>
        <time>2023-01-02T11:47:28.911Z</time>
      </trkpt>
      <trkpt lat="39.39068" lon="3.21749">
        <ele>89.154361</ele>
        <time>2023-01-02T11:47:31.901Z</time>
      </trkpt>
      <trkpt lat="39.39076" lon="3.2174">
        <ele>89.536941</ele>
        <time>2023-01-02T11:47:34.889Z</time>
      </trkpt>
      <trkpt lat="39.39083" lon="3.2173">
        <ele>89.923676</ele>
        <time>2023-01-02T11:47:37.907Z</time>
      </trkpt>
      <trkpt lat="39.3909" lon="3.21719">
        <ele>90.305925</ele>
        <time>2023-01-02T11:47:40.910Z</time>
      </trkpt>
      <trkpt lat="39.39097" lon="3.2171">
        <ele>90.666278</ele>
        <time>2023-01-02T11:47:43.901Z</time>
      </trkpt>
      <trkpt lat="39.39104" lon="3.21701">
        <ele>91.008226</ele>
        <time>2023-01-02T11:47:46.877Z</time>
      </trkpt>
      <trkpt lat="39.3911" lon="3.21692">
        <ele>91.36538</ele>
        <time>2023-01-02T11:47:49.891Z</time>
      </trkpt>
      <trkpt lat="39.39116" lon="3.21681">
        <ele>91.709968</ele>
        <time>2023-01-02T11:47:52.907Z</time>
      </trkpt>
      <trkpt lat="39.39122" lon="3.2167">
        <ele>92.051472</ele>
        <time>2023-01-02T11:47:55.901Z</time>
      </trkpt>
      <trkpt lat="39.39129" lon="3.21658">
        <ele>92.402582</ele>
        <time>2023-01-02T11:47:58.891Z</time>
      </trkpt>
      <trkpt lat="39.39135" lon="3.21647">
        <ele>92.746639</ele>
        <time>2023-01-02T11:48:01.900Z</time>
      </trkpt>
      <trkpt lat="39.3914" lon="3.21636">
        <ele>93.078611</ele>
        <time>2023-01-02T11:48:04.896Z</time>
      </trkpt>
      <trkpt lat="39.39146" lon="3.21625">
        <ele>93.400686</ele>
        <time>2023-01-02T11:48:07.899Z</time>
      </trkpt>
      <trkpt lat="39.39151" lon="3.21613">
        <ele>93.739551</ele>
        <time>2023-01-02T11:48:10.896Z</time>
      </trkpt>
      <trkpt lat="39.39156" lon="3.216">
        <ele>94.090656</ele>
        <time>2023-01-02T11:48:13.896Z</time>
      </trkpt>
      <trkpt lat="39.39161" lon="3.21588">
        <ele>94.436837</ele>
        <time>2023-01-02T11:48:16.902Z</time>
      </trkpt>
      <trkpt lat="39.39166" lon="3.21576">
        <ele>94.761339</ele>
        <time>2023-01-02T11:48:19.894Z</time>
      </trkpt>
      <trkpt lat="39.39171" lon="3.21562">
        <ele>95.148415</ele>
        <time>2023-01-02T11:48:23.900Z</time>
      </trkpt>
      <trkpt lat="39.39175" lon="3.21551">
        <ele>95.45933</ele>
        <time>2023-01-02T11:48:26.903Z</time>
      </trkpt>
      <trkpt lat="39.39179" lon="3.2154">
        <ele>95.752435</ele>
        <time>2023-01-02T11:48:29.912Z</time>
      </trkpt>
      <trkpt lat="39.39182" lon="3.21529">
        <ele>96.051935</ele>
        <time>2023-01-02T11:48:32.886Z</time>
      </trkpt>
      <trkpt lat="39.39186" lon="3.21518">
        <ele>96.35089</ele>
        <time>2023-01-02T11:48:35.908Z</time>
      </trkpt>
      <trkpt lat="39.3919" lon="3.21507">
        <ele>96.651326</ele>
        <time>2023-01-02T11:48:38.903Z</time>
      </trkpt>
      <trkpt lat="39.39194" lon="3.21496">
        <ele>96.940581</ele>
        <time>2023-01-02T11:48:41.889Z</time>
      </trkpt>
      <trkpt lat="39.39199" lon="3.21482">
        <ele>97.326464</ele>
        <time>2023-01-02T11:48:45.902Z</time>
      </trkpt>
      <trkpt lat="39.39205" lon="3.21469">
        <ele>97.645042</ele>
        <time>2023-01-02T11:48:49.914Z</time>
      </trkpt>
      <trkpt lat="39.39209" lon="3.21458">
        <ele>97.88672</ele>
        <time>2023-01-02T11:48:52.902Z</time>
      </trkpt>
      <trkpt lat="39.39213" lon="3.21448">
        <ele>98.129108</ele>
        <time>2023-01-02T11:48:55.891Z</time>
      </trkpt>
      <trkpt lat="39.39218" lon="3.21438">
        <ele>98.372975</ele>
        <time>2023-01-02T11:48:58.896Z</time>
      </trkpt>
      <trkpt lat="39.39223" lon="3.21427">
        <ele>98.619771</ele>
        <time>2023-01-02T11:49:01.888Z</time>
      </trkpt>
      <trkpt lat="39.39229" lon="3.21414">
        <ele>98.936949</ele>
        <time>2023-01-02T11:49:05.909Z</time>
      </trkpt>
      <trkpt lat="39.39235" lon="3.21401">
        <ele>99.253865</ele>
        <time>2023-01-02T11:49:09.902Z</time>
      </trkpt>
      <trkpt lat="39.39241" lon="3.21391">
        <ele>99.503601</ele>
        <time>2023-01-02T11:49:12.892Z</time>
      </trkpt>
      <trkpt lat="39.39246" lon="3.21382">
        <ele>99.744829</ele>
        <time>2023-01-02T11:49:15.898Z</time>
      </trkpt>
      <trkpt lat="39.39252" lon="3.21373">
        <ele>99.989629</ele>
        <time>2023-01-02T11:49:18.906Z</time>
      </trkpt>
      <trkpt lat="39.39258" lon="3.21363">
        <ele>100.243861</ele>
        <time>2023-01-02T11:49:21.912Z</time>
      </trkpt>
      <trkpt lat="39.39264" lon="3.21354">
        <ele>100.49983</ele>
        <time>2023-01-02T11:49:24.884Z</time>
      </trkpt>
      <trkpt lat="39.39271" lon="3.21344">
        <ele>100.770857</ele>
        <time>2023-01-02T11:49:27.895Z</time>
      </trkpt>
      <trkpt lat="39.39278" lon="3.21334">
        <ele>101.048659</ele>
        <time>2023-01-02T11:49:30.909Z</time>
      </trkpt>
      <trkpt lat="39.39285" lon="3.21326">
        <ele>101.296195</ele>
        <time>2023-01-02T11:49:33.893Z</time>
      </trkpt>
      <trkpt lat="39.39292" lon="3.21318">
        <ele>101.548163</ele>
        <time>2023-01-02T11:49:36.893Z</time>
      </trkpt>
      <trkpt lat="39.39299" lon="3.21309">
        <ele>101.820759</ele>
        <time>2023-01-02T11:49:39.903Z</time>
      </trkpt>
      <trkpt lat="39.39307" lon="3.21301">
        <ele>102.07463</ele>
        <time>2023-01-02T11:49:42.894Z</time>
      </trkpt>
      <trkpt lat="39.39315" lon="3.21293">
        <ele>102.24248</ele>
        <time>2023-01-02T11:49:45.908Z</time>
      </trkpt>
      <trkpt lat="39.39323" lon="3.21284">
        <ele>102.385849</ele>
        <time>2023-01-02T11:49:48.897Z</time>
      </trkpt>
      <trkpt lat="39.39331" lon="3.21276">
        <ele>102.531203</ele>
        <time>2023-01-02T11:49:51.906Z</time>
      </trkpt>
      <trkpt lat="39.3934" lon="3.21269">
        <ele>102.674443</ele>
        <time>2023-01-02T11:49:54.887Z</time>
      </trkpt>
      <trkpt lat="39.39348" lon="3.21261">
        <ele>102.8189</ele>
        <time>2023-01-02T11:49:57.900Z</time>
      </trkpt>
      <trkpt lat="39.39358" lon="3.21253">
        <ele>102.978722</ele>
        <time>2023-01-02T11:50:00.896Z</time>
      </trkpt>
      <trkpt lat="39.39367" lon="3.21245">
        <ele>103.137915</ele>
        <time>2023-01-02T11:50:03.915Z</time>
      </trkpt>
      <trkpt lat="39.39377" lon="3.21237">
        <ele>103.301678</ele>
        <time>2023-01-02T11:50:06.897Z</time>
      </trkpt>
      <trkpt lat="39.39387" lon="3.21229">
        <ele>103.46017</ele>
        <time>2023-01-02T11:50:09.901Z</time>
      </trkpt>
      <trkpt lat="39.39397" lon="3.21222">
        <ele>103.618428</ele>
        <time>2023-01-02T11:50:12.898Z</time>
      </trkpt>
      <trkpt lat="39.39406" lon="3.21214">
        <ele>103.773473</ele>
        <time>2023-01-02T11:50:15.889Z</time>
      </trkpt>
      <trkpt lat="39.39415" lon="3.21206">
        <ele>103.927955</ele>
        <time>2023-01-02T11:50:18.898Z</time>
      </trkpt>
      <trkpt lat="39.39425" lon="3.21198">
        <ele>104.093483</ele>
        <time>2023-01-02T11:50:21.891Z</time>
      </trkpt>
      <trkpt lat="39.39436" lon="3.2119">
        <ele>104.264873</ele>
        <time>2023-01-02T11:50:24.892Z</time>
      </trkpt>
      <trkpt lat="39.39446" lon="3.21182">
        <ele>104.433487</ele>
        <time>2023-01-02T11:50:27.896Z</time>
      </trkpt>
      <trkpt lat="39.39456" lon="3.21173">
        <ele>104.604877</ele>
        <time>2023-01-02T11:50:30.920Z</time>
      </trkpt>
      <trkpt lat="39.39467" lon="3.21166">
        <ele>104.753494</ele>
        <time>2023-01-02T11:50:33.915Z</time>
      </trkpt>
      <trkpt lat="39.39477" lon="3.21158">
        <ele>104.899308</ele>
        <time>2023-01-02T11:50:36.913Z</time>
      </trkpt>
      <trkpt lat="39.39487" lon="3.2115">
        <ele>105.045691</ele>
        <time>2023-01-02T11:50:39.895Z</time>
      </trkpt>
      <trkpt lat="39.39496" lon="3.21142">
        <ele>105.183636</ele>
        <time>2023-01-02T11:50:42.891Z</time>
      </trkpt>
      <trkpt lat="39.39505" lon="3.21134">
        <ele>105.322619</ele>
        <time>2023-01-02T11:50:45.911Z</time>
      </trkpt>
      <trkpt lat="39.39515" lon="3.21127">
        <ele>105.458564</ele>
        <time>2023-01-02T11:50:48.898Z</time>
      </trkpt>
      <trkpt lat="39.39524" lon="3.2112">
        <ele>105.589746</ele>
        <time>2023-01-02T11:50:51.899Z</time>
      </trkpt>
      <trkpt lat="39.39533" lon="3.21113">
        <ele>105.719366</ele>
        <time>2023-01-02T11:50:54.899Z</time>
      </trkpt>
      <trkpt lat="39.39541" lon="3.21105">
        <ele>105.845908</ele>
        <time>2023-01-02T11:50:57.904Z</time>
      </trkpt>
      <trkpt lat="39.3955" lon="3.21098">
        <ele>105.980184</ele>
        <time>2023-01-02T11:51:00.901Z</time>
      </trkpt>
      <trkpt lat="39.3956" lon="3.2109">
        <ele>106.122375</ele>
        <time>2023-01-02T11:51:03.903Z</time>
      </trkpt>
      <trkpt lat="39.3957" lon="3.21082">
        <ele>106.273364</ele>
        <time>2023-01-02T11:51:06.908Z</time>
      </trkpt>
      <trkpt lat="39.3958" lon="3.21074">
        <ele>106.415994</ele>
        <time>2023-01-02T11:51:09.903Z</time>
      </trkpt>
      <trkpt lat="39.39589" lon="3.21065">
        <ele>106.559735</ele>
        <time>2023-01-02T11:51:12.889Z</time>
      </trkpt>
      <trkpt lat="39.39599" lon="3.21058">
        <ele>106.702506</ele>
        <time>2023-01-02T11:51:15.900Z</time>
      </trkpt>
      <trkpt lat="39.39608" lon="3.2105">
        <ele>106.839943</ele>
        <time>2023-01-02T11:51:18.902Z</time>
      </trkpt>
      <trkpt lat="39.39619" lon="3.21042">
        <ele>107.091635</ele>
        <time>2023-01-02T11:51:21.898Z</time>
      </trkpt>
      <trkpt lat="39.3963" lon="3.21033">
        <ele>107.381776</ele>
        <time>2023-01-02T11:51:24.894Z</time>
      </trkpt>
      <trkpt lat="39.39641" lon="3.21024">
        <ele>107.674695</ele>
        <time>2023-01-02T11:51:27.902Z</time>
      </trkpt>
      <trkpt lat="39.39651" lon="3.21015">
        <ele>107.969502</ele>
        <time>2023-01-02T11:51:30.891Z</time>
      </trkpt>
      <trkpt lat="39.39662" lon="3.21006">
        <ele>108.258586</ele>
        <time>2023-01-02T11:51:33.887Z</time>
      </trkpt>
      <trkpt lat="39.39673" lon="3.20998">
        <ele>108.534457</ele>
        <time>2023-01-02T11:51:36.911Z</time>
      </trkpt>
      <trkpt lat="39.39683" lon="3.2099">
        <ele>108.8093</ele>
        <time>2023-01-02T11:51:39.897Z</time>
      </trkpt>
      <trkpt lat="39.39693" lon="3.20982">
        <ele>109.07453</ele>
        <time>2023-01-02T11:51:42.902Z</time>
      </trkpt>
      <trkpt lat="39.39702" lon="3.20974">
        <ele>109.327447</ele>
        <time>2023-01-02T11:51:45.903Z</time>
      </trkpt>
      <trkpt lat="39.39711" lon="3.20967">
        <ele>109.564068</ele>
        <time>2023-01-02T11:51:48.906Z</time>
      </trkpt>
      <trkpt lat="39.3972" lon="3.2096">
        <ele>109.79686</ele>
        <time>2023-01-02T11:51:51.890Z</time>
      </trkpt>
      <trkpt lat="39.39728" lon="3.20952">
        <ele>110.031832</ele>
        <time>2023-01-02T11:51:54.887Z</time>
      </trkpt>
      <trkpt lat="39.39737" lon="3.20944">
        <ele>110.27326</ele>
        <time>2023-01-02T11:51:57.903Z</time>
      </trkpt>
      <trkpt lat="39.39746" lon="3.20937">
        <ele>110.516592</ele>
        <time>2023-01-02T11:52:00.900Z</time>
      </trkpt>
      <trkpt lat="39.39755" lon="3.2093">
        <ele>110.752246</ele>
        <time>2023-01-02T11:52:03.911Z</time>
      </trkpt>
      <trkpt lat="39.39763" lon="3.20923">
        <ele>111.011226</ele>
        <time>2023-01-02T11:52:06.907Z</time>
      </trkpt>
      <trkpt lat="39.39772" lon="3.20916">
        <ele>111.444414</ele>
        <time>2023-01-02T11:52:09.909Z</time>
      </trkpt>
      <trkpt lat="39.3978" lon="3.20909">
        <ele>111.868449</ele>
        <time>2023-01-02T11:52:12.897Z</time>
      </trkpt>
      <trkpt lat="39.39788" lon="3.20903">
        <ele>112.270543</ele>
        <time>2023-01-02T11:52:15.894Z</time>
      </trkpt>
      <trkpt lat="39.39796" lon="3.20896">
        <ele>112.709239</ele>
        <time>2023-01-02T11:52:18.898Z</time>
      </trkpt>
      <trkpt lat="39.39804" lon="3.20889">
        <ele>113.149779</ele>
        <time>2023-01-02T11:52:21.913Z</time>
      </trkpt>
      <trkpt lat="39.39813" lon="3.20882">
        <ele>113.590734</ele>
        <time>2023-01-02T11:52:24.896Z</time>
      </trkpt>
      <trkpt lat="39.39822" lon="3.20875">
        <ele>114.04789</ele>
        <time>2023-01-02T11:52:27.902Z</time>
      </trkpt>
      <trkpt lat="39.39832" lon="3.20867">
        <ele>114.54165</ele>
        <time>2023-01-02T11:52:30.903Z</time>
      </trkpt>
      <trkpt lat="39.3984" lon="3.2086">
        <ele>114.991363</ele>
        <time>2023-01-02T11:52:33.901Z</time>
      </trkpt>
      <trkpt lat="39.39849" lon="3.20853">
        <ele>115.444802</ele>
        <time>2023-01-02T11:52:36.899Z</time>
      </trkpt>
      <trkpt lat="39.39857" lon="3.20846">
        <ele>115.868822</ele>
        <time>2023-01-02T11:52:39.890Z</time>
      </trkpt>
      <trkpt lat="39.39867" lon="3.20837">
        <ele>116.371777</ele>
        <time>2023-01-02T11:52:43.885Z</time>
      </trkpt>
      <trkpt lat="39.39876" lon="3.20829">
        <ele>116.876601</ele>
        <time>2023-01-02T11:52:47.902Z</time>
      </trkpt>
      <trkpt lat="39.39886" lon="3.20821">
        <ele>117.377738</ele>
        <time>2023-01-02T11:52:51.884Z</time>
      </trkpt>
      <trkpt lat="39.39895" lon="3.20814">
        <ele>117.862378</ele>
        <time>2023-01-02T11:52:55.906Z</time>
      </trkpt>
      <trkpt lat="39.39904" lon="3.20805">
        <ele>118.340085</ele>
        <time>2023-01-02T11:52:59.909Z</time>
      </trkpt>
      <trkpt lat="39.39914" lon="3.20797">
        <ele>118.832986</ele>
        <time>2023-01-02T11:53:03.907Z</time>
      </trkpt>
      <trkpt lat="39.39923" lon="3.20789">
        <ele>119.392758</ele>
        <time>2023-01-02T11:53:07.897Z</time>
      </trkpt>
      <trkpt lat="39.39933" lon="3.20781">
        <ele>119.952897</ele>
        <time>2023-01-02T11:53:11.902Z</time>
      </trkpt>
      <trkpt lat="39.39942" lon="3.20773">
        <ele>120.489237</ele>
        <time>2023-01-02T11:53:15.909Z</time>
      </trkpt>
      <trkpt lat="39.39952" lon="3.20765">
        <ele>121.04494</ele>
        <time>2023-01-02T11:53:19.910Z</time>
      </trkpt>
      <trkpt lat="39.39962" lon="3.20757">
        <ele>121.592575</ele>
        <time>2023-01-02T11:53:23.904Z</time>
      </trkpt>
      <trkpt lat="39.39971" lon="3.20749">
        <ele>122.115951</ele>
        <time>2023-01-02T11:53:27.899Z</time>
      </trkpt>
      <trkpt lat="39.39978" lon="3.20743">
        <ele>122.558495</ele>
        <time>2023-01-02T11:53:31.904Z</time>
      </trkpt>
      <trkpt lat="39.39988" lon="3.20736">
        <ele>123.100555</ele>
        <time>2023-01-02T11:53:36.891Z</time>
      </trkpt>
      <trkpt lat="39.39997" lon="3.2073">
        <ele>123.57024</ele>
        <time>2023-01-02T11:53:40.898Z</time>
      </trkpt>
      <trkpt lat="39.40005" lon="3.20722">
        <ele>124.039689</ele>
        <time>2023-01-02T11:53:44.884Z</time>
      </trkpt>
      <trkpt lat="39.40013" lon="3.20715">
        <ele>124.504816</ele>
        <time>2023-01-02T11:53:48.911Z</time>
      </trkpt>
      <trkpt lat="39.40021" lon="3.20709">
        <ele>124.959522</ele>
        <time>2023-01-02T11:53:52.886Z</time>
      </trkpt>
      <trkpt lat="39.40028" lon="3.20702">
        <ele>125.406173</ele>
        <time>2023-01-02T11:53:56.893Z</time>
      </trkpt>
      <trkpt lat="39.40036" lon="3.20694">
        <ele>125.885609</ele>
        <time>2023-01-02T11:54:00.887Z</time>
      </trkpt>
      <trkpt lat="39.40044" lon="3.20686">
        <ele>126.38624</ele>
        <time>2023-01-02T11:54:05.907Z</time>
      </trkpt>
      <trkpt lat="39.40053" lon="3.20695">
        <ele>126.923351</ele>
        <time>2023-01-02T11:55:24.906Z</time>
      </trkpt>
      <trkpt lat="39.40057" lon="3.20707">
        <ele>127.410853</ele>
        <time>2023-01-02T11:55:28.890Z</time>
      </trkpt>
      <trkpt lat="39.4006" lon="3.20721">
        <ele>127.404163</ele>
        <time>2023-01-02T11:55:31.894Z</time>
      </trkpt>
      <trkpt lat="39.40063" lon="3.20733">
        <ele>127.330599</ele>
        <time>2023-01-02T11:55:33.895Z</time>
      </trkpt>
      <trkpt lat="39.40066" lon="3.20745">
        <ele>127.25383</ele>
        <time>2023-01-02T11:55:35.895Z</time>
      </trkpt>
      <trkpt lat="39.40069" lon="3.20758">
        <ele>127.172947</ele>
        <time>2023-01-02T11:55:37.896Z</time>
      </trkpt>
      <trkpt lat="39.40072" lon="3.20771">
        <ele>127.093168</ele>
        <time>2023-01-02T11:55:39.891Z</time>
      </trkpt>
      <trkpt lat="39.40078" lon="3.20782">
        <ele>127.011779</ele>
        <time>2023-01-02T11:55:41.901Z</time>
      </trkpt>
      <trkpt lat="39.40086" lon="3.20794">
        <ele>126.917154</ele>
        <time>2023-01-02T11:55:43.893Z</time>
      </trkpt>
      <trkpt lat="39.40096" lon="3.20808">
        <ele>126.807193</ele>
        <time>2023-01-02T11:55:45.890Z</time>
      </trkpt>
      <trkpt lat="39.40107" lon="3.20821">
        <ele>126.693248</ele>
        <time>2023-01-02T11:55:47.910Z</time>
      </trkpt>
      <trkpt lat="39.40118" lon="3.20832">
        <ele>126.584974</ele>
        <time>2023-01-02T11:55:49.902Z</time>
      </trkpt>
      <trkpt lat="39.40128" lon="3.20841">
        <ele>126.488033</ele>
        <time>2023-01-02T11:55:51.895Z</time>
      </trkpt>
      <trkpt lat="39.40137" lon="3.20849">
        <ele>126.406838</ele>
        <time>2023-01-02T11:55:53.896Z</time>
      </trkpt>
      <trkpt lat="39.40144" lon="3.20856">
        <ele>126.334386</ele>
        <time>2023-01-02T11:55:55.891Z</time>
      </trkpt>
      <trkpt lat="39.40152" lon="3.20863">
        <ele>126.256282</ele>
        <time>2023-01-02T11:55:57.909Z</time>
      </trkpt>
      <trkpt lat="39.40161" lon="3.20873">
        <ele>126.171718</ele>
        <time>2023-01-02T11:55:59.908Z</time>
      </trkpt>
      <trkpt lat="39.40168" lon="3.20883">
        <ele>126.092382</ele>
        <time>2023-01-02T11:56:01.886Z</time>
      </trkpt>
      <trkpt lat="39.40174" lon="3.20893">
        <ele>126.121475</ele>
        <time>2023-01-02T11:56:03.885Z</time>
      </trkpt>
      <trkpt lat="39.40181" lon="3.20903">
        <ele>126.15165</ele>
        <time>2023-01-02T11:56:05.894Z</time>
      </trkpt>
      <trkpt lat="39.40187" lon="3.20912">
        <ele>126.179648</ele>
        <time>2023-01-02T11:56:07.903Z</time>
      </trkpt>
      <trkpt lat="39.40193" lon="3.20921">
        <ele>126.207302</ele>
        <time>2023-01-02T11:56:09.902Z</time>
      </trkpt>
      <trkpt lat="39.402" lon="3.20929">
        <ele>126.234787</ele>
        <time>2023-01-02T11:56:11.900Z</time>
      </trkpt>
      <trkpt lat="39.40206" lon="3.20938">
        <ele>126.262135</ele>
        <time>2023-01-02T11:56:13.909Z</time>
      </trkpt>
      <trkpt lat="39.40213" lon="3.20946">
        <ele>126.289834</ele>
        <time>2023-01-02T11:56:15.916Z</time>
      </trkpt>
      <trkpt lat="39.40222" lon="3.20958">
        <ele>126.328682</ele>
        <time>2023-01-02T11:56:18.892Z</time>
      </trkpt>
      <trkpt lat="39.40231" lon="3.2097">
        <ele>126.368187</ele>
        <time>2023-01-02T11:56:21.896Z</time>
      </trkpt>
      <trkpt lat="39.40241" lon="3.20982">
        <ele>126.408424</ele>
        <time>2023-01-02T11:56:24.899Z</time>
      </trkpt>
      <trkpt lat="39.40248" lon="3.2099">
        <ele>126.435715</ele>
        <time>2023-01-02T11:56:26.902Z</time>
      </trkpt>
      <trkpt lat="39.40254" lon="3.20999">
        <ele>126.46269</ele>
        <time>2023-01-02T11:56:28.901Z</time>
      </trkpt>
      <trkpt lat="39.40262" lon="3.21009">
        <ele>126.495643</ele>
        <time>2023-01-02T11:56:31.901Z</time>
      </trkpt>
      <trkpt lat="39.40269" lon="3.21017">
        <ele>126.525194</ele>
        <time>2023-01-02T11:56:34.892Z</time>
      </trkpt>
      <trkpt lat="39.40277" lon="3.21027">
        <ele>126.556375</ele>
        <time>2023-01-02T11:56:37.902Z</time>
      </trkpt>
      <trkpt lat="39.40284" lon="3.21036">
        <ele>126.58692</ele>
        <time>2023-01-02T11:56:40.882Z</time>
      </trkpt>
      <trkpt lat="39.4029" lon="3.21045">
        <ele>126.614435</ele>
        <time>2023-01-02T11:56:43.900Z</time>
      </trkpt>
      <trkpt lat="39.40299" lon="3.21054">
        <ele>126.635339</ele>
        <time>2023-01-02T11:56:47.905Z</time>
      </trkpt>
      <trkpt lat="39.40307" lon="3.21064">
        <ele>126.646463</ele>
        <time>2023-01-02T11:56:50.885Z</time>
      </trkpt>
      <trkpt lat="39.40316" lon="3.21073">
        <ele>126.65842</ele>
        <time>2023-01-02T11:56:53.904Z</time>
      </trkpt>
      <trkpt lat="39.40323" lon="3.21083">
        <ele>126.670095</ele>
        <time>2023-01-02T11:56:56.903Z</time>
      </trkpt>
      <trkpt lat="39.40332" lon="3.21092">
        <ele>126.682185</ele>
        <time>2023-01-02T11:56:59.902Z</time>
      </trkpt>
      <trkpt lat="39.40341" lon="3.21103">
        <ele>126.69499</ele>
        <time>2023-01-02T11:57:02.891Z</time>
      </trkpt>
      <trkpt lat="39.40348" lon="3.21114">
        <ele>126.707093</ele>
        <time>2023-01-02T11:57:05.902Z</time>
      </trkpt>
      <trkpt lat="39.40356" lon="3.21124">
        <ele>126.718882</ele>
        <time>2023-01-02T11:57:08.909Z</time>
      </trkpt>
      <trkpt lat="39.40364" lon="3.21134">
        <ele>126.730557</ele>
        <time>2023-01-02T11:57:11.903Z</time>
      </trkpt>
      <trkpt lat="39.40371" lon="3.21144">
        <ele>126.74192</ele>
        <time>2023-01-02T11:57:14.894Z</time>
      </trkpt>
      <trkpt lat="39.40378" lon="3.21156">
        <ele>126.753926</ele>
        <time>2023-01-02T11:57:17.894Z</time>
      </trkpt>
      <trkpt lat="39.40386" lon="3.21167">
        <ele>126.766706</ele>
        <time>2023-01-02T11:57:20.899Z</time>
      </trkpt>
      <trkpt lat="39.40394" lon="3.21179">
        <ele>126.779647</ele>
        <time>2023-01-02T11:57:23.904Z</time>
      </trkpt>
      <trkpt lat="39.40401" lon="3.21187">
        <ele>126.789356</ele>
        <time>2023-01-02T11:57:25.918Z</time>
      </trkpt>
      <trkpt lat="39.40409" lon="3.212">
        <ele>126.803296</ele>
        <time>2023-01-02T11:57:28.897Z</time>
      </trkpt>
      <trkpt lat="39.40416" lon="3.21208">
        <ele>126.81323</ele>
        <time>2023-01-02T11:57:30.886Z</time>
      </trkpt>
      <trkpt lat="39.40422" lon="3.21218">
        <ele>126.816422</ele>
        <time>2023-01-02T11:57:32.895Z</time>
      </trkpt>
      <trkpt lat="39.40428" lon="3.21227">
        <ele>126.808428</ele>
        <time>2023-01-02T11:57:34.890Z</time>
      </trkpt>
      <trkpt lat="39.40434" lon="3.21237">
        <ele>126.800549</ele>
        <time>2023-01-02T11:57:36.910Z</time>
      </trkpt>
      <trkpt lat="39.40443" lon="3.2125">
        <ele>126.78937</ele>
        <time>2023-01-02T11:57:39.910Z</time>
      </trkpt>
      <trkpt lat="39.40453" lon="3.21256">
        <ele>126.779684</ele>
        <time>2023-01-02T11:57:42.900Z</time>
      </trkpt>
      <trkpt lat="39.40461" lon="3.21246">
        <ele>126.770846</ele>
        <time>2023-01-02T11:57:45.902Z</time>
      </trkpt>
      <trkpt lat="39.40471" lon="3.21245">
        <ele>126.762728</ele>
        <time>2023-01-02T11:57:48.898Z</time>
      </trkpt>
      <trkpt lat="39.40479" lon="3.21255">
        <ele>126.753593</ele>
        <time>2023-01-02T11:57:51.897Z</time>
      </trkpt>
      <trkpt lat="39.40487" lon="3.21267">
        <ele>126.743464</ele>
        <time>2023-01-02T11:57:54.898Z</time>
      </trkpt>
      <trkpt lat="39.40496" lon="3.21279">
        <ele>126.732231</ele>
        <time>2023-01-02T11:57:57.901Z</time>
      </trkpt>
      <trkpt lat="39.40503" lon="3.21287">
        <ele>126.724606</ele>
        <time>2023-01-02T11:57:59.900Z</time>
      </trkpt>
      <trkpt lat="39.40512" lon="3.213">
        <ele>126.7129</ele>
        <time>2023-01-02T11:58:02.907Z</time>
      </trkpt>
      <trkpt lat="39.4052" lon="3.21307">
        <ele>126.704654</ele>
        <time>2023-01-02T11:58:04.888Z</time>
      </trkpt>
      <trkpt lat="39.4053" lon="3.21312">
        <ele>126.695895</ele>
        <time>2023-01-02T11:58:06.902Z</time>
      </trkpt>
      <trkpt lat="39.40541" lon="3.21315">
        <ele>126.686447</ele>
        <time>2023-01-02T11:58:08.909Z</time>
      </trkpt>
      <trkpt lat="39.40552" lon="3.21317">
        <ele>126.677156</ele>
        <time>2023-01-02T11:58:10.901Z</time>
      </trkpt>
      <trkpt lat="39.40562" lon="3.2132">
        <ele>126.668241</ele>
        <time>2023-01-02T11:58:12.899Z</time>
      </trkpt>
      <trkpt lat="39.40573" lon="3.21321">
        <ele>126.710707</ele>
        <time>2023-01-02T11:58:14.914Z</time>
      </trkpt>
      <trkpt lat="39.40583" lon="3.21321">
        <ele>126.753181</ele>
        <time>2023-01-02T11:58:16.890Z</time>
      </trkpt>
      <trkpt lat="39.40593" lon="3.21321">
        <ele>126.795655</ele>
        <time>2023-01-02T11:58:18.918Z</time>
      </trkpt>
      <trkpt lat="39.40603" lon="3.21322">
        <ele>126.836966</ele>
        <time>2023-01-02T11:58:20.907Z</time>
      </trkpt>
      <trkpt lat="39.40615" lon="3.21329">
        <ele>126.891644</ele>
        <time>2023-01-02T11:58:23.892Z</time>
      </trkpt>
      <trkpt lat="39.40627" lon="3.21329">
        <ele>126.939806</ele>
        <time>2023-01-02T11:58:26.902Z</time>
      </trkpt>
      <trkpt lat="39.40634" lon="3.21317">
        <ele>126.98536</ele>
        <time>2023-01-02T11:58:29.917Z</time>
      </trkpt>
      <trkpt lat="39.40638" lon="3.21306">
        <ele>127.023918</ele>
        <time>2023-01-02T11:58:34.908Z</time>
      </trkpt>
      <trkpt lat="39.40633" lon="3.21318">
        <ele>127.066163</ele>
        <time>2023-01-02T11:58:39.915Z</time>
      </trkpt>
      <trkpt lat="39.40635" lon="3.21333">
        <ele>127.113177</ele>
        <time>2023-01-02T11:58:43.908Z</time>
      </trkpt>
      <trkpt lat="39.40643" lon="3.21339">
        <ele>127.153755</ele>
        <time>2023-01-02T11:58:46.899Z</time>
      </trkpt>
      <trkpt lat="39.40651" lon="3.21346">
        <ele>127.192979</ele>
        <time>2023-01-02T11:58:49.905Z</time>
      </trkpt>
      <trkpt lat="39.40661" lon="3.21354">
        <ele>127.240214</ele>
        <time>2023-01-02T11:58:52.904Z</time>
      </trkpt>
      <trkpt lat="39.4067" lon="3.21364">
        <ele>127.289862</ele>
        <time>2023-01-02T11:58:55.894Z</time>
      </trkpt>
      <trkpt lat="39.40679" lon="3.21371">
        <ele>127.333587</ele>
        <time>2023-01-02T11:58:58.903Z</time>
      </trkpt>
      <trkpt lat="39.40688" lon="3.21378">
        <ele>127.375423</ele>
        <time>2023-01-02T11:59:02.946Z</time>
      </trkpt>
      <trkpt lat="39.40697" lon="3.21376">
        <ele>127.464977</ele>
        <time>2023-01-02T11:59:07.932Z</time>
      </trkpt>
      <trkpt lat="39.40705" lon="3.21367">
        <ele>127.944005</ele>
        <time>2023-01-02T11:59:12.883Z</time>
      </trkpt>
      <trkpt lat="39.40712" lon="3.21354">
        <ele>128.483452</ele>
        <time>2023-01-02T11:59:16.885Z</time>
      </trkpt>
      <trkpt lat="39.40717" lon="3.21341">
        <ele>129.009458</ele>
        <time>2023-01-02T11:59:20.905Z</time>
      </trkpt>
      <trkpt lat="39.40723" lon="3.21327">
        <ele>129.538426</ele>
        <time>2023-01-02T11:59:24.903Z</time>
      </trkpt>
      <trkpt lat="39.40729" lon="3.21314">
        <ele>130.078537</ele>
        <time>2023-01-02T11:59:28.895Z</time>
      </trkpt>
      <trkpt lat="39.40733" lon="3.21303">
        <ele>130.515058</ele>
        <time>2023-01-02T11:59:31.905Z</time>
      </trkpt>
      <trkpt lat="39.40738" lon="3.21292">
        <ele>130.929872</ele>
        <time>2023-01-02T11:59:34.903Z</time>
      </trkpt>
      <trkpt lat="39.40742" lon="3.21281">
        <ele>131.347755</ele>
        <time>2023-01-02T11:59:37.886Z</time>
      </trkpt>
      <trkpt lat="39.40746" lon="3.21269">
        <ele>131.808412</ele>
        <time>2023-01-02T11:59:40.895Z</time>
      </trkpt>
      <trkpt lat="39.40751" lon="3.21258">
        <ele>132.258409</ele>
        <time>2023-01-02T11:59:43.898Z</time>
      </trkpt>
      <trkpt lat="39.40756" lon="3.21247">
        <ele>132.706222</ele>
        <time>2023-01-02T11:59:46.897Z</time>
      </trkpt>
      <trkpt lat="39.4076" lon="3.21235">
        <ele>133.149894</ele>
        <time>2023-01-02T11:59:49.907Z</time>
      </trkpt>
      <trkpt lat="39.40765" lon="3.21224">
        <ele>133.609004</ele>
        <time>2023-01-02T11:59:52.900Z</time>
      </trkpt>
      <trkpt lat="39.4077" lon="3.21212">
        <ele>134.070031</ele>
        <time>2023-01-02T11:59:55.895Z</time>
      </trkpt>
      <trkpt lat="39.40774" lon="3.21201">
        <ele>134.497106</ele>
        <time>2023-01-02T11:59:58.903Z</time>
      </trkpt>
      <trkpt lat="39.40779" lon="3.2119">
        <ele>134.927262</ele>
        <time>2023-01-02T12:00:01.911Z</time>
      </trkpt>
      <trkpt lat="39.40782" lon="3.21178">
        <ele>135.364604</ele>
        <time>2023-01-02T12:00:04.889Z</time>
      </trkpt>
      <trkpt lat="39.40787" lon="3.21164">
        <ele>136.039961</ele>
        <time>2023-01-02T12:00:08.906Z</time>
      </trkpt>
      <trkpt lat="39.40792" lon="3.21153">
        <ele>136.663154</ele>
        <time>2023-01-02T12:00:12.904Z</time>
      </trkpt>
      <trkpt lat="39.40796" lon="3.21141">
        <ele>137.270173</ele>
        <time>2023-01-02T12:00:16.908Z</time>
      </trkpt>
      <trkpt lat="39.40801" lon="3.2113">
        <ele>137.876402</ele>
        <time>2023-01-02T12:00:20.900Z</time>
      </trkpt>
      <trkpt lat="39.40806" lon="3.21118">
        <ele>138.476181</ele>
        <time>2023-01-02T12:00:24.892Z</time>
      </trkpt>
      <trkpt lat="39.4081" lon="3.21106">
        <ele>139.103601</ele>
        <time>2023-01-02T12:00:28.878Z</time>
      </trkpt>
      <trkpt lat="39.40815" lon="3.21096">
        <ele>139.672923</ele>
        <time>2023-01-02T12:00:32.903Z</time>
      </trkpt>
      <trkpt lat="39.4082" lon="3.21085">
        <ele>140.269354</ele>
        <time>2023-01-02T12:00:36.906Z</time>
      </trkpt>
      <trkpt lat="39.40824" lon="3.21073">
        <ele>140.856115</ele>
        <time>2023-01-02T12:00:40.899Z</time>
      </trkpt>
      <trkpt lat="39.40828" lon="3.21062">
        <ele>141.431772</ele>
        <time>2023-01-02T12:00:44.911Z</time>
      </trkpt>
      <trkpt lat="39.40834" lon="3.2105">
        <ele>142.097541</ele>
        <time>2023-01-02T12:00:49.900Z</time>
      </trkpt>
      <trkpt lat="39.40842" lon="3.21044">
        <ele>142.65613</ele>
        <time>2023-01-02T12:00:55.895Z</time>
      </trkpt>
      <trkpt lat="39.4085" lon="3.21049">
        <ele>143.206542</ele>
        <time>2023-01-02T12:01:00.895Z</time>
      </trkpt>
      <trkpt lat="39.40859" lon="3.21053">
        <ele>143.785053</ele>
        <time>2023-01-02T12:01:05.906Z</time>
      </trkpt>
      <trkpt lat="39.40868" lon="3.21059">
        <ele>144.391425</ele>
        <time>2023-01-02T12:01:11.901Z</time>
      </trkpt>
      <trkpt lat="39.40877" lon="3.21064">
        <ele>145.002908</ele>
        <time>2023-01-02T12:01:18.897Z</time>
      </trkpt>
      <trkpt lat="39.40886" lon="3.21069">
        <ele>145.569764</ele>
        <time>2023-01-02T12:01:26.901Z</time>
      </trkpt>
      <trkpt lat="39.40902" lon="3.21069">
        <ele>146.466507</ele>
        <time>2023-01-02T12:01:45.906Z</time>
      </trkpt>
      <trkpt lat="39.40909" lon="3.21058">
        <ele>146.689962</ele>
        <time>2023-01-02T12:01:49.907Z</time>
      </trkpt>
      <trkpt lat="39.40916" lon="3.21047">
        <ele>146.904703</ele>
        <time>2023-01-02T12:01:53.890Z</time>
      </trkpt>
      <trkpt lat="39.40921" lon="3.21035">
        <ele>147.117695</ele>
        <time>2023-01-02T12:01:57.912Z</time>
      </trkpt>
      <trkpt lat="39.40926" lon="3.21025">
        <ele>147.301831</ele>
        <time>2023-01-02T12:02:02.901Z</time>
      </trkpt>
      <trkpt lat="39.40942" lon="3.2103">
        <ele>147.618538</ele>
        <time>2023-01-02T12:02:30.888Z</time>
      </trkpt>
      <trkpt lat="39.40951" lon="3.21034">
        <ele>147.825725</ele>
        <time>2023-01-02T12:02:33.908Z</time>
      </trkpt>
      <trkpt lat="39.40961" lon="3.21039">
        <ele>148.029693</ele>
        <time>2023-01-02T12:02:36.893Z</time>
      </trkpt>
      <trkpt lat="39.40971" lon="3.21046">
        <ele>148.263904</ele>
        <time>2023-01-02T12:02:39.900Z</time>
      </trkpt>
      <trkpt lat="39.40981" lon="3.21056">
        <ele>148.502311</ele>
        <time>2023-01-02T12:02:42.892Z</time>
      </trkpt>
      <trkpt lat="39.40989" lon="3.21065">
        <ele>148.723702</ele>
        <time>2023-01-02T12:02:45.902Z</time>
      </trkpt>
      <trkpt lat="39.40998" lon="3.21073">
        <ele>148.953097</ele>
        <time>2023-01-02T12:02:48.902Z</time>
      </trkpt>
      <trkpt lat="39.41007" lon="3.21083">
        <ele>149.180015</ele>
        <time>2023-01-02T12:02:51.902Z</time>
      </trkpt>
      <trkpt lat="39.41015" lon="3.21092">
        <ele>149.394372</ele>
        <time>2023-01-02T12:02:54.888Z</time>
      </trkpt>
      <trkpt lat="39.41025" lon="3.21101">
        <ele>149.631573</ele>
        <time>2023-01-02T12:02:57.903Z</time>
      </trkpt>
      <trkpt lat="39.41035" lon="3.21111">
        <ele>149.897595</ele>
        <time>2023-01-02T12:03:00.899Z</time>
      </trkpt>
      <trkpt lat="39.41044" lon="3.21118">
        <ele>150.008803</ele>
        <time>2023-01-02T12:03:02.894Z</time>
      </trkpt>
      <trkpt lat="39.41052" lon="3.21126">
        <ele>149.964189</ele>
        <time>2023-01-02T12:03:04.893Z</time>
      </trkpt>
      <trkpt lat="39.41063" lon="3.21135">
        <ele>149.913091</ele>
        <time>2023-01-02T12:03:06.897Z</time>
      </trkpt>
      <trkpt lat="39.41074" lon="3.21143">
        <ele>149.85988</ele>
        <time>2023-01-02T12:03:08.898Z</time>
      </trkpt>
      <trkpt lat="39.41085" lon="3.21153">
        <ele>149.801231</ele>
        <time>2023-01-02T12:03:10.895Z</time>
      </trkpt>
      <trkpt lat="39.41096" lon="3.21163">
        <ele>149.74468</ele>
        <time>2023-01-02T12:03:12.906Z</time>
      </trkpt>
      <trkpt lat="39.41108" lon="3.21173">
        <ele>149.687438</ele>
        <time>2023-01-02T12:03:14.888Z</time>
      </trkpt>
      <trkpt lat="39.41119" lon="3.21182">
        <ele>149.633708</ele>
        <time>2023-01-02T12:03:16.892Z</time>
      </trkpt>
      <trkpt lat="39.41129" lon="3.21191">
        <ele>149.579406</ele>
        <time>2023-01-02T12:03:18.904Z</time>
      </trkpt>
      <trkpt lat="39.4114" lon="3.21201">
        <ele>149.526346</ele>
        <time>2023-01-02T12:03:20.904Z</time>
      </trkpt>
      <trkpt lat="39.41151" lon="3.21209">
        <ele>149.473609</ele>
        <time>2023-01-02T12:03:22.896Z</time>
      </trkpt>
      <trkpt lat="39.41162" lon="3.21217">
        <ele>149.420489</ele>
        <time>2023-01-02T12:03:24.903Z</time>
      </trkpt>
      <trkpt lat="39.41173" lon="3.21223">
        <ele>149.367603</ele>
        <time>2023-01-02T12:03:26.910Z</time>
      </trkpt>
      <trkpt lat="39.41185" lon="3.21229">
        <ele>149.31531</ele>
        <time>2023-01-02T12:03:28.891Z</time>
      </trkpt>
      <trkpt lat="39.41197" lon="3.21234">
        <ele>149.293518</ele>
        <time>2023-01-02T12:03:30.902Z</time>
      </trkpt>
      <trkpt lat="39.41209" lon="3.21239">
        <ele>149.412578</ele>
        <time>2023-01-02T12:03:32.887Z</time>
      </trkpt>
      <trkpt lat="39.4122" lon="3.21243">
        <ele>149.526161</ele>
        <time>2023-01-02T12:03:34.893Z</time>
      </trkpt>
      <trkpt lat="39.41232" lon="3.21247">
        <ele>149.640467</ele>
        <time>2023-01-02T12:03:36.897Z</time>
      </trkpt>
      <trkpt lat="39.41243" lon="3.2125">
        <ele>149.755999</ele>
        <time>2023-01-02T12:03:38.907Z</time>
      </trkpt>
      <trkpt lat="39.41254" lon="3.21252">
        <ele>149.862696</ele>
        <time>2023-01-02T12:03:40.905Z</time>
      </trkpt>
      <trkpt lat="39.41265" lon="3.21255">
        <ele>149.970346</ele>
        <time>2023-01-02T12:03:42.893Z</time>
      </trkpt>
      <trkpt lat="39.41276" lon="3.21257">
        <ele>150.078244</ele>
        <time>2023-01-02T12:03:44.894Z</time>
      </trkpt>
      <trkpt lat="39.41287" lon="3.21259">
        <ele>150.180053</ele>
        <time>2023-01-02T12:03:46.898Z</time>
      </trkpt>
      <trkpt lat="39.41297" lon="3.21262">
        <ele>150.283626</ele>
        <time>2023-01-02T12:03:48.899Z</time>
      </trkpt>
      <trkpt lat="39.41308" lon="3.21264">
        <ele>150.385686</ele>
        <time>2023-01-02T12:03:50.902Z</time>
      </trkpt>
      <trkpt lat="39.41318" lon="3.21268">
        <ele>150.488792</ele>
        <time>2023-01-02T12:03:52.892Z</time>
      </trkpt>
      <trkpt lat="39.41328" lon="3.2127">
        <ele>150.587868</ele>
        <time>2023-01-02T12:03:54.893Z</time>
      </trkpt>
      <trkpt lat="39.41338" lon="3.21272">
        <ele>150.690201</ele>
        <time>2023-01-02T12:03:56.899Z</time>
      </trkpt>
      <trkpt lat="39.41349" lon="3.21276">
        <ele>150.792366</ele>
        <time>2023-01-02T12:03:58.899Z</time>
      </trkpt>
      <trkpt lat="39.41359" lon="3.21279">
        <ele>150.890196</ele>
        <time>2023-01-02T12:04:00.898Z</time>
      </trkpt>
      <trkpt lat="39.41368" lon="3.21282">
        <ele>150.98449</ele>
        <time>2023-01-02T12:04:02.894Z</time>
      </trkpt>
      <trkpt lat="39.41377" lon="3.21286">
        <ele>151.198464</ele>
        <time>2023-01-02T12:04:04.895Z</time>
      </trkpt>
      <trkpt lat="39.41386" lon="3.21289">
        <ele>151.462302</ele>
        <time>2023-01-02T12:04:06.899Z</time>
      </trkpt>
      <trkpt lat="39.41395" lon="3.21293">
        <ele>151.728169</ele>
        <time>2023-01-02T12:04:08.897Z</time>
      </trkpt>
      <trkpt lat="39.41403" lon="3.21298">
        <ele>151.991467</ele>
        <time>2023-01-02T12:04:10.894Z</time>
      </trkpt>
      <trkpt lat="39.41412" lon="3.21301">
        <ele>152.253272</ele>
        <time>2023-01-02T12:04:12.900Z</time>
      </trkpt>
      <trkpt lat="39.41421" lon="3.21306">
        <ele>152.51071</ele>
        <time>2023-01-02T12:04:14.889Z</time>
      </trkpt>
      <trkpt lat="39.41429" lon="3.21309">
        <ele>152.771198</ele>
        <time>2023-01-02T12:04:16.894Z</time>
      </trkpt>
      <trkpt lat="39.41438" lon="3.21314">
        <ele>153.028614</ele>
        <time>2023-01-02T12:04:18.908Z</time>
      </trkpt>
      <trkpt lat="39.4145" lon="3.21321">
        <ele>153.403713</ele>
        <time>2023-01-02T12:04:21.898Z</time>
      </trkpt>
      <trkpt lat="39.41462" lon="3.21327">
        <ele>153.771787</ele>
        <time>2023-01-02T12:04:24.897Z</time>
      </trkpt>
      <trkpt lat="39.41474" lon="3.21333">
        <ele>154.135576</ele>
        <time>2023-01-02T12:04:27.893Z</time>
      </trkpt>
      <trkpt lat="39.41485" lon="3.21339">
        <ele>154.477945</ele>
        <time>2023-01-02T12:04:30.897Z</time>
      </trkpt>
      <trkpt lat="39.41496" lon="3.21345">
        <ele>154.821773</ele>
        <time>2023-01-02T12:04:33.913Z</time>
      </trkpt>
      <trkpt lat="39.41507" lon="3.21352">
        <ele>155.152596</ele>
        <time>2023-01-02T12:04:36.901Z</time>
      </trkpt>
      <trkpt lat="39.41518" lon="3.21358">
        <ele>155.483419</ele>
        <time>2023-01-02T12:04:39.911Z</time>
      </trkpt>
      <trkpt lat="39.41527" lon="3.21364">
        <ele>155.771896</ele>
        <time>2023-01-02T12:04:42.900Z</time>
      </trkpt>
      <trkpt lat="39.41536" lon="3.21371">
        <ele>156.074124</ele>
        <time>2023-01-02T12:04:45.904Z</time>
      </trkpt>
      <trkpt lat="39.41545" lon="3.21378">
        <ele>156.159219</ele>
        <time>2023-01-02T12:04:48.901Z</time>
      </trkpt>
      <trkpt lat="39.41554" lon="3.21386">
        <ele>156.228155</ele>
        <time>2023-01-02T12:04:51.890Z</time>
      </trkpt>
      <trkpt lat="39.41563" lon="3.21394">
        <ele>156.299408</ele>
        <time>2023-01-02T12:04:54.906Z</time>
      </trkpt>
      <trkpt lat="39.41572" lon="3.21404">
        <ele>156.373122</ele>
        <time>2023-01-02T12:04:57.895Z</time>
      </trkpt>
      <trkpt lat="39.41582" lon="3.21414">
        <ele>156.451977</ele>
        <time>2023-01-02T12:05:00.888Z</time>
      </trkpt>
      <trkpt lat="39.41593" lon="3.21424">
        <ele>156.53594</ele>
        <time>2023-01-02T12:05:03.898Z</time>
      </trkpt>
      <trkpt lat="39.416" lon="3.21431">
        <ele>156.592548</ele>
        <time>2023-01-02T12:05:05.903Z</time>
      </trkpt>
      <trkpt lat="39.41608" lon="3.21439">
        <ele>156.654696</ele>
        <time>2023-01-02T12:05:07.903Z</time>
      </trkpt>
      <trkpt lat="39.41616" lon="3.21447">
        <ele>156.718313</ele>
        <time>2023-01-02T12:05:09.901Z</time>
      </trkpt>
      <trkpt lat="39.41624" lon="3.21455">
        <ele>156.780947</ele>
        <time>2023-01-02T12:05:11.901Z</time>
      </trkpt>
      <trkpt lat="39.41631" lon="3.21464">
        <ele>156.843858</ele>
        <time>2023-01-02T12:05:13.894Z</time>
      </trkpt>
      <trkpt lat="39.41639" lon="3.21472">
        <ele>156.9054</ele>
        <time>2023-01-02T12:05:15.893Z</time>
      </trkpt>
      <trkpt lat="39.41647" lon="3.21479">
        <ele>156.96585</ele>
        <time>2023-01-02T12:05:17.903Z</time>
      </trkpt>
      <trkpt lat="39.41654" lon="3.21487">
        <ele>157.023435</ele>
        <time>2023-01-02T12:05:19.891Z</time>
      </trkpt>
      <trkpt lat="39.41661" lon="3.21494">
        <ele>157.08053</ele>
        <time>2023-01-02T12:05:21.893Z</time>
      </trkpt>
      <trkpt lat="39.41668" lon="3.21501">
        <ele>157.136931</ele>
        <time>2023-01-02T12:05:23.883Z</time>
      </trkpt>
      <trkpt lat="39.41678" lon="3.21512">
        <ele>157.218259</ele>
        <time>2023-01-02T12:05:26.887Z</time>
      </trkpt>
      <trkpt lat="39.41688" lon="3.21521">
        <ele>157.389372</ele>
        <time>2023-01-02T12:05:29.888Z</time>
      </trkpt>
      <trkpt lat="39.41699" lon="3.2153">
        <ele>157.575054</ele>
        <time>2023-01-02T12:05:32.887Z</time>
      </trkpt>
      <trkpt lat="39.41709" lon="3.21538">
        <ele>157.751427</ele>
        <time>2023-01-02T12:05:35.900Z</time>
      </trkpt>
      <trkpt lat="39.4172" lon="3.21545">
        <ele>157.930005</ele>
        <time>2023-01-02T12:05:38.879Z</time>
      </trkpt>
      <trkpt lat="39.41731" lon="3.21552">
        <ele>158.112245</ele>
        <time>2023-01-02T12:05:41.912Z</time>
      </trkpt>
      <trkpt lat="39.41742" lon="3.2156">
        <ele>158.293175</ele>
        <time>2023-01-02T12:05:44.902Z</time>
      </trkpt>
      <trkpt lat="39.41753" lon="3.21566">
        <ele>158.474219</ele>
        <time>2023-01-02T12:05:47.887Z</time>
      </trkpt>
      <trkpt lat="39.41765" lon="3.21573">
        <ele>158.66057</ele>
        <time>2023-01-02T12:05:50.895Z</time>
      </trkpt>
      <trkpt lat="39.41776" lon="3.2158">
        <ele>158.851884</ele>
        <time>2023-01-02T12:05:53.888Z</time>
      </trkpt>
      <trkpt lat="39.41788" lon="3.21586">
        <ele>159.039142</ele>
        <time>2023-01-02T12:05:56.903Z</time>
      </trkpt>
      <trkpt lat="39.41799" lon="3.21592">
        <ele>159.219175</ele>
        <time>2023-01-02T12:05:59.897Z</time>
      </trkpt>
      <trkpt lat="39.41811" lon="3.21599">
        <ele>159.406442</ele>
        <time>2023-01-02T12:06:02.897Z</time>
      </trkpt>
      <trkpt lat="39.41823" lon="3.21606">
        <ele>159.594598</ele>
        <time>2023-01-02T12:06:05.908Z</time>
      </trkpt>
      <trkpt lat="39.41834" lon="3.21612">
        <ele>159.775096</ele>
        <time>2023-01-02T12:06:08.889Z</time>
      </trkpt>
      <trkpt lat="39.41844" lon="3.21617">
        <ele>159.951195</ele>
        <time>2023-01-02T12:06:11.906Z</time>
      </trkpt>
      <trkpt lat="39.41855" lon="3.21623">
        <ele>160.144413</ele>
        <time>2023-01-02T12:06:14.895Z</time>
      </trkpt>
      <trkpt lat="39.41865" lon="3.21629">
        <ele>160.333412</ele>
        <time>2023-01-02T12:06:17.902Z</time>
      </trkpt>
      <trkpt lat="39.41875" lon="3.21634">
        <ele>160.514215</ele>
        <time>2023-01-02T12:06:20.898Z</time>
      </trkpt>
      <trkpt lat="39.41885" lon="3.2164">
        <ele>160.702397</ele>
        <time>2023-01-02T12:06:23.904Z</time>
      </trkpt>
      <trkpt lat="39.41895" lon="3.21646">
        <ele>160.89244</ele>
        <time>2023-01-02T12:06:26.891Z</time>
      </trkpt>
      <trkpt lat="39.41906" lon="3.21652">
        <ele>161.092406</ele>
        <time>2023-01-02T12:06:29.898Z</time>
      </trkpt>
      <trkpt lat="39.41916" lon="3.21658">
        <ele>161.291321</ele>
        <time>2023-01-02T12:06:32.882Z</time>
      </trkpt>
      <trkpt lat="39.41927" lon="3.21664">
        <ele>161.480838</ele>
        <time>2023-01-02T12:06:35.912Z</time>
      </trkpt>
      <trkpt lat="39.41937" lon="3.2167">
        <ele>161.676627</ele>
        <time>2023-01-02T12:06:38.906Z</time>
      </trkpt>
      <trkpt lat="39.41948" lon="3.21675">
        <ele>161.871925</ele>
        <time>2023-01-02T12:06:41.900Z</time>
      </trkpt>
      <trkpt lat="39.41958" lon="3.21682">
        <ele>162.074113</ele>
        <time>2023-01-02T12:06:44.906Z</time>
      </trkpt>
      <trkpt lat="39.41969" lon="3.21689">
        <ele>162.278033</ele>
        <time>2023-01-02T12:06:47.894Z</time>
      </trkpt>
      <trkpt lat="39.41979" lon="3.21694">
        <ele>162.467031</ele>
        <time>2023-01-02T12:06:50.886Z</time>
      </trkpt>
      <trkpt lat="39.41989" lon="3.21701">
        <ele>162.657712</ele>
        <time>2023-01-02T12:06:53.899Z</time>
      </trkpt>
      <trkpt lat="39.42" lon="3.21707">
        <ele>162.853181</ele>
        <time>2023-01-02T12:06:56.897Z</time>
      </trkpt>
      <trkpt lat="39.4201" lon="3.21715">
        <ele>162.86937</ele>
        <time>2023-01-02T12:06:59.893Z</time>
      </trkpt>
      <trkpt lat="39.42021" lon="3.21722">
        <ele>162.73522</ele>
        <time>2023-01-02T12:07:02.891Z</time>
      </trkpt>
      <trkpt lat="39.42032" lon="3.2173">
        <ele>162.597767</ele>
        <time>2023-01-02T12:07:05.904Z</time>
      </trkpt>
      <trkpt lat="39.42044" lon="3.21739">
        <ele>162.451439</ele>
        <time>2023-01-02T12:07:08.893Z</time>
      </trkpt>
      <trkpt lat="39.42055" lon="3.21747">
        <ele>162.30366</ele>
        <time>2023-01-02T12:07:11.884Z</time>
      </trkpt>
      <trkpt lat="39.42064" lon="3.21753">
        <ele>162.19958</ele>
        <time>2023-01-02T12:07:13.892Z</time>
      </trkpt>
      <trkpt lat="39.42072" lon="3.2176">
        <ele>162.093448</ele>
        <time>2023-01-02T12:07:15.898Z</time>
      </trkpt>
      <trkpt lat="39.4208" lon="3.21766">
        <ele>161.987316</ele>
        <time>2023-01-02T12:07:17.905Z</time>
      </trkpt>
      <trkpt lat="39.42088" lon="3.21773">
        <ele>161.879802</ele>
        <time>2023-01-02T12:07:19.897Z</time>
      </trkpt>
      <trkpt lat="39.42096" lon="3.2178">
        <ele>161.774607</ele>
        <time>2023-01-02T12:07:21.910Z</time>
      </trkpt>
      <trkpt lat="39.42105" lon="3.21787">
        <ele>161.666185</ele>
        <time>2023-01-02T12:07:23.909Z</time>
      </trkpt>
      <trkpt lat="39.42113" lon="3.21793">
        <ele>161.556836</ele>
        <time>2023-01-02T12:07:25.906Z</time>
      </trkpt>
      <trkpt lat="39.42122" lon="3.21801">
        <ele>161.443289</ele>
        <time>2023-01-02T12:07:27.890Z</time>
      </trkpt>
      <trkpt lat="39.4213" lon="3.2181">
        <ele>161.326098</ele>
        <time>2023-01-02T12:07:29.886Z</time>
      </trkpt>
      <trkpt lat="39.42139" lon="3.21818">
        <ele>161.207003</ele>
        <time>2023-01-02T12:07:31.890Z</time>
      </trkpt>
      <trkpt lat="39.42148" lon="3.21826">
        <ele>161.085543</ele>
        <time>2023-01-02T12:07:33.899Z</time>
      </trkpt>
      <trkpt lat="39.42157" lon="3.21835">
        <ele>160.940816</ele>
        <time>2023-01-02T12:07:35.895Z</time>
      </trkpt>
      <trkpt lat="39.42167" lon="3.21845">
        <ele>160.554505</ele>
        <time>2023-01-02T12:07:37.905Z</time>
      </trkpt>
      <trkpt lat="39.42176" lon="3.21855">
        <ele>160.1721</ele>
        <time>2023-01-02T12:07:39.906Z</time>
      </trkpt>
      <trkpt lat="39.42187" lon="3.21866">
        <ele>159.754549</ele>
        <time>2023-01-02T12:07:41.902Z</time>
      </trkpt>
      <trkpt lat="39.42198" lon="3.21878">
        <ele>159.305971</ele>
        <time>2023-01-02T12:07:43.920Z</time>
      </trkpt>
      <trkpt lat="39.4221" lon="3.21891">
        <ele>158.831684</ele>
        <time>2023-01-02T12:07:45.899Z</time>
      </trkpt>
      <trkpt lat="39.42222" lon="3.21906">
        <ele>158.321494</ele>
        <time>2023-01-02T12:07:47.879Z</time>
      </trkpt>
      <trkpt lat="39.42235" lon="3.2192">
        <ele>157.798758</ele>
        <time>2023-01-02T12:07:49.908Z</time>
      </trkpt>
      <trkpt lat="39.42248" lon="3.21935">
        <ele>157.25654</ele>
        <time>2023-01-02T12:07:51.892Z</time>
      </trkpt>
      <trkpt lat="39.42261" lon="3.21951">
        <ele>156.706956</ele>
        <time>2023-01-02T12:07:53.899Z</time>
      </trkpt>
      <trkpt lat="39.42273" lon="3.21966">
        <ele>156.172292</ele>
        <time>2023-01-02T12:07:55.887Z</time>
      </trkpt>
      <trkpt lat="39.42286" lon="3.21981">
        <ele>155.647962</ele>
        <time>2023-01-02T12:07:57.887Z</time>
      </trkpt>
      <trkpt lat="39.42298" lon="3.21996">
        <ele>155.305867</ele>
        <time>2023-01-02T12:07:59.891Z</time>
      </trkpt>
      <trkpt lat="39.42309" lon="3.2201">
        <ele>155.121488</ele>
        <time>2023-01-02T12:08:01.897Z</time>
      </trkpt>
      <trkpt lat="39.42321" lon="3.22024">
        <ele>154.937342</ele>
        <time>2023-01-02T12:08:03.889Z</time>
      </trkpt>
      <trkpt lat="39.42332" lon="3.22037">
        <ele>154.754669</ele>
        <time>2023-01-02T12:08:05.909Z</time>
      </trkpt>
      <trkpt lat="39.42343" lon="3.22051">
        <ele>154.571145</ele>
        <time>2023-01-02T12:08:07.892Z</time>
      </trkpt>
      <trkpt lat="39.42355" lon="3.22065">
        <ele>154.389219</ele>
        <time>2023-01-02T12:08:09.899Z</time>
      </trkpt>
      <trkpt lat="39.42367" lon="3.22079">
        <ele>154.203982</ele>
        <time>2023-01-02T12:08:11.900Z</time>
      </trkpt>
      <trkpt lat="39.42378" lon="3.22093">
        <ele>154.020458</ele>
        <time>2023-01-02T12:08:13.916Z</time>
      </trkpt>
      <trkpt lat="39.42389" lon="3.22106">
        <ele>153.839646</ele>
        <time>2023-01-02T12:08:15.911Z</time>
      </trkpt>
      <trkpt lat="39.424" lon="3.2212">
        <ele>153.661393</ele>
        <time>2023-01-02T12:08:17.896Z</time>
      </trkpt>
      <trkpt lat="39.42411" lon="3.22133">
        <ele>153.483531</ele>
        <time>2023-01-02T12:08:19.889Z</time>
      </trkpt>
      <trkpt lat="39.42422" lon="3.22147">
        <ele>153.307375</ele>
        <time>2023-01-02T12:08:21.900Z</time>
      </trkpt>
      <trkpt lat="39.42433" lon="3.22159">
        <ele>153.409571</ele>
        <time>2023-01-02T12:08:23.896Z</time>
      </trkpt>
      <trkpt lat="39.42443" lon="3.22172">
        <ele>153.520121</ele>
        <time>2023-01-02T12:08:25.894Z</time>
      </trkpt>
      <trkpt lat="39.42453" lon="3.22185">
        <ele>153.626645</ele>
        <time>2023-01-02T12:08:27.908Z</time>
      </trkpt>
      <trkpt lat="39.42463" lon="3.22197">
        <ele>153.733765</ele>
        <time>2023-01-02T12:08:29.902Z</time>
      </trkpt>
      <trkpt lat="39.42473" lon="3.22209">
        <ele>153.838212</ele>
        <time>2023-01-02T12:08:31.896Z</time>
      </trkpt>
      <trkpt lat="39.42483" lon="3.2222">
        <ele>153.936885</ele>
        <time>2023-01-02T12:08:33.930Z</time>
      </trkpt>
      <trkpt lat="39.42491" lon="3.2223">
        <ele>154.028973</ele>
        <time>2023-01-02T12:08:35.892Z</time>
      </trkpt>
      <trkpt lat="39.425" lon="3.2224">
        <ele>154.121604</ele>
        <time>2023-01-02T12:08:37.887Z</time>
      </trkpt>
      <trkpt lat="39.42509" lon="3.2225">
        <ele>154.210539</ele>
        <time>2023-01-02T12:08:39.885Z</time>
      </trkpt>
      <trkpt lat="39.42518" lon="3.22259">
        <ele>154.295417</ele>
        <time>2023-01-02T12:08:41.890Z</time>
      </trkpt>
      <trkpt lat="39.42527" lon="3.22267">
        <ele>154.378117</ele>
        <time>2023-01-02T12:08:43.907Z</time>
      </trkpt>
      <trkpt lat="39.42535" lon="3.22275">
        <ele>154.458959</ele>
        <time>2023-01-02T12:08:45.908Z</time>
      </trkpt>
      <trkpt lat="39.42543" lon="3.22282">
        <ele>154.536354</ele>
        <time>2023-01-02T12:08:47.906Z</time>
      </trkpt>
      <trkpt lat="39.42552" lon="3.2229">
        <ele>154.617658</ele>
        <time>2023-01-02T12:08:49.906Z</time>
      </trkpt>
      <trkpt lat="39.4256" lon="3.22297">
        <ele>154.694485</ele>
        <time>2023-01-02T12:08:51.908Z</time>
      </trkpt>
      <trkpt lat="39.42569" lon="3.22304">
        <ele>154.739718</ele>
        <time>2023-01-02T12:08:53.892Z</time>
      </trkpt>
      <trkpt lat="39.42578" lon="3.22311">
        <ele>154.785599</ele>
        <time>2023-01-02T12:08:55.892Z</time>
      </trkpt>
      <trkpt lat="39.42586" lon="3.22317">
        <ele>154.829251</ele>
        <time>2023-01-02T12:08:57.905Z</time>
      </trkpt>
      <trkpt lat="39.42595" lon="3.22322">
        <ele>154.870758</ele>
        <time>2023-01-02T12:08:59.900Z</time>
      </trkpt>
      <trkpt lat="39.42603" lon="3.22328">
        <ele>154.914726</ele>
        <time>2023-01-02T12:09:01.899Z</time>
      </trkpt>
      <trkpt lat="39.42612" lon="3.22333">
        <ele>154.959455</ele>
        <time>2023-01-02T12:09:03.889Z</time>
      </trkpt>
      <trkpt lat="39.42622" lon="3.22338">
        <ele>155.003627</ele>
        <time>2023-01-02T12:09:05.901Z</time>
      </trkpt>
      <trkpt lat="39.42631" lon="3.22343">
        <ele>155.047935</ele>
        <time>2023-01-02T12:09:07.890Z</time>
      </trkpt>
      <trkpt lat="39.42639" lon="3.22348">
        <ele>155.09047</ele>
        <time>2023-01-02T12:09:09.900Z</time>
      </trkpt>
      <trkpt lat="39.42648" lon="3.22353">
        <ele>155.132593</ele>
        <time>2023-01-02T12:09:11.911Z</time>
      </trkpt>
      <trkpt lat="39.42657" lon="3.22356">
        <ele>155.174786</ele>
        <time>2023-01-02T12:09:13.902Z</time>
      </trkpt>
      <trkpt lat="39.42666" lon="3.2236">
        <ele>155.215317</ele>
        <time>2023-01-02T12:09:15.898Z</time>
      </trkpt>
      <trkpt lat="39.42675" lon="3.22365">
        <ele>155.259141</ele>
        <time>2023-01-02T12:09:17.900Z</time>
      </trkpt>
      <trkpt lat="39.42684" lon="3.22369">
        <ele>155.303996</ele>
        <time>2023-01-02T12:09:19.891Z</time>
      </trkpt>
      <trkpt lat="39.42694" lon="3.22373">
        <ele>155.348208</ele>
        <time>2023-01-02T12:09:21.903Z</time>
      </trkpt>
      <trkpt lat="39.42703" lon="3.22377">
        <ele>155.392109</ele>
        <time>2023-01-02T12:09:23.910Z</time>
      </trkpt>
      <trkpt lat="39.42712" lon="3.22381">
        <ele>155.436007</ele>
        <time>2023-01-02T12:09:25.909Z</time>
      </trkpt>
      <trkpt lat="39.42722" lon="3.22384">
        <ele>155.479907</ele>
        <time>2023-01-02T12:09:27.905Z</time>
      </trkpt>
      <trkpt lat="39.42731" lon="3.22389">
        <ele>155.538582</ele>
        <time>2023-01-02T12:09:29.909Z</time>
      </trkpt>
      <trkpt lat="39.4274" lon="3.22393">
        <ele>155.610367</ele>
        <time>2023-01-02T12:09:31.890Z</time>
      </trkpt>
      <trkpt lat="39.42749" lon="3.22398">
        <ele>155.679763</ele>
        <time>2023-01-02T12:09:33.894Z</time>
      </trkpt>
      <trkpt lat="39.42758" lon="3.22402">
        <ele>155.746771</ele>
        <time>2023-01-02T12:09:35.896Z</time>
      </trkpt>
      <trkpt lat="39.42767" lon="3.22407">
        <ele>155.815702</ele>
        <time>2023-01-02T12:09:37.894Z</time>
      </trkpt>
      <trkpt lat="39.42776" lon="3.22412">
        <ele>155.886564</ele>
        <time>2023-01-02T12:09:39.902Z</time>
      </trkpt>
      <trkpt lat="39.42786" lon="3.22417">
        <ele>155.958731</ele>
        <time>2023-01-02T12:09:41.902Z</time>
      </trkpt>
      <trkpt lat="39.42795" lon="3.22422">
        <ele>156.03138</ele>
        <time>2023-01-02T12:09:43.892Z</time>
      </trkpt>
      <trkpt lat="39.42804" lon="3.22428">
        <ele>156.101093</ele>
        <time>2023-01-02T12:09:45.904Z</time>
      </trkpt>
      <trkpt lat="39.42813" lon="3.22433">
        <ele>156.171588</ele>
        <time>2023-01-02T12:09:47.900Z</time>
      </trkpt>
      <trkpt lat="39.42822" lon="3.22439">
        <ele>156.245127</ele>
        <time>2023-01-02T12:09:49.909Z</time>
      </trkpt>
      <trkpt lat="39.42831" lon="3.22445">
        <ele>156.31386</ele>
        <time>2023-01-02T12:09:51.889Z</time>
      </trkpt>
      <trkpt lat="39.4284" lon="3.2245">
        <ele>156.385405</ele>
        <time>2023-01-02T12:09:53.890Z</time>
      </trkpt>
      <trkpt lat="39.42849" lon="3.22456">
        <ele>156.456304</ele>
        <time>2023-01-02T12:09:55.894Z</time>
      </trkpt>
      <trkpt lat="39.42857" lon="3.22461">
        <ele>156.522349</ele>
        <time>2023-01-02T12:09:57.900Z</time>
      </trkpt>
      <trkpt lat="39.42866" lon="3.22466">
        <ele>156.591492</ele>
        <time>2023-01-02T12:09:59.902Z</time>
      </trkpt>
      <trkpt lat="39.42874" lon="3.22471">
        <ele>156.657555</ele>
        <time>2023-01-02T12:10:01.909Z</time>
      </trkpt>
      <trkpt lat="39.42883" lon="3.22476">
        <ele>156.725144</ele>
        <time>2023-01-02T12:10:03.882Z</time>
      </trkpt>
      <trkpt lat="39.42892" lon="3.22482">
        <ele>156.780241</ele>
        <time>2023-01-02T12:10:05.896Z</time>
      </trkpt>
      <trkpt lat="39.429" lon="3.22487">
        <ele>156.789234</ele>
        <time>2023-01-02T12:10:07.897Z</time>
      </trkpt>
      <trkpt lat="39.42909" lon="3.22492">
        <ele>156.797921</ele>
        <time>2023-01-02T12:10:09.894Z</time>
      </trkpt>
      <trkpt lat="39.42918" lon="3.22498">
        <ele>156.806718</ele>
        <time>2023-01-02T12:10:11.897Z</time>
      </trkpt>
      <trkpt lat="39.42926" lon="3.22503">
        <ele>156.815297</ele>
        <time>2023-01-02T12:10:13.895Z</time>
      </trkpt>
      <trkpt lat="39.42935" lon="3.22509">
        <ele>156.824403</ele>
        <time>2023-01-02T12:10:15.902Z</time>
      </trkpt>
      <trkpt lat="39.42943" lon="3.22514">
        <ele>156.832682</ele>
        <time>2023-01-02T12:10:17.907Z</time>
      </trkpt>
      <trkpt lat="39.42951" lon="3.2252">
        <ele>156.841269</ele>
        <time>2023-01-02T12:10:19.903Z</time>
      </trkpt>
      <trkpt lat="39.4296" lon="3.22525">
        <ele>156.849774</ele>
        <time>2023-01-02T12:10:21.901Z</time>
      </trkpt>
      <trkpt lat="39.42968" lon="3.2253">
        <ele>156.858519</ele>
        <time>2023-01-02T12:10:23.905Z</time>
      </trkpt>
      <trkpt lat="39.42977" lon="3.22536">
        <ele>156.867497</ele>
        <time>2023-01-02T12:10:25.910Z</time>
      </trkpt>
      <trkpt lat="39.42986" lon="3.22541">
        <ele>156.876053</ele>
        <time>2023-01-02T12:10:27.876Z</time>
      </trkpt>
      <trkpt lat="39.42994" lon="3.22546">
        <ele>156.884661</ele>
        <time>2023-01-02T12:10:29.895Z</time>
      </trkpt>
      <trkpt lat="39.43006" lon="3.22553">
        <ele>156.896263</ele>
        <time>2023-01-02T12:10:32.894Z</time>
      </trkpt>
      <trkpt lat="39.43018" lon="3.22561">
        <ele>156.908639</ele>
        <time>2023-01-02T12:10:35.894Z</time>
      </trkpt>
      <trkpt lat="39.43026" lon="3.22566">
        <ele>156.917014</ele>
        <time>2023-01-02T12:10:37.886Z</time>
      </trkpt>
      <trkpt lat="39.43034" lon="3.22572">
        <ele>156.925308</ele>
        <time>2023-01-02T12:10:39.900Z</time>
      </trkpt>
      <trkpt lat="39.43042" lon="3.22578">
        <ele>156.933845</ele>
        <time>2023-01-02T12:10:41.897Z</time>
      </trkpt>
      <trkpt lat="39.4305" lon="3.22584">
        <ele>156.942497</ele>
        <time>2023-01-02T12:10:43.891Z</time>
      </trkpt>
      <trkpt lat="39.43058" lon="3.22591">
        <ele>156.859603</ele>
        <time>2023-01-02T12:10:45.886Z</time>
      </trkpt>
      <trkpt lat="39.43066" lon="3.22599">
        <ele>156.769888</ele>
        <time>2023-01-02T12:10:47.880Z</time>
      </trkpt>
      <trkpt lat="39.43074" lon="3.22607">
        <ele>156.681919</ele>
        <time>2023-01-02T12:10:49.887Z</time>
      </trkpt>
      <trkpt lat="39.43082" lon="3.22615">
        <ele>156.587438</ele>
        <time>2023-01-02T12:10:51.903Z</time>
      </trkpt>
      <trkpt lat="39.4309" lon="3.22624">
        <ele>156.491709</ele>
        <time>2023-01-02T12:10:53.903Z</time>
      </trkpt>
      <trkpt lat="39.43098" lon="3.22633">
        <ele>156.397113</ele>
        <time>2023-01-02T12:10:55.899Z</time>
      </trkpt>
      <trkpt lat="39.43106" lon="3.22642">
        <ele>156.303648</ele>
        <time>2023-01-02T12:10:57.902Z</time>
      </trkpt>
      <trkpt lat="39.43115" lon="3.22651">
        <ele>156.204499</ele>
        <time>2023-01-02T12:10:59.896Z</time>
      </trkpt>
      <trkpt lat="39.43123" lon="3.22661">
        <ele>156.103945</ele>
        <time>2023-01-02T12:11:01.892Z</time>
      </trkpt>
      <trkpt lat="39.43131" lon="3.22671">
        <ele>156.002916</ele>
        <time>2023-01-02T12:11:03.892Z</time>
      </trkpt>
      <trkpt lat="39.43139" lon="3.22681">
        <ele>155.904242</ele>
        <time>2023-01-02T12:11:05.901Z</time>
      </trkpt>
      <trkpt lat="39.43148" lon="3.2269">
        <ele>155.801704</ele>
        <time>2023-01-02T12:11:07.903Z</time>
      </trkpt>
      <trkpt lat="39.43156" lon="3.22701">
        <ele>155.695689</ele>
        <time>2023-01-02T12:11:09.899Z</time>
      </trkpt>
      <trkpt lat="39.43165" lon="3.22712">
        <ele>155.587234</ele>
        <time>2023-01-02T12:11:11.894Z</time>
      </trkpt>
      <trkpt lat="39.43175" lon="3.22722">
        <ele>155.477475</ele>
        <time>2023-01-02T12:11:13.886Z</time>
      </trkpt>
      <trkpt lat="39.43184" lon="3.22733">
        <ele>155.361777</ele>
        <time>2023-01-02T12:11:15.902Z</time>
      </trkpt>
      <trkpt lat="39.43193" lon="3.22745">
        <ele>155.114175</ele>
        <time>2023-01-02T12:11:17.892Z</time>
      </trkpt>
      <trkpt lat="39.43203" lon="3.22756">
        <ele>154.802785</ele>
        <time>2023-01-02T12:11:19.892Z</time>
      </trkpt>
      <trkpt lat="39.43214" lon="3.22768">
        <ele>154.478574</ele>
        <time>2023-01-02T12:11:21.900Z</time>
      </trkpt>
      <trkpt lat="39.43224" lon="3.22781">
        <ele>154.154678</ele>
        <time>2023-01-02T12:11:23.898Z</time>
      </trkpt>
      <trkpt lat="39.43234" lon="3.22793">
        <ele>153.820259</ele>
        <time>2023-01-02T12:11:25.901Z</time>
      </trkpt>
      <trkpt lat="39.43245" lon="3.22806">
        <ele>153.474564</ele>
        <time>2023-01-02T12:11:27.902Z</time>
      </trkpt>
      <trkpt lat="39.43256" lon="3.2282">
        <ele>153.116106</ele>
        <time>2023-01-02T12:11:29.913Z</time>
      </trkpt>
      <trkpt lat="39.43267" lon="3.22834">
        <ele>152.760127</ele>
        <time>2023-01-02T12:11:31.890Z</time>
      </trkpt>
      <trkpt lat="39.43277" lon="3.22849">
        <ele>152.394367</ele>
        <time>2023-01-02T12:11:33.903Z</time>
      </trkpt>
      <trkpt lat="39.43287" lon="3.22866">
        <ele>152.023112</ele>
        <time>2023-01-02T12:11:35.896Z</time>
      </trkpt>
      <trkpt lat="39.43295" lon="3.22882">
        <ele>151.670381</ele>
        <time>2023-01-02T12:11:37.888Z</time>
      </trkpt>
      <trkpt lat="39.43302" lon="3.22899">
        <ele>151.330271</ele>
        <time>2023-01-02T12:11:39.894Z</time>
      </trkpt>
      <trkpt lat="39.43308" lon="3.22915">
        <ele>151.049232</ele>
        <time>2023-01-02T12:11:41.909Z</time>
      </trkpt>
      <trkpt lat="39.43314" lon="3.22932">
        <ele>150.850143</ele>
        <time>2023-01-02T12:11:43.897Z</time>
      </trkpt>
      <trkpt lat="39.4332" lon="3.22949">
        <ele>150.652615</ele>
        <time>2023-01-02T12:11:45.905Z</time>
      </trkpt>
      <trkpt lat="39.43326" lon="3.22965">
        <ele>150.456051</ele>
        <time>2023-01-02T12:11:47.888Z</time>
      </trkpt>
      <trkpt lat="39.43333" lon="3.22981">
        <ele>150.259995</ele>
        <time>2023-01-02T12:11:49.898Z</time>
      </trkpt>
      <trkpt lat="39.43341" lon="3.22997">
        <ele>150.062551</ele>
        <time>2023-01-02T12:11:51.886Z</time>
      </trkpt>
      <trkpt lat="39.43348" lon="3.23013">
        <ele>149.865127</ele>
        <time>2023-01-02T12:11:53.888Z</time>
      </trkpt>
      <trkpt lat="39.43357" lon="3.23027">
        <ele>149.674363</ele>
        <time>2023-01-02T12:11:55.898Z</time>
      </trkpt>
      <trkpt lat="39.43366" lon="3.23039">
        <ele>149.484197</ele>
        <time>2023-01-02T12:11:57.882Z</time>
      </trkpt>
      <trkpt lat="39.43376" lon="3.23053">
        <ele>149.292648</ele>
        <time>2023-01-02T12:11:59.898Z</time>
      </trkpt>
      <trkpt lat="39.43386" lon="3.23065">
        <ele>149.09289</ele>
        <time>2023-01-02T12:12:01.893Z</time>
      </trkpt>
      <trkpt lat="39.43397" lon="3.23077">
        <ele>148.900387</ele>
        <time>2023-01-02T12:12:03.882Z</time>
      </trkpt>
      <trkpt lat="39.43408" lon="3.23089">
        <ele>148.700788</ele>
        <time>2023-01-02T12:12:05.883Z</time>
      </trkpt>
      <trkpt lat="39.43419" lon="3.23102">
        <ele>148.48056</ele>
        <time>2023-01-02T12:12:07.888Z</time>
      </trkpt>
      <trkpt lat="39.4343" lon="3.23113">
        <ele>148.260595</ele>
        <time>2023-01-02T12:12:09.887Z</time>
      </trkpt>
      <trkpt lat="39.4344" lon="3.23125">
        <ele>148.040001</ele>
        <time>2023-01-02T12:12:11.896Z</time>
      </trkpt>
      <trkpt lat="39.43451" lon="3.23136">
        <ele>147.822482</ele>
        <time>2023-01-02T12:12:13.875Z</time>
      </trkpt>
      <trkpt lat="39.43462" lon="3.23148">
        <ele>147.598707</ele>
        <time>2023-01-02T12:12:15.885Z</time>
      </trkpt>
      <trkpt lat="39.43473" lon="3.23159">
        <ele>147.381697</ele>
        <time>2023-01-02T12:12:17.898Z</time>
      </trkpt>
      <trkpt lat="39.43483" lon="3.23171">
        <ele>147.16428</ele>
        <time>2023-01-02T12:12:19.890Z</time>
      </trkpt>
      <trkpt lat="39.43494" lon="3.23182">
        <ele>146.952012</ele>
        <time>2023-01-02T12:12:21.906Z</time>
      </trkpt>
      <trkpt lat="39.43504" lon="3.23193">
        <ele>146.749559</ele>
        <time>2023-01-02T12:12:23.891Z</time>
      </trkpt>
      <trkpt lat="39.43514" lon="3.23205">
        <ele>146.534478</ele>
        <time>2023-01-02T12:12:25.903Z</time>
      </trkpt>
      <trkpt lat="39.43524" lon="3.23216">
        <ele>146.328069</ele>
        <time>2023-01-02T12:12:27.902Z</time>
      </trkpt>
      <trkpt lat="39.43534" lon="3.23226">
        <ele>146.121476</ele>
        <time>2023-01-02T12:12:29.905Z</time>
      </trkpt>
      <trkpt lat="39.43544" lon="3.23237">
        <ele>145.927279</ele>
        <time>2023-01-02T12:12:31.893Z</time>
      </trkpt>
      <trkpt lat="39.43553" lon="3.23248">
        <ele>145.633331</ele>
        <time>2023-01-02T12:12:33.911Z</time>
      </trkpt>
      <trkpt lat="39.43562" lon="3.23257">
        <ele>145.202458</ele>
        <time>2023-01-02T12:12:35.888Z</time>
      </trkpt>
      <trkpt lat="39.43572" lon="3.23268">
        <ele>144.74478</ele>
        <time>2023-01-02T12:12:37.884Z</time>
      </trkpt>
      <trkpt lat="39.43581" lon="3.23279">
        <ele>144.298837</ele>
        <time>2023-01-02T12:12:39.903Z</time>
      </trkpt>
      <trkpt lat="39.43592" lon="3.2329">
        <ele>143.819393</ele>
        <time>2023-01-02T12:12:41.900Z</time>
      </trkpt>
      <trkpt lat="39.43602" lon="3.23301">
        <ele>143.334672</ele>
        <time>2023-01-02T12:12:43.891Z</time>
      </trkpt>
      <trkpt lat="39.43613" lon="3.23312">
        <ele>142.839162</ele>
        <time>2023-01-02T12:12:45.889Z</time>
      </trkpt>
      <trkpt lat="39.43624" lon="3.23325">
        <ele>142.317549</ele>
        <time>2023-01-02T12:12:47.901Z</time>
      </trkpt>
      <trkpt lat="39.43636" lon="3.23337">
        <ele>141.780496</ele>
        <time>2023-01-02T12:12:49.907Z</time>
      </trkpt>
      <trkpt lat="39.43647" lon="3.2335">
        <ele>141.229127</ele>
        <time>2023-01-02T12:12:51.894Z</time>
      </trkpt>
      <trkpt lat="39.4366" lon="3.23363">
        <ele>140.649741</ele>
        <time>2023-01-02T12:12:53.897Z</time>
      </trkpt>
      <trkpt lat="39.43673" lon="3.23377">
        <ele>140.040546</ele>
        <time>2023-01-02T12:12:55.900Z</time>
      </trkpt>
      <trkpt lat="39.43686" lon="3.23392">
        <ele>139.435155</ele>
        <time>2023-01-02T12:12:57.905Z</time>
      </trkpt>
      <trkpt lat="39.43699" lon="3.23406">
        <ele>139.252181</ele>
        <time>2023-01-02T12:12:59.913Z</time>
      </trkpt>
      <trkpt lat="39.43711" lon="3.2342">
        <ele>139.097421</ele>
        <time>2023-01-02T12:13:01.896Z</time>
      </trkpt>
      <trkpt lat="39.43723" lon="3.23434">
        <ele>138.950291</ele>
        <time>2023-01-02T12:13:03.902Z</time>
      </trkpt>
      <trkpt lat="39.43733" lon="3.23448">
        <ele>138.812439</ele>
        <time>2023-01-02T12:13:05.901Z</time>
      </trkpt>
      <trkpt lat="39.43743" lon="3.23461">
        <ele>138.680144</ele>
        <time>2023-01-02T12:13:07.901Z</time>
      </trkpt>
      <trkpt lat="39.43752" lon="3.23475">
        <ele>138.554794</ele>
        <time>2023-01-02T12:13:09.910Z</time>
      </trkpt>
      <trkpt lat="39.4376" lon="3.23487">
        <ele>138.438608</ele>
        <time>2023-01-02T12:13:11.896Z</time>
      </trkpt>
      <trkpt lat="39.43767" lon="3.235">
        <ele>138.329573</ele>
        <time>2023-01-02T12:13:13.906Z</time>
      </trkpt>
      <trkpt lat="39.43772" lon="3.23511">
        <ele>138.231824</ele>
        <time>2023-01-02T12:13:15.891Z</time>
      </trkpt>
      <trkpt lat="39.43778" lon="3.23522">
        <ele>138.140679</ele>
        <time>2023-01-02T12:13:17.910Z</time>
      </trkpt>
      <trkpt lat="39.43783" lon="3.23533">
        <ele>138.053768</ele>
        <time>2023-01-02T12:13:19.906Z</time>
      </trkpt>
      <trkpt lat="39.43787" lon="3.23543">
        <ele>137.970012</ele>
        <time>2023-01-02T12:13:21.912Z</time>
      </trkpt>
      <trkpt lat="39.43792" lon="3.23552">
        <ele>137.886855</ele>
        <time>2023-01-02T12:13:23.895Z</time>
      </trkpt>
      <trkpt lat="39.43798" lon="3.23562">
        <ele>137.802284</ele>
        <time>2023-01-02T12:13:25.905Z</time>
      </trkpt>
      <trkpt lat="39.43807" lon="3.23575">
        <ele>137.877877</ele>
        <time>2023-01-02T12:13:28.907Z</time>
      </trkpt>
      <trkpt lat="39.43815" lon="3.23586">
        <ele>138.179971</ele>
        <time>2023-01-02T12:13:31.896Z</time>
      </trkpt>
      <trkpt lat="39.43822" lon="3.23598">
        <ele>138.458207</ele>
        <time>2023-01-02T12:13:35.893Z</time>
      </trkpt>
      <trkpt lat="39.43825" lon="3.23609">
        <ele>138.677372</ele>
        <time>2023-01-02T12:13:38.893Z</time>
      </trkpt>
      <trkpt lat="39.43829" lon="3.23622">
        <ele>138.934299</ele>
        <time>2023-01-02T12:13:41.892Z</time>
      </trkpt>
      <trkpt lat="39.43833" lon="3.23628">
        <ele>139.093767</ele>
        <time>2023-01-02T12:13:50.239Z</time>
      </trkpt>
      <trkpt lat="39.43847" lon="3.23629">
        <ele>139.437161</ele>
        <time>2023-01-02T12:15:16.912Z</time>
      </trkpt>
      <trkpt lat="39.43856" lon="3.23619">
        <ele>139.715111</ele>
        <time>2023-01-02T12:15:20.899Z</time>
      </trkpt>
      <trkpt lat="39.43862" lon="3.23606">
        <ele>140.001065</ele>
        <time>2023-01-02T12:15:24.901Z</time>
      </trkpt>
      <trkpt lat="39.43867" lon="3.23597">
        <ele>140.224584</ele>
        <time>2023-01-02T12:15:27.909Z</time>
      </trkpt>
      <trkpt lat="39.43874" lon="3.23588">
        <ele>140.454221</ele>
        <time>2023-01-02T12:15:30.900Z</time>
      </trkpt>
      <trkpt lat="39.43882" lon="3.23581">
        <ele>140.699513</ele>
        <time>2023-01-02T12:15:33.888Z</time>
      </trkpt>
      <trkpt lat="39.43892" lon="3.23575">
        <ele>140.956584</ele>
        <time>2023-01-02T12:15:36.896Z</time>
      </trkpt>
      <trkpt lat="39.43901" lon="3.2357">
        <ele>141.208453</ele>
        <time>2023-01-02T12:15:39.884Z</time>
      </trkpt>
      <trkpt lat="39.43911" lon="3.23565">
        <ele>141.454409</ele>
        <time>2023-01-02T12:15:42.910Z</time>
      </trkpt>
      <trkpt lat="39.4392" lon="3.2356">
        <ele>141.698006</ele>
        <time>2023-01-02T12:15:45.892Z</time>
      </trkpt>
      <trkpt lat="39.43929" lon="3.23555">
        <ele>141.947564</ele>
        <time>2023-01-02T12:15:48.894Z</time>
      </trkpt>
      <trkpt lat="39.4394" lon="3.2355">
        <ele>142.165562</ele>
        <time>2023-01-02T12:15:51.916Z</time>
      </trkpt>
      <trkpt lat="39.4395" lon="3.23545">
        <ele>142.306988</ele>
        <time>2023-01-02T12:15:54.887Z</time>
      </trkpt>
      <trkpt lat="39.43961" lon="3.23541">
        <ele>142.457081</ele>
        <time>2023-01-02T12:15:57.880Z</time>
      </trkpt>
      <trkpt lat="39.43971" lon="3.23536">
        <ele>142.605566</ele>
        <time>2023-01-02T12:16:00.910Z</time>
      </trkpt>
      <trkpt lat="39.43982" lon="3.23531">
        <ele>142.757194</ele>
        <time>2023-01-02T12:16:03.913Z</time>
      </trkpt>
      <trkpt lat="39.43993" lon="3.23528">
        <ele>142.902414</ele>
        <time>2023-01-02T12:16:06.887Z</time>
      </trkpt>
      <trkpt lat="39.44004" lon="3.23524">
        <ele>143.051437</ele>
        <time>2023-01-02T12:16:09.893Z</time>
      </trkpt>
      <trkpt lat="39.44015" lon="3.2352">
        <ele>143.196657</ele>
        <time>2023-01-02T12:16:12.897Z</time>
      </trkpt>
      <trkpt lat="39.44025" lon="3.23517">
        <ele>143.336288</ele>
        <time>2023-01-02T12:16:15.882Z</time>
      </trkpt>
      <trkpt lat="39.44035" lon="3.23514">
        <ele>143.473669</ele>
        <time>2023-01-02T12:16:18.895Z</time>
      </trkpt>
      <trkpt lat="39.44047" lon="3.23511">
        <ele>143.628211</ele>
        <time>2023-01-02T12:16:21.913Z</time>
      </trkpt>
      <trkpt lat="39.44058" lon="3.23508">
        <ele>143.782752</ele>
        <time>2023-01-02T12:16:24.892Z</time>
      </trkpt>
      <trkpt lat="39.44071" lon="3.23506">
        <ele>143.948164</ele>
        <time>2023-01-02T12:16:27.890Z</time>
      </trkpt>
      <trkpt lat="39.44083" lon="3.23504">
        <ele>144.104345</ele>
        <time>2023-01-02T12:16:30.896Z</time>
      </trkpt>
      <trkpt lat="39.44095" lon="3.23502">
        <ele>144.272493</ele>
        <time>2023-01-02T12:16:33.904Z</time>
      </trkpt>
      <trkpt lat="39.44108" lon="3.235">
        <ele>144.439623</ele>
        <time>2023-01-02T12:16:36.893Z</time>
      </trkpt>
      <trkpt lat="39.44121" lon="3.23499">
        <ele>144.406295</ele>
        <time>2023-01-02T12:16:39.903Z</time>
      </trkpt>
      <trkpt lat="39.4413" lon="3.23499">
        <ele>144.351476</ele>
        <time>2023-01-02T12:16:41.900Z</time>
      </trkpt>
      <trkpt lat="39.4414" lon="3.23499">
        <ele>144.29179</ele>
        <time>2023-01-02T12:16:43.904Z</time>
      </trkpt>
      <trkpt lat="39.4415" lon="3.23499">
        <ele>144.233295</ele>
        <time>2023-01-02T12:16:45.916Z</time>
      </trkpt>
      <trkpt lat="39.44159" lon="3.23499">
        <ele>144.174822</ele>
        <time>2023-01-02T12:16:47.905Z</time>
      </trkpt>
      <trkpt lat="39.44169" lon="3.23499">
        <ele>144.11574</ele>
        <time>2023-01-02T12:16:49.896Z</time>
      </trkpt>
      <trkpt lat="39.44179" lon="3.235">
        <ele>144.055938</ele>
        <time>2023-01-02T12:16:51.898Z</time>
      </trkpt>
      <trkpt lat="39.44188" lon="3.23501">
        <ele>143.998034</ele>
        <time>2023-01-02T12:16:53.903Z</time>
      </trkpt>
      <trkpt lat="39.44198" lon="3.23502">
        <ele>143.940294</ele>
        <time>2023-01-02T12:16:55.887Z</time>
      </trkpt>
      <trkpt lat="39.44207" lon="3.23504">
        <ele>143.88151</ele>
        <time>2023-01-02T12:16:57.904Z</time>
      </trkpt>
      <trkpt lat="39.44217" lon="3.23505">
        <ele>143.821641</ele>
        <time>2023-01-02T12:16:59.892Z</time>
      </trkpt>
      <trkpt lat="39.44227" lon="3.23506">
        <ele>143.761542</ele>
        <time>2023-01-02T12:17:01.890Z</time>
      </trkpt>
      <trkpt lat="39.44236" lon="3.23508">
        <ele>143.704877</ele>
        <time>2023-01-02T12:17:03.901Z</time>
      </trkpt>
      <trkpt lat="39.44245" lon="3.2351">
        <ele>143.648741</ele>
        <time>2023-01-02T12:17:05.896Z</time>
      </trkpt>
      <trkpt lat="39.44258" lon="3.23513">
        <ele>143.568322</ele>
        <time>2023-01-02T12:17:08.899Z</time>
      </trkpt>
      <trkpt lat="39.44268" lon="3.23514">
        <ele>143.51185</ele>
        <time>2023-01-02T12:17:10.899Z</time>
      </trkpt>
      <trkpt lat="39.44281" lon="3.23516">
        <ele>143.430797</ele>
        <time>2023-01-02T12:17:13.892Z</time>
      </trkpt>
      <trkpt lat="39.4429" lon="3.23519">
        <ele>143.37356</ele>
        <time>2023-01-02T12:17:15.910Z</time>
      </trkpt>
      <trkpt lat="39.44299" lon="3.2352">
        <ele>143.211344</ele>
        <time>2023-01-02T12:17:17.904Z</time>
      </trkpt>
      <trkpt lat="39.44309" lon="3.23522">
        <ele>143.048074</ele>
        <time>2023-01-02T12:17:19.905Z</time>
      </trkpt>
      <trkpt lat="39.44318" lon="3.23524">
        <ele>142.878303</ele>
        <time>2023-01-02T12:17:21.907Z</time>
      </trkpt>
      <trkpt lat="39.44328" lon="3.23525">
        <ele>142.718432</ele>
        <time>2023-01-02T12:17:23.904Z</time>
      </trkpt>
      <trkpt lat="39.44337" lon="3.23526">
        <ele>142.558561</ele>
        <time>2023-01-02T12:17:25.881Z</time>
      </trkpt>
      <trkpt lat="39.44347" lon="3.23528">
        <ele>142.391892</ele>
        <time>2023-01-02T12:17:27.901Z</time>
      </trkpt>
      <trkpt lat="39.44357" lon="3.23529">
        <ele>142.214257</ele>
        <time>2023-01-02T12:17:29.895Z</time>
      </trkpt>
      <trkpt lat="39.44368" lon="3.2353">
        <ele>142.030807</ele>
        <time>2023-01-02T12:17:31.891Z</time>
      </trkpt>
      <trkpt lat="39.44378" lon="3.23533">
        <ele>141.844153</ele>
        <time>2023-01-02T12:17:33.892Z</time>
      </trkpt>
      <trkpt lat="39.44389" lon="3.23534">
        <ele>141.656351</ele>
        <time>2023-01-02T12:17:35.886Z</time>
      </trkpt>
      <trkpt lat="39.44401" lon="3.23536">
        <ele>141.448838</ele>
        <time>2023-01-02T12:17:37.904Z</time>
      </trkpt>
      <trkpt lat="39.44414" lon="3.23537">
        <ele>141.233882</ele>
        <time>2023-01-02T12:17:39.887Z</time>
      </trkpt>
      <trkpt lat="39.44427" lon="3.23539">
        <ele>141.004006</ele>
        <time>2023-01-02T12:17:41.892Z</time>
      </trkpt>
      <trkpt lat="39.44441" lon="3.2354">
        <ele>140.774241</ele>
        <time>2023-01-02T12:17:43.898Z</time>
      </trkpt>
      <trkpt lat="39.44455" lon="3.23539">
        <ele>140.536308</ele>
        <time>2023-01-02T12:17:45.895Z</time>
      </trkpt>
      <trkpt lat="39.44468" lon="3.23538">
        <ele>140.293701</ele>
        <time>2023-01-02T12:17:47.877Z</time>
      </trkpt>
      <trkpt lat="39.44482" lon="3.23537">
        <ele>139.579314</ele>
        <time>2023-01-02T12:17:49.909Z</time>
      </trkpt>
      <trkpt lat="39.44495" lon="3.23535">
        <ele>138.857564</ele>
        <time>2023-01-02T12:17:51.888Z</time>
      </trkpt>
      <trkpt lat="39.44508" lon="3.23533">
        <ele>138.137452</ele>
        <time>2023-01-02T12:17:53.898Z</time>
      </trkpt>
      <trkpt lat="39.4452" lon="3.23532">
        <ele>137.499603</ele>
        <time>2023-01-02T12:17:55.915Z</time>
      </trkpt>
      <trkpt lat="39.44532" lon="3.23533">
        <ele>136.873556</ele>
        <time>2023-01-02T12:17:57.895Z</time>
      </trkpt>
      <trkpt lat="39.44542" lon="3.23536">
        <ele>136.296966</ele>
        <time>2023-01-02T12:17:59.907Z</time>
      </trkpt>
      <trkpt lat="39.4455" lon="3.23542">
        <ele>135.785434</ele>
        <time>2023-01-02T12:18:01.933Z</time>
      </trkpt>
      <trkpt lat="39.44559" lon="3.23548">
        <ele>135.271434</ele>
        <time>2023-01-02T12:18:03.907Z</time>
      </trkpt>
      <trkpt lat="39.44567" lon="3.23553">
        <ele>134.777855</ele>
        <time>2023-01-02T12:18:05.899Z</time>
      </trkpt>
      <trkpt lat="39.44577" lon="3.23561">
        <ele>134.157071</ele>
        <time>2023-01-02T12:18:08.911Z</time>
      </trkpt>
      <trkpt lat="39.44584" lon="3.2357">
        <ele>133.612342</ele>
        <time>2023-01-02T12:18:11.902Z</time>
      </trkpt>
      <trkpt lat="39.4459" lon="3.2358">
        <ele>133.064904</ele>
        <time>2023-01-02T12:18:15.898Z</time>
      </trkpt>
      <trkpt lat="39.44597" lon="3.23593">
        <ele>132.428582</ele>
        <time>2023-01-02T12:18:19.913Z</time>
      </trkpt>
      <trkpt lat="39.44603" lon="3.23602">
        <ele>131.943955</ele>
        <time>2023-01-02T12:18:21.902Z</time>
      </trkpt>
      <trkpt lat="39.44609" lon="3.23611">
        <ele>131.418829</ele>
        <time>2023-01-02T12:18:23.897Z</time>
      </trkpt>
      <trkpt lat="39.44616" lon="3.23623">
        <ele>130.801336</ele>
        <time>2023-01-02T12:18:25.894Z</time>
      </trkpt>
      <trkpt lat="39.44625" lon="3.23635">
        <ele>130.189912</ele>
        <time>2023-01-02T12:18:27.904Z</time>
      </trkpt>
      <trkpt lat="39.44636" lon="3.23647">
        <ele>129.573028</ele>
        <time>2023-01-02T12:18:29.915Z</time>
      </trkpt>
      <trkpt lat="39.44648" lon="3.23659">
        <ele>128.904528</ele>
        <time>2023-01-02T12:18:31.888Z</time>
      </trkpt>
      <trkpt lat="39.44661" lon="3.23673">
        <ele>128.147209</ele>
        <time>2023-01-02T12:18:33.904Z</time>
      </trkpt>
      <trkpt lat="39.44675" lon="3.23687">
        <ele>127.361638</ele>
        <time>2023-01-02T12:18:35.893Z</time>
      </trkpt>
      <trkpt lat="39.44689" lon="3.23702">
        <ele>126.579509</ele>
        <time>2023-01-02T12:18:37.900Z</time>
      </trkpt>
      <trkpt lat="39.44696" lon="3.23709">
        <ele>126.176379</ele>
        <time>2023-01-02T12:18:38.893Z</time>
      </trkpt>
      <trkpt lat="39.44703" lon="3.23717">
        <ele>125.763768</ele>
        <time>2023-01-02T12:18:39.887Z</time>
      </trkpt>
      <trkpt lat="39.44717" lon="3.23731">
        <ele>125.006074</ele>
        <time>2023-01-02T12:18:41.899Z</time>
      </trkpt>
      <trkpt lat="39.4473" lon="3.23745">
        <ele>124.241948</ele>
        <time>2023-01-02T12:18:43.914Z</time>
      </trkpt>
      <trkpt lat="39.44743" lon="3.23757">
        <ele>123.533427</ele>
        <time>2023-01-02T12:18:45.906Z</time>
      </trkpt>
      <trkpt lat="39.44756" lon="3.23767">
        <ele>122.851269</ele>
        <time>2023-01-02T12:18:47.904Z</time>
      </trkpt>
      <trkpt lat="39.44769" lon="3.23774">
        <ele>122.595169</ele>
        <time>2023-01-02T12:18:49.903Z</time>
      </trkpt>
      <trkpt lat="39.44781" lon="3.23775">
        <ele>122.504084</ele>
        <time>2023-01-02T12:18:51.909Z</time>
      </trkpt>
      <trkpt lat="39.44794" lon="3.23775">
        <ele>122.410352</ele>
        <time>2023-01-02T12:18:53.899Z</time>
      </trkpt>
      <trkpt lat="39.44807" lon="3.23775">
        <ele>122.316636</ele>
        <time>2023-01-02T12:18:55.885Z</time>
      </trkpt>
      <trkpt lat="39.44819" lon="3.23777">
        <ele>122.225635</ele>
        <time>2023-01-02T12:18:57.906Z</time>
      </trkpt>
      <trkpt lat="39.44831" lon="3.23778">
        <ele>122.138286</ele>
        <time>2023-01-02T12:18:59.886Z</time>
      </trkpt>
      <trkpt lat="39.44842" lon="3.23779">
        <ele>122.058031</ele>
        <time>2023-01-02T12:19:01.891Z</time>
      </trkpt>
      <trkpt lat="39.44852" lon="3.23781">
        <ele>121.986204</ele>
        <time>2023-01-02T12:19:03.893Z</time>
      </trkpt>
      <trkpt lat="39.44861" lon="3.23783">
        <ele>121.915545</ele>
        <time>2023-01-02T12:19:05.908Z</time>
      </trkpt>
      <trkpt lat="39.44872" lon="3.23785">
        <ele>121.837117</ele>
        <time>2023-01-02T12:19:07.910Z</time>
      </trkpt>
      <trkpt lat="39.44885" lon="3.23788">
        <ele>121.740974</ele>
        <time>2023-01-02T12:19:09.895Z</time>
      </trkpt>
      <trkpt lat="39.44898" lon="3.23791">
        <ele>121.64059</ele>
        <time>2023-01-02T12:19:11.891Z</time>
      </trkpt>
      <trkpt lat="39.44912" lon="3.23794">
        <ele>121.538564</ele>
        <time>2023-01-02T12:19:13.897Z</time>
      </trkpt>
      <trkpt lat="39.44926" lon="3.23799">
        <ele>121.435055</ele>
        <time>2023-01-02T12:19:15.911Z</time>
      </trkpt>
      <trkpt lat="39.44938" lon="3.23806">
        <ele>121.331761</ele>
        <time>2023-01-02T12:19:17.899Z</time>
      </trkpt>
      <trkpt lat="39.44948" lon="3.23816">
        <ele>121.167964</ele>
        <time>2023-01-02T12:19:19.891Z</time>
      </trkpt>
      <trkpt lat="39.44959" lon="3.23826">
        <ele>120.995196</ele>
        <time>2023-01-02T12:19:21.899Z</time>
      </trkpt>
      <trkpt lat="39.44971" lon="3.23835">
        <ele>120.823495</ele>
        <time>2023-01-02T12:19:23.883Z</time>
      </trkpt>
      <trkpt lat="39.44982" lon="3.23844">
        <ele>120.651748</ele>
        <time>2023-01-02T12:19:25.891Z</time>
      </trkpt>
      <trkpt lat="39.44993" lon="3.23854">
        <ele>120.484313</ele>
        <time>2023-01-02T12:19:27.894Z</time>
      </trkpt>
      <trkpt lat="39.45003" lon="3.23863">
        <ele>120.324069</ele>
        <time>2023-01-02T12:19:29.907Z</time>
      </trkpt>
      <trkpt lat="39.45013" lon="3.23872">
        <ele>120.169993</ele>
        <time>2023-01-02T12:19:31.902Z</time>
      </trkpt>
      <trkpt lat="39.45024" lon="3.2388">
        <ele>120.01524</ele>
        <time>2023-01-02T12:19:33.911Z</time>
      </trkpt>
      <trkpt lat="39.45033" lon="3.23888">
        <ele>119.871893</ele>
        <time>2023-01-02T12:19:35.898Z</time>
      </trkpt>
      <trkpt lat="39.45042" lon="3.23896">
        <ele>119.731729</ele>
        <time>2023-01-02T12:19:37.903Z</time>
      </trkpt>
      <trkpt lat="39.45052" lon="3.23903">
        <ele>119.58674</ele>
        <time>2023-01-02T12:19:39.891Z</time>
      </trkpt>
      <trkpt lat="39.45062" lon="3.23911">
        <ele>119.440575</ele>
        <time>2023-01-02T12:19:41.906Z</time>
      </trkpt>
      <trkpt lat="39.45072" lon="3.23917">
        <ele>119.294559</ele>
        <time>2023-01-02T12:19:43.894Z</time>
      </trkpt>
      <trkpt lat="39.45083" lon="3.23923">
        <ele>119.149467</ele>
        <time>2023-01-02T12:19:45.888Z</time>
      </trkpt>
      <trkpt lat="39.45094" lon="3.23929">
        <ele>119.062752</ele>
        <time>2023-01-02T12:19:47.901Z</time>
      </trkpt>
      <trkpt lat="39.45105" lon="3.23933">
        <ele>119.085915</ele>
        <time>2023-01-02T12:19:49.897Z</time>
      </trkpt>
      <trkpt lat="39.45116" lon="3.23935">
        <ele>119.108694</ele>
        <time>2023-01-02T12:19:51.886Z</time>
      </trkpt>
      <trkpt lat="39.45128" lon="3.23937">
        <ele>119.131934</ele>
        <time>2023-01-02T12:19:53.905Z</time>
      </trkpt>
      <trkpt lat="39.45139" lon="3.23938">
        <ele>119.153612</ele>
        <time>2023-01-02T12:19:55.904Z</time>
      </trkpt>
      <trkpt lat="39.45149" lon="3.2394">
        <ele>119.175306</ele>
        <time>2023-01-02T12:19:57.911Z</time>
      </trkpt>
      <trkpt lat="39.4516" lon="3.23942">
        <ele>119.197192</ele>
        <time>2023-01-02T12:19:59.907Z</time>
      </trkpt>
      <trkpt lat="39.45171" lon="3.23945">
        <ele>119.219471</ele>
        <time>2023-01-02T12:20:01.908Z</time>
      </trkpt>
      <trkpt lat="39.45182" lon="3.23946">
        <ele>119.241795</ele>
        <time>2023-01-02T12:20:03.891Z</time>
      </trkpt>
      <trkpt lat="39.45193" lon="3.23948">
        <ele>119.262532</ele>
        <time>2023-01-02T12:20:05.888Z</time>
      </trkpt>
      <trkpt lat="39.45203" lon="3.23949">
        <ele>119.282776</ele>
        <time>2023-01-02T12:20:07.886Z</time>
      </trkpt>
      <trkpt lat="39.45213" lon="3.2395">
        <ele>119.303019</ele>
        <time>2023-01-02T12:20:09.896Z</time>
      </trkpt>
      <trkpt lat="39.45222" lon="3.23952">
        <ele>119.322331</ele>
        <time>2023-01-02T12:20:11.909Z</time>
      </trkpt>
      <trkpt lat="39.45232" lon="3.23954">
        <ele>119.342223</ele>
        <time>2023-01-02T12:20:13.912Z</time>
      </trkpt>
      <trkpt lat="39.45242" lon="3.23955">
        <ele>119.362312</ele>
        <time>2023-01-02T12:20:15.914Z</time>
      </trkpt>
      <trkpt lat="39.45252" lon="3.23957">
        <ele>119.382916</ele>
        <time>2023-01-02T12:20:17.899Z</time>
      </trkpt>
      <trkpt lat="39.45263" lon="3.2396">
        <ele>119.404238</ele>
        <time>2023-01-02T12:20:19.892Z</time>
      </trkpt>
      <trkpt lat="39.45274" lon="3.23962">
        <ele>119.174752</ele>
        <time>2023-01-02T12:20:21.902Z</time>
      </trkpt>
      <trkpt lat="39.45287" lon="3.23964">
        <ele>118.736792</ele>
        <time>2023-01-02T12:20:23.912Z</time>
      </trkpt>
      <trkpt lat="39.45301" lon="3.23966">
        <ele>118.271746</ele>
        <time>2023-01-02T12:20:25.912Z</time>
      </trkpt>
      <trkpt lat="39.45315" lon="3.23968">
        <ele>117.806059</ele>
        <time>2023-01-02T12:20:27.897Z</time>
      </trkpt>
      <trkpt lat="39.4533" lon="3.23971">
        <ele>117.274797</ele>
        <time>2023-01-02T12:20:29.908Z</time>
      </trkpt>
      <trkpt lat="39.45347" lon="3.23974">
        <ele>116.702382</ele>
        <time>2023-01-02T12:20:31.891Z</time>
      </trkpt>
      <trkpt lat="39.45364" lon="3.23977">
        <ele>116.145416</ele>
        <time>2023-01-02T12:20:33.897Z</time>
      </trkpt>
      <trkpt lat="39.45381" lon="3.2398">
        <ele>115.557702</ele>
        <time>2023-01-02T12:20:35.906Z</time>
      </trkpt>
      <trkpt lat="39.45399" lon="3.23982">
        <ele>114.958541</ele>
        <time>2023-01-02T12:20:37.897Z</time>
      </trkpt>
      <trkpt lat="39.45408" lon="3.23983">
        <ele>114.65355</ele>
        <time>2023-01-02T12:20:38.906Z</time>
      </trkpt>
      <trkpt lat="39.45417" lon="3.23984">
        <ele>114.345206</ele>
        <time>2023-01-02T12:20:39.886Z</time>
      </trkpt>
      <trkpt lat="39.45426" lon="3.23985">
        <ele>114.037115</ele>
        <time>2023-01-02T12:20:40.895Z</time>
      </trkpt>
      <trkpt lat="39.45435" lon="3.23987">
        <ele>113.719738</ele>
        <time>2023-01-02T12:20:41.911Z</time>
      </trkpt>
      <trkpt lat="39.45444" lon="3.23989">
        <ele>113.40047</ele>
        <time>2023-01-02T12:20:42.901Z</time>
      </trkpt>
      <trkpt lat="39.45454" lon="3.23991">
        <ele>112.972798</ele>
        <time>2023-01-02T12:20:43.900Z</time>
      </trkpt>
      <trkpt lat="39.45464" lon="3.23993">
        <ele>112.506562</ele>
        <time>2023-01-02T12:20:44.894Z</time>
      </trkpt>
      <trkpt lat="39.45474" lon="3.23995">
        <ele>112.040326</ele>
        <time>2023-01-02T12:20:45.908Z</time>
      </trkpt>
      <trkpt lat="39.45483" lon="3.23997">
        <ele>111.583834</ele>
        <time>2023-01-02T12:20:46.899Z</time>
      </trkpt>
      <trkpt lat="39.45493" lon="3.23998">
        <ele>111.116177</ele>
        <time>2023-01-02T12:20:47.895Z</time>
      </trkpt>
      <trkpt lat="39.45503" lon="3.24">
        <ele>110.650481</ele>
        <time>2023-01-02T12:20:48.893Z</time>
      </trkpt>
      <trkpt lat="39.45513" lon="3.24001">
        <ele>110.195916</ele>
        <time>2023-01-02T12:20:49.895Z</time>
      </trkpt>
      <trkpt lat="39.45523" lon="3.24003">
        <ele>109.750142</ele>
        <time>2023-01-02T12:20:50.909Z</time>
      </trkpt>
      <trkpt lat="39.45532" lon="3.24004">
        <ele>109.310256</ele>
        <time>2023-01-02T12:20:51.893Z</time>
      </trkpt>
      <trkpt lat="39.45542" lon="3.24006">
        <ele>108.84456</ele>
        <time>2023-01-02T12:20:52.898Z</time>
      </trkpt>
      <trkpt lat="39.45552" lon="3.24008">
        <ele>108.377163</ele>
        <time>2023-01-02T12:20:53.901Z</time>
      </trkpt>
      <trkpt lat="39.45562" lon="3.2401">
        <ele>107.91198</ele>
        <time>2023-01-02T12:20:54.904Z</time>
      </trkpt>
      <trkpt lat="39.45571" lon="3.24012">
        <ele>107.450887</ele>
        <time>2023-01-02T12:20:55.897Z</time>
      </trkpt>
      <trkpt lat="39.45581" lon="3.24013">
        <ele>106.98708</ele>
        <time>2023-01-02T12:20:56.891Z</time>
      </trkpt>
      <trkpt lat="39.45591" lon="3.24015">
        <ele>106.527459</ele>
        <time>2023-01-02T12:20:57.907Z</time>
      </trkpt>
      <trkpt lat="39.45601" lon="3.24017">
        <ele>106.063652</ele>
        <time>2023-01-02T12:20:58.891Z</time>
      </trkpt>
      <trkpt lat="39.45611" lon="3.24018">
        <ele>105.585113</ele>
        <time>2023-01-02T12:20:59.902Z</time>
      </trkpt>
      <trkpt lat="39.45621" lon="3.2402">
        <ele>105.117084</ele>
        <time>2023-01-02T12:21:00.902Z</time>
      </trkpt>
      <trkpt lat="39.45631" lon="3.24021">
        <ele>104.701674</ele>
        <time>2023-01-02T12:21:01.896Z</time>
      </trkpt>
      <trkpt lat="39.45641" lon="3.24023">
        <ele>104.313051</ele>
        <time>2023-01-02T12:21:02.902Z</time>
      </trkpt>
      <trkpt lat="39.45651" lon="3.24025">
        <ele>103.918976</ele>
        <time>2023-01-02T12:21:03.892Z</time>
      </trkpt>
      <trkpt lat="39.45661" lon="3.24027">
        <ele>103.533397</ele>
        <time>2023-01-02T12:21:04.887Z</time>
      </trkpt>
      <trkpt lat="39.45672" lon="3.24028">
        <ele>103.137117</ele>
        <time>2023-01-02T12:21:05.904Z</time>
      </trkpt>
      <trkpt lat="39.45682" lon="3.2403">
        <ele>102.748118</ele>
        <time>2023-01-02T12:21:06.907Z</time>
      </trkpt>
      <trkpt lat="39.45691" lon="3.24032">
        <ele>102.361666</ele>
        <time>2023-01-02T12:21:07.890Z</time>
      </trkpt>
      <trkpt lat="39.457" lon="3.24035">
        <ele>102.012166</ele>
        <time>2023-01-02T12:21:08.902Z</time>
      </trkpt>
      <trkpt lat="39.45716" lon="3.2404">
        <ele>101.386399</ele>
        <time>2023-01-02T12:21:10.894Z</time>
      </trkpt>
      <trkpt lat="39.45731" lon="3.24048">
        <ele>100.767899</ele>
        <time>2023-01-02T12:21:12.888Z</time>
      </trkpt>
      <trkpt lat="39.45745" lon="3.24059">
        <ele>100.126105</ele>
        <time>2023-01-02T12:21:14.900Z</time>
      </trkpt>
      <trkpt lat="39.45759" lon="3.24069">
        <ele>99.511717</ele>
        <time>2023-01-02T12:21:16.894Z</time>
      </trkpt>
      <trkpt lat="39.45773" lon="3.24079">
        <ele>98.888815</ele>
        <time>2023-01-02T12:21:18.897Z</time>
      </trkpt>
      <trkpt lat="39.45787" lon="3.24089">
        <ele>98.263982</ele>
        <time>2023-01-02T12:21:20.908Z</time>
      </trkpt>
      <trkpt lat="39.45801" lon="3.24099">
        <ele>97.744545</ele>
        <time>2023-01-02T12:21:22.903Z</time>
      </trkpt>
      <trkpt lat="39.45815" lon="3.24108">
        <ele>97.270955</ele>
        <time>2023-01-02T12:21:24.905Z</time>
      </trkpt>
      <trkpt lat="39.45829" lon="3.24118">
        <ele>96.799352</ele>
        <time>2023-01-02T12:21:26.895Z</time>
      </trkpt>
      <trkpt lat="39.45842" lon="3.24128">
        <ele>96.333336</ele>
        <time>2023-01-02T12:21:28.892Z</time>
      </trkpt>
      <trkpt lat="39.45856" lon="3.24139">
        <ele>95.854828</ele>
        <time>2023-01-02T12:21:30.898Z</time>
      </trkpt>
      <trkpt lat="39.4587" lon="3.24149">
        <ele>95.376825</ele>
        <time>2023-01-02T12:21:32.897Z</time>
      </trkpt>
      <trkpt lat="39.45883" lon="3.24158">
        <ele>94.907454</ele>
        <time>2023-01-02T12:21:34.905Z</time>
      </trkpt>
      <trkpt lat="39.45897" lon="3.24168">
        <ele>94.430958</ele>
        <time>2023-01-02T12:21:36.894Z</time>
      </trkpt>
      <trkpt lat="39.45911" lon="3.24179">
        <ele>93.937087</ele>
        <time>2023-01-02T12:21:38.902Z</time>
      </trkpt>
      <trkpt lat="39.45926" lon="3.24189">
        <ele>93.442898</ele>
        <time>2023-01-02T12:21:40.888Z</time>
      </trkpt>
      <trkpt lat="39.4594" lon="3.242">
        <ele>92.940807</ele>
        <time>2023-01-02T12:21:42.883Z</time>
      </trkpt>
      <trkpt lat="39.45954" lon="3.24209">
        <ele>92.666096</ele>
        <time>2023-01-02T12:21:44.899Z</time>
      </trkpt>
      <trkpt lat="39.45967" lon="3.24219">
        <ele>92.791306</ele>
        <time>2023-01-02T12:21:46.902Z</time>
      </trkpt>
      <trkpt lat="39.45979" lon="3.24227">
        <ele>92.901318</ele>
        <time>2023-01-02T12:21:48.888Z</time>
      </trkpt>
      <trkpt lat="39.45989" lon="3.24235">
        <ele>93.002108</ele>
        <time>2023-01-02T12:21:50.898Z</time>
      </trkpt>
      <trkpt lat="39.45999" lon="3.24242">
        <ele>93.100067</ele>
        <time>2023-01-02T12:21:52.888Z</time>
      </trkpt>
      <trkpt lat="39.46009" lon="3.24249">
        <ele>93.192845</ele>
        <time>2023-01-02T12:21:54.897Z</time>
      </trkpt>
      <trkpt lat="39.46018" lon="3.24255">
        <ele>93.273665</ele>
        <time>2023-01-02T12:21:56.901Z</time>
      </trkpt>
      <trkpt lat="39.46029" lon="3.24264">
        <ele>93.381441</ele>
        <time>2023-01-02T12:21:59.902Z</time>
      </trkpt>
      <trkpt lat="39.4604" lon="3.2427">
        <ele>93.479631</ele>
        <time>2023-01-02T12:22:02.908Z</time>
      </trkpt>
      <trkpt lat="39.46051" lon="3.24278">
        <ele>93.586937</ele>
        <time>2023-01-02T12:22:05.896Z</time>
      </trkpt>
      <trkpt lat="39.46062" lon="3.24288">
        <ele>93.704492</ele>
        <time>2023-01-02T12:22:08.905Z</time>
      </trkpt>
      <trkpt lat="39.46073" lon="3.24295">
        <ele>93.800081</ele>
        <time>2023-01-02T12:22:10.896Z</time>
      </trkpt>
      <trkpt lat="39.46083" lon="3.24303">
        <ele>93.89873</ele>
        <time>2023-01-02T12:22:12.890Z</time>
      </trkpt>
      <trkpt lat="39.46093" lon="3.24311">
        <ele>93.995998</ele>
        <time>2023-01-02T12:22:14.898Z</time>
      </trkpt>
      <trkpt lat="39.46103" lon="3.24319">
        <ele>94.098624</ele>
        <time>2023-01-02T12:22:16.892Z</time>
      </trkpt>
      <trkpt lat="39.46114" lon="3.24326">
        <ele>94.159757</ele>
        <time>2023-01-02T12:22:18.893Z</time>
      </trkpt>
      <trkpt lat="39.46125" lon="3.24334">
        <ele>94.21235</ele>
        <time>2023-01-02T12:22:20.893Z</time>
      </trkpt>
      <trkpt lat="39.46136" lon="3.24343">
        <ele>94.267564</ele>
        <time>2023-01-02T12:22:22.901Z</time>
      </trkpt>
      <trkpt lat="39.46146" lon="3.2435">
        <ele>94.316396</ele>
        <time>2023-01-02T12:22:24.898Z</time>
      </trkpt>
      <trkpt lat="39.46156" lon="3.24357">
        <ele>94.362103</ele>
        <time>2023-01-02T12:22:26.898Z</time>
      </trkpt>
      <trkpt lat="39.46165" lon="3.24363">
        <ele>94.403775</ele>
        <time>2023-01-02T12:22:28.897Z</time>
      </trkpt>
      <trkpt lat="39.46173" lon="3.24369">
        <ele>94.444399</ele>
        <time>2023-01-02T12:22:30.902Z</time>
      </trkpt>
      <trkpt lat="39.46181" lon="3.24375">
        <ele>94.482675</ele>
        <time>2023-01-02T12:22:32.898Z</time>
      </trkpt>
      <trkpt lat="39.46192" lon="3.24381">
        <ele>94.533276</ele>
        <time>2023-01-02T12:22:35.912Z</time>
      </trkpt>
      <trkpt lat="39.46203" lon="3.24389">
        <ele>94.586644</ele>
        <time>2023-01-02T12:22:38.891Z</time>
      </trkpt>
      <trkpt lat="39.46215" lon="3.24394">
        <ele>94.639602</ele>
        <time>2023-01-02T12:22:41.891Z</time>
      </trkpt>
      <trkpt lat="39.46226" lon="3.24399">
        <ele>94.685752</ele>
        <time>2023-01-02T12:22:44.896Z</time>
      </trkpt>
      <trkpt lat="39.46236" lon="3.24404">
        <ele>94.730274</ele>
        <time>2023-01-02T12:22:47.904Z</time>
      </trkpt>
      <trkpt lat="39.46246" lon="3.24409">
        <ele>94.776701</ele>
        <time>2023-01-02T12:22:50.898Z</time>
      </trkpt>
      <trkpt lat="39.46256" lon="3.24414">
        <ele>94.822514</ele>
        <time>2023-01-02T12:22:53.885Z</time>
      </trkpt>
      <trkpt lat="39.46268" lon="3.24419">
        <ele>94.875255</ele>
        <time>2023-01-02T12:22:56.902Z</time>
      </trkpt>
      <trkpt lat="39.46279" lon="3.24424">
        <ele>94.72702</ele>
        <time>2023-01-02T12:22:58.884Z</time>
      </trkpt>
      <trkpt lat="39.46291" lon="3.2443">
        <ele>94.555892</ele>
        <time>2023-01-02T12:23:00.896Z</time>
      </trkpt>
      <trkpt lat="39.46304" lon="3.24437">
        <ele>94.369411</ele>
        <time>2023-01-02T12:23:02.900Z</time>
      </trkpt>
      <trkpt lat="39.46318" lon="3.24444">
        <ele>94.168694</ele>
        <time>2023-01-02T12:23:04.903Z</time>
      </trkpt>
      <trkpt lat="39.46333" lon="3.24452">
        <ele>93.964409</ele>
        <time>2023-01-02T12:23:06.904Z</time>
      </trkpt>
      <trkpt lat="39.46347" lon="3.24458">
        <ele>93.757333</ele>
        <time>2023-01-02T12:23:08.889Z</time>
      </trkpt>
      <trkpt lat="39.46363" lon="3.24467">
        <ele>93.536591</ele>
        <time>2023-01-02T12:23:10.891Z</time>
      </trkpt>
      <trkpt lat="39.46378" lon="3.24474">
        <ele>93.321711</ele>
        <time>2023-01-02T12:23:12.881Z</time>
      </trkpt>
      <trkpt lat="39.46393" lon="3.2448">
        <ele>93.112829</ele>
        <time>2023-01-02T12:23:14.897Z</time>
      </trkpt>
      <trkpt lat="39.46407" lon="3.24487">
        <ele>92.914428</ele>
        <time>2023-01-02T12:23:16.879Z</time>
      </trkpt>
      <trkpt lat="39.46421" lon="3.24494">
        <ele>92.719366</ele>
        <time>2023-01-02T12:23:18.895Z</time>
      </trkpt>
      <trkpt lat="39.46435" lon="3.245">
        <ele>92.533652</ele>
        <time>2023-01-02T12:23:20.890Z</time>
      </trkpt>
      <trkpt lat="39.46448" lon="3.24507">
        <ele>92.772783</ele>
        <time>2023-01-02T12:23:22.899Z</time>
      </trkpt>
      <trkpt lat="39.46461" lon="3.24513">
        <ele>93.062657</ele>
        <time>2023-01-02T12:23:24.879Z</time>
      </trkpt>
      <trkpt lat="39.46474" lon="3.24518">
        <ele>93.352853</ele>
        <time>2023-01-02T12:23:26.898Z</time>
      </trkpt>
      <trkpt lat="39.46486" lon="3.24523">
        <ele>93.622796</ele>
        <time>2023-01-02T12:23:28.897Z</time>
      </trkpt>
      <trkpt lat="39.46497" lon="3.24527">
        <ele>93.871709</ele>
        <time>2023-01-02T12:23:30.895Z</time>
      </trkpt>
      <trkpt lat="39.46507" lon="3.2453">
        <ele>94.099228</ele>
        <time>2023-01-02T12:23:32.883Z</time>
      </trkpt>
      <trkpt lat="39.46517" lon="3.24533">
        <ele>94.308903</ele>
        <time>2023-01-02T12:23:34.903Z</time>
      </trkpt>
      <trkpt lat="39.46526" lon="3.24536">
        <ele>94.510472</ele>
        <time>2023-01-02T12:23:36.897Z</time>
      </trkpt>
      <trkpt lat="39.46535" lon="3.24538">
        <ele>94.708676</ele>
        <time>2023-01-02T12:23:38.884Z</time>
      </trkpt>
      <trkpt lat="39.46545" lon="3.24539">
        <ele>94.911386</ele>
        <time>2023-01-02T12:23:40.883Z</time>
      </trkpt>
      <trkpt lat="39.46554" lon="3.2454">
        <ele>95.113927</ele>
        <time>2023-01-02T12:23:42.892Z</time>
      </trkpt>
      <trkpt lat="39.46563" lon="3.24542">
        <ele>95.314333</ele>
        <time>2023-01-02T12:23:44.883Z</time>
      </trkpt>
      <trkpt lat="39.46573" lon="3.24542">
        <ele>95.516447</ele>
        <time>2023-01-02T12:23:46.887Z</time>
      </trkpt>
      <trkpt lat="39.46582" lon="3.24544">
        <ele>95.714562</ele>
        <time>2023-01-02T12:23:48.891Z</time>
      </trkpt>
      <trkpt lat="39.46591" lon="3.24545">
        <ele>95.914968</ele>
        <time>2023-01-02T12:23:50.896Z</time>
      </trkpt>
      <trkpt lat="39.46601" lon="3.24545">
        <ele>96.118684</ele>
        <time>2023-01-02T12:23:52.899Z</time>
      </trkpt>
      <trkpt lat="39.4661" lon="3.24545">
        <ele>96.31607</ele>
        <time>2023-01-02T12:23:54.891Z</time>
      </trkpt>
      <trkpt lat="39.46623" lon="3.24547">
        <ele>96.808723</ele>
        <time>2023-01-02T12:23:57.892Z</time>
      </trkpt>
      <trkpt lat="39.46636" lon="3.24547">
        <ele>97.305479</ele>
        <time>2023-01-02T12:24:00.904Z</time>
      </trkpt>
      <trkpt lat="39.46648" lon="3.24549">
        <ele>97.752982</ele>
        <time>2023-01-02T12:24:03.887Z</time>
      </trkpt>
      <trkpt lat="39.46659" lon="3.24549">
        <ele>98.206463</ele>
        <time>2023-01-02T12:24:06.899Z</time>
      </trkpt>
      <trkpt lat="39.46671" lon="3.2455">
        <ele>98.656523</ele>
        <time>2023-01-02T12:24:09.899Z</time>
      </trkpt>
      <trkpt lat="39.46682" lon="3.24551">
        <ele>99.092355</ele>
        <time>2023-01-02T12:24:12.902Z</time>
      </trkpt>
      <trkpt lat="39.46692" lon="3.24551">
        <ele>99.494884</ele>
        <time>2023-01-02T12:24:15.873Z</time>
      </trkpt>
      <trkpt lat="39.46703" lon="3.24552">
        <ele>99.929932</ele>
        <time>2023-01-02T12:24:18.887Z</time>
      </trkpt>
      <trkpt lat="39.46715" lon="3.24554">
        <ele>100.377159</ele>
        <time>2023-01-02T12:24:21.910Z</time>
      </trkpt>
      <trkpt lat="39.46726" lon="3.24555">
        <ele>100.829489</ele>
        <time>2023-01-02T12:24:24.907Z</time>
      </trkpt>
      <trkpt lat="39.46737" lon="3.24556">
        <ele>101.252074</ele>
        <time>2023-01-02T12:24:27.894Z</time>
      </trkpt>
      <trkpt lat="39.46748" lon="3.24557">
        <ele>101.686704</ele>
        <time>2023-01-02T12:24:30.891Z</time>
      </trkpt>
      <trkpt lat="39.46759" lon="3.24558">
        <ele>102.130038</ele>
        <time>2023-01-02T12:24:33.894Z</time>
      </trkpt>
      <trkpt lat="39.4677" lon="3.24559">
        <ele>102.53347</ele>
        <time>2023-01-02T12:24:36.897Z</time>
      </trkpt>
      <trkpt lat="39.46779" lon="3.2456">
        <ele>102.905324</ele>
        <time>2023-01-02T12:24:39.902Z</time>
      </trkpt>
      <trkpt lat="39.46788" lon="3.24561">
        <ele>103.274758</ele>
        <time>2023-01-02T12:24:42.889Z</time>
      </trkpt>
      <trkpt lat="39.46798" lon="3.24562">
        <ele>103.659436</ele>
        <time>2023-01-02T12:24:45.903Z</time>
      </trkpt>
      <trkpt lat="39.46808" lon="3.24563">
        <ele>104.026692</ele>
        <time>2023-01-02T12:24:48.905Z</time>
      </trkpt>
      <trkpt lat="39.46817" lon="3.24564">
        <ele>104.375334</ele>
        <time>2023-01-02T12:24:51.898Z</time>
      </trkpt>
      <trkpt lat="39.46829" lon="3.24565">
        <ele>104.831392</ele>
        <time>2023-01-02T12:24:55.908Z</time>
      </trkpt>
      <trkpt lat="39.46839" lon="3.24566">
        <ele>105.218502</ele>
        <time>2023-01-02T12:24:59.889Z</time>
      </trkpt>
      <trkpt lat="39.46849" lon="3.24567">
        <ele>105.609245</ele>
        <time>2023-01-02T12:25:03.889Z</time>
      </trkpt>
      <trkpt lat="39.46859" lon="3.24568">
        <ele>106.011981</ele>
        <time>2023-01-02T12:25:07.900Z</time>
      </trkpt>
      <trkpt lat="39.46869" lon="3.24569">
        <ele>106.392517</ele>
        <time>2023-01-02T12:25:11.893Z</time>
      </trkpt>
      <trkpt lat="39.46879" lon="3.2457">
        <ele>106.768083</ele>
        <time>2023-01-02T12:25:15.902Z</time>
      </trkpt>
      <trkpt lat="39.46888" lon="3.24571">
        <ele>107.138798</ele>
        <time>2023-01-02T12:25:19.898Z</time>
      </trkpt>
      <trkpt lat="39.46898" lon="3.24571">
        <ele>107.525323</ele>
        <time>2023-01-02T12:25:23.901Z</time>
      </trkpt>
      <trkpt lat="39.46908" lon="3.24572">
        <ele>107.897043</ele>
        <time>2023-01-02T12:25:27.902Z</time>
      </trkpt>
      <trkpt lat="39.46917" lon="3.24573">
        <ele>108.268153</ele>
        <time>2023-01-02T12:25:31.901Z</time>
      </trkpt>
      <trkpt lat="39.46927" lon="3.24574">
        <ele>108.652525</ele>
        <time>2023-01-02T12:25:35.893Z</time>
      </trkpt>
      <trkpt lat="39.46937" lon="3.24575">
        <ele>109.043483</ele>
        <time>2023-01-02T12:25:39.900Z</time>
      </trkpt>
      <trkpt lat="39.46948" lon="3.24576">
        <ele>109.452777</ele>
        <time>2023-01-02T12:25:43.905Z</time>
      </trkpt>
      <trkpt lat="39.46959" lon="3.24576">
        <ele>109.869626</ele>
        <time>2023-01-02T12:25:47.889Z</time>
      </trkpt>
      <trkpt lat="39.4697" lon="3.24577">
        <ele>110.284418</ele>
        <time>2023-01-02T12:25:51.886Z</time>
      </trkpt>
      <trkpt lat="39.4698" lon="3.24578">
        <ele>110.612991</ele>
        <time>2023-01-02T12:25:55.891Z</time>
      </trkpt>
      <trkpt lat="39.4699" lon="3.24578">
        <ele>110.912222</ele>
        <time>2023-01-02T12:25:59.890Z</time>
      </trkpt>
      <trkpt lat="39.47" lon="3.2458">
        <ele>111.231103</ele>
        <time>2023-01-02T12:26:03.905Z</time>
      </trkpt>
      <trkpt lat="39.47011" lon="3.24581">
        <ele>111.53971</ele>
        <time>2023-01-02T12:26:07.889Z</time>
      </trkpt>
      <trkpt lat="39.47022" lon="3.24582">
        <ele>111.876011</ele>
        <time>2023-01-02T12:26:11.899Z</time>
      </trkpt>
      <trkpt lat="39.47033" lon="3.24583">
        <ele>112.227553</ele>
        <time>2023-01-02T12:26:15.901Z</time>
      </trkpt>
      <trkpt lat="39.47045" lon="3.24584">
        <ele>112.572308</ele>
        <time>2023-01-02T12:26:19.874Z</time>
      </trkpt>
      <trkpt lat="39.47055" lon="3.24585">
        <ele>112.890701</ele>
        <time>2023-01-02T12:26:23.885Z</time>
      </trkpt>
      <trkpt lat="39.47065" lon="3.24585">
        <ele>113.189932</ele>
        <time>2023-01-02T12:26:27.878Z</time>
      </trkpt>
      <trkpt lat="39.47076" lon="3.24586">
        <ele>113.521486</ele>
        <time>2023-01-02T12:26:32.897Z</time>
      </trkpt>
      <trkpt lat="39.47085" lon="3.24587">
        <ele>113.802921</ele>
        <time>2023-01-02T12:26:35.904Z</time>
      </trkpt>
      <trkpt lat="39.47095" lon="3.24588">
        <ele>114.09633</ele>
        <time>2023-01-02T12:26:38.889Z</time>
      </trkpt>
      <trkpt lat="39.47104" lon="3.24588">
        <ele>114.383926</ele>
        <time>2023-01-02T12:26:41.876Z</time>
      </trkpt>
      <trkpt lat="39.47115" lon="3.2459">
        <ele>114.713346</ele>
        <time>2023-01-02T12:26:45.910Z</time>
      </trkpt>
      <trkpt lat="39.47124" lon="3.24591">
        <ele>114.992037</ele>
        <time>2023-01-02T12:26:48.898Z</time>
      </trkpt>
      <trkpt lat="39.47135" lon="3.24592">
        <ele>115.297873</ele>
        <time>2023-01-02T12:26:51.895Z</time>
      </trkpt>
      <trkpt lat="39.47145" lon="3.24593">
        <ele>115.601411</ele>
        <time>2023-01-02T12:26:54.885Z</time>
      </trkpt>
      <trkpt lat="39.47155" lon="3.24593">
        <ele>115.896497</ele>
        <time>2023-01-02T12:26:57.916Z</time>
      </trkpt>
      <trkpt lat="39.47165" lon="3.24594">
        <ele>116.168111</ele>
        <time>2023-01-02T12:27:00.893Z</time>
      </trkpt>
      <trkpt lat="39.47175" lon="3.24594">
        <ele>116.442099</ele>
        <time>2023-01-02T12:27:03.904Z</time>
      </trkpt>
      <trkpt lat="39.47186" lon="3.24595">
        <ele>116.724865</ele>
        <time>2023-01-02T12:27:06.897Z</time>
      </trkpt>
      <trkpt lat="39.47196" lon="3.24596">
        <ele>117.001721</ele>
        <time>2023-01-02T12:27:09.895Z</time>
      </trkpt>
      <trkpt lat="39.47207" lon="3.24596">
        <ele>117.291737</ele>
        <time>2023-01-02T12:27:12.915Z</time>
      </trkpt>
      <trkpt lat="39.47217" lon="3.24597">
        <ele>117.576877</ele>
        <time>2023-01-02T12:27:15.903Z</time>
      </trkpt>
      <trkpt lat="39.47229" lon="3.24598">
        <ele>117.880903</ele>
        <time>2023-01-02T12:27:18.901Z</time>
      </trkpt>
      <trkpt lat="39.4724" lon="3.24599">
        <ele>118.182115</ele>
        <time>2023-01-02T12:27:21.904Z</time>
      </trkpt>
      <trkpt lat="39.47251" lon="3.24601">
        <ele>118.476132</ele>
        <time>2023-01-02T12:27:24.895Z</time>
      </trkpt>
      <trkpt lat="39.47262" lon="3.24601">
        <ele>118.774543</ele>
        <time>2023-01-02T12:27:27.906Z</time>
      </trkpt>
      <trkpt lat="39.47273" lon="3.24602">
        <ele>119.067389</ele>
        <time>2023-01-02T12:27:30.893Z</time>
      </trkpt>
      <trkpt lat="39.47284" lon="3.24604">
        <ele>119.377852</ele>
        <time>2023-01-02T12:27:33.908Z</time>
      </trkpt>
      <trkpt lat="39.47296" lon="3.24605">
        <ele>119.689912</ele>
        <time>2023-01-02T12:27:36.888Z</time>
      </trkpt>
      <trkpt lat="39.47306" lon="3.24604">
        <ele>119.974509</ele>
        <time>2023-01-02T12:27:39.900Z</time>
      </trkpt>
      <trkpt lat="39.47316" lon="3.24605">
        <ele>120.241224</ele>
        <time>2023-01-02T12:27:42.885Z</time>
      </trkpt>
      <trkpt lat="39.47326" lon="3.24606">
        <ele>120.512839</ele>
        <time>2023-01-02T12:27:45.903Z</time>
      </trkpt>
      <trkpt lat="39.47336" lon="3.24607">
        <ele>120.815556</ele>
        <time>2023-01-02T12:27:48.889Z</time>
      </trkpt>
      <trkpt lat="39.47347" lon="3.24609">
        <ele>121.147507</ele>
        <time>2023-01-02T12:27:51.870Z</time>
      </trkpt>
      <trkpt lat="39.47357" lon="3.24614">
        <ele>121.497829</ele>
        <time>2023-01-02T12:27:54.900Z</time>
      </trkpt>
      <trkpt lat="39.47367" lon="3.24621">
        <ele>121.849196</ele>
        <time>2023-01-02T12:27:57.900Z</time>
      </trkpt>
      <trkpt lat="39.47375" lon="3.2463">
        <ele>122.192898</ele>
        <time>2023-01-02T12:28:00.893Z</time>
      </trkpt>
      <trkpt lat="39.47381" lon="3.2464">
        <ele>122.501939</ele>
        <time>2023-01-02T12:28:03.909Z</time>
      </trkpt>
      <trkpt lat="39.47388" lon="3.24652">
        <ele>122.857784</ele>
        <time>2023-01-02T12:28:07.886Z</time>
      </trkpt>
      <trkpt lat="39.47393" lon="3.24664">
        <ele>123.205699</ele>
        <time>2023-01-02T12:28:11.901Z</time>
      </trkpt>
      <trkpt lat="39.47398" lon="3.24676">
        <ele>123.530448</ele>
        <time>2023-01-02T12:28:15.903Z</time>
      </trkpt>
      <trkpt lat="39.47403" lon="3.24687">
        <ele>123.842827</ele>
        <time>2023-01-02T12:28:19.892Z</time>
      </trkpt>
      <trkpt lat="39.47408" lon="3.24699">
        <ele>124.165881</ele>
        <time>2023-01-02T12:28:23.899Z</time>
      </trkpt>
      <trkpt lat="39.47413" lon="3.24709">
        <ele>124.472681</ele>
        <time>2023-01-02T12:28:27.900Z</time>
      </trkpt>
      <trkpt lat="39.47418" lon="3.24719">
        <ele>124.756233</ele>
        <time>2023-01-02T12:28:31.910Z</time>
      </trkpt>
      <trkpt lat="39.47423" lon="3.24731">
        <ele>125.100917</ele>
        <time>2023-01-02T12:28:36.894Z</time>
      </trkpt>
      <trkpt lat="39.47429" lon="3.24744">
        <ele>125.449493</ele>
        <time>2023-01-02T12:28:41.887Z</time>
      </trkpt>
      <trkpt lat="39.47433" lon="3.24754">
        <ele>125.736406</ele>
        <time>2023-01-02T12:28:45.913Z</time>
      </trkpt>
      <trkpt lat="39.47439" lon="3.24763">
        <ele>126.026119</ele>
        <time>2023-01-02T12:28:49.899Z</time>
      </trkpt>
      <trkpt lat="39.47446" lon="3.24772">
        <ele>126.33258</ele>
        <time>2023-01-02T12:28:53.886Z</time>
      </trkpt>
      <trkpt lat="39.47454" lon="3.24779">
        <ele>126.803634</ele>
        <time>2023-01-02T12:28:58.905Z</time>
      </trkpt>
      <trkpt lat="39.47464" lon="3.24786">
        <ele>127.300227</ele>
        <time>2023-01-02T12:29:03.878Z</time>
      </trkpt>
      <trkpt lat="39.47472" lon="3.24791">
        <ele>127.715893</ele>
        <time>2023-01-02T12:29:07.906Z</time>
      </trkpt>
      <trkpt lat="39.47481" lon="3.24795">
        <ele>128.131382</ele>
        <time>2023-01-02T12:29:11.904Z</time>
      </trkpt>
      <trkpt lat="39.4749" lon="3.248">
        <ele>128.571731</ele>
        <time>2023-01-02T12:29:15.900Z</time>
      </trkpt>
      <trkpt lat="39.475" lon="3.24805">
        <ele>129.055502</ele>
        <time>2023-01-02T12:29:19.899Z</time>
      </trkpt>
      <trkpt lat="39.4751" lon="3.24811">
        <ele>129.574778</ele>
        <time>2023-01-02T12:29:23.899Z</time>
      </trkpt>
      <trkpt lat="39.47519" lon="3.24816">
        <ele>129.986062</ele>
        <time>2023-01-02T12:29:26.894Z</time>
      </trkpt>
      <trkpt lat="39.47529" lon="3.24821">
        <ele>130.504404</ele>
        <time>2023-01-02T12:29:30.896Z</time>
      </trkpt>
      <trkpt lat="39.47539" lon="3.24826">
        <ele>130.980989</ele>
        <time>2023-01-02T12:29:34.885Z</time>
      </trkpt>
      <trkpt lat="39.47549" lon="3.24833">
        <ele>131.465498</ele>
        <time>2023-01-02T12:29:38.892Z</time>
      </trkpt>
      <trkpt lat="39.47557" lon="3.24838">
        <ele>131.910681</ele>
        <time>2023-01-02T12:29:42.885Z</time>
      </trkpt>
      <trkpt lat="39.47567" lon="3.24843">
        <ele>132.362115</ele>
        <time>2023-01-02T12:29:47.900Z</time>
      </trkpt>
      <trkpt lat="39.47576" lon="3.24849">
        <ele>132.825988</ele>
        <time>2023-01-02T12:29:52.883Z</time>
      </trkpt>
      <trkpt lat="39.47585" lon="3.24854">
        <ele>133.273253</ele>
        <time>2023-01-02T12:29:57.909Z</time>
      </trkpt>
      <trkpt lat="39.47586" lon="3.24855">
        <ele>133.348705</ele>
        <time>2023-01-02T12:30:16.030Z</time>
      </trkpt>
      <trkpt lat="39.47794" lon="3.24959">
        <ele>139.572523</ele>
        <time>2023-01-02T12:34:21.894Z</time>
      </trkpt>
      <trkpt lat="39.47803" lon="3.24959">
        <ele>139.721945</ele>
        <time>2023-01-02T12:34:25.894Z</time>
      </trkpt>
      <trkpt lat="39.47813" lon="3.24961">
        <ele>139.881463</ele>
        <time>2023-01-02T12:34:29.903Z</time>
      </trkpt>
      <trkpt lat="39.47824" lon="3.24961">
        <ele>140.048544</ele>
        <time>2023-01-02T12:34:33.893Z</time>
      </trkpt>
      <trkpt lat="39.47836" lon="3.24962">
        <ele>140.244881</ele>
        <time>2023-01-02T12:34:37.892Z</time>
      </trkpt>
      <trkpt lat="39.47846" lon="3.24962">
        <ele>140.410292</ele>
        <time>2023-01-02T12:34:40.898Z</time>
      </trkpt>
      <trkpt lat="39.47856" lon="3.24963">
        <ele>140.582434</ele>
        <time>2023-01-02T12:34:43.897Z</time>
      </trkpt>
      <trkpt lat="39.47867" lon="3.24965">
        <ele>140.750543</ele>
        <time>2023-01-02T12:34:46.885Z</time>
      </trkpt>
      <trkpt lat="39.47877" lon="3.24966">
        <ele>140.919373</ele>
        <time>2023-01-02T12:34:49.914Z</time>
      </trkpt>
      <trkpt lat="39.47887" lon="3.24968">
        <ele>141.084945</ele>
        <time>2023-01-02T12:34:52.892Z</time>
      </trkpt>
      <trkpt lat="39.47897" lon="3.24969">
        <ele>141.251162</ele>
        <time>2023-01-02T12:34:55.886Z</time>
      </trkpt>
      <trkpt lat="39.47907" lon="3.2497">
        <ele>141.402289</ele>
        <time>2023-01-02T12:34:58.896Z</time>
      </trkpt>
      <trkpt lat="39.47918" lon="3.24971">
        <ele>141.590772</ele>
        <time>2023-01-02T12:35:02.893Z</time>
      </trkpt>
      <trkpt lat="39.47929" lon="3.24972">
        <ele>141.769309</ele>
        <time>2023-01-02T12:35:06.903Z</time>
      </trkpt>
      <trkpt lat="39.4794" lon="3.24973">
        <ele>141.940493</ele>
        <time>2023-01-02T12:35:10.899Z</time>
      </trkpt>
      <trkpt lat="39.47951" lon="3.24975">
        <ele>142.114433</ele>
        <time>2023-01-02T12:35:15.898Z</time>
      </trkpt>
      <trkpt lat="39.47962" lon="3.24973">
        <ele>141.849107</ele>
        <time>2023-01-02T12:35:20.900Z</time>
      </trkpt>
      <trkpt lat="39.47971" lon="3.24976">
        <ele>141.438884</ele>
        <time>2023-01-02T12:35:23.896Z</time>
      </trkpt>
      <trkpt lat="39.47982" lon="3.24978">
        <ele>140.928502</ele>
        <time>2023-01-02T12:35:26.904Z</time>
      </trkpt>
      <trkpt lat="39.47991" lon="3.2498">
        <ele>140.49984</ele>
        <time>2023-01-02T12:35:28.884Z</time>
      </trkpt>
      <trkpt lat="39.48002" lon="3.24981">
        <ele>140.028001</ele>
        <time>2023-01-02T12:35:30.881Z</time>
      </trkpt>
      <trkpt lat="39.48014" lon="3.24982">
        <ele>139.502809</ele>
        <time>2023-01-02T12:35:32.903Z</time>
      </trkpt>
      <trkpt lat="39.48027" lon="3.24983">
        <ele>138.914329</ele>
        <time>2023-01-02T12:35:34.900Z</time>
      </trkpt>
      <trkpt lat="39.48041" lon="3.24985">
        <ele>138.260816</ele>
        <time>2023-01-02T12:35:36.896Z</time>
      </trkpt>
      <trkpt lat="39.48057" lon="3.2499">
        <ele>137.544519</ele>
        <time>2023-01-02T12:35:38.896Z</time>
      </trkpt>
      <trkpt lat="39.48073" lon="3.24998">
        <ele>136.766221</ele>
        <time>2023-01-02T12:35:40.886Z</time>
      </trkpt>
      <trkpt lat="39.48081" lon="3.25003">
        <ele>136.35362</ele>
        <time>2023-01-02T12:35:41.903Z</time>
      </trkpt>
      <trkpt lat="39.48097" lon="3.25015">
        <ele>135.548697</ele>
        <time>2023-01-02T12:35:43.894Z</time>
      </trkpt>
      <trkpt lat="39.48105" lon="3.25021">
        <ele>135.131308</ele>
        <time>2023-01-02T12:35:44.891Z</time>
      </trkpt>
      <trkpt lat="39.48112" lon="3.25029">
        <ele>134.715333</ele>
        <time>2023-01-02T12:35:45.875Z</time>
      </trkpt>
      <trkpt lat="39.48119" lon="3.25038">
        <ele>134.28086</ele>
        <time>2023-01-02T12:35:46.897Z</time>
      </trkpt>
      <trkpt lat="39.48125" lon="3.25047">
        <ele>134.10095</ele>
        <time>2023-01-02T12:35:47.900Z</time>
      </trkpt>
      <trkpt lat="39.48132" lon="3.25056">
        <ele>134.069336</ele>
        <time>2023-01-02T12:35:48.897Z</time>
      </trkpt>
      <trkpt lat="39.48139" lon="3.25066">
        <ele>134.037565</ele>
        <time>2023-01-02T12:35:49.896Z</time>
      </trkpt>
      <trkpt lat="39.48146" lon="3.25076">
        <ele>134.005528</ele>
        <time>2023-01-02T12:35:50.875Z</time>
      </trkpt>
      <trkpt lat="39.48152" lon="3.25086">
        <ele>133.974061</ele>
        <time>2023-01-02T12:35:51.884Z</time>
      </trkpt>
      <trkpt lat="39.48159" lon="3.25095">
        <ele>133.943591</ele>
        <time>2023-01-02T12:35:52.879Z</time>
      </trkpt>
      <trkpt lat="39.48165" lon="3.25103">
        <ele>133.914358</ele>
        <time>2023-01-02T12:35:53.903Z</time>
      </trkpt>
      <trkpt lat="39.48179" lon="3.25117">
        <ele>133.86005</ele>
        <time>2023-01-02T12:35:55.911Z</time>
      </trkpt>
      <trkpt lat="39.48192" lon="3.25127">
        <ele>133.811785</ele>
        <time>2023-01-02T12:35:57.894Z</time>
      </trkpt>
      <trkpt lat="39.48206" lon="3.25135">
        <ele>133.766621</ele>
        <time>2023-01-02T12:35:59.901Z</time>
      </trkpt>
      <trkpt lat="39.48218" lon="3.2514">
        <ele>133.724626</ele>
        <time>2023-01-02T12:36:01.876Z</time>
      </trkpt>
      <trkpt lat="39.48231" lon="3.25146">
        <ele>133.681142</ele>
        <time>2023-01-02T12:36:03.879Z</time>
      </trkpt>
      <trkpt lat="39.48244" lon="3.25151">
        <ele>133.638559</ele>
        <time>2023-01-02T12:36:05.882Z</time>
      </trkpt>
      <trkpt lat="39.48256" lon="3.25156">
        <ele>133.598521</ele>
        <time>2023-01-02T12:36:07.892Z</time>
      </trkpt>
      <trkpt lat="39.48267" lon="3.25161">
        <ele>133.562007</ele>
        <time>2023-01-02T12:36:09.901Z</time>
      </trkpt>
      <trkpt lat="39.48276" lon="3.25167">
        <ele>133.770506</ele>
        <time>2023-01-02T12:36:11.901Z</time>
      </trkpt>
      <trkpt lat="39.48285" lon="3.25174">
        <ele>134.036446</ele>
        <time>2023-01-02T12:36:13.888Z</time>
      </trkpt>
      <trkpt lat="39.48292" lon="3.25181">
        <ele>134.288173</ele>
        <time>2023-01-02T12:36:15.909Z</time>
      </trkpt>
      <trkpt lat="39.48299" lon="3.25189">
        <ele>134.538235</ele>
        <time>2023-01-02T12:36:17.906Z</time>
      </trkpt>
      <trkpt lat="39.48305" lon="3.25197">
        <ele>134.787141</ele>
        <time>2023-01-02T12:36:19.894Z</time>
      </trkpt>
      <trkpt lat="39.48314" lon="3.25208">
        <ele>135.124343</ele>
        <time>2023-01-02T12:36:22.882Z</time>
      </trkpt>
      <trkpt lat="39.48323" lon="3.25219">
        <ele>135.463008</ele>
        <time>2023-01-02T12:36:25.889Z</time>
      </trkpt>
      <trkpt lat="39.48332" lon="3.25228">
        <ele>135.782615</ele>
        <time>2023-01-02T12:36:28.900Z</time>
      </trkpt>
      <trkpt lat="39.4834" lon="3.25236">
        <ele>136.056735</ele>
        <time>2023-01-02T12:36:31.898Z</time>
      </trkpt>
      <trkpt lat="39.48351" lon="3.25243">
        <ele>136.37698</ele>
        <time>2023-01-02T12:36:35.885Z</time>
      </trkpt>
      <trkpt lat="39.48362" lon="3.25246">
        <ele>136.698421</ele>
        <time>2023-01-02T12:36:39.881Z</time>
      </trkpt>
      <trkpt lat="39.48371" lon="3.25247">
        <ele>136.949015</ele>
        <time>2023-01-02T12:36:42.896Z</time>
      </trkpt>
      <trkpt lat="39.4838" lon="3.25245">
        <ele>137.209788</ele>
        <time>2023-01-02T12:36:45.888Z</time>
      </trkpt>
      <trkpt lat="39.4839" lon="3.25243">
        <ele>137.471306</ele>
        <time>2023-01-02T12:36:48.880Z</time>
      </trkpt>
      <trkpt lat="39.48399" lon="3.2524">
        <ele>137.734193</ele>
        <time>2023-01-02T12:36:51.892Z</time>
      </trkpt>
      <trkpt lat="39.4841" lon="3.25236">
        <ele>138.057294</ele>
        <time>2023-01-02T12:36:55.903Z</time>
      </trkpt>
      <trkpt lat="39.4842" lon="3.25229">
        <ele>138.350665</ele>
        <time>2023-01-02T12:36:59.907Z</time>
      </trkpt>
      <trkpt lat="39.48428" lon="3.2522">
        <ele>139.012735</ele>
        <time>2023-01-02T12:37:03.884Z</time>
      </trkpt>
      <trkpt lat="39.48436" lon="3.25209">
        <ele>140.031718</ele>
        <time>2023-01-02T12:37:07.895Z</time>
      </trkpt>
      <trkpt lat="39.48443" lon="3.25199">
        <ele>140.947481</ele>
        <time>2023-01-02T12:37:11.880Z</time>
      </trkpt>
      <trkpt lat="39.48449" lon="3.2519">
        <ele>141.772014</ele>
        <time>2023-01-02T12:37:15.887Z</time>
      </trkpt>
      <trkpt lat="39.48455" lon="3.25179">
        <ele>142.716612</ele>
        <time>2023-01-02T12:37:20.892Z</time>
      </trkpt>
      <trkpt lat="39.48462" lon="3.25169">
        <ele>143.647591</ele>
        <time>2023-01-02T12:37:26.904Z</time>
      </trkpt>
      <trkpt lat="39.48465" lon="3.25166">
        <ele>143.950384</ele>
        <time>2023-01-02T12:37:39.793Z</time>
      </trkpt>
      <trkpt lat="39.48528" lon="3.25127">
        <ele>150.190249</ele>
        <time>2023-01-02T12:39:37.882Z</time>
      </trkpt>
      <trkpt lat="39.48537" lon="3.25128">
        <ele>151.015151</ele>
        <time>2023-01-02T12:39:42.876Z</time>
      </trkpt>
      <trkpt lat="39.48547" lon="3.25129">
        <ele>151.873154</ele>
        <time>2023-01-02T12:39:47.894Z</time>
      </trkpt>
      <trkpt lat="39.48556" lon="3.25128">
        <ele>152.713152</ele>
        <time>2023-01-02T12:39:52.884Z</time>
      </trkpt>
      <trkpt lat="39.48566" lon="3.25128">
        <ele>153.633554</ele>
        <time>2023-01-02T12:39:57.875Z</time>
      </trkpt>
      <trkpt lat="39.48577" lon="3.25129">
        <ele>154.598807</ele>
        <time>2023-01-02T12:40:02.884Z</time>
      </trkpt>
      <trkpt lat="39.48588" lon="3.25129">
        <ele>155.187118</ele>
        <time>2023-01-02T12:40:07.896Z</time>
      </trkpt>
      <trkpt lat="39.48598" lon="3.25127">
        <ele>155.795293</ele>
        <time>2023-01-02T12:40:12.891Z</time>
      </trkpt>
      <trkpt lat="39.48608" lon="3.25126">
        <ele>156.309488</ele>
        <time>2023-01-02T12:40:16.898Z</time>
      </trkpt>
      <trkpt lat="39.48618" lon="3.25125">
        <ele>156.910156</ele>
        <time>2023-01-02T12:40:21.902Z</time>
      </trkpt>
      <trkpt lat="39.48629" lon="3.25123">
        <ele>157.517886</ele>
        <time>2023-01-02T12:40:26.897Z</time>
      </trkpt>
      <trkpt lat="39.48639" lon="3.25123">
        <ele>158.101498</ele>
        <time>2023-01-02T12:40:31.909Z</time>
      </trkpt>
      <trkpt lat="39.4865" lon="3.2512">
        <ele>158.709004</ele>
        <time>2023-01-02T12:40:36.871Z</time>
      </trkpt>
      <trkpt lat="39.4866" lon="3.25116">
        <ele>159.271049</ele>
        <time>2023-01-02T12:40:41.884Z</time>
      </trkpt>
      <trkpt lat="39.48668" lon="3.25111">
        <ele>159.778223</ele>
        <time>2023-01-02T12:40:45.905Z</time>
      </trkpt>
      <trkpt lat="39.48677" lon="3.25105">
        <ele>160.354918</ele>
        <time>2023-01-02T12:40:50.881Z</time>
      </trkpt>
      <trkpt lat="39.48686" lon="3.25098">
        <ele>160.947155</ele>
        <time>2023-01-02T12:40:55.911Z</time>
      </trkpt>
      <trkpt lat="39.48695" lon="3.2509">
        <ele>161.539929</ele>
        <time>2023-01-02T12:41:00.879Z</time>
      </trkpt>
      <trkpt lat="39.48702" lon="3.25082">
        <ele>162.085123</ele>
        <time>2023-01-02T12:41:05.904Z</time>
      </trkpt>
      <trkpt lat="39.4871" lon="3.25076">
        <ele>162.593023</ele>
        <time>2023-01-02T12:41:09.906Z</time>
      </trkpt>
      <trkpt lat="39.48719" lon="3.25069">
        <ele>163.159696</ele>
        <time>2023-01-02T12:41:13.898Z</time>
      </trkpt>
      <trkpt lat="39.48728" lon="3.25064">
        <ele>163.70141</ele>
        <time>2023-01-02T12:41:18.897Z</time>
      </trkpt>
      <trkpt lat="39.48737" lon="3.25059">
        <ele>164.273927</ele>
        <time>2023-01-02T12:41:25.899Z</time>
      </trkpt>
      <trkpt lat="39.48748" lon="3.2506">
        <ele>164.682391</ele>
        <time>2023-01-02T12:41:30.890Z</time>
      </trkpt>
      <trkpt lat="39.48758" lon="3.25066">
        <ele>164.779462</ele>
        <time>2023-01-02T12:41:34.890Z</time>
      </trkpt>
      <trkpt lat="39.48766" lon="3.25074">
        <ele>164.868377</ele>
        <time>2023-01-02T12:41:37.904Z</time>
      </trkpt>
      <trkpt lat="39.48775" lon="3.25083">
        <ele>164.964568</ele>
        <time>2023-01-02T12:41:40.872Z</time>
      </trkpt>
      <trkpt lat="39.48784" lon="3.25093">
        <ele>165.068259</ele>
        <time>2023-01-02T12:41:43.891Z</time>
      </trkpt>
      <trkpt lat="39.48792" lon="3.25103">
        <ele>165.165657</ele>
        <time>2023-01-02T12:41:46.880Z</time>
      </trkpt>
      <trkpt lat="39.48802" lon="3.25112">
        <ele>165.268434</ele>
        <time>2023-01-02T12:41:49.876Z</time>
      </trkpt>
      <trkpt lat="39.4881" lon="3.25121">
        <ele>165.363402</ele>
        <time>2023-01-02T12:41:52.899Z</time>
      </trkpt>
      <trkpt lat="39.48818" lon="3.25129">
        <ele>165.454405</ele>
        <time>2023-01-02T12:41:55.882Z</time>
      </trkpt>
      <trkpt lat="39.48826" lon="3.25138">
        <ele>165.544984</ele>
        <time>2023-01-02T12:41:58.899Z</time>
      </trkpt>
      <trkpt lat="39.48834" lon="3.25146">
        <ele>165.628069</ele>
        <time>2023-01-02T12:42:01.887Z</time>
      </trkpt>
      <trkpt lat="39.48841" lon="3.25153">
        <ele>165.708202</ele>
        <time>2023-01-02T12:42:04.914Z</time>
      </trkpt>
      <trkpt lat="39.48848" lon="3.25161">
        <ele>165.788064</ele>
        <time>2023-01-02T12:42:07.902Z</time>
      </trkpt>
      <trkpt lat="39.48856" lon="3.25169">
        <ele>165.874677</ele>
        <time>2023-01-02T12:42:10.899Z</time>
      </trkpt>
      <trkpt lat="39.48864" lon="3.25176">
        <ele>165.958998</ele>
        <time>2023-01-02T12:42:13.877Z</time>
      </trkpt>
      <trkpt lat="39.48872" lon="3.25183">
        <ele>166.046521</ele>
        <time>2023-01-02T12:42:16.892Z</time>
      </trkpt>
      <trkpt lat="39.4888" lon="3.25191">
        <ele>166.129261</ele>
        <time>2023-01-02T12:42:19.909Z</time>
      </trkpt>
      <trkpt lat="39.48887" lon="3.25198">
        <ele>166.209805</ele>
        <time>2023-01-02T12:42:22.888Z</time>
      </trkpt>
      <trkpt lat="39.48894" lon="3.25205">
        <ele>165.760977</ele>
        <time>2023-01-02T12:42:25.901Z</time>
      </trkpt>
      <trkpt lat="39.48901" lon="3.25215">
        <ele>165.262486</ele>
        <time>2023-01-02T12:42:29.902Z</time>
      </trkpt>
      <trkpt lat="39.48909" lon="3.25227">
        <ele>164.629632</ele>
        <time>2023-01-02T12:43:22.904Z</time>
      </trkpt>
      <trkpt lat="39.48915" lon="3.25238">
        <ele>164.100739</ele>
        <time>2023-01-02T12:43:25.901Z</time>
      </trkpt>
      <trkpt lat="39.48921" lon="3.25252">
        <ele>163.443245</ele>
        <time>2023-01-02T12:43:28.896Z</time>
      </trkpt>
      <trkpt lat="39.48927" lon="3.25265">
        <ele>162.842214</ele>
        <time>2023-01-02T12:43:30.886Z</time>
      </trkpt>
      <trkpt lat="39.48934" lon="3.2528">
        <ele>162.173457</ele>
        <time>2023-01-02T12:43:32.886Z</time>
      </trkpt>
      <trkpt lat="39.48942" lon="3.25296">
        <ele>161.407066</ele>
        <time>2023-01-02T12:43:34.889Z</time>
      </trkpt>
      <trkpt lat="39.48951" lon="3.25314">
        <ele>160.548135</ele>
        <time>2023-01-02T12:43:36.892Z</time>
      </trkpt>
      <trkpt lat="39.4896" lon="3.25333">
        <ele>159.672557</ele>
        <time>2023-01-02T12:43:38.918Z</time>
      </trkpt>
      <trkpt lat="39.4897" lon="3.25353">
        <ele>158.73563</ele>
        <time>2023-01-02T12:43:40.893Z</time>
      </trkpt>
      <trkpt lat="39.48976" lon="3.25363">
        <ele>158.240612</ele>
        <time>2023-01-02T12:43:41.893Z</time>
      </trkpt>
      <trkpt lat="39.48981" lon="3.25374">
        <ele>157.763852</ele>
        <time>2023-01-02T12:43:42.894Z</time>
      </trkpt>
      <trkpt lat="39.48986" lon="3.25384">
        <ele>157.293735</ele>
        <time>2023-01-02T12:43:43.901Z</time>
      </trkpt>
      <trkpt lat="39.48991" lon="3.25394">
        <ele>156.78567</ele>
        <time>2023-01-02T12:43:44.897Z</time>
      </trkpt>
      <trkpt lat="39.48996" lon="3.25404">
        <ele>156.237113</ele>
        <time>2023-01-02T12:43:45.908Z</time>
      </trkpt>
      <trkpt lat="39.49002" lon="3.25415">
        <ele>155.667438</ele>
        <time>2023-01-02T12:43:46.901Z</time>
      </trkpt>
      <trkpt lat="39.49007" lon="3.25425">
        <ele>155.091659</ele>
        <time>2023-01-02T12:43:47.896Z</time>
      </trkpt>
      <trkpt lat="39.49013" lon="3.25436">
        <ele>154.530036</ele>
        <time>2023-01-02T12:43:48.881Z</time>
      </trkpt>
      <trkpt lat="39.49019" lon="3.25446">
        <ele>153.961463</ele>
        <time>2023-01-02T12:43:49.904Z</time>
      </trkpt>
      <trkpt lat="39.49025" lon="3.25457">
        <ele>153.371798</ele>
        <time>2023-01-02T12:43:50.888Z</time>
      </trkpt>
      <trkpt lat="39.49031" lon="3.25468">
        <ele>152.761038</ele>
        <time>2023-01-02T12:43:51.904Z</time>
      </trkpt>
      <trkpt lat="39.49038" lon="3.2548">
        <ele>152.122234</ele>
        <time>2023-01-02T12:43:52.906Z</time>
      </trkpt>
      <trkpt lat="39.49044" lon="3.25492">
        <ele>151.476655</ele>
        <time>2023-01-02T12:43:53.893Z</time>
      </trkpt>
      <trkpt lat="39.49051" lon="3.25503">
        <ele>150.838171</ele>
        <time>2023-01-02T12:43:54.908Z</time>
      </trkpt>
      <trkpt lat="39.49058" lon="3.25514">
        <ele>150.203223</ele>
        <time>2023-01-02T12:43:55.899Z</time>
      </trkpt>
      <trkpt lat="39.49064" lon="3.25526">
        <ele>149.571733</ele>
        <time>2023-01-02T12:43:56.912Z</time>
      </trkpt>
      <trkpt lat="39.49071" lon="3.25537">
        <ele>148.926265</ele>
        <time>2023-01-02T12:43:57.880Z</time>
      </trkpt>
      <trkpt lat="39.49078" lon="3.25549">
        <ele>148.280784</ele>
        <time>2023-01-02T12:43:58.881Z</time>
      </trkpt>
      <trkpt lat="39.49085" lon="3.25561">
        <ele>147.628299</ele>
        <time>2023-01-02T12:43:59.894Z</time>
      </trkpt>
      <trkpt lat="39.49092" lon="3.25572">
        <ele>146.979284</ele>
        <time>2023-01-02T12:44:00.880Z</time>
      </trkpt>
      <trkpt lat="39.49098" lon="3.25584">
        <ele>146.278043</ele>
        <time>2023-01-02T12:44:01.896Z</time>
      </trkpt>
      <trkpt lat="39.49105" lon="3.25596">
        <ele>145.524614</ele>
        <time>2023-01-02T12:44:02.887Z</time>
      </trkpt>
      <trkpt lat="39.49111" lon="3.25607">
        <ele>144.77938</ele>
        <time>2023-01-02T12:44:03.873Z</time>
      </trkpt>
      <trkpt lat="39.49118" lon="3.25619">
        <ele>144.004594</ele>
        <time>2023-01-02T12:44:04.888Z</time>
      </trkpt>
      <trkpt lat="39.49124" lon="3.25631">
        <ele>143.253623</ele>
        <time>2023-01-02T12:44:05.884Z</time>
      </trkpt>
      <trkpt lat="39.4913" lon="3.25643">
        <ele>142.530511</ele>
        <time>2023-01-02T12:44:06.888Z</time>
      </trkpt>
      <trkpt lat="39.49135" lon="3.25654">
        <ele>141.86776</ele>
        <time>2023-01-02T12:44:07.898Z</time>
      </trkpt>
      <trkpt lat="39.49141" lon="3.25664">
        <ele>141.19587</ele>
        <time>2023-01-02T12:44:08.894Z</time>
      </trkpt>
      <trkpt lat="39.49146" lon="3.25675">
        <ele>140.548239</ele>
        <time>2023-01-02T12:44:09.899Z</time>
      </trkpt>
      <trkpt lat="39.49151" lon="3.25685">
        <ele>139.901425</ele>
        <time>2023-01-02T12:44:10.917Z</time>
      </trkpt>
      <trkpt lat="39.49158" lon="3.25707">
        <ele>138.688189</ele>
        <time>2023-01-02T12:44:12.888Z</time>
      </trkpt>
      <trkpt lat="39.49161" lon="3.25718">
        <ele>138.056902</ele>
        <time>2023-01-02T12:44:13.905Z</time>
      </trkpt>
      <trkpt lat="39.49163" lon="3.25731">
        <ele>137.391953</ele>
        <time>2023-01-02T12:44:14.893Z</time>
      </trkpt>
      <trkpt lat="39.49164" lon="3.25744">
        <ele>136.689491</ele>
        <time>2023-01-02T12:44:15.903Z</time>
      </trkpt>
      <trkpt lat="39.49164" lon="3.25757">
        <ele>135.978702</ele>
        <time>2023-01-02T12:44:16.888Z</time>
      </trkpt>
      <trkpt lat="39.49164" lon="3.25771">
        <ele>135.27158</ele>
        <time>2023-01-02T12:44:17.898Z</time>
      </trkpt>
      <trkpt lat="39.49162" lon="3.25784">
        <ele>134.576958</ele>
        <time>2023-01-02T12:44:18.893Z</time>
      </trkpt>
      <trkpt lat="39.49161" lon="3.25797">
        <ele>134.006557</ele>
        <time>2023-01-02T12:44:19.891Z</time>
      </trkpt>
      <trkpt lat="39.4916" lon="3.2581">
        <ele>133.46056</ele>
        <time>2023-01-02T12:44:20.892Z</time>
      </trkpt>
      <trkpt lat="39.49158" lon="3.25823">
        <ele>132.933231</ele>
        <time>2023-01-02T12:44:21.895Z</time>
      </trkpt>
      <trkpt lat="39.49154" lon="3.25835">
        <ele>132.375171</ele>
        <time>2023-01-02T12:44:22.894Z</time>
      </trkpt>
      <trkpt lat="39.49149" lon="3.25847">
        <ele>131.839583</ele>
        <time>2023-01-02T12:44:23.896Z</time>
      </trkpt>
      <trkpt lat="39.49144" lon="3.25858">
        <ele>131.302121</ele>
        <time>2023-01-02T12:44:24.887Z</time>
      </trkpt>
      <trkpt lat="39.49139" lon="3.25868">
        <ele>130.790284</ele>
        <time>2023-01-02T12:44:25.883Z</time>
      </trkpt>
      <trkpt lat="39.49134" lon="3.2588">
        <ele>130.252821</ele>
        <time>2023-01-02T12:44:26.891Z</time>
      </trkpt>
      <trkpt lat="39.49129" lon="3.25891">
        <ele>129.696431</ele>
        <time>2023-01-02T12:44:27.882Z</time>
      </trkpt>
      <trkpt lat="39.49124" lon="3.25902">
        <ele>129.144343</ele>
        <time>2023-01-02T12:44:28.883Z</time>
      </trkpt>
      <trkpt lat="39.49118" lon="3.25914">
        <ele>128.592911</ele>
        <time>2023-01-02T12:44:29.903Z</time>
      </trkpt>
      <trkpt lat="39.49112" lon="3.25925">
        <ele>128.02518</ele>
        <time>2023-01-02T12:44:30.893Z</time>
      </trkpt>
      <trkpt lat="39.49107" lon="3.25937">
        <ele>127.438279</ele>
        <time>2023-01-02T12:44:31.899Z</time>
      </trkpt>
      <trkpt lat="39.49101" lon="3.25949">
        <ele>126.858535</ele>
        <time>2023-01-02T12:44:32.885Z</time>
      </trkpt>
      <trkpt lat="39.49096" lon="3.25962">
        <ele>126.278537</ele>
        <time>2023-01-02T12:44:33.892Z</time>
      </trkpt>
      <trkpt lat="39.49091" lon="3.25974">
        <ele>125.7146</ele>
        <time>2023-01-02T12:44:34.891Z</time>
      </trkpt>
      <trkpt lat="39.49087" lon="3.25986">
        <ele>125.159693</ele>
        <time>2023-01-02T12:44:35.901Z</time>
      </trkpt>
      <trkpt lat="39.49084" lon="3.25998">
        <ele>124.648406</ele>
        <time>2023-01-02T12:44:36.898Z</time>
      </trkpt>
      <trkpt lat="39.49083" lon="3.26011">
        <ele>124.175135</ele>
        <time>2023-01-02T12:44:37.903Z</time>
      </trkpt>
      <trkpt lat="39.49082" lon="3.26023">
        <ele>123.727874</ele>
        <time>2023-01-02T12:44:38.903Z</time>
      </trkpt>
      <trkpt lat="39.49083" lon="3.26035">
        <ele>123.268269</ele>
        <time>2023-01-02T12:44:39.894Z</time>
      </trkpt>
      <trkpt lat="39.49083" lon="3.26047">
        <ele>122.83266</ele>
        <time>2023-01-02T12:44:40.908Z</time>
      </trkpt>
      <trkpt lat="39.49087" lon="3.2607">
        <ele>121.948397</ele>
        <time>2023-01-02T12:44:42.890Z</time>
      </trkpt>
      <trkpt lat="39.49093" lon="3.26091">
        <ele>121.088991</ele>
        <time>2023-01-02T12:44:44.921Z</time>
      </trkpt>
      <trkpt lat="39.49097" lon="3.26102">
        <ele>120.648118</ele>
        <time>2023-01-02T12:44:45.906Z</time>
      </trkpt>
      <trkpt lat="39.49102" lon="3.26113">
        <ele>120.178812</ele>
        <time>2023-01-02T12:44:46.884Z</time>
      </trkpt>
      <trkpt lat="39.49108" lon="3.26123">
        <ele>119.687744</ele>
        <time>2023-01-02T12:44:47.901Z</time>
      </trkpt>
      <trkpt lat="39.49115" lon="3.26133">
        <ele>119.182772</ele>
        <time>2023-01-02T12:44:48.894Z</time>
      </trkpt>
      <trkpt lat="39.49124" lon="3.26142">
        <ele>118.655169</ele>
        <time>2023-01-02T12:44:49.913Z</time>
      </trkpt>
      <trkpt lat="39.49132" lon="3.26151">
        <ele>118.126069</ele>
        <time>2023-01-02T12:44:50.895Z</time>
      </trkpt>
      <trkpt lat="39.49141" lon="3.2616">
        <ele>117.582387</ele>
        <time>2023-01-02T12:44:51.879Z</time>
      </trkpt>
      <trkpt lat="39.4915" lon="3.26168">
        <ele>117.061928</ele>
        <time>2023-01-02T12:44:52.900Z</time>
      </trkpt>
      <trkpt lat="39.49159" lon="3.26176">
        <ele>116.541769</ele>
        <time>2023-01-02T12:44:53.903Z</time>
      </trkpt>
      <trkpt lat="39.49167" lon="3.26184">
        <ele>116.025609</ele>
        <time>2023-01-02T12:44:54.886Z</time>
      </trkpt>
      <trkpt lat="39.49175" lon="3.26192">
        <ele>115.430077</ele>
        <time>2023-01-02T12:44:55.900Z</time>
      </trkpt>
      <trkpt lat="39.49183" lon="3.262">
        <ele>114.847333</ele>
        <time>2023-01-02T12:44:56.884Z</time>
      </trkpt>
      <trkpt lat="39.49189" lon="3.2621">
        <ele>114.292744</ele>
        <time>2023-01-02T12:44:57.888Z</time>
      </trkpt>
      <trkpt lat="39.49195" lon="3.2622">
        <ele>113.707561</ele>
        <time>2023-01-02T12:44:58.883Z</time>
      </trkpt>
      <trkpt lat="39.49199" lon="3.26232">
        <ele>113.119627</ele>
        <time>2023-01-02T12:44:59.906Z</time>
      </trkpt>
      <trkpt lat="39.49204" lon="3.26244">
        <ele>112.535342</ele>
        <time>2023-01-02T12:45:00.899Z</time>
      </trkpt>
      <trkpt lat="39.49208" lon="3.26255">
        <ele>111.962372</ele>
        <time>2023-01-02T12:45:01.902Z</time>
      </trkpt>
      <trkpt lat="39.49212" lon="3.26268">
        <ele>111.368864</ele>
        <time>2023-01-02T12:45:02.888Z</time>
      </trkpt>
      <trkpt lat="39.49215" lon="3.2628">
        <ele>110.779856</ele>
        <time>2023-01-02T12:45:03.903Z</time>
      </trkpt>
      <trkpt lat="39.49219" lon="3.26292">
        <ele>110.188329</ele>
        <time>2023-01-02T12:45:04.883Z</time>
      </trkpt>
      <trkpt lat="39.49221" lon="3.26305">
        <ele>109.609844</ele>
        <time>2023-01-02T12:45:05.888Z</time>
      </trkpt>
      <trkpt lat="39.49224" lon="3.26317">
        <ele>109.035655</ele>
        <time>2023-01-02T12:45:06.878Z</time>
      </trkpt>
      <trkpt lat="39.49227" lon="3.26329">
        <ele>108.471415</ele>
        <time>2023-01-02T12:45:07.891Z</time>
      </trkpt>
      <trkpt lat="39.49231" lon="3.26341">
        <ele>107.886423</ele>
        <time>2023-01-02T12:45:08.891Z</time>
      </trkpt>
      <trkpt lat="39.49234" lon="3.26353">
        <ele>107.316033</ele>
        <time>2023-01-02T12:45:09.892Z</time>
      </trkpt>
      <trkpt lat="39.49238" lon="3.26365">
        <ele>106.739465</ele>
        <time>2023-01-02T12:45:10.906Z</time>
      </trkpt>
      <trkpt lat="39.49241" lon="3.26377">
        <ele>106.198434</ele>
        <time>2023-01-02T12:45:11.890Z</time>
      </trkpt>
      <trkpt lat="39.49245" lon="3.26388">
        <ele>105.656188</ele>
        <time>2023-01-02T12:45:12.894Z</time>
      </trkpt>
      <trkpt lat="39.4925" lon="3.26398">
        <ele>105.250554</ele>
        <time>2023-01-02T12:45:13.876Z</time>
      </trkpt>
      <trkpt lat="39.49255" lon="3.26409">
        <ele>104.843439</ele>
        <time>2023-01-02T12:45:14.885Z</time>
      </trkpt>
      <trkpt lat="39.4926" lon="3.26418">
        <ele>104.446335</ele>
        <time>2023-01-02T12:45:15.881Z</time>
      </trkpt>
      <trkpt lat="39.49265" lon="3.26428">
        <ele>104.031243</ele>
        <time>2023-01-02T12:45:16.889Z</time>
      </trkpt>
      <trkpt lat="39.49271" lon="3.26438">
        <ele>103.634851</ele>
        <time>2023-01-02T12:45:17.903Z</time>
      </trkpt>
      <trkpt lat="39.49277" lon="3.26447">
        <ele>103.234948</ele>
        <time>2023-01-02T12:45:18.902Z</time>
      </trkpt>
      <trkpt lat="39.49289" lon="3.26464">
        <ele>102.446081</ele>
        <time>2023-01-02T12:45:20.895Z</time>
      </trkpt>
      <trkpt lat="39.49296" lon="3.26472">
        <ele>102.046442</ele>
        <time>2023-01-02T12:45:21.895Z</time>
      </trkpt>
      <trkpt lat="39.49303" lon="3.2648">
        <ele>101.636842</ele>
        <time>2023-01-02T12:45:22.891Z</time>
      </trkpt>
      <trkpt lat="39.49311" lon="3.26487">
        <ele>101.219932</ele>
        <time>2023-01-02T12:45:23.891Z</time>
      </trkpt>
      <trkpt lat="39.49319" lon="3.26494">
        <ele>100.792274</ele>
        <time>2023-01-02T12:45:24.892Z</time>
      </trkpt>
      <trkpt lat="39.49328" lon="3.26499">
        <ele>100.367289</ele>
        <time>2023-01-02T12:45:25.898Z</time>
      </trkpt>
      <trkpt lat="39.49337" lon="3.26503">
        <ele>99.960384</ele>
        <time>2023-01-02T12:45:26.902Z</time>
      </trkpt>
      <trkpt lat="39.49346" lon="3.26505">
        <ele>99.543295</ele>
        <time>2023-01-02T12:45:27.898Z</time>
      </trkpt>
      <trkpt lat="39.49356" lon="3.26507">
        <ele>99.121934</ele>
        <time>2023-01-02T12:45:28.884Z</time>
      </trkpt>
      <trkpt lat="39.49365" lon="3.2651">
        <ele>98.701203</ele>
        <time>2023-01-02T12:45:29.906Z</time>
      </trkpt>
      <trkpt lat="39.49375" lon="3.26513">
        <ele>98.271295</ele>
        <time>2023-01-02T12:45:30.887Z</time>
      </trkpt>
      <trkpt lat="39.49385" lon="3.26515">
        <ele>97.833823</ele>
        <time>2023-01-02T12:45:31.889Z</time>
      </trkpt>
      <trkpt lat="39.49394" lon="3.26518">
        <ele>97.225004</ele>
        <time>2023-01-02T12:45:32.889Z</time>
      </trkpt>
      <trkpt lat="39.49403" lon="3.26519">
        <ele>96.645471</ele>
        <time>2023-01-02T12:45:33.903Z</time>
      </trkpt>
      <trkpt lat="39.49413" lon="3.26521">
        <ele>96.043538</ele>
        <time>2023-01-02T12:45:34.889Z</time>
      </trkpt>
      <trkpt lat="39.49423" lon="3.26522">
        <ele>95.441605</ele>
        <time>2023-01-02T12:45:35.896Z</time>
      </trkpt>
      <trkpt lat="39.49432" lon="3.26524">
        <ele>94.836697</ele>
        <time>2023-01-02T12:45:36.874Z</time>
      </trkpt>
      <trkpt lat="39.49441" lon="3.26526">
        <ele>94.263338</ele>
        <time>2023-01-02T12:45:37.910Z</time>
      </trkpt>
      <trkpt lat="39.4945" lon="3.26528">
        <ele>93.692183</ele>
        <time>2023-01-02T12:45:38.877Z</time>
      </trkpt>
      <trkpt lat="39.49467" lon="3.26536">
        <ele>92.548302</ele>
        <time>2023-01-02T12:45:40.892Z</time>
      </trkpt>
      <trkpt lat="39.49476" lon="3.26542">
        <ele>91.969126</ele>
        <time>2023-01-02T12:45:41.898Z</time>
      </trkpt>
      <trkpt lat="39.49483" lon="3.2655">
        <ele>91.376017</ele>
        <time>2023-01-02T12:45:42.894Z</time>
      </trkpt>
      <trkpt lat="39.4949" lon="3.26559">
        <ele>90.761081</ele>
        <time>2023-01-02T12:45:43.905Z</time>
      </trkpt>
      <trkpt lat="39.49497" lon="3.26568">
        <ele>90.113389</ele>
        <time>2023-01-02T12:45:44.891Z</time>
      </trkpt>
      <trkpt lat="39.49504" lon="3.26579">
        <ele>89.461837</ele>
        <time>2023-01-02T12:45:45.899Z</time>
      </trkpt>
      <trkpt lat="39.49509" lon="3.2659">
        <ele>88.812172</ele>
        <time>2023-01-02T12:45:46.903Z</time>
      </trkpt>
      <trkpt lat="39.49515" lon="3.26602">
        <ele>88.145672</ele>
        <time>2023-01-02T12:45:47.887Z</time>
      </trkpt>
      <trkpt lat="39.49519" lon="3.26615">
        <ele>87.473769</ele>
        <time>2023-01-02T12:45:48.890Z</time>
      </trkpt>
      <trkpt lat="39.49524" lon="3.26627">
        <ele>86.820426</ele>
        <time>2023-01-02T12:45:49.903Z</time>
      </trkpt>
      <trkpt lat="39.49529" lon="3.26639">
        <ele>86.311905</ele>
        <time>2023-01-02T12:45:50.892Z</time>
      </trkpt>
      <trkpt lat="39.49533" lon="3.26652">
        <ele>85.895477</ele>
        <time>2023-01-02T12:45:51.904Z</time>
      </trkpt>
      <trkpt lat="39.49537" lon="3.26663">
        <ele>85.478349</ele>
        <time>2023-01-02T12:45:52.873Z</time>
      </trkpt>
      <trkpt lat="39.49541" lon="3.26675">
        <ele>85.069179</ele>
        <time>2023-01-02T12:45:53.891Z</time>
      </trkpt>
      <trkpt lat="39.49545" lon="3.26687">
        <ele>84.667469</ele>
        <time>2023-01-02T12:45:54.889Z</time>
      </trkpt>
      <trkpt lat="39.49548" lon="3.26698">
        <ele>84.275744</ele>
        <time>2023-01-02T12:45:55.892Z</time>
      </trkpt>
      <trkpt lat="39.49551" lon="3.2671">
        <ele>83.889053</ele>
        <time>2023-01-02T12:45:56.873Z</time>
      </trkpt>
      <trkpt lat="39.49555" lon="3.26721">
        <ele>83.503869</ele>
        <time>2023-01-02T12:45:57.887Z</time>
      </trkpt>
      <trkpt lat="39.49558" lon="3.26732">
        <ele>83.120056</ele>
        <time>2023-01-02T12:45:58.885Z</time>
      </trkpt>
      <trkpt lat="39.49563" lon="3.26743">
        <ele>82.715618</ele>
        <time>2023-01-02T12:45:59.888Z</time>
      </trkpt>
      <trkpt lat="39.49568" lon="3.26754">
        <ele>82.329967</ele>
        <time>2023-01-02T12:46:00.893Z</time>
      </trkpt>
      <trkpt lat="39.49573" lon="3.26764">
        <ele>81.934479</ele>
        <time>2023-01-02T12:46:01.881Z</time>
      </trkpt>
      <trkpt lat="39.49578" lon="3.26775">
        <ele>81.52426</ele>
        <time>2023-01-02T12:46:02.883Z</time>
      </trkpt>
      <trkpt lat="39.49583" lon="3.26785">
        <ele>81.132278</ele>
        <time>2023-01-02T12:46:03.895Z</time>
      </trkpt>
      <trkpt lat="39.49588" lon="3.26795">
        <ele>80.755487</ele>
        <time>2023-01-02T12:46:04.906Z</time>
      </trkpt>
      <trkpt lat="39.49594" lon="3.26805">
        <ele>80.3768</ele>
        <time>2023-01-02T12:46:05.876Z</time>
      </trkpt>
      <trkpt lat="39.49604" lon="3.26823">
        <ele>79.666468</ele>
        <time>2023-01-02T12:46:07.891Z</time>
      </trkpt>
      <trkpt lat="39.49612" lon="3.26841">
        <ele>79.24338</ele>
        <time>2023-01-02T12:46:09.871Z</time>
      </trkpt>
      <trkpt lat="39.4962" lon="3.26857">
        <ele>79.356725</ele>
        <time>2023-01-02T12:46:11.883Z</time>
      </trkpt>
      <trkpt lat="39.49628" lon="3.26872">
        <ele>79.46277</ele>
        <time>2023-01-02T12:46:13.898Z</time>
      </trkpt>
      <trkpt lat="39.49635" lon="3.26886">
        <ele>79.561383</ele>
        <time>2023-01-02T12:46:15.892Z</time>
      </trkpt>
      <trkpt lat="39.49642" lon="3.26898">
        <ele>79.655171</ele>
        <time>2023-01-02T12:46:17.886Z</time>
      </trkpt>
      <trkpt lat="39.49649" lon="3.26911">
        <ele>79.74673</ele>
        <time>2023-01-02T12:46:19.901Z</time>
      </trkpt>
      <trkpt lat="39.49656" lon="3.26922">
        <ele>79.833014</ele>
        <time>2023-01-02T12:46:21.887Z</time>
      </trkpt>
      <trkpt lat="39.49663" lon="3.26933">
        <ele>79.917923</ele>
        <time>2023-01-02T12:46:23.885Z</time>
      </trkpt>
      <trkpt lat="39.49669" lon="3.26944">
        <ele>79.997179</ele>
        <time>2023-01-02T12:46:25.894Z</time>
      </trkpt>
      <trkpt lat="39.49675" lon="3.26954">
        <ele>80.069893</ele>
        <time>2023-01-02T12:46:27.882Z</time>
      </trkpt>
      <trkpt lat="39.49681" lon="3.26963">
        <ele>80.139776</ele>
        <time>2023-01-02T12:46:29.886Z</time>
      </trkpt>
      <trkpt lat="39.49689" lon="3.26976">
        <ele>80.242495</ele>
        <time>2023-01-02T12:46:32.886Z</time>
      </trkpt>
      <trkpt lat="39.49697" lon="3.26988">
        <ele>80.333961</ele>
        <time>2023-01-02T12:46:35.893Z</time>
      </trkpt>
      <trkpt lat="39.49704" lon="3.26998">
        <ele>80.414753</ele>
        <time>2023-01-02T12:46:38.881Z</time>
      </trkpt>
      <trkpt lat="39.49712" lon="3.27006">
        <ele>80.491476</ele>
        <time>2023-01-02T12:46:41.911Z</time>
      </trkpt>
      <trkpt lat="39.4972" lon="3.27013">
        <ele>80.563953</ele>
        <time>2023-01-02T12:46:44.886Z</time>
      </trkpt>
      <trkpt lat="39.4973" lon="3.27018">
        <ele>81.053246</ele>
        <time>2023-01-02T12:46:48.890Z</time>
      </trkpt>
      <trkpt lat="39.49741" lon="3.27021">
        <ele>81.690289</ele>
        <time>2023-01-02T12:46:52.882Z</time>
      </trkpt>
      <trkpt lat="39.49751" lon="3.27023">
        <ele>82.26814</ele>
        <time>2023-01-02T12:46:56.885Z</time>
      </trkpt>
      <trkpt lat="39.4976" lon="3.27026">
        <ele>82.838754</ele>
        <time>2023-01-02T12:47:00.891Z</time>
      </trkpt>
      <trkpt lat="39.49771" lon="3.2703">
        <ele>83.468729</ele>
        <time>2023-01-02T12:47:05.873Z</time>
      </trkpt>
      <trkpt lat="39.4978" lon="3.27033">
        <ele>84.001534</ele>
        <time>2023-01-02T12:47:09.899Z</time>
      </trkpt>
      <trkpt lat="39.4979" lon="3.27036">
        <ele>84.588922</ele>
        <time>2023-01-02T12:47:14.891Z</time>
      </trkpt>
      <trkpt lat="39.498" lon="3.27035">
        <ele>85.14901</ele>
        <time>2023-01-02T12:47:19.908Z</time>
      </trkpt>
      <trkpt lat="39.49809" lon="3.27031">
        <ele>85.712775</ele>
        <time>2023-01-02T12:47:24.893Z</time>
      </trkpt>
      <trkpt lat="39.49817" lon="3.27025">
        <ele>86.260921</ele>
        <time>2023-01-02T12:47:29.892Z</time>
      </trkpt>
      <trkpt lat="39.49826" lon="3.2702">
        <ele>86.82927</ele>
        <time>2023-01-02T12:47:34.887Z</time>
      </trkpt>
      <trkpt lat="39.49835" lon="3.27015">
        <ele>87.362933</ele>
        <time>2023-01-02T12:47:39.888Z</time>
      </trkpt>
      <trkpt lat="39.49844" lon="3.27009">
        <ele>87.951803</ele>
        <time>2023-01-02T12:47:44.883Z</time>
      </trkpt>
      <trkpt lat="39.49853" lon="3.27003">
        <ele>88.517235</ele>
        <time>2023-01-02T12:47:49.900Z</time>
      </trkpt>
      <trkpt lat="39.49862" lon="3.26998">
        <ele>89.110303</ele>
        <time>2023-01-02T12:47:54.883Z</time>
      </trkpt>
      <trkpt lat="39.49871" lon="3.26994">
        <ele>89.675897</ele>
        <time>2023-01-02T12:47:59.886Z</time>
      </trkpt>
      <trkpt lat="39.49881" lon="3.26992">
        <ele>90.264524</ele>
        <time>2023-01-02T12:48:04.906Z</time>
      </trkpt>
      <trkpt lat="39.49891" lon="3.2699">
        <ele>90.831728</ele>
        <time>2023-01-02T12:48:09.899Z</time>
      </trkpt>
      <trkpt lat="39.49901" lon="3.26988">
        <ele>91.344524</ele>
        <time>2023-01-02T12:48:14.886Z</time>
      </trkpt>
      <trkpt lat="39.49911" lon="3.26985">
        <ele>91.876144</ele>
        <time>2023-01-02T12:48:19.894Z</time>
      </trkpt>
      <trkpt lat="39.49921" lon="3.26985">
        <ele>92.433383</ele>
        <time>2023-01-02T12:48:24.874Z</time>
      </trkpt>
      <trkpt lat="39.49932" lon="3.26983">
        <ele>92.999124</ele>
        <time>2023-01-02T12:48:29.891Z</time>
      </trkpt>
      <trkpt lat="39.49943" lon="3.26982">
        <ele>93.562638</ele>
        <time>2023-01-02T12:48:34.875Z</time>
      </trkpt>
      <trkpt lat="39.49954" lon="3.26981">
        <ele>94.12096</ele>
        <time>2023-01-02T12:48:39.881Z</time>
      </trkpt>
      <trkpt lat="39.49964" lon="3.2698">
        <ele>94.669916</ele>
        <time>2023-01-02T12:48:44.899Z</time>
      </trkpt>
      <trkpt lat="39.49975" lon="3.2698">
        <ele>95.237215</ele>
        <time>2023-01-02T12:48:49.891Z</time>
      </trkpt>
      <trkpt lat="39.49984" lon="3.26982">
        <ele>95.713147</ele>
        <time>2023-01-02T12:48:53.909Z</time>
      </trkpt>
      <trkpt lat="39.49993" lon="3.26984">
        <ele>96.20408</ele>
        <time>2023-01-02T12:48:57.902Z</time>
      </trkpt>
      <trkpt lat="39.50002" lon="3.26987">
        <ele>96.676647</ele>
        <time>2023-01-02T12:49:01.879Z</time>
      </trkpt>
      <trkpt lat="39.50012" lon="3.2699">
        <ele>97.235387</ele>
        <time>2023-01-02T12:49:06.888Z</time>
      </trkpt>
      <trkpt lat="39.50021" lon="3.26994">
        <ele>97.703333</ele>
        <time>2023-01-02T12:49:10.895Z</time>
      </trkpt>
      <trkpt lat="39.50031" lon="3.26998">
        <ele>98.235595</ele>
        <time>2023-01-02T12:49:14.896Z</time>
      </trkpt>
      <trkpt lat="39.50041" lon="3.27">
        <ele>98.764173</ele>
        <time>2023-01-02T12:49:18.890Z</time>
      </trkpt>
      <trkpt lat="39.50051" lon="3.27002">
        <ele>99.327399</ele>
        <time>2023-01-02T12:49:22.895Z</time>
      </trkpt>
      <trkpt lat="39.50061" lon="3.27004">
        <ele>99.848259</ele>
        <time>2023-01-02T12:49:26.893Z</time>
      </trkpt>
      <trkpt lat="39.50071" lon="3.27006">
        <ele>100.346381</ele>
        <time>2023-01-02T12:49:30.896Z</time>
      </trkpt>
      <trkpt lat="39.50081" lon="3.27007">
        <ele>100.663808</ele>
        <time>2023-01-02T12:49:34.892Z</time>
      </trkpt>
      <trkpt lat="39.50092" lon="3.27009">
        <ele>101.010816</ele>
        <time>2023-01-02T12:49:38.889Z</time>
      </trkpt>
      <trkpt lat="39.50103" lon="3.2701">
        <ele>101.363561</ele>
        <time>2023-01-02T12:49:42.902Z</time>
      </trkpt>
      <trkpt lat="39.50114" lon="3.27011">
        <ele>101.712473</ele>
        <time>2023-01-02T12:49:46.886Z</time>
      </trkpt>
      <trkpt lat="39.50124" lon="3.27012">
        <ele>102.032165</ele>
        <time>2023-01-02T12:49:50.887Z</time>
      </trkpt>
      <trkpt lat="39.50134" lon="3.27013">
        <ele>102.345848</ele>
        <time>2023-01-02T12:49:54.904Z</time>
      </trkpt>
      <trkpt lat="39.50144" lon="3.27013">
        <ele>102.661933</ele>
        <time>2023-01-02T12:49:58.889Z</time>
      </trkpt>
      <trkpt lat="39.50155" lon="3.27013">
        <ele>103.006765</ele>
        <time>2023-01-02T12:50:02.909Z</time>
      </trkpt>
      <trkpt lat="39.50165" lon="3.27012">
        <ele>103.336215</ele>
        <time>2023-01-02T12:50:06.891Z</time>
      </trkpt>
      <trkpt lat="39.50176" lon="3.27011">
        <ele>103.656381</ele>
        <time>2023-01-02T12:50:10.880Z</time>
      </trkpt>
      <trkpt lat="39.50186" lon="3.27008">
        <ele>104.000033</ele>
        <time>2023-01-02T12:50:14.886Z</time>
      </trkpt>
      <trkpt lat="39.50196" lon="3.27006">
        <ele>104.32416</ele>
        <time>2023-01-02T12:50:18.887Z</time>
      </trkpt>
      <trkpt lat="39.50207" lon="3.27004">
        <ele>104.657629</ele>
        <time>2023-01-02T12:50:22.889Z</time>
      </trkpt>
      <trkpt lat="39.50217" lon="3.27002">
        <ele>104.979241</ele>
        <time>2023-01-02T12:50:26.894Z</time>
      </trkpt>
      <trkpt lat="39.50228" lon="3.27">
        <ele>105.32518</ele>
        <time>2023-01-02T12:50:30.877Z</time>
      </trkpt>
      <trkpt lat="39.50238" lon="3.26997">
        <ele>105.659505</ele>
        <time>2023-01-02T12:50:34.887Z</time>
      </trkpt>
      <trkpt lat="39.50249" lon="3.26996">
        <ele>105.993393</ele>
        <time>2023-01-02T12:50:38.877Z</time>
      </trkpt>
      <trkpt lat="39.5026" lon="3.26993">
        <ele>106.5186</ele>
        <time>2023-01-02T12:50:42.897Z</time>
      </trkpt>
      <trkpt lat="39.5027" lon="3.26993">
        <ele>107.006492</ele>
        <time>2023-01-02T12:50:46.886Z</time>
      </trkpt>
      <trkpt lat="39.5028" lon="3.26992">
        <ele>107.514736</ele>
        <time>2023-01-02T12:50:50.884Z</time>
      </trkpt>
      <trkpt lat="39.50291" lon="3.2699">
        <ele>108.018922</ele>
        <time>2023-01-02T12:50:54.899Z</time>
      </trkpt>
      <trkpt lat="39.50301" lon="3.26988">
        <ele>108.528202</ele>
        <time>2023-01-02T12:50:58.891Z</time>
      </trkpt>
      <trkpt lat="39.50312" lon="3.26986">
        <ele>109.048802</ele>
        <time>2023-01-02T12:51:02.889Z</time>
      </trkpt>
      <trkpt lat="39.50323" lon="3.26984">
        <ele>109.568462</ele>
        <time>2023-01-02T12:51:06.900Z</time>
      </trkpt>
      <trkpt lat="39.50334" lon="3.26983">
        <ele>110.0782</ele>
        <time>2023-01-02T12:51:10.894Z</time>
      </trkpt>
      <trkpt lat="39.50344" lon="3.2698">
        <ele>110.59689</ele>
        <time>2023-01-02T12:51:14.892Z</time>
      </trkpt>
      <trkpt lat="39.50354" lon="3.26979">
        <ele>111.08248</ele>
        <time>2023-01-02T12:51:18.913Z</time>
      </trkpt>
      <trkpt lat="39.50364" lon="3.26977">
        <ele>111.551069</ele>
        <time>2023-01-02T12:51:22.901Z</time>
      </trkpt>
      <trkpt lat="39.50373" lon="3.26975">
        <ele>112.003922</ele>
        <time>2023-01-02T12:51:26.890Z</time>
      </trkpt>
      <trkpt lat="39.50382" lon="3.26974">
        <ele>112.434586</ele>
        <time>2023-01-02T12:51:30.891Z</time>
      </trkpt>
      <trkpt lat="39.50393" lon="3.26973">
        <ele>112.955186</ele>
        <time>2023-01-02T12:51:35.890Z</time>
      </trkpt>
      <trkpt lat="39.50404" lon="3.2697">
        <ele>113.453222</ele>
        <time>2023-01-02T12:51:40.887Z</time>
      </trkpt>
      <trkpt lat="39.50414" lon="3.26969">
        <ele>113.967296</ele>
        <time>2023-01-02T12:51:45.880Z</time>
      </trkpt>
      <trkpt lat="39.50423" lon="3.26968">
        <ele>114.407497</ele>
        <time>2023-01-02T12:51:49.886Z</time>
      </trkpt>
      <trkpt lat="39.50434" lon="3.26969">
        <ele>114.655642</ele>
        <time>2023-01-02T12:51:53.884Z</time>
      </trkpt>
      <trkpt lat="39.50444" lon="3.26971">
        <ele>114.752466</ele>
        <time>2023-01-02T12:51:57.898Z</time>
      </trkpt>
      <trkpt lat="39.50453" lon="3.26976">
        <ele>114.845365</ele>
        <time>2023-01-02T12:52:01.892Z</time>
      </trkpt>
      <trkpt lat="39.50463" lon="3.26983">
        <ele>114.948185</ele>
        <time>2023-01-02T12:52:05.902Z</time>
      </trkpt>
      <trkpt lat="39.50471" lon="3.2699">
        <ele>115.036866</ele>
        <time>2023-01-02T12:52:08.892Z</time>
      </trkpt>
      <trkpt lat="39.50479" lon="3.26997">
        <ele>115.132102</ele>
        <time>2023-01-02T12:52:11.901Z</time>
      </trkpt>
      <trkpt lat="39.50488" lon="3.27006">
        <ele>115.231069</ele>
        <time>2023-01-02T12:52:14.899Z</time>
      </trkpt>
      <trkpt lat="39.50496" lon="3.27014">
        <ele>115.330362</ele>
        <time>2023-01-02T12:52:17.902Z</time>
      </trkpt>
      <trkpt lat="39.50504" lon="3.27021">
        <ele>115.424611</ele>
        <time>2023-01-02T12:52:20.899Z</time>
      </trkpt>
      <trkpt lat="39.50512" lon="3.27029">
        <ele>115.514708</ele>
        <time>2023-01-02T12:52:23.883Z</time>
      </trkpt>
      <trkpt lat="39.50521" lon="3.27038">
        <ele>115.621932</ele>
        <time>2023-01-02T12:52:27.888Z</time>
      </trkpt>
      <trkpt lat="39.50529" lon="3.27045">
        <ele>115.711791</ele>
        <time>2023-01-02T12:52:30.880Z</time>
      </trkpt>
      <trkpt lat="39.50537" lon="3.27052">
        <ele>115.805455</ele>
        <time>2023-01-02T12:52:33.887Z</time>
      </trkpt>
      <trkpt lat="39.50547" lon="3.2706">
        <ele>115.911694</ele>
        <time>2023-01-02T12:52:36.891Z</time>
      </trkpt>
      <trkpt lat="39.50555" lon="3.27069">
        <ele>116.009316</ele>
        <time>2023-01-02T12:52:39.874Z</time>
      </trkpt>
      <trkpt lat="39.50564" lon="3.27078">
        <ele>116.118275</ele>
        <time>2023-01-02T12:52:42.880Z</time>
      </trkpt>
      <trkpt lat="39.50573" lon="3.27086">
        <ele>116.222204</ele>
        <time>2023-01-02T12:52:45.897Z</time>
      </trkpt>
      <trkpt lat="39.50582" lon="3.27094">
        <ele>116.18398</ele>
        <time>2023-01-02T12:52:48.896Z</time>
      </trkpt>
      <trkpt lat="39.50589" lon="3.27102">
        <ele>115.985937</ele>
        <time>2023-01-02T12:52:51.906Z</time>
      </trkpt>
      <trkpt lat="39.50598" lon="3.27109">
        <ele>115.772669</ele>
        <time>2023-01-02T12:52:54.895Z</time>
      </trkpt>
      <trkpt lat="39.50606" lon="3.27117">
        <ele>115.556574</ele>
        <time>2023-01-02T12:52:57.892Z</time>
      </trkpt>
      <trkpt lat="39.50615" lon="3.27126">
        <ele>115.327589</ele>
        <time>2023-01-02T12:53:01.893Z</time>
      </trkpt>
      <trkpt lat="39.50622" lon="3.27134">
        <ele>115.135135</ele>
        <time>2023-01-02T12:53:05.909Z</time>
      </trkpt>
      <trkpt lat="39.50629" lon="3.27142">
        <ele>114.946926</ele>
        <time>2023-01-02T12:53:09.905Z</time>
      </trkpt>
      <trkpt lat="39.50637" lon="3.27149">
        <ele>114.748882</ele>
        <time>2023-01-02T12:53:14.878Z</time>
      </trkpt>
      <trkpt lat="39.50644" lon="3.27156">
        <ele>114.551533</ele>
        <time>2023-01-02T12:53:19.897Z</time>
      </trkpt>
      <trkpt lat="39.50653" lon="3.27163">
        <ele>114.342023</ele>
        <time>2023-01-02T12:53:24.895Z</time>
      </trkpt>
      <trkpt lat="39.5066" lon="3.27171">
        <ele>114.146092</ele>
        <time>2023-01-02T12:53:28.906Z</time>
      </trkpt>
      <trkpt lat="39.50669" lon="3.27178">
        <ele>113.935432</ele>
        <time>2023-01-02T12:53:32.894Z</time>
      </trkpt>
      <trkpt lat="39.50677" lon="3.27187">
        <ele>113.718651</ele>
        <time>2023-01-02T12:53:36.909Z</time>
      </trkpt>
      <trkpt lat="39.50686" lon="3.27196">
        <ele>113.47662</ele>
        <time>2023-01-02T12:53:40.898Z</time>
      </trkpt>
      <trkpt lat="39.50694" lon="3.27203">
        <ele>113.271095</ele>
        <time>2023-01-02T12:53:43.906Z</time>
      </trkpt>
      <trkpt lat="39.50703" lon="3.27212">
        <ele>113.036892</ele>
        <time>2023-01-02T12:53:46.892Z</time>
      </trkpt>
      <trkpt lat="39.50713" lon="3.27222">
        <ele>112.78244</ele>
        <time>2023-01-02T12:53:49.885Z</time>
      </trkpt>
      <trkpt lat="39.50722" lon="3.27232">
        <ele>112.53208</ele>
        <time>2023-01-02T12:53:52.893Z</time>
      </trkpt>
      <trkpt lat="39.50734" lon="3.27242">
        <ele>112.236012</ele>
        <time>2023-01-02T12:53:55.890Z</time>
      </trkpt>
      <trkpt lat="39.50745" lon="3.27253">
        <ele>111.940367</ele>
        <time>2023-01-02T12:53:58.906Z</time>
      </trkpt>
      <trkpt lat="39.50755" lon="3.27263">
        <ele>111.656453</ele>
        <time>2023-01-02T12:54:01.915Z</time>
      </trkpt>
      <trkpt lat="39.50766" lon="3.27274">
        <ele>111.355025</ele>
        <time>2023-01-02T12:54:04.898Z</time>
      </trkpt>
      <trkpt lat="39.50774" lon="3.27282">
        <ele>111.12645</ele>
        <time>2023-01-02T12:54:06.914Z</time>
      </trkpt>
      <trkpt lat="39.50783" lon="3.27291">
        <ele>110.884297</ele>
        <time>2023-01-02T12:54:08.888Z</time>
      </trkpt>
      <trkpt lat="39.50792" lon="3.27301">
        <ele>110.616183</ele>
        <time>2023-01-02T12:54:10.888Z</time>
      </trkpt>
      <trkpt lat="39.50802" lon="3.27311">
        <ele>110.342949</ele>
        <time>2023-01-02T12:54:12.894Z</time>
      </trkpt>
      <trkpt lat="39.50811" lon="3.27322">
        <ele>110.079396</ele>
        <time>2023-01-02T12:54:14.902Z</time>
      </trkpt>
      <trkpt lat="39.5082" lon="3.27331">
        <ele>109.838119</ele>
        <time>2023-01-02T12:54:16.879Z</time>
      </trkpt>
      <trkpt lat="39.50829" lon="3.27339">
        <ele>109.606445</ele>
        <time>2023-01-02T12:54:18.896Z</time>
      </trkpt>
      <trkpt lat="39.50836" lon="3.27347">
        <ele>109.390098</ele>
        <time>2023-01-02T12:54:20.893Z</time>
      </trkpt>
      <trkpt lat="39.50843" lon="3.27355">
        <ele>109.192231</ele>
        <time>2023-01-02T12:54:22.890Z</time>
      </trkpt>
      <trkpt lat="39.50853" lon="3.27366">
        <ele>108.908364</ele>
        <time>2023-01-02T12:54:25.907Z</time>
      </trkpt>
      <trkpt lat="39.50862" lon="3.27377">
        <ele>108.637238</ele>
        <time>2023-01-02T12:54:28.899Z</time>
      </trkpt>
      <trkpt lat="39.50871" lon="3.27388">
        <ele>108.410016</ele>
        <time>2023-01-02T12:54:31.901Z</time>
      </trkpt>
      <trkpt lat="39.5088" lon="3.27399">
        <ele>108.19235</ele>
        <time>2023-01-02T12:54:34.902Z</time>
      </trkpt>
      <trkpt lat="39.5089" lon="3.27411">
        <ele>107.951869</ele>
        <time>2023-01-02T12:54:37.899Z</time>
      </trkpt>
      <trkpt lat="39.50896" lon="3.2742">
        <ele>107.784928</ele>
        <time>2023-01-02T12:54:39.913Z</time>
      </trkpt>
      <trkpt lat="39.50903" lon="3.27429">
        <ele>107.610283</ele>
        <time>2023-01-02T12:54:41.900Z</time>
      </trkpt>
      <trkpt lat="39.5091" lon="3.27438">
        <ele>107.426962</ele>
        <time>2023-01-02T12:54:43.901Z</time>
      </trkpt>
      <trkpt lat="39.50918" lon="3.27448">
        <ele>107.237491</ele>
        <time>2023-01-02T12:54:45.908Z</time>
      </trkpt>
      <trkpt lat="39.50925" lon="3.27459">
        <ele>107.041165</ele>
        <time>2023-01-02T12:54:47.910Z</time>
      </trkpt>
      <trkpt lat="39.50933" lon="3.27469">
        <ele>106.838766</ele>
        <time>2023-01-02T12:54:49.912Z</time>
      </trkpt>
      <trkpt lat="39.50941" lon="3.2748">
        <ele>106.632622</ele>
        <time>2023-01-02T12:54:51.916Z</time>
      </trkpt>
      <trkpt lat="39.50949" lon="3.2749">
        <ele>106.430368</ele>
        <time>2023-01-02T12:54:53.892Z</time>
      </trkpt>
      <trkpt lat="39.50957" lon="3.27501">
        <ele>106.220013</ele>
        <time>2023-01-02T12:54:55.895Z</time>
      </trkpt>
      <trkpt lat="39.50966" lon="3.27512">
        <ele>106.003311</ele>
        <time>2023-01-02T12:54:57.900Z</time>
      </trkpt>
      <trkpt lat="39.50974" lon="3.27523">
        <ele>105.785953</ele>
        <time>2023-01-02T12:54:59.905Z</time>
      </trkpt>
      <trkpt lat="39.50983" lon="3.27534">
        <ele>105.567003</ele>
        <time>2023-01-02T12:55:01.896Z</time>
      </trkpt>
      <trkpt lat="39.50992" lon="3.27545">
        <ele>105.432881</ele>
        <time>2023-01-02T12:55:03.904Z</time>
      </trkpt>
      <trkpt lat="39.51" lon="3.27554">
        <ele>105.457285</ele>
        <time>2023-01-02T12:55:05.904Z</time>
      </trkpt>
      <trkpt lat="39.51007" lon="3.27564">
        <ele>105.480576</ele>
        <time>2023-01-02T12:55:07.895Z</time>
      </trkpt>
      <trkpt lat="39.51014" lon="3.27573">
        <ele>105.503818</ele>
        <time>2023-01-02T12:55:09.889Z</time>
      </trkpt>
      <trkpt lat="39.51021" lon="3.27582">
        <ele>105.524355</ele>
        <time>2023-01-02T12:55:11.904Z</time>
      </trkpt>
      <trkpt lat="39.51027" lon="3.27591">
        <ele>105.545697</ele>
        <time>2023-01-02T12:55:13.907Z</time>
      </trkpt>
      <trkpt lat="39.51034" lon="3.27599">
        <ele>105.566505</ele>
        <time>2023-01-02T12:55:15.902Z</time>
      </trkpt>
      <trkpt lat="39.51044" lon="3.2761">
        <ele>105.594095</ele>
        <time>2023-01-02T12:55:18.894Z</time>
      </trkpt>
      <trkpt lat="39.51053" lon="3.27621">
        <ele>105.621653</ele>
        <time>2023-01-02T12:55:21.907Z</time>
      </trkpt>
      <trkpt lat="39.51062" lon="3.2763">
        <ele>105.64803</ele>
        <time>2023-01-02T12:55:24.885Z</time>
      </trkpt>
      <trkpt lat="39.51072" lon="3.27637">
        <ele>105.672711</ele>
        <time>2023-01-02T12:55:27.899Z</time>
      </trkpt>
      <trkpt lat="39.51081" lon="3.27646">
        <ele>105.698989</ele>
        <time>2023-01-02T12:55:30.892Z</time>
      </trkpt>
      <trkpt lat="39.51092" lon="3.27655">
        <ele>105.727418</ele>
        <time>2023-01-02T12:55:33.904Z</time>
      </trkpt>
      <trkpt lat="39.51102" lon="3.27665">
        <ele>105.75575</ele>
        <time>2023-01-02T12:55:36.902Z</time>
      </trkpt>
      <trkpt lat="39.5111" lon="3.27672">
        <ele>105.776507</ele>
        <time>2023-01-02T12:55:38.896Z</time>
      </trkpt>
      <trkpt lat="39.51118" lon="3.27678">
        <ele>105.797178</ele>
        <time>2023-01-02T12:55:40.915Z</time>
      </trkpt>
      <trkpt lat="39.51126" lon="3.27685">
        <ele>105.818681</ele>
        <time>2023-01-02T12:55:42.895Z</time>
      </trkpt>
      <trkpt lat="39.51134" lon="3.27693">
        <ele>105.891536</ele>
        <time>2023-01-02T12:55:44.886Z</time>
      </trkpt>
      <trkpt lat="39.51142" lon="3.277">
        <ele>105.986569</ele>
        <time>2023-01-02T12:55:46.895Z</time>
      </trkpt>
      <trkpt lat="39.5115" lon="3.27707">
        <ele>106.079197</ele>
        <time>2023-01-02T12:55:48.897Z</time>
      </trkpt>
      <trkpt lat="39.51159" lon="3.27714">
        <ele>106.171439</ele>
        <time>2023-01-02T12:55:50.886Z</time>
      </trkpt>
      <trkpt lat="39.51166" lon="3.27721">
        <ele>106.259335</ele>
        <time>2023-01-02T12:55:52.886Z</time>
      </trkpt>
      <trkpt lat="39.51174" lon="3.27728">
        <ele>106.346472</ele>
        <time>2023-01-02T12:55:54.902Z</time>
      </trkpt>
      <trkpt lat="39.51184" lon="3.27739">
        <ele>106.468157</ele>
        <time>2023-01-02T12:55:57.909Z</time>
      </trkpt>
      <trkpt lat="39.51191" lon="3.27746">
        <ele>106.556636</ele>
        <time>2023-01-02T12:55:59.901Z</time>
      </trkpt>
      <trkpt lat="39.51201" lon="3.27755">
        <ele>106.66869</ele>
        <time>2023-01-02T12:56:02.899Z</time>
      </trkpt>
      <trkpt lat="39.5121" lon="3.27764">
        <ele>106.778934</ele>
        <time>2023-01-02T12:56:05.908Z</time>
      </trkpt>
      <trkpt lat="39.51219" lon="3.27773">
        <ele>106.889619</ele>
        <time>2023-01-02T12:56:08.892Z</time>
      </trkpt>
      <trkpt lat="39.51228" lon="3.27784">
        <ele>106.99872</ele>
        <time>2023-01-02T12:56:11.891Z</time>
      </trkpt>
      <trkpt lat="39.51234" lon="3.27795">
        <ele>107.101867</ele>
        <time>2023-01-02T12:56:14.871Z</time>
      </trkpt>
      <trkpt lat="39.51241" lon="3.27806">
        <ele>107.203334</ele>
        <time>2023-01-02T12:56:17.903Z</time>
      </trkpt>
      <trkpt lat="39.51246" lon="3.2782">
        <ele>107.314887</ele>
        <time>2023-01-02T12:56:20.902Z</time>
      </trkpt>
      <trkpt lat="39.51251" lon="3.27833">
        <ele>107.421355</ele>
        <time>2023-01-02T12:56:23.903Z</time>
      </trkpt>
      <trkpt lat="39.51255" lon="3.27847">
        <ele>107.518055</ele>
        <time>2023-01-02T12:56:26.890Z</time>
      </trkpt>
      <trkpt lat="39.51257" lon="3.27862">
        <ele>107.433519</ele>
        <time>2023-01-02T12:56:29.909Z</time>
      </trkpt>
      <trkpt lat="39.51257" lon="3.27878">
        <ele>107.349158</ele>
        <time>2023-01-02T12:56:32.904Z</time>
      </trkpt>
      <trkpt lat="39.51255" lon="3.27894">
        <ele>107.263684</ele>
        <time>2023-01-02T12:56:35.892Z</time>
      </trkpt>
      <trkpt lat="39.51253" lon="3.2791">
        <ele>107.176638</ele>
        <time>2023-01-02T12:56:38.889Z</time>
      </trkpt>
      <trkpt lat="39.5125" lon="3.27926">
        <ele>107.091325</ele>
        <time>2023-01-02T12:56:41.896Z</time>
      </trkpt>
      <trkpt lat="39.51247" lon="3.27942">
        <ele>107.004312</ele>
        <time>2023-01-02T12:56:44.900Z</time>
      </trkpt>
      <trkpt lat="39.51244" lon="3.27958">
        <ele>106.919256</ele>
        <time>2023-01-02T12:56:47.910Z</time>
      </trkpt>
      <trkpt lat="39.51242" lon="3.27969">
        <ele>106.855957</ele>
        <time>2023-01-02T12:56:49.899Z</time>
      </trkpt>
      <trkpt lat="39.51239" lon="3.27985">
        <ele>106.768415</ele>
        <time>2023-01-02T12:56:52.908Z</time>
      </trkpt>
      <trkpt lat="39.51236" lon="3.27997">
        <ele>106.704324</ele>
        <time>2023-01-02T12:56:55.903Z</time>
      </trkpt>
      <trkpt lat="39.51235" lon="3.28003">
        <ele>106.670747</ele>
        <time>2023-01-02T12:57:09.881Z</time>
      </trkpt>
      <trkpt lat="39.51428" lon="3.28353">
        <ele>104.670344</ele>
        <time>2023-01-02T12:59:12.948Z</time>
      </trkpt>
      <trkpt lat="39.51436" lon="3.28362">
        <ele>104.729621</ele>
        <time>2023-01-02T12:59:14.898Z</time>
      </trkpt>
      <trkpt lat="39.51444" lon="3.28372">
        <ele>104.789859</ele>
        <time>2023-01-02T12:59:16.896Z</time>
      </trkpt>
      <trkpt lat="39.51452" lon="3.2838">
        <ele>104.84426</ele>
        <time>2023-01-02T12:59:18.882Z</time>
      </trkpt>
      <trkpt lat="39.51461" lon="3.28392">
        <ele>104.913577</ele>
        <time>2023-01-02T12:59:21.888Z</time>
      </trkpt>
      <trkpt lat="39.51469" lon="3.284">
        <ele>104.968063</ele>
        <time>2023-01-02T12:59:24.895Z</time>
      </trkpt>
      <trkpt lat="39.51477" lon="3.2841">
        <ele>105.027905</ele>
        <time>2023-01-02T12:59:28.879Z</time>
      </trkpt>
      <trkpt lat="39.51485" lon="3.28419">
        <ele>105.085524</ele>
        <time>2023-01-02T12:59:32.888Z</time>
      </trkpt>
      <trkpt lat="39.51492" lon="3.28427">
        <ele>105.166477</ele>
        <time>2023-01-02T12:59:36.901Z</time>
      </trkpt>
      <trkpt lat="39.515" lon="3.28435">
        <ele>105.358838</ele>
        <time>2023-01-02T12:59:40.907Z</time>
      </trkpt>
      <trkpt lat="39.51507" lon="3.28441">
        <ele>105.542391</ele>
        <time>2023-01-02T12:59:44.894Z</time>
      </trkpt>
      <trkpt lat="39.51516" lon="3.28448">
        <ele>105.755524</ele>
        <time>2023-01-02T12:59:49.906Z</time>
      </trkpt>
      <trkpt lat="39.51524" lon="3.28454">
        <ele>105.943824</ele>
        <time>2023-01-02T12:59:53.899Z</time>
      </trkpt>
      <trkpt lat="39.51534" lon="3.28462">
        <ele>106.18329</ele>
        <time>2023-01-02T12:59:57.901Z</time>
      </trkpt>
      <trkpt lat="39.51544" lon="3.28469">
        <ele>106.398391</ele>
        <time>2023-01-02T13:00:00.903Z</time>
      </trkpt>
      <trkpt lat="39.51554" lon="3.28478">
        <ele>106.654004</ele>
        <time>2023-01-02T13:00:03.916Z</time>
      </trkpt>
      <trkpt lat="39.51563" lon="3.28484">
        <ele>106.860539</ele>
        <time>2023-01-02T13:00:05.906Z</time>
      </trkpt>
      <trkpt lat="39.51572" lon="3.28491">
        <ele>107.062003</ele>
        <time>2023-01-02T13:00:07.912Z</time>
      </trkpt>
      <trkpt lat="39.51581" lon="3.28498">
        <ele>107.272677</ele>
        <time>2023-01-02T13:00:09.909Z</time>
      </trkpt>
      <trkpt lat="39.5159" lon="3.28505">
        <ele>107.487998</ele>
        <time>2023-01-02T13:00:11.901Z</time>
      </trkpt>
      <trkpt lat="39.51598" lon="3.28512">
        <ele>107.689249</ele>
        <time>2023-01-02T13:00:13.899Z</time>
      </trkpt>
      <trkpt lat="39.51606" lon="3.28518">
        <ele>107.879807</ele>
        <time>2023-01-02T13:00:15.919Z</time>
      </trkpt>
      <trkpt lat="39.51618" lon="3.28527">
        <ele>108.145596</ele>
        <time>2023-01-02T13:00:18.885Z</time>
      </trkpt>
      <trkpt lat="39.51629" lon="3.28535">
        <ele>108.407672</ele>
        <time>2023-01-02T13:00:21.909Z</time>
      </trkpt>
      <trkpt lat="39.5164" lon="3.28543">
        <ele>108.669748</ele>
        <time>2023-01-02T13:00:24.889Z</time>
      </trkpt>
      <trkpt lat="39.51648" lon="3.28549">
        <ele>108.767017</ele>
        <time>2023-01-02T13:00:26.906Z</time>
      </trkpt>
      <trkpt lat="39.51656" lon="3.28555">
        <ele>108.770925</ele>
        <time>2023-01-02T13:00:28.889Z</time>
      </trkpt>
      <trkpt lat="39.51668" lon="3.28564">
        <ele>108.776716</ele>
        <time>2023-01-02T13:00:31.901Z</time>
      </trkpt>
      <trkpt lat="39.5168" lon="3.28573">
        <ele>108.782427</ele>
        <time>2023-01-02T13:00:34.891Z</time>
      </trkpt>
      <trkpt lat="39.51688" lon="3.28579">
        <ele>108.786283</ele>
        <time>2023-01-02T13:00:36.885Z</time>
      </trkpt>
      <trkpt lat="39.51699" lon="3.28587">
        <ele>108.7919</ele>
        <time>2023-01-02T13:00:39.900Z</time>
      </trkpt>
      <trkpt lat="39.51711" lon="3.28595">
        <ele>108.797307</ele>
        <time>2023-01-02T13:00:42.899Z</time>
      </trkpt>
      <trkpt lat="39.51721" lon="3.28602">
        <ele>108.8022</ele>
        <time>2023-01-02T13:00:45.912Z</time>
      </trkpt>
      <trkpt lat="39.5173" lon="3.2861">
        <ele>108.806685</ele>
        <time>2023-01-02T13:00:48.908Z</time>
      </trkpt>
      <trkpt lat="39.51739" lon="3.28616">
        <ele>108.810942</ele>
        <time>2023-01-02T13:00:51.907Z</time>
      </trkpt>
      <trkpt lat="39.51747" lon="3.28622">
        <ele>108.81514</ele>
        <time>2023-01-02T13:00:54.906Z</time>
      </trkpt>
      <trkpt lat="39.51756" lon="3.28629">
        <ele>108.819453</ele>
        <time>2023-01-02T13:00:57.906Z</time>
      </trkpt>
      <trkpt lat="39.51766" lon="3.28635">
        <ele>108.823883</ele>
        <time>2023-01-02T13:01:00.906Z</time>
      </trkpt>
      <trkpt lat="39.51775" lon="3.28641">
        <ele>108.828276</ele>
        <time>2023-01-02T13:01:03.906Z</time>
      </trkpt>
      <trkpt lat="39.51785" lon="3.28648">
        <ele>108.833036</ele>
        <time>2023-01-02T13:01:06.903Z</time>
      </trkpt>
      <trkpt lat="39.51795" lon="3.28654">
        <ele>108.837761</ele>
        <time>2023-01-02T13:01:09.918Z</time>
      </trkpt>
      <trkpt lat="39.51807" lon="3.28661">
        <ele>108.717671</ele>
        <time>2023-01-02T13:01:12.938Z</time>
      </trkpt>
      <trkpt lat="39.51815" lon="3.28667">
        <ele>108.506522</ele>
        <time>2023-01-02T13:01:14.893Z</time>
      </trkpt>
      <trkpt lat="39.51824" lon="3.28672">
        <ele>108.278268</ele>
        <time>2023-01-02T13:01:16.885Z</time>
      </trkpt>
      <trkpt lat="39.51834" lon="3.28677">
        <ele>108.041644</ele>
        <time>2023-01-02T13:01:18.887Z</time>
      </trkpt>
      <trkpt lat="39.51843" lon="3.28684">
        <ele>107.798424</ele>
        <time>2023-01-02T13:01:20.889Z</time>
      </trkpt>
      <trkpt lat="39.51852" lon="3.2869">
        <ele>107.570454</ele>
        <time>2023-01-02T13:01:22.888Z</time>
      </trkpt>
      <trkpt lat="39.51862" lon="3.28696">
        <ele>107.31759</ele>
        <time>2023-01-02T13:01:24.901Z</time>
      </trkpt>
      <trkpt lat="39.51873" lon="3.28702">
        <ele>107.064986</ele>
        <time>2023-01-02T13:01:26.915Z</time>
      </trkpt>
      <trkpt lat="39.51882" lon="3.28708">
        <ele>106.825628</ele>
        <time>2023-01-02T13:01:28.898Z</time>
      </trkpt>
      <trkpt lat="39.51892" lon="3.28711">
        <ele>106.596066</ele>
        <time>2023-01-02T13:01:30.896Z</time>
      </trkpt>
      <trkpt lat="39.51901" lon="3.28715">
        <ele>106.372971</ele>
        <time>2023-01-02T13:01:32.893Z</time>
      </trkpt>
      <trkpt lat="39.51911" lon="3.28719">
        <ele>106.155236</ele>
        <time>2023-01-02T13:01:34.895Z</time>
      </trkpt>
      <trkpt lat="39.5192" lon="3.28723">
        <ele>105.940543</ele>
        <time>2023-01-02T13:01:36.899Z</time>
      </trkpt>
      <trkpt lat="39.51927" lon="3.28731">
        <ele>105.729559</ele>
        <time>2023-01-02T13:01:38.911Z</time>
      </trkpt>
      <trkpt lat="39.51928" lon="3.28743">
        <ele>105.52196</ele>
        <time>2023-01-02T13:01:40.908Z</time>
      </trkpt>
      <trkpt lat="39.51924" lon="3.28753">
        <ele>105.312513</ele>
        <time>2023-01-02T13:01:42.931Z</time>
      </trkpt>
      <trkpt lat="39.51919" lon="3.28767">
        <ele>105.048383</ele>
        <time>2023-01-02T13:01:45.912Z</time>
      </trkpt>
      <trkpt lat="39.51915" lon="3.2878">
        <ele>104.801697</ele>
        <time>2023-01-02T13:01:48.899Z</time>
      </trkpt>
      <trkpt lat="39.51914" lon="3.28792">
        <ele>104.440406</ele>
        <time>2023-01-02T13:01:52.895Z</time>
      </trkpt>
      <trkpt lat="39.51915" lon="3.28805">
        <ele>104.019419</ele>
        <time>2023-01-02T13:01:57.907Z</time>
      </trkpt>
      <trkpt lat="39.51919" lon="3.28818">
        <ele>103.579455</ele>
        <time>2023-01-02T13:02:01.913Z</time>
      </trkpt>
      <trkpt lat="39.51922" lon="3.2883">
        <ele>103.167838</ele>
        <time>2023-01-02T13:02:04.894Z</time>
      </trkpt>
      <trkpt lat="39.51927" lon="3.28845">
        <ele>102.654639</ele>
        <time>2023-01-02T13:02:07.901Z</time>
      </trkpt>
      <trkpt lat="39.5193" lon="3.28856">
        <ele>102.260905</ele>
        <time>2023-01-02T13:02:09.898Z</time>
      </trkpt>
      <trkpt lat="39.51933" lon="3.28869">
        <ele>101.826305</ele>
        <time>2023-01-02T13:02:11.914Z</time>
      </trkpt>
      <trkpt lat="39.51937" lon="3.28883">
        <ele>101.366963</ele>
        <time>2023-01-02T13:02:13.903Z</time>
      </trkpt>
      <trkpt lat="39.51941" lon="3.28898">
        <ele>100.852707</ele>
        <time>2023-01-02T13:02:15.907Z</time>
      </trkpt>
      <trkpt lat="39.51944" lon="3.28916">
        <ele>100.264321</ele>
        <time>2023-01-02T13:02:17.916Z</time>
      </trkpt>
      <trkpt lat="39.51946" lon="3.28934">
        <ele>99.681618</ele>
        <time>2023-01-02T13:02:19.904Z</time>
      </trkpt>
      <trkpt lat="39.51949" lon="3.28953">
        <ele>99.047035</ele>
        <time>2023-01-02T13:02:21.908Z</time>
      </trkpt>
      <trkpt lat="39.51952" lon="3.28972">
        <ele>98.417186</ele>
        <time>2023-01-02T13:02:23.910Z</time>
      </trkpt>
      <trkpt lat="39.51955" lon="3.28992">
        <ele>97.775491</ele>
        <time>2023-01-02T13:02:25.893Z</time>
      </trkpt>
      <trkpt lat="39.51959" lon="3.29012">
        <ele>97.115642</ele>
        <time>2023-01-02T13:02:27.907Z</time>
      </trkpt>
      <trkpt lat="39.51961" lon="3.29031">
        <ele>96.420737</ele>
        <time>2023-01-02T13:02:29.898Z</time>
      </trkpt>
      <trkpt lat="39.51965" lon="3.29051">
        <ele>95.711658</ele>
        <time>2023-01-02T13:02:31.910Z</time>
      </trkpt>
      <trkpt lat="39.51968" lon="3.29071">
        <ele>94.981425</ele>
        <time>2023-01-02T13:02:33.905Z</time>
      </trkpt>
      <trkpt lat="39.51971" lon="3.29092">
        <ele>94.24155</ele>
        <time>2023-01-02T13:02:35.908Z</time>
      </trkpt>
      <trkpt lat="39.51974" lon="3.29112">
        <ele>93.513123</ele>
        <time>2023-01-02T13:02:37.900Z</time>
      </trkpt>
      <trkpt lat="39.51977" lon="3.29133">
        <ele>92.772624</ele>
        <time>2023-01-02T13:02:39.905Z</time>
      </trkpt>
      <trkpt lat="39.5198" lon="3.29155">
        <ele>91.997702</ele>
        <time>2023-01-02T13:02:41.894Z</time>
      </trkpt>
      <trkpt lat="39.51984" lon="3.29177">
        <ele>91.208996</ele>
        <time>2023-01-02T13:02:43.900Z</time>
      </trkpt>
      <trkpt lat="39.51987" lon="3.292">
        <ele>90.391026</ele>
        <time>2023-01-02T13:02:45.912Z</time>
      </trkpt>
      <trkpt lat="39.5199" lon="3.29223">
        <ele>89.565157</ele>
        <time>2023-01-02T13:02:47.905Z</time>
      </trkpt>
      <trkpt lat="39.51992" lon="3.29235">
        <ele>89.140662</ele>
        <time>2023-01-02T13:02:48.892Z</time>
      </trkpt>
      <trkpt lat="39.51994" lon="3.29246">
        <ele>88.820091</ele>
        <time>2023-01-02T13:02:49.917Z</time>
      </trkpt>
      <trkpt lat="39.51996" lon="3.29258">
        <ele>88.501495</ele>
        <time>2023-01-02T13:02:50.903Z</time>
      </trkpt>
      <trkpt lat="39.51997" lon="3.29269">
        <ele>88.191428</ele>
        <time>2023-01-02T13:02:51.918Z</time>
      </trkpt>
      <trkpt lat="39.52001" lon="3.29292">
        <ele>87.571295</ele>
        <time>2023-01-02T13:02:53.893Z</time>
      </trkpt>
      <trkpt lat="39.52004" lon="3.29315">
        <ele>86.962972</ele>
        <time>2023-01-02T13:02:55.902Z</time>
      </trkpt>
      <trkpt lat="39.52007" lon="3.29337">
        <ele>86.365039</ele>
        <time>2023-01-02T13:02:57.909Z</time>
      </trkpt>
      <trkpt lat="39.5201" lon="3.29358">
        <ele>85.786809</ele>
        <time>2023-01-02T13:02:59.909Z</time>
      </trkpt>
      <trkpt lat="39.52014" lon="3.29379">
        <ele>85.209114</ele>
        <time>2023-01-02T13:03:01.895Z</time>
      </trkpt>
      <trkpt lat="39.52017" lon="3.29399">
        <ele>84.66359</ele>
        <time>2023-01-02T13:03:03.906Z</time>
      </trkpt>
      <trkpt lat="39.52019" lon="3.2942">
        <ele>84.107262</ele>
        <time>2023-01-02T13:03:05.890Z</time>
      </trkpt>
      <trkpt lat="39.52017" lon="3.29441">
        <ele>83.556218</ele>
        <time>2023-01-02T13:03:07.907Z</time>
      </trkpt>
      <trkpt lat="39.5201" lon="3.29459">
        <ele>83.013095</ele>
        <time>2023-01-02T13:03:09.903Z</time>
      </trkpt>
      <trkpt lat="39.52004" lon="3.29477">
        <ele>82.705688</ele>
        <time>2023-01-02T13:03:11.909Z</time>
      </trkpt>
      <trkpt lat="39.51999" lon="3.29492">
        <ele>82.475607</ele>
        <time>2023-01-02T13:03:13.901Z</time>
      </trkpt>
      <trkpt lat="39.51995" lon="3.29504">
        <ele>82.314558</ele>
        <time>2023-01-02T13:03:15.911Z</time>
      </trkpt>
      <trkpt lat="39.51991" lon="3.29517">
        <ele>82.125592</ele>
        <time>2023-01-02T13:03:18.897Z</time>
      </trkpt>
      <trkpt lat="39.51988" lon="3.29528">
        <ele>81.9632</ele>
        <time>2023-01-02T13:03:23.899Z</time>
      </trkpt>
      <trkpt lat="39.51986" lon="3.29541">
        <ele>81.793753</ele>
        <time>2023-01-02T13:03:29.901Z</time>
      </trkpt>
      <trkpt lat="39.51983" lon="3.29554">
        <ele>81.607278</ele>
        <time>2023-01-02T13:03:33.893Z</time>
      </trkpt>
      <trkpt lat="39.5198" lon="3.29566">
        <ele>81.440004</ele>
        <time>2023-01-02T13:03:36.909Z</time>
      </trkpt>
      <trkpt lat="39.51977" lon="3.29579">
        <ele>81.261747</ele>
        <time>2023-01-02T13:03:39.905Z</time>
      </trkpt>
      <trkpt lat="39.51973" lon="3.29592">
        <ele>81.074737</ele>
        <time>2023-01-02T13:03:42.896Z</time>
      </trkpt>
      <trkpt lat="39.5197" lon="3.29605">
        <ele>80.90244</ele>
        <time>2023-01-02T13:03:45.894Z</time>
      </trkpt>
      <trkpt lat="39.51966" lon="3.29618">
        <ele>80.720926</ele>
        <time>2023-01-02T13:03:48.883Z</time>
      </trkpt>
      <trkpt lat="39.51962" lon="3.2963">
        <ele>80.546019</ele>
        <time>2023-01-02T13:03:51.884Z</time>
      </trkpt>
      <trkpt lat="39.51957" lon="3.2964">
        <ele>80.377036</ele>
        <time>2023-01-02T13:03:54.891Z</time>
      </trkpt>
      <trkpt lat="39.51952" lon="3.29652">
        <ele>80.204294</ele>
        <time>2023-01-02T13:03:57.871Z</time>
      </trkpt>
      <trkpt lat="39.51946" lon="3.29663">
        <ele>80.020236</ele>
        <time>2023-01-02T13:04:00.904Z</time>
      </trkpt>
      <trkpt lat="39.51941" lon="3.29676">
        <ele>79.828073</ele>
        <time>2023-01-02T13:04:03.906Z</time>
      </trkpt>
      <trkpt lat="39.51935" lon="3.2969">
        <ele>79.51145</ele>
        <time>2023-01-02T13:04:06.915Z</time>
      </trkpt>
      <trkpt lat="39.51928" lon="3.29701">
        <ele>79.218926</ele>
        <time>2023-01-02T13:04:10.898Z</time>
      </trkpt>
      <trkpt lat="39.51923" lon="3.29711">
        <ele>78.95672</ele>
        <time>2023-01-02T13:04:16.909Z</time>
      </trkpt>
      <trkpt lat="39.51918" lon="3.29725">
        <ele>78.637546</ele>
        <time>2023-01-02T13:04:21.918Z</time>
      </trkpt>
      <trkpt lat="39.51914" lon="3.29735">
        <ele>78.391678</ele>
        <time>2023-01-02T13:04:24.888Z</time>
      </trkpt>
      <trkpt lat="39.51912" lon="3.29749">
        <ele>78.110286</ele>
        <time>2023-01-02T13:04:27.905Z</time>
      </trkpt>
      <trkpt lat="39.51911" lon="3.29764">
        <ele>77.776783</ele>
        <time>2023-01-02T13:04:30.882Z</time>
      </trkpt>
      <trkpt lat="39.51912" lon="3.2978">
        <ele>77.441956</ele>
        <time>2023-01-02T13:04:33.899Z</time>
      </trkpt>
      <trkpt lat="39.51912" lon="3.29798">
        <ele>77.076712</ele>
        <time>2023-01-02T13:04:36.897Z</time>
      </trkpt>
      <trkpt lat="39.51912" lon="3.2981">
        <ele>76.822035</ele>
        <time>2023-01-02T13:04:38.889Z</time>
      </trkpt>
      <trkpt lat="39.51913" lon="3.29822">
        <ele>76.554357</ele>
        <time>2023-01-02T13:04:40.881Z</time>
      </trkpt>
      <trkpt lat="39.51914" lon="3.29835">
        <ele>76.286678</ele>
        <time>2023-01-02T13:04:42.901Z</time>
      </trkpt>
      <trkpt lat="39.51915" lon="3.29849">
        <ele>75.997285</ele>
        <time>2023-01-02T13:04:44.904Z</time>
      </trkpt>
      <trkpt lat="39.51917" lon="3.29863">
        <ele>75.706099</ele>
        <time>2023-01-02T13:04:46.885Z</time>
      </trkpt>
      <trkpt lat="39.51919" lon="3.29877">
        <ele>75.401068</ele>
        <time>2023-01-02T13:04:48.901Z</time>
      </trkpt>
      <trkpt lat="39.5192" lon="3.29892">
        <ele>75.084935</ele>
        <time>2023-01-02T13:04:50.884Z</time>
      </trkpt>
      <trkpt lat="39.51923" lon="3.29907">
        <ele>74.721918</ele>
        <time>2023-01-02T13:04:52.888Z</time>
      </trkpt>
      <trkpt lat="39.51926" lon="3.29923">
        <ele>74.29235</ele>
        <time>2023-01-02T13:04:54.887Z</time>
      </trkpt>
      <trkpt lat="39.51929" lon="3.29939">
        <ele>73.853368</ele>
        <time>2023-01-02T13:04:56.904Z</time>
      </trkpt>
      <trkpt lat="39.51933" lon="3.29955">
        <ele>73.397016</ele>
        <time>2023-01-02T13:04:58.888Z</time>
      </trkpt>
      <trkpt lat="39.51936" lon="3.29971">
        <ele>72.945762</ele>
        <time>2023-01-02T13:05:00.887Z</time>
      </trkpt>
      <trkpt lat="39.5194" lon="3.29988">
        <ele>72.492954</ele>
        <time>2023-01-02T13:05:02.906Z</time>
      </trkpt>
      <trkpt lat="39.51944" lon="3.30004">
        <ele>72.053096</ele>
        <time>2023-01-02T13:05:04.890Z</time>
      </trkpt>
      <trkpt lat="39.51948" lon="3.3002">
        <ele>71.602387</ele>
        <time>2023-01-02T13:05:06.895Z</time>
      </trkpt>
      <trkpt lat="39.51953" lon="3.30034">
        <ele>71.17625</ele>
        <time>2023-01-02T13:05:08.888Z</time>
      </trkpt>
      <trkpt lat="39.5196" lon="3.30047">
        <ele>70.751222</ele>
        <time>2023-01-02T13:05:10.902Z</time>
      </trkpt>
      <trkpt lat="39.51969" lon="3.30059">
        <ele>70.325333</ele>
        <time>2023-01-02T13:05:12.894Z</time>
      </trkpt>
      <trkpt lat="39.51978" lon="3.30072">
        <ele>69.854462</ele>
        <time>2023-01-02T13:05:14.877Z</time>
      </trkpt>
      <trkpt lat="39.51986" lon="3.30087">
        <ele>69.369902</ele>
        <time>2023-01-02T13:05:16.884Z</time>
      </trkpt>
      <trkpt lat="39.51991" lon="3.30104">
        <ele>68.878894</ele>
        <time>2023-01-02T13:05:18.898Z</time>
      </trkpt>
      <trkpt lat="39.51993" lon="3.30121">
        <ele>68.270365</ele>
        <time>2023-01-02T13:05:20.898Z</time>
      </trkpt>
      <trkpt lat="39.51994" lon="3.30133">
        <ele>67.771499</ele>
        <time>2023-01-02T13:05:22.902Z</time>
      </trkpt>
      <trkpt lat="39.51993" lon="3.30147">
        <ele>67.232846</ele>
        <time>2023-01-02T13:05:25.893Z</time>
      </trkpt>
      <trkpt lat="39.51997" lon="3.3016">
        <ele>66.68155</ele>
        <time>2023-01-02T13:05:30.898Z</time>
      </trkpt>
      <trkpt lat="39.51993" lon="3.30173">
        <ele>66.091997</ele>
        <time>2023-01-02T13:05:35.874Z</time>
      </trkpt>
      <trkpt lat="39.51991" lon="3.30187">
        <ele>65.508729</ele>
        <time>2023-01-02T13:05:38.890Z</time>
      </trkpt>
      <trkpt lat="39.5199" lon="3.30204">
        <ele>64.848772</ele>
        <time>2023-01-02T13:05:41.903Z</time>
      </trkpt>
      <trkpt lat="39.5199" lon="3.30218">
        <ele>64.289173</ele>
        <time>2023-01-02T13:05:44.894Z</time>
      </trkpt>
      <trkpt lat="39.51988" lon="3.30232">
        <ele>63.703518</ele>
        <time>2023-01-02T13:05:47.908Z</time>
      </trkpt>
      <trkpt lat="39.51988" lon="3.30244">
        <ele>63.231379</ele>
        <time>2023-01-02T13:05:49.899Z</time>
      </trkpt>
      <trkpt lat="39.51987" lon="3.30256">
        <ele>62.741641</ele>
        <time>2023-01-02T13:05:51.917Z</time>
      </trkpt>
      <trkpt lat="39.51985" lon="3.30268">
        <ele>62.238627</ele>
        <time>2023-01-02T13:05:53.904Z</time>
      </trkpt>
      <trkpt lat="39.51984" lon="3.30281">
        <ele>61.742045</ele>
        <time>2023-01-02T13:05:55.909Z</time>
      </trkpt>
      <trkpt lat="39.51983" lon="3.30296">
        <ele>61.117242</ele>
        <time>2023-01-02T13:05:58.888Z</time>
      </trkpt>
      <trkpt lat="39.51981" lon="3.30309">
        <ele>60.569365</ele>
        <time>2023-01-02T13:06:04.892Z</time>
      </trkpt>
      <trkpt lat="39.51979" lon="3.30321">
        <ele>60.082897</ele>
        <time>2023-01-02T13:06:09.888Z</time>
      </trkpt>
      <trkpt lat="39.51978" lon="3.30333">
        <ele>59.600494</ele>
        <time>2023-01-02T13:06:12.914Z</time>
      </trkpt>
      <trkpt lat="39.51975" lon="3.30347">
        <ele>59.367724</ele>
        <time>2023-01-02T13:06:15.905Z</time>
      </trkpt>
      <trkpt lat="39.51972" lon="3.30359">
        <ele>59.392328</ele>
        <time>2023-01-02T13:06:18.890Z</time>
      </trkpt>
      <trkpt lat="39.51967" lon="3.30373">
        <ele>59.418899</ele>
        <time>2023-01-02T13:06:21.902Z</time>
      </trkpt>
      <trkpt lat="39.51967" lon="3.30386">
        <ele>59.443522</ele>
        <time>2023-01-02T13:06:24.891Z</time>
      </trkpt>
      <trkpt lat="39.51973" lon="3.30395">
        <ele>59.466299</ele>
        <time>2023-01-02T13:06:26.890Z</time>
      </trkpt>
      <trkpt lat="39.51983" lon="3.30399">
        <ele>59.492056</ele>
        <time>2023-01-02T13:06:28.901Z</time>
      </trkpt>
      <trkpt lat="39.51995" lon="3.30396">
        <ele>59.519897</ele>
        <time>2023-01-02T13:06:30.892Z</time>
      </trkpt>
      <trkpt lat="39.52005" lon="3.30389">
        <ele>59.548562</ele>
        <time>2023-01-02T13:06:32.896Z</time>
      </trkpt>
      <trkpt lat="39.52011" lon="3.30378">
        <ele>59.573915</ele>
        <time>2023-01-02T13:06:34.889Z</time>
      </trkpt>
      <trkpt lat="39.52015" lon="3.30368">
        <ele>59.595837</ele>
        <time>2023-01-02T13:06:36.897Z</time>
      </trkpt>
      <trkpt lat="39.5202" lon="3.30352">
        <ele>59.626266</ele>
        <time>2023-01-02T13:06:39.897Z</time>
      </trkpt>
      <trkpt lat="39.52026" lon="3.3034">
        <ele>59.653672</ele>
        <time>2023-01-02T13:06:42.885Z</time>
      </trkpt>
      <trkpt lat="39.52037" lon="3.30339">
        <ele>59.680202</ele>
        <time>2023-01-02T13:06:46.897Z</time>
      </trkpt>
      <trkpt lat="39.52046" lon="3.30343">
        <ele>59.703843</ele>
        <time>2023-01-02T13:06:50.876Z</time>
      </trkpt>
      <trkpt lat="39.52052" lon="3.30354">
        <ele>59.729886</ele>
        <time>2023-01-02T13:06:55.891Z</time>
      </trkpt>
      <trkpt lat="39.52052" lon="3.30369">
        <ele>59.756579</ele>
        <time>2023-01-02T13:07:00.880Z</time>
      </trkpt>
      <trkpt lat="39.52049" lon="3.3038">
        <ele>59.779464</ele>
        <time>2023-01-02T13:07:04.908Z</time>
      </trkpt>
      <trkpt lat="39.52046" lon="3.30392">
        <ele>59.966631</ele>
        <time>2023-01-02T13:07:08.886Z</time>
      </trkpt>
      <trkpt lat="39.52042" lon="3.30406">
        <ele>60.330587</ele>
        <time>2023-01-02T13:07:12.895Z</time>
      </trkpt>
      <trkpt lat="39.52038" lon="3.3042">
        <ele>60.717279</ele>
        <time>2023-01-02T13:07:16.894Z</time>
      </trkpt>
      <trkpt lat="39.52036" lon="3.30432">
        <ele>61.020994</ele>
        <time>2023-01-02T13:07:19.907Z</time>
      </trkpt>
      <trkpt lat="39.52032" lon="3.30443">
        <ele>61.340764</ele>
        <time>2023-01-02T13:07:22.888Z</time>
      </trkpt>
      <trkpt lat="39.52029" lon="3.30456">
        <ele>61.670292</ele>
        <time>2023-01-02T13:07:25.881Z</time>
      </trkpt>
      <trkpt lat="39.52026" lon="3.30468">
        <ele>62.006523</ele>
        <time>2023-01-02T13:07:28.889Z</time>
      </trkpt>
      <trkpt lat="39.52023" lon="3.3048">
        <ele>62.334579</ele>
        <time>2023-01-02T13:07:31.894Z</time>
      </trkpt>
      <trkpt lat="39.52019" lon="3.30493">
        <ele>62.685171</ele>
        <time>2023-01-02T13:07:34.887Z</time>
      </trkpt>
      <trkpt lat="39.52016" lon="3.30506">
        <ele>63.016538</ele>
        <time>2023-01-02T13:07:37.896Z</time>
      </trkpt>
      <trkpt lat="39.52013" lon="3.30517">
        <ele>63.326095</ele>
        <time>2023-01-02T13:07:40.888Z</time>
      </trkpt>
      <trkpt lat="39.52011" lon="3.30529">
        <ele>63.634701</ele>
        <time>2023-01-02T13:07:43.880Z</time>
      </trkpt>
      <trkpt lat="39.5201" lon="3.30545">
        <ele>64.024145</ele>
        <time>2023-01-02T13:07:47.894Z</time>
      </trkpt>
      <trkpt lat="39.52008" lon="3.30557">
        <ele>64.347151</ele>
        <time>2023-01-02T13:07:50.889Z</time>
      </trkpt>
      <trkpt lat="39.52007" lon="3.30569">
        <ele>64.660802</ele>
        <time>2023-01-02T13:07:53.900Z</time>
      </trkpt>
      <trkpt lat="39.52005" lon="3.30582">
        <ele>64.988047</ele>
        <time>2023-01-02T13:07:56.896Z</time>
      </trkpt>
      <trkpt lat="39.52002" lon="3.30595">
        <ele>65.325915</ele>
        <time>2023-01-02T13:07:59.890Z</time>
      </trkpt>
      <trkpt lat="39.52001" lon="3.30608">
        <ele>65.66714</ele>
        <time>2023-01-02T13:08:02.887Z</time>
      </trkpt>
      <trkpt lat="39.51999" lon="3.30623">
        <ele>65.84558</ele>
        <time>2023-01-02T13:08:05.892Z</time>
      </trkpt>
      <trkpt lat="39.51998" lon="3.30637">
        <ele>66.001304</ele>
        <time>2023-01-02T13:08:08.907Z</time>
      </trkpt>
      <trkpt lat="39.51996" lon="3.3065">
        <ele>66.136521</ele>
        <time>2023-01-02T13:08:11.894Z</time>
      </trkpt>
      <trkpt lat="39.51994" lon="3.30662">
        <ele>66.264669</ele>
        <time>2023-01-02T13:08:14.891Z</time>
      </trkpt>
      <trkpt lat="39.51993" lon="3.30674">
        <ele>66.39427</ele>
        <time>2023-01-02T13:08:17.893Z</time>
      </trkpt>
      <trkpt lat="39.51991" lon="3.3069">
        <ele>66.556248</ele>
        <time>2023-01-02T13:08:21.899Z</time>
      </trkpt>
      <trkpt lat="39.5199" lon="3.30705">
        <ele>66.716821</ele>
        <time>2023-01-02T13:08:25.902Z</time>
      </trkpt>
      <trkpt lat="39.51988" lon="3.30716">
        <ele>66.839455</ele>
        <time>2023-01-02T13:08:28.896Z</time>
      </trkpt>
      <trkpt lat="39.51986" lon="3.30731">
        <ele>66.992263</ele>
        <time>2023-01-02T13:08:32.890Z</time>
      </trkpt>
      <trkpt lat="39.51985" lon="3.30744">
        <ele>67.135333</ele>
        <time>2023-01-02T13:08:36.900Z</time>
      </trkpt>
      <trkpt lat="39.51983" lon="3.30758">
        <ele>67.286068</ele>
        <time>2023-01-02T13:08:40.894Z</time>
      </trkpt>
      <trkpt lat="39.51981" lon="3.30771">
        <ele>67.424089</ele>
        <time>2023-01-02T13:08:43.896Z</time>
      </trkpt>
      <trkpt lat="39.5198" lon="3.30785">
        <ele>67.571571</ele>
        <time>2023-01-02T13:08:46.909Z</time>
      </trkpt>
      <trkpt lat="39.51979" lon="3.30799">
        <ele>67.71592</ele>
        <time>2023-01-02T13:08:49.893Z</time>
      </trkpt>
      <trkpt lat="39.51977" lon="3.30814">
        <ele>67.877878</ele>
        <time>2023-01-02T13:08:52.899Z</time>
      </trkpt>
      <trkpt lat="39.51975" lon="3.3083">
        <ele>68.048854</ele>
        <time>2023-01-02T13:08:55.903Z</time>
      </trkpt>
      <trkpt lat="39.51973" lon="3.30842">
        <ele>68.077966</ele>
        <time>2023-01-02T13:08:57.900Z</time>
      </trkpt>
      <trkpt lat="39.5197" lon="3.30855">
        <ele>67.627724</ele>
        <time>2023-01-02T13:08:59.900Z</time>
      </trkpt>
      <trkpt lat="39.51967" lon="3.30867">
        <ele>67.188554</ele>
        <time>2023-01-02T13:09:01.898Z</time>
      </trkpt>
      <trkpt lat="39.51964" lon="3.3088">
        <ele>66.73343</ele>
        <time>2023-01-02T13:09:03.896Z</time>
      </trkpt>
      <trkpt lat="39.51963" lon="3.30894">
        <ele>66.255249</ele>
        <time>2023-01-02T13:09:05.909Z</time>
      </trkpt>
      <trkpt lat="39.51964" lon="3.30911">
        <ele>65.652378</ele>
        <time>2023-01-02T13:09:08.895Z</time>
      </trkpt>
      <trkpt lat="39.51968" lon="3.30923">
        <ele>65.220754</ele>
        <time>2023-01-02T13:09:10.896Z</time>
      </trkpt>
      <trkpt lat="39.51974" lon="3.30933">
        <ele>64.783627</ele>
        <time>2023-01-02T13:09:12.892Z</time>
      </trkpt>
      <trkpt lat="39.51985" lon="3.30943">
        <ele>64.197691</ele>
        <time>2023-01-02T13:09:15.901Z</time>
      </trkpt>
      <trkpt lat="39.51993" lon="3.30947">
        <ele>63.791131</ele>
        <time>2023-01-02T13:09:17.900Z</time>
      </trkpt>
      <trkpt lat="39.52003" lon="3.30951">
        <ele>63.333705</ele>
        <time>2023-01-02T13:09:19.894Z</time>
      </trkpt>
      <trkpt lat="39.52014" lon="3.30952">
        <ele>62.857805</ele>
        <time>2023-01-02T13:09:21.901Z</time>
      </trkpt>
      <trkpt lat="39.52024" lon="3.30951">
        <ele>62.385159</ele>
        <time>2023-01-02T13:09:23.893Z</time>
      </trkpt>
      <trkpt lat="39.52035" lon="3.3095">
        <ele>61.913297</ele>
        <time>2023-01-02T13:09:25.894Z</time>
      </trkpt>
      <trkpt lat="39.52046" lon="3.30948">
        <ele>61.403165</ele>
        <time>2023-01-02T13:09:27.908Z</time>
      </trkpt>
      <trkpt lat="39.52057" lon="3.30949">
        <ele>60.909911</ele>
        <time>2023-01-02T13:09:29.907Z</time>
      </trkpt>
      <trkpt lat="39.52068" lon="3.30948">
        <ele>60.438946</ele>
        <time>2023-01-02T13:09:31.914Z</time>
      </trkpt>
      <trkpt lat="39.52078" lon="3.30947">
        <ele>60.195952</ele>
        <time>2023-01-02T13:09:33.900Z</time>
      </trkpt>
      <trkpt lat="39.5209" lon="3.30945">
        <ele>60.277887</ele>
        <time>2023-01-02T13:09:35.904Z</time>
      </trkpt>
      <trkpt lat="39.52101" lon="3.30945">
        <ele>60.361254</ele>
        <time>2023-01-02T13:09:37.912Z</time>
      </trkpt>
      <trkpt lat="39.52112" lon="3.30946">
        <ele>60.439287</ele>
        <time>2023-01-02T13:09:40.903Z</time>
      </trkpt>
      <trkpt lat="39.52116" lon="3.30947">
        <ele>60.468664</ele>
        <time>2023-01-02T13:10:24.226Z</time>
      </trkpt>
      <trkpt lat="39.52133" lon="3.30945">
        <ele>60.588661</ele>
        <time>2023-01-02T13:11:06.909Z</time>
      </trkpt>
      <trkpt lat="39.52143" lon="3.30945">
        <ele>60.662661</ele>
        <time>2023-01-02T13:11:08.897Z</time>
      </trkpt>
      <trkpt lat="39.52154" lon="3.30948">
        <ele>60.74564</ele>
        <time>2023-01-02T13:11:10.892Z</time>
      </trkpt>
      <trkpt lat="39.52165" lon="3.30957">
        <ele>60.83758</ele>
        <time>2023-01-02T13:11:12.895Z</time>
      </trkpt>
      <trkpt lat="39.52173" lon="3.30969">
        <ele>60.924291</ele>
        <time>2023-01-02T13:11:14.894Z</time>
      </trkpt>
      <trkpt lat="39.5218" lon="3.30981">
        <ele>61.007255</ele>
        <time>2023-01-02T13:11:17.909Z</time>
      </trkpt>
      <trkpt lat="39.52185" lon="3.30991">
        <ele>61.074053</ele>
        <time>2023-01-02T13:11:22.908Z</time>
      </trkpt>
      <trkpt lat="39.52189" lon="3.31003">
        <ele>61.145569</ele>
        <time>2023-01-02T13:11:27.891Z</time>
      </trkpt>
      <trkpt lat="39.52194" lon="3.31015">
        <ele>61.220323</ele>
        <time>2023-01-02T13:11:32.883Z</time>
      </trkpt>
      <trkpt lat="39.52198" lon="3.31026">
        <ele>61.290152</ele>
        <time>2023-01-02T13:11:37.909Z</time>
      </trkpt>
      <trkpt lat="39.52203" lon="3.31038">
        <ele>61.361788</ele>
        <time>2023-01-02T13:11:46.891Z</time>
      </trkpt>
      <trkpt lat="39.52206" lon="3.31045">
        <ele>61.409521</ele>
        <time>2023-01-02T13:11:55.378Z</time>
      </trkpt>
      <trkpt lat="39.52331" lon="3.31305">
        <ele>73.096783</ele>
        <time>2023-01-02T13:14:48.895Z</time>
      </trkpt>
      <trkpt lat="39.52336" lon="3.31315">
        <ele>73.138996</ele>
        <time>2023-01-02T13:14:52.902Z</time>
      </trkpt>
      <trkpt lat="39.5234" lon="3.31328">
        <ele>73.189817</ele>
        <time>2023-01-02T13:14:57.896Z</time>
      </trkpt>
      <trkpt lat="39.52345" lon="3.3134">
        <ele>73.238756</ele>
        <time>2023-01-02T13:15:02.891Z</time>
      </trkpt>
      <trkpt lat="39.52351" lon="3.31351">
        <ele>73.288859</ele>
        <time>2023-01-02T13:15:07.893Z</time>
      </trkpt>
      <trkpt lat="39.52356" lon="3.31363">
        <ele>73.33727</ele>
        <time>2023-01-02T13:15:12.910Z</time>
      </trkpt>
      <trkpt lat="39.52361" lon="3.31373">
        <ele>73.380549</ele>
        <time>2023-01-02T13:15:16.904Z</time>
      </trkpt>
      <trkpt lat="39.52366" lon="3.31385">
        <ele>73.430889</ele>
        <time>2023-01-02T13:15:20.884Z</time>
      </trkpt>
      <trkpt lat="39.52371" lon="3.31395">
        <ele>73.474224</ele>
        <time>2023-01-02T13:15:23.915Z</time>
      </trkpt>
      <trkpt lat="39.52377" lon="3.31408">
        <ele>73.529385</ele>
        <time>2023-01-02T13:15:27.897Z</time>
      </trkpt>
      <trkpt lat="39.52381" lon="3.31418">
        <ele>73.572278</ele>
        <time>2023-01-02T13:15:30.899Z</time>
      </trkpt>
      <trkpt lat="39.52386" lon="3.31431">
        <ele>73.622835</ele>
        <time>2023-01-02T13:15:34.898Z</time>
      </trkpt>
      <trkpt lat="39.52391" lon="3.31441">
        <ele>73.667089</ele>
        <time>2023-01-02T13:15:37.899Z</time>
      </trkpt>
      <trkpt lat="39.52397" lon="3.31454">
        <ele>73.608083</ele>
        <time>2023-01-02T13:15:41.896Z</time>
      </trkpt>
      <trkpt lat="39.52403" lon="3.31466">
        <ele>73.212515</ele>
        <time>2023-01-02T13:15:45.906Z</time>
      </trkpt>
      <trkpt lat="39.52408" lon="3.3148">
        <ele>72.79106</ele>
        <time>2023-01-02T13:15:49.884Z</time>
      </trkpt>
      <trkpt lat="39.52412" lon="3.3149">
        <ele>72.449566</ele>
        <time>2023-01-02T13:15:52.911Z</time>
      </trkpt>
      <trkpt lat="39.52418" lon="3.31503">
        <ele>72.031974</ele>
        <time>2023-01-02T13:15:55.870Z</time>
      </trkpt>
      <trkpt lat="39.52425" lon="3.31516">
        <ele>71.574903</ele>
        <time>2023-01-02T13:15:58.904Z</time>
      </trkpt>
      <trkpt lat="39.52432" lon="3.31526">
        <ele>71.216938</ele>
        <time>2023-01-02T13:16:00.911Z</time>
      </trkpt>
      <trkpt lat="39.5244" lon="3.31534">
        <ele>70.83614</ele>
        <time>2023-01-02T13:16:02.894Z</time>
      </trkpt>
      <trkpt lat="39.52449" lon="3.31543">
        <ele>70.429119</ele>
        <time>2023-01-02T13:16:04.905Z</time>
      </trkpt>
      <trkpt lat="39.52459" lon="3.31552">
        <ele>69.994529</ele>
        <time>2023-01-02T13:16:06.890Z</time>
      </trkpt>
      <trkpt lat="39.5247" lon="3.31559">
        <ele>69.532409</ele>
        <time>2023-01-02T13:16:08.892Z</time>
      </trkpt>
      <trkpt lat="39.52483" lon="3.31565">
        <ele>69.052455</ele>
        <time>2023-01-02T13:16:10.897Z</time>
      </trkpt>
      <trkpt lat="39.52495" lon="3.31569">
        <ele>68.577135</ele>
        <time>2023-01-02T13:16:12.893Z</time>
      </trkpt>
      <trkpt lat="39.52507" lon="3.31573">
        <ele>68.120213</ele>
        <time>2023-01-02T13:16:14.897Z</time>
      </trkpt>
      <trkpt lat="39.5252" lon="3.31576">
        <ele>67.654892</ele>
        <time>2023-01-02T13:16:16.909Z</time>
      </trkpt>
      <trkpt lat="39.52532" lon="3.31581">
        <ele>67.196599</ele>
        <time>2023-01-02T13:16:18.884Z</time>
      </trkpt>
      <trkpt lat="39.52544" lon="3.31585">
        <ele>66.590167</ele>
        <time>2023-01-02T13:16:20.890Z</time>
      </trkpt>
      <trkpt lat="39.52556" lon="3.31589">
        <ele>65.985728</ele>
        <time>2023-01-02T13:16:22.887Z</time>
      </trkpt>
      <trkpt lat="39.52568" lon="3.31592">
        <ele>65.383374</ele>
        <time>2023-01-02T13:16:24.887Z</time>
      </trkpt>
      <trkpt lat="39.5258" lon="3.31594">
        <ele>64.781043</ele>
        <time>2023-01-02T13:16:26.881Z</time>
      </trkpt>
      <trkpt lat="39.52591" lon="3.31598">
        <ele>64.194134</ele>
        <time>2023-01-02T13:16:28.886Z</time>
      </trkpt>
      <trkpt lat="39.52602" lon="3.31603">
        <ele>63.611638</ele>
        <time>2023-01-02T13:16:30.908Z</time>
      </trkpt>
      <trkpt lat="39.52614" lon="3.31607">
        <ele>62.985108</ele>
        <time>2023-01-02T13:16:32.903Z</time>
      </trkpt>
      <trkpt lat="39.52627" lon="3.3161">
        <ele>62.318961</ele>
        <time>2023-01-02T13:16:34.894Z</time>
      </trkpt>
      <trkpt lat="39.52641" lon="3.31614">
        <ele>61.622721</ele>
        <time>2023-01-02T13:16:36.896Z</time>
      </trkpt>
      <trkpt lat="39.52654" lon="3.31617">
        <ele>60.97763</ele>
        <time>2023-01-02T13:16:38.905Z</time>
      </trkpt>
      <trkpt lat="39.52665" lon="3.31622">
        <ele>60.395135</ele>
        <time>2023-01-02T13:16:40.885Z</time>
      </trkpt>
      <trkpt lat="39.52676" lon="3.31628">
        <ele>59.786277</ele>
        <time>2023-01-02T13:16:42.893Z</time>
      </trkpt>
      <trkpt lat="39.52686" lon="3.31636">
        <ele>59.208885</ele>
        <time>2023-01-02T13:16:44.882Z</time>
      </trkpt>
      <trkpt lat="39.52695" lon="3.31649">
        <ele>58.546459</ele>
        <time>2023-01-02T13:16:46.893Z</time>
      </trkpt>
      <trkpt lat="39.52703" lon="3.31664">
        <ele>58.288133</ele>
        <time>2023-01-02T13:16:48.903Z</time>
      </trkpt>
      <trkpt lat="39.52712" lon="3.31681">
        <ele>58.52658</ele>
        <time>2023-01-02T13:16:50.899Z</time>
      </trkpt>
      <trkpt lat="39.5272" lon="3.31699">
        <ele>58.77802</ele>
        <time>2023-01-02T13:16:52.885Z</time>
      </trkpt>
      <trkpt lat="39.52728" lon="3.31717">
        <ele>59.022107</ele>
        <time>2023-01-02T13:16:54.894Z</time>
      </trkpt>
      <trkpt lat="39.52736" lon="3.31733">
        <ele>59.251706</ele>
        <time>2023-01-02T13:16:56.890Z</time>
      </trkpt>
      <trkpt lat="39.52744" lon="3.31749">
        <ele>59.467031</ele>
        <time>2023-01-02T13:16:58.908Z</time>
      </trkpt>
      <trkpt lat="39.52749" lon="3.31763">
        <ele>59.653632</ele>
        <time>2023-01-02T13:17:00.883Z</time>
      </trkpt>
      <trkpt lat="39.52755" lon="3.31775">
        <ele>59.818016</ele>
        <time>2023-01-02T13:17:02.892Z</time>
      </trkpt>
      <trkpt lat="39.5276" lon="3.31789">
        <ele>60.006049</ele>
        <time>2023-01-02T13:17:05.906Z</time>
      </trkpt>
      <trkpt lat="39.52764" lon="3.318">
        <ele>60.157862</ele>
        <time>2023-01-02T13:17:09.904Z</time>
      </trkpt>
      <trkpt lat="39.52771" lon="3.31811">
        <ele>60.315326</ele>
        <time>2023-01-02T13:17:13.908Z</time>
      </trkpt>
      <trkpt lat="39.52776" lon="3.31821">
        <ele>60.453513</ele>
        <time>2023-01-02T13:17:17.893Z</time>
      </trkpt>
      <trkpt lat="39.5278" lon="3.31831">
        <ele>60.593139</ele>
        <time>2023-01-02T13:17:21.893Z</time>
      </trkpt>
      <trkpt lat="39.52785" lon="3.31841">
        <ele>60.737678</ele>
        <time>2023-01-02T13:17:25.882Z</time>
      </trkpt>
      <trkpt lat="39.52791" lon="3.31854">
        <ele>60.912086</ele>
        <time>2023-01-02T13:17:30.885Z</time>
      </trkpt>
      <trkpt lat="39.52796" lon="3.31866">
        <ele>61.486707</ele>
        <time>2023-01-02T13:17:35.905Z</time>
      </trkpt>
      <trkpt lat="39.52802" lon="3.31878">
        <ele>62.148751</ele>
        <time>2023-01-02T13:17:40.877Z</time>
      </trkpt>
      <trkpt lat="39.52807" lon="3.31888">
        <ele>62.683779</ele>
        <time>2023-01-02T13:17:44.901Z</time>
      </trkpt>
      <trkpt lat="39.52813" lon="3.31899">
        <ele>63.307605</ele>
        <time>2023-01-02T13:17:49.897Z</time>
      </trkpt>
      <trkpt lat="39.52818" lon="3.31911">
        <ele>63.924163</ele>
        <time>2023-01-02T13:17:54.895Z</time>
      </trkpt>
      <trkpt lat="39.52824" lon="3.31922">
        <ele>64.548859</ele>
        <time>2023-01-02T13:17:59.893Z</time>
      </trkpt>
      <trkpt lat="39.52829" lon="3.31934">
        <ele>65.150571</ele>
        <time>2023-01-02T13:18:04.879Z</time>
      </trkpt>
      <trkpt lat="39.52834" lon="3.31946">
        <ele>65.793274</ele>
        <time>2023-01-02T13:18:09.903Z</time>
      </trkpt>
      <trkpt lat="39.52838" lon="3.31959">
        <ele>66.425647</ele>
        <time>2023-01-02T13:18:14.888Z</time>
      </trkpt>
      <trkpt lat="39.52843" lon="3.31971">
        <ele>67.059123</ele>
        <time>2023-01-02T13:18:19.888Z</time>
      </trkpt>
      <trkpt lat="39.52849" lon="3.3198">
        <ele>67.602226</ele>
        <time>2023-01-02T13:18:24.887Z</time>
      </trkpt>
      <trkpt lat="39.52856" lon="3.3199">
        <ele>68.252281</ele>
        <time>2023-01-02T13:18:30.893Z</time>
      </trkpt>
      <trkpt lat="39.52867" lon="3.3199">
        <ele>68.896728</ele>
        <time>2023-01-02T13:18:35.892Z</time>
      </trkpt>
      <trkpt lat="39.52877" lon="3.31983">
        <ele>69.578601</ele>
        <time>2023-01-02T13:18:39.901Z</time>
      </trkpt>
      <trkpt lat="39.52887" lon="3.31975">
        <ele>70.257073</ele>
        <time>2023-01-02T13:18:43.893Z</time>
      </trkpt>
      <trkpt lat="39.52897" lon="3.31967">
        <ele>70.95343</ele>
        <time>2023-01-02T13:18:47.886Z</time>
      </trkpt>
      <trkpt lat="39.52906" lon="3.31961">
        <ele>71.568156</ele>
        <time>2023-01-02T13:18:50.889Z</time>
      </trkpt>
      <trkpt lat="39.52915" lon="3.31954">
        <ele>71.931999</ele>
        <time>2023-01-02T13:18:53.895Z</time>
      </trkpt>
      <trkpt lat="39.52924" lon="3.31947">
        <ele>72.24035</ele>
        <time>2023-01-02T13:18:56.892Z</time>
      </trkpt>
      <trkpt lat="39.52932" lon="3.31941">
        <ele>72.515168</ele>
        <time>2023-01-02T13:18:59.894Z</time>
      </trkpt>
      <trkpt lat="39.52939" lon="3.31935">
        <ele>72.78591</ele>
        <time>2023-01-02T13:19:02.891Z</time>
      </trkpt>
      <trkpt lat="39.52948" lon="3.31928">
        <ele>73.097089</ele>
        <time>2023-01-02T13:19:06.888Z</time>
      </trkpt>
      <trkpt lat="39.52958" lon="3.31921">
        <ele>73.417167</ele>
        <time>2023-01-02T13:19:10.882Z</time>
      </trkpt>
      <trkpt lat="39.52967" lon="3.31914">
        <ele>73.742986</ele>
        <time>2023-01-02T13:19:14.893Z</time>
      </trkpt>
      <trkpt lat="39.52975" lon="3.31908">
        <ele>74.013728</ele>
        <time>2023-01-02T13:19:17.876Z</time>
      </trkpt>
      <trkpt lat="39.52985" lon="3.319">
        <ele>74.360745</ele>
        <time>2023-01-02T13:19:21.906Z</time>
      </trkpt>
      <trkpt lat="39.52995" lon="3.31892">
        <ele>74.701365</ele>
        <time>2023-01-02T13:19:25.905Z</time>
      </trkpt>
      <trkpt lat="39.53002" lon="3.31886">
        <ele>74.975845</ele>
        <time>2023-01-02T13:19:28.892Z</time>
      </trkpt>
      <trkpt lat="39.53011" lon="3.31879">
        <ele>75.259542</ele>
        <time>2023-01-02T13:19:31.889Z</time>
      </trkpt>
      <trkpt lat="39.53019" lon="3.31873">
        <ele>75.534136</ele>
        <time>2023-01-02T13:19:34.912Z</time>
      </trkpt>
      <trkpt lat="39.53027" lon="3.31867">
        <ele>75.812676</ele>
        <time>2023-01-02T13:19:37.898Z</time>
      </trkpt>
      <trkpt lat="39.53035" lon="3.31861">
        <ele>76.091001</ele>
        <time>2023-01-02T13:19:40.901Z</time>
      </trkpt>
      <trkpt lat="39.53043" lon="3.31854">
        <ele>76.380441</ele>
        <time>2023-01-02T13:19:43.895Z</time>
      </trkpt>
      <trkpt lat="39.53052" lon="3.31848">
        <ele>76.682655</ele>
        <time>2023-01-02T13:19:46.891Z</time>
      </trkpt>
      <trkpt lat="39.53061" lon="3.31842">
        <ele>76.983383</ele>
        <time>2023-01-02T13:19:49.902Z</time>
      </trkpt>
      <trkpt lat="39.53069" lon="3.31836">
        <ele>77.212563</ele>
        <time>2023-01-02T13:19:52.895Z</time>
      </trkpt>
      <trkpt lat="39.53077" lon="3.3183">
        <ele>77.432581</ele>
        <time>2023-01-02T13:19:55.897Z</time>
      </trkpt>
      <trkpt lat="39.53085" lon="3.31823">
        <ele>77.647634</ele>
        <time>2023-01-02T13:19:58.897Z</time>
      </trkpt>
      <trkpt lat="39.53093" lon="3.31817">
        <ele>77.864712</ele>
        <time>2023-01-02T13:20:01.893Z</time>
      </trkpt>
      <trkpt lat="39.53101" lon="3.31811">
        <ele>78.0916</ele>
        <time>2023-01-02T13:20:04.901Z</time>
      </trkpt>
      <trkpt lat="39.5311" lon="3.31804">
        <ele>78.321488</ele>
        <time>2023-01-02T13:20:07.896Z</time>
      </trkpt>
      <trkpt lat="39.5312" lon="3.31797">
        <ele>78.600904</ele>
        <time>2023-01-02T13:20:11.900Z</time>
      </trkpt>
      <trkpt lat="39.53128" lon="3.31791">
        <ele>78.818356</ele>
        <time>2023-01-02T13:20:14.895Z</time>
      </trkpt>
      <trkpt lat="39.5314" lon="3.31788">
        <ele>79.092911</ele>
        <time>2023-01-02T13:20:18.900Z</time>
      </trkpt>
      <trkpt lat="39.53151" lon="3.31783">
        <ele>79.362881</ele>
        <time>2023-01-02T13:20:22.910Z</time>
      </trkpt>
      <trkpt lat="39.53162" lon="3.31786">
        <ele>79.624265</ele>
        <time>2023-01-02T13:20:26.901Z</time>
      </trkpt>
      <trkpt lat="39.53171" lon="3.31794">
        <ele>79.893533</ele>
        <time>2023-01-02T13:20:30.891Z</time>
      </trkpt>
      <trkpt lat="39.53176" lon="3.31805">
        <ele>80.119852</ele>
        <time>2023-01-02T13:20:33.895Z</time>
      </trkpt>
      <trkpt lat="39.5318" lon="3.31817">
        <ele>80.353967</ele>
        <time>2023-01-02T13:20:36.891Z</time>
      </trkpt>
      <trkpt lat="39.53184" lon="3.31829">
        <ele>80.589244</ele>
        <time>2023-01-02T13:20:39.901Z</time>
      </trkpt>
      <trkpt lat="39.53188" lon="3.31841">
        <ele>80.834671</ele>
        <time>2023-01-02T13:20:42.911Z</time>
      </trkpt>
      <trkpt lat="39.53192" lon="3.31854">
        <ele>81.078125</ele>
        <time>2023-01-02T13:20:45.899Z</time>
      </trkpt>
      <trkpt lat="39.53196" lon="3.31866">
        <ele>81.261598</ele>
        <time>2023-01-02T13:20:48.898Z</time>
      </trkpt>
      <trkpt lat="39.532" lon="3.31878">
        <ele>81.343496</ele>
        <time>2023-01-02T13:20:51.903Z</time>
      </trkpt>
      <trkpt lat="39.53204" lon="3.31891">
        <ele>81.425042</ele>
        <time>2023-01-02T13:20:54.909Z</time>
      </trkpt>
      <trkpt lat="39.53208" lon="3.31903">
        <ele>81.506098</ele>
        <time>2023-01-02T13:20:57.890Z</time>
      </trkpt>
      <trkpt lat="39.53211" lon="3.31915">
        <ele>81.58422</ele>
        <time>2023-01-02T13:21:00.881Z</time>
      </trkpt>
      <trkpt lat="39.53215" lon="3.31927">
        <ele>81.666358</ele>
        <time>2023-01-02T13:21:03.892Z</time>
      </trkpt>
      <trkpt lat="39.53219" lon="3.31939">
        <ele>81.747612</ele>
        <time>2023-01-02T13:21:06.892Z</time>
      </trkpt>
      <trkpt lat="39.53222" lon="3.31951">
        <ele>81.827952</ele>
        <time>2023-01-02T13:21:09.907Z</time>
      </trkpt>
      <trkpt lat="39.53225" lon="3.31963">
        <ele>81.904053</ele>
        <time>2023-01-02T13:21:12.891Z</time>
      </trkpt>
      <trkpt lat="39.5323" lon="3.31977">
        <ele>81.996927</ele>
        <time>2023-01-02T13:21:16.892Z</time>
      </trkpt>
      <trkpt lat="39.53234" lon="3.31989">
        <ele>82.079565</ele>
        <time>2023-01-02T13:21:20.882Z</time>
      </trkpt>
      <trkpt lat="39.53238" lon="3.32001">
        <ele>82.156785</ele>
        <time>2023-01-02T13:21:25.905Z</time>
      </trkpt>
      <trkpt lat="39.53241" lon="3.32012">
        <ele>82.231975</ele>
        <time>2023-01-02T13:21:31.896Z</time>
      </trkpt>
      <trkpt lat="39.53246" lon="3.32023">
        <ele>82.309981</ele>
        <time>2023-01-02T13:21:38.900Z</time>
      </trkpt>
      <trkpt lat="39.5325" lon="3.3204">
        <ele>82.416976</ele>
        <time>2023-01-02T13:23:28.903Z</time>
      </trkpt>
      <trkpt lat="39.53254" lon="3.32051">
        <ele>82.495172</ele>
        <time>2023-01-02T13:23:32.892Z</time>
      </trkpt>
      <trkpt lat="39.53257" lon="3.32062">
        <ele>82.568616</ele>
        <time>2023-01-02T13:23:35.907Z</time>
      </trkpt>
      <trkpt lat="39.53261" lon="3.32074">
        <ele>82.644702</ele>
        <time>2023-01-02T13:23:38.889Z</time>
      </trkpt>
      <trkpt lat="39.53265" lon="3.32086">
        <ele>82.496436</ele>
        <time>2023-01-02T13:23:41.905Z</time>
      </trkpt>
      <trkpt lat="39.53269" lon="3.32101">
        <ele>82.195485</ele>
        <time>2023-01-02T13:23:44.894Z</time>
      </trkpt>
      <trkpt lat="39.53274" lon="3.32117">
        <ele>81.869217</ele>
        <time>2023-01-02T13:23:47.903Z</time>
      </trkpt>
      <trkpt lat="39.53277" lon="3.32128">
        <ele>81.649099</ele>
        <time>2023-01-02T13:23:49.885Z</time>
      </trkpt>
      <trkpt lat="39.53281" lon="3.32139">
        <ele>81.422869</ele>
        <time>2023-01-02T13:23:51.903Z</time>
      </trkpt>
      <trkpt lat="39.53284" lon="3.32151">
        <ele>81.191378</ele>
        <time>2023-01-02T13:23:53.898Z</time>
      </trkpt>
      <trkpt lat="39.53288" lon="3.32163">
        <ele>80.942382</ele>
        <time>2023-01-02T13:23:55.907Z</time>
      </trkpt>
      <trkpt lat="39.53292" lon="3.32176">
        <ele>80.685536</ele>
        <time>2023-01-02T13:23:57.904Z</time>
      </trkpt>
      <trkpt lat="39.53296" lon="3.3219">
        <ele>80.412985</ele>
        <time>2023-01-02T13:23:59.900Z</time>
      </trkpt>
      <trkpt lat="39.53301" lon="3.32203">
        <ele>80.134658</ele>
        <time>2023-01-02T13:24:01.911Z</time>
      </trkpt>
      <trkpt lat="39.53307" lon="3.32217">
        <ele>79.831611</ele>
        <time>2023-01-02T13:24:03.902Z</time>
      </trkpt>
      <trkpt lat="39.53312" lon="3.32232">
        <ele>79.535605</ele>
        <time>2023-01-02T13:24:05.904Z</time>
      </trkpt>
      <trkpt lat="39.53318" lon="3.32246">
        <ele>79.229285</ele>
        <time>2023-01-02T13:24:07.905Z</time>
      </trkpt>
      <trkpt lat="39.53325" lon="3.3226">
        <ele>78.924578</ele>
        <time>2023-01-02T13:24:09.904Z</time>
      </trkpt>
      <trkpt lat="39.53331" lon="3.32275">
        <ele>78.607325</ele>
        <time>2023-01-02T13:24:11.899Z</time>
      </trkpt>
      <trkpt lat="39.53338" lon="3.32289">
        <ele>78.304483</ele>
        <time>2023-01-02T13:24:13.897Z</time>
      </trkpt>
      <trkpt lat="39.53344" lon="3.32304">
        <ele>78.309815</ele>
        <time>2023-01-02T13:24:15.902Z</time>
      </trkpt>
      <trkpt lat="39.53351" lon="3.32318">
        <ele>78.315064</ele>
        <time>2023-01-02T13:24:17.903Z</time>
      </trkpt>
      <trkpt lat="39.53358" lon="3.32332">
        <ele>78.320342</ele>
        <time>2023-01-02T13:24:19.905Z</time>
      </trkpt>
      <trkpt lat="39.53364" lon="3.32346">
        <ele>78.325543</ele>
        <time>2023-01-02T13:24:21.905Z</time>
      </trkpt>
      <trkpt lat="39.5337" lon="3.32359">
        <ele>78.330489</ele>
        <time>2023-01-02T13:24:23.907Z</time>
      </trkpt>
      <trkpt lat="39.53376" lon="3.32372">
        <ele>78.335189</ele>
        <time>2023-01-02T13:24:25.911Z</time>
      </trkpt>
      <trkpt lat="39.53382" lon="3.32385">
        <ele>78.339875</ele>
        <time>2023-01-02T13:24:27.905Z</time>
      </trkpt>
      <trkpt lat="39.53388" lon="3.32397">
        <ele>78.344459</ele>
        <time>2023-01-02T13:24:29.890Z</time>
      </trkpt>
      <trkpt lat="39.53393" lon="3.32409">
        <ele>78.348908</ele>
        <time>2023-01-02T13:24:31.882Z</time>
      </trkpt>
      <trkpt lat="39.534" lon="3.3242">
        <ele>78.3535</ele>
        <time>2023-01-02T13:24:33.920Z</time>
      </trkpt>
      <trkpt lat="39.53405" lon="3.32432">
        <ele>78.357881</ele>
        <time>2023-01-02T13:24:35.907Z</time>
      </trkpt>
      <trkpt lat="39.5341" lon="3.32444">
        <ele>78.362117</ele>
        <time>2023-01-02T13:24:37.903Z</time>
      </trkpt>
      <trkpt lat="39.53416" lon="3.32455">
        <ele>78.366295</ele>
        <time>2023-01-02T13:24:39.892Z</time>
      </trkpt>
      <trkpt lat="39.53421" lon="3.32466">
        <ele>78.370387</ele>
        <time>2023-01-02T13:24:41.906Z</time>
      </trkpt>
      <trkpt lat="39.53426" lon="3.32476">
        <ele>78.374413</ele>
        <time>2023-01-02T13:24:43.912Z</time>
      </trkpt>
      <trkpt lat="39.53432" lon="3.32486">
        <ele>78.378305</ele>
        <time>2023-01-02T13:24:45.909Z</time>
      </trkpt>
      <trkpt lat="39.53439" lon="3.32501">
        <ele>78.233643</ele>
        <time>2023-01-02T13:24:48.894Z</time>
      </trkpt>
      <trkpt lat="39.53444" lon="3.32511">
        <ele>78.131219</ele>
        <time>2023-01-02T13:24:50.893Z</time>
      </trkpt>
      <trkpt lat="39.5345" lon="3.32521">
        <ele>78.026683</ele>
        <time>2023-01-02T13:24:52.911Z</time>
      </trkpt>
      <trkpt lat="39.53455" lon="3.32531">
        <ele>77.924892</ele>
        <time>2023-01-02T13:24:54.907Z</time>
      </trkpt>
      <trkpt lat="39.5346" lon="3.32541">
        <ele>77.816184</ele>
        <time>2023-01-02T13:24:56.908Z</time>
      </trkpt>
      <trkpt lat="39.53466" lon="3.32551">
        <ele>77.712422</ele>
        <time>2023-01-02T13:24:58.899Z</time>
      </trkpt>
      <trkpt lat="39.53471" lon="3.32561">
        <ele>77.608592</ele>
        <time>2023-01-02T13:25:00.901Z</time>
      </trkpt>
      <trkpt lat="39.53476" lon="3.32572">
        <ele>77.499773</ele>
        <time>2023-01-02T13:25:02.900Z</time>
      </trkpt>
      <trkpt lat="39.53481" lon="3.32583">
        <ele>77.388474</ele>
        <time>2023-01-02T13:25:04.900Z</time>
      </trkpt>
      <trkpt lat="39.53487" lon="3.32594">
        <ele>77.279526</ele>
        <time>2023-01-02T13:25:06.892Z</time>
      </trkpt>
      <trkpt lat="39.53492" lon="3.32605">
        <ele>77.171302</ele>
        <time>2023-01-02T13:25:08.900Z</time>
      </trkpt>
      <trkpt lat="39.53497" lon="3.32617">
        <ele>77.055112</ele>
        <time>2023-01-02T13:25:10.894Z</time>
      </trkpt>
      <trkpt lat="39.53502" lon="3.32628">
        <ele>76.93957</ele>
        <time>2023-01-02T13:25:12.898Z</time>
      </trkpt>
      <trkpt lat="39.53508" lon="3.32639">
        <ele>76.827704</ele>
        <time>2023-01-02T13:25:14.897Z</time>
      </trkpt>
      <trkpt lat="39.53512" lon="3.32651">
        <ele>76.716026</ele>
        <time>2023-01-02T13:25:16.898Z</time>
      </trkpt>
      <trkpt lat="39.53518" lon="3.32662">
        <ele>76.603239</ele>
        <time>2023-01-02T13:25:18.890Z</time>
      </trkpt>
      <trkpt lat="39.53523" lon="3.32673">
        <ele>76.492501</ele>
        <time>2023-01-02T13:25:20.895Z</time>
      </trkpt>
      <trkpt lat="39.53528" lon="3.32684">
        <ele>76.374088</ele>
        <time>2023-01-02T13:25:22.882Z</time>
      </trkpt>
      <trkpt lat="39.53533" lon="3.32695">
        <ele>76.116487</ele>
        <time>2023-01-02T13:25:24.894Z</time>
      </trkpt>
      <trkpt lat="39.53538" lon="3.32705">
        <ele>75.862724</ele>
        <time>2023-01-02T13:25:26.909Z</time>
      </trkpt>
      <trkpt lat="39.53543" lon="3.32716">
        <ele>75.607812</ele>
        <time>2023-01-02T13:25:28.897Z</time>
      </trkpt>
      <trkpt lat="39.53547" lon="3.32727">
        <ele>75.354278</ele>
        <time>2023-01-02T13:25:30.869Z</time>
      </trkpt>
      <trkpt lat="39.53552" lon="3.32739">
        <ele>75.089925</ele>
        <time>2023-01-02T13:25:32.915Z</time>
      </trkpt>
      <trkpt lat="39.53557" lon="3.3275">
        <ele>74.82394</ele>
        <time>2023-01-02T13:25:34.896Z</time>
      </trkpt>
      <trkpt lat="39.53563" lon="3.32761">
        <ele>74.552408</ele>
        <time>2023-01-02T13:25:36.900Z</time>
      </trkpt>
      <trkpt lat="39.53568" lon="3.32773">
        <ele>74.277071</ele>
        <time>2023-01-02T13:25:38.892Z</time>
      </trkpt>
      <trkpt lat="39.53573" lon="3.32785">
        <ele>73.993286</ele>
        <time>2023-01-02T13:25:40.876Z</time>
      </trkpt>
      <trkpt lat="39.53578" lon="3.32796">
        <ele>73.719318</ele>
        <time>2023-01-02T13:25:42.895Z</time>
      </trkpt>
      <trkpt lat="39.53584" lon="3.32808">
        <ele>73.441391</ele>
        <time>2023-01-02T13:25:44.880Z</time>
      </trkpt>
      <trkpt lat="39.53589" lon="3.3282">
        <ele>73.168133</ele>
        <time>2023-01-02T13:25:47.884Z</time>
      </trkpt>
      <trkpt lat="39.53594" lon="3.32833">
        <ele>72.861873</ele>
        <time>2023-01-02T13:25:50.896Z</time>
      </trkpt>
      <trkpt lat="39.53599" lon="3.32844">
        <ele>72.612637</ele>
        <time>2023-01-02T13:25:54.899Z</time>
      </trkpt>
      <trkpt lat="39.53603" lon="3.32855">
        <ele>72.363459</ele>
        <time>2023-01-02T13:25:57.904Z</time>
      </trkpt>
      <trkpt lat="39.53608" lon="3.32867">
        <ele>72.073123</ele>
        <time>2023-01-02T13:26:00.897Z</time>
      </trkpt>
      <trkpt lat="39.53614" lon="3.3288">
        <ele>71.768614</ele>
        <time>2023-01-02T13:26:03.899Z</time>
      </trkpt>
      <trkpt lat="39.53619" lon="3.32891">
        <ele>71.476331</ele>
        <time>2023-01-02T13:26:06.891Z</time>
      </trkpt>
      <trkpt lat="39.53625" lon="3.32904">
        <ele>71.06686</ele>
        <time>2023-01-02T13:26:10.882Z</time>
      </trkpt>
      <trkpt lat="39.53631" lon="3.32916">
        <ele>70.678945</ele>
        <time>2023-01-02T13:26:14.895Z</time>
      </trkpt>
      <trkpt lat="39.53637" lon="3.32927">
        <ele>70.319179</ele>
        <time>2023-01-02T13:26:17.888Z</time>
      </trkpt>
      <trkpt lat="39.53642" lon="3.32938">
        <ele>69.968743</ele>
        <time>2023-01-02T13:26:20.894Z</time>
      </trkpt>
      <trkpt lat="39.53647" lon="3.3295">
        <ele>69.608601</ele>
        <time>2023-01-02T13:26:23.920Z</time>
      </trkpt>
      <trkpt lat="39.53647" lon="3.32964">
        <ele>69.237464</ele>
        <time>2023-01-02T13:26:27.905Z</time>
      </trkpt>
      <trkpt lat="39.53648" lon="3.32977">
        <ele>68.885332</ele>
        <time>2023-01-02T13:26:31.897Z</time>
      </trkpt>
      <trkpt lat="39.53649" lon="3.32989">
        <ele>68.545567</ele>
        <time>2023-01-02T13:26:36.890Z</time>
      </trkpt>
      <trkpt lat="39.53657" lon="3.32997">
        <ele>68.205569</ele>
        <time>2023-01-02T13:26:41.893Z</time>
      </trkpt>
      <trkpt lat="39.53668" lon="3.33003">
        <ele>67.805715</ele>
        <time>2023-01-02T13:26:45.888Z</time>
      </trkpt>
      <trkpt lat="39.53679" lon="3.33009">
        <ele>67.372817</ele>
        <time>2023-01-02T13:26:48.907Z</time>
      </trkpt>
      <trkpt lat="39.5369" lon="3.33015">
        <ele>66.95255</ele>
        <time>2023-01-02T13:26:51.896Z</time>
      </trkpt>
      <trkpt lat="39.53699" lon="3.3302">
        <ele>66.606974</ele>
        <time>2023-01-02T13:26:54.897Z</time>
      </trkpt>
      <trkpt lat="39.53708" lon="3.33024">
        <ele>66.293659</ele>
        <time>2023-01-02T13:26:57.909Z</time>
      </trkpt>
      <trkpt lat="39.53717" lon="3.33027">
        <ele>65.962414</ele>
        <time>2023-01-02T13:27:01.906Z</time>
      </trkpt>
      <trkpt lat="39.53725" lon="3.33017">
        <ele>65.576359</ele>
        <time>2023-01-02T13:27:05.890Z</time>
      </trkpt>
      <trkpt lat="39.53733" lon="3.33011">
        <ele>65.223053</ele>
        <time>2023-01-02T13:27:08.888Z</time>
      </trkpt>
      <trkpt lat="39.53744" lon="3.3301">
        <ele>64.790353</ele>
        <time>2023-01-02T13:27:11.887Z</time>
      </trkpt>
      <trkpt lat="39.53755" lon="3.33018">
        <ele>64.281652</ele>
        <time>2023-01-02T13:27:14.899Z</time>
      </trkpt>
      <trkpt lat="39.53761" lon="3.33026">
        <ele>63.900185</ele>
        <time>2023-01-02T13:27:16.896Z</time>
      </trkpt>
      <trkpt lat="39.53768" lon="3.33035">
        <ele>63.483106</ele>
        <time>2023-01-02T13:27:18.888Z</time>
      </trkpt>
      <trkpt lat="39.53775" lon="3.33046">
        <ele>63.044644</ele>
        <time>2023-01-02T13:27:20.885Z</time>
      </trkpt>
      <trkpt lat="39.53782" lon="3.33056">
        <ele>62.605872</ele>
        <time>2023-01-02T13:27:22.899Z</time>
      </trkpt>
      <trkpt lat="39.53789" lon="3.33065">
        <ele>62.199126</ele>
        <time>2023-01-02T13:27:24.897Z</time>
      </trkpt>
      <trkpt lat="39.53797" lon="3.33075">
        <ele>61.747493</ele>
        <time>2023-01-02T13:27:26.902Z</time>
      </trkpt>
      <trkpt lat="39.53805" lon="3.33085">
        <ele>61.276127</ele>
        <time>2023-01-02T13:27:28.877Z</time>
      </trkpt>
      <trkpt lat="39.53814" lon="3.33094">
        <ele>60.793294</ele>
        <time>2023-01-02T13:27:30.892Z</time>
      </trkpt>
      <trkpt lat="39.53825" lon="3.331">
        <ele>60.315159</ele>
        <time>2023-01-02T13:27:32.898Z</time>
      </trkpt>
      <trkpt lat="39.53836" lon="3.33103">
        <ele>59.83715</ele>
        <time>2023-01-02T13:27:34.887Z</time>
      </trkpt>
      <trkpt lat="39.53847" lon="3.33103">
        <ele>59.372988</ele>
        <time>2023-01-02T13:27:36.884Z</time>
      </trkpt>
      <trkpt lat="39.53859" lon="3.331">
        <ele>58.874036</ele>
        <time>2023-01-02T13:27:38.919Z</time>
      </trkpt>
      <trkpt lat="39.53872" lon="3.33096">
        <ele>58.343522</ele>
        <time>2023-01-02T13:27:40.910Z</time>
      </trkpt>
      <trkpt lat="39.53884" lon="3.33089">
        <ele>57.766025</ele>
        <time>2023-01-02T13:27:42.888Z</time>
      </trkpt>
      <trkpt lat="39.53896" lon="3.33083">
        <ele>57.012613</ele>
        <time>2023-01-02T13:27:44.884Z</time>
      </trkpt>
      <trkpt lat="39.53908" lon="3.33079">
        <ele>56.298814</ele>
        <time>2023-01-02T13:27:46.882Z</time>
      </trkpt>
      <trkpt lat="39.5392" lon="3.33076">
        <ele>55.593478</ele>
        <time>2023-01-02T13:27:48.887Z</time>
      </trkpt>
      <trkpt lat="39.53932" lon="3.33076">
        <ele>54.868042</ele>
        <time>2023-01-02T13:27:50.900Z</time>
      </trkpt>
      <trkpt lat="39.53942" lon="3.33078">
        <ele>54.283835</ele>
        <time>2023-01-02T13:27:52.901Z</time>
      </trkpt>
      <trkpt lat="39.53954" lon="3.33081">
        <ele>53.570533</ele>
        <time>2023-01-02T13:27:55.903Z</time>
      </trkpt>
      <trkpt lat="39.53965" lon="3.33086">
        <ele>52.906511</ele>
        <time>2023-01-02T13:27:57.907Z</time>
      </trkpt>
      <trkpt lat="39.53977" lon="3.3309">
        <ele>52.195681</ele>
        <time>2023-01-02T13:27:59.893Z</time>
      </trkpt>
      <trkpt lat="39.53988" lon="3.33095">
        <ele>51.533171</ele>
        <time>2023-01-02T13:28:01.901Z</time>
      </trkpt>
      <trkpt lat="39.53999" lon="3.331">
        <ele>50.816839</ele>
        <time>2023-01-02T13:28:03.899Z</time>
      </trkpt>
      <trkpt lat="39.54011" lon="3.33105">
        <ele>50.087619</ele>
        <time>2023-01-02T13:28:05.887Z</time>
      </trkpt>
      <trkpt lat="39.54023" lon="3.33113">
        <ele>49.29736</ele>
        <time>2023-01-02T13:28:07.899Z</time>
      </trkpt>
      <trkpt lat="39.54034" lon="3.33121">
        <ele>48.559572</ele>
        <time>2023-01-02T13:28:09.895Z</time>
      </trkpt>
      <trkpt lat="39.54044" lon="3.3313">
        <ele>47.865233</ele>
        <time>2023-01-02T13:28:11.901Z</time>
      </trkpt>
      <trkpt lat="39.54052" lon="3.33142">
        <ele>47.490573</ele>
        <time>2023-01-02T13:28:13.911Z</time>
      </trkpt>
      <trkpt lat="39.54057" lon="3.33158">
        <ele>47.584909</ele>
        <time>2023-01-02T13:28:15.887Z</time>
      </trkpt>
      <trkpt lat="39.54056" lon="3.33174">
        <ele>47.676162</ele>
        <time>2023-01-02T13:28:17.914Z</time>
      </trkpt>
      <trkpt lat="39.54055" lon="3.33187">
        <ele>47.751669</ele>
        <time>2023-01-02T13:28:19.895Z</time>
      </trkpt>
      <trkpt lat="39.54052" lon="3.33203">
        <ele>47.842769</ele>
        <time>2023-01-02T13:28:22.901Z</time>
      </trkpt>
      <trkpt lat="39.5405" lon="3.33218">
        <ele>47.926417</ele>
        <time>2023-01-02T13:28:26.896Z</time>
      </trkpt>
      <trkpt lat="39.54043" lon="3.33225">
        <ele>47.991636</ele>
        <time>2023-01-02T13:28:37.753Z</time>
      </trkpt>
      <trkpt lat="39.54039" lon="3.33242">
        <ele>48.088296</ele>
        <time>2023-01-02T13:55:54.896Z</time>
      </trkpt>
      <trkpt lat="39.54031" lon="3.33245">
        <ele>48.155182</ele>
        <time>2023-01-02T13:56:05.877Z</time>
      </trkpt>
      <trkpt lat="39.54021" lon="3.33246">
        <ele>48.222412</ele>
        <time>2023-01-02T13:56:12.875Z</time>
      </trkpt>
      <trkpt lat="39.54011" lon="3.33248">
        <ele>48.299841</ele>
        <time>2023-01-02T13:56:18.879Z</time>
      </trkpt>
      <trkpt lat="39.54002" lon="3.33253">
        <ele>48.372639</ele>
        <time>2023-01-02T13:56:23.896Z</time>
      </trkpt>
      <trkpt lat="39.53992" lon="3.3326">
        <ele>48.452953</ele>
        <time>2023-01-02T13:56:27.887Z</time>
      </trkpt>
      <trkpt lat="39.53985" lon="3.33268">
        <ele>48.521544</ele>
        <time>2023-01-02T13:56:31.891Z</time>
      </trkpt>
      <trkpt lat="39.53976" lon="3.33276">
        <ele>48.600634</ele>
        <time>2023-01-02T13:56:36.901Z</time>
      </trkpt>
      <trkpt lat="39.53973" lon="3.33287">
        <ele>48.667419</ele>
        <time>2023-01-02T13:56:40.881Z</time>
      </trkpt>
      <trkpt lat="39.53977" lon="3.333">
        <ele>48.743123</ele>
        <time>2023-01-02T13:56:45.884Z</time>
      </trkpt>
      <trkpt lat="39.53981" lon="3.33313">
        <ele>48.863971</ele>
        <time>2023-01-02T13:56:50.889Z</time>
      </trkpt>
      <trkpt lat="39.53986" lon="3.33325">
        <ele>48.997767</ele>
        <time>2023-01-02T13:56:55.899Z</time>
      </trkpt>
      <trkpt lat="39.53991" lon="3.33337">
        <ele>49.116811</ele>
        <time>2023-01-02T13:56:59.907Z</time>
      </trkpt>
      <trkpt lat="39.53994" lon="3.33349">
        <ele>49.247198</ele>
        <time>2023-01-02T13:57:03.889Z</time>
      </trkpt>
      <trkpt lat="39.53998" lon="3.33362">
        <ele>49.379373</ele>
        <time>2023-01-02T13:57:07.899Z</time>
      </trkpt>
      <trkpt lat="39.54006" lon="3.33369">
        <ele>49.49775</ele>
        <time>2023-01-02T13:57:11.901Z</time>
      </trkpt>
      <trkpt lat="39.5401" lon="3.33382">
        <ele>49.63037</ele>
        <time>2023-01-02T13:57:15.894Z</time>
      </trkpt>
      <trkpt lat="39.54015" lon="3.33394">
        <ele>49.761663</ele>
        <time>2023-01-02T13:57:18.896Z</time>
      </trkpt>
      <trkpt lat="39.54021" lon="3.33406">
        <ele>49.899159</ele>
        <time>2023-01-02T13:57:21.912Z</time>
      </trkpt>
      <trkpt lat="39.54027" lon="3.33419">
        <ele>50.04694</ele>
        <time>2023-01-02T13:57:24.888Z</time>
      </trkpt>
      <trkpt lat="39.54032" lon="3.33433">
        <ele>50.192586</ele>
        <time>2023-01-02T13:57:27.904Z</time>
      </trkpt>
      <trkpt lat="39.54037" lon="3.33445">
        <ele>50.324695</ele>
        <time>2023-01-02T13:57:30.910Z</time>
      </trkpt>
      <trkpt lat="39.54045" lon="3.33454">
        <ele>50.44665</ele>
        <time>2023-01-02T13:57:34.888Z</time>
      </trkpt>
      <trkpt lat="39.54056" lon="3.33455">
        <ele>50.592911</ele>
        <time>2023-01-02T13:57:55.889Z</time>
      </trkpt>
      <trkpt lat="39.54065" lon="3.33449">
        <ele>50.711939</ele>
        <time>2023-01-02T13:58:00.899Z</time>
      </trkpt>
      <trkpt lat="39.54074" lon="3.33444">
        <ele>50.835408</ele>
        <time>2023-01-02T13:58:05.886Z</time>
      </trkpt>
      <trkpt lat="39.54083" lon="3.33449">
        <ele>50.95311</ele>
        <time>2023-01-02T13:58:14.893Z</time>
      </trkpt>
      <trkpt lat="39.54088" lon="3.33438">
        <ele>50.907757</ele>
        <time>2023-01-02T13:58:25.896Z</time>
      </trkpt>
      <trkpt lat="39.54097" lon="3.33443">
        <ele>50.778739</ele>
        <time>2023-01-02T13:58:32.885Z</time>
      </trkpt>
      <trkpt lat="39.54103" lon="3.33455">
        <ele>50.637707</ele>
        <time>2023-01-02T13:58:38.886Z</time>
      </trkpt>
      <trkpt lat="39.54108" lon="3.33466">
        <ele>50.511933</ele>
        <time>2023-01-02T13:58:42.898Z</time>
      </trkpt>
      <trkpt lat="39.54114" lon="3.33479">
        <ele>50.36884</ele>
        <time>2023-01-02T13:58:46.902Z</time>
      </trkpt>
      <trkpt lat="39.54118" lon="3.3349">
        <ele>50.247529</ele>
        <time>2023-01-02T13:58:49.898Z</time>
      </trkpt>
      <trkpt lat="39.54122" lon="3.33502">
        <ele>50.108499</ele>
        <time>2023-01-02T13:58:52.901Z</time>
      </trkpt>
      <trkpt lat="39.54128" lon="3.33517">
        <ele>49.952334</ele>
        <time>2023-01-02T13:58:55.894Z</time>
      </trkpt>
      <trkpt lat="39.54134" lon="3.3353">
        <ele>49.798071</ele>
        <time>2023-01-02T13:58:58.893Z</time>
      </trkpt>
      <trkpt lat="39.5414" lon="3.33544">
        <ele>49.635696</ele>
        <time>2023-01-02T13:59:01.893Z</time>
      </trkpt>
      <trkpt lat="39.54145" lon="3.33556">
        <ele>49.503125</ele>
        <time>2023-01-02T13:59:03.901Z</time>
      </trkpt>
      <trkpt lat="39.5415" lon="3.33569">
        <ele>49.360659</ele>
        <time>2023-01-02T13:59:05.904Z</time>
      </trkpt>
      <trkpt lat="39.54156" lon="3.33582">
        <ele>49.210279</ele>
        <time>2023-01-02T13:59:07.904Z</time>
      </trkpt>
      <trkpt lat="39.54161" lon="3.33597">
        <ele>49.049429</ele>
        <time>2023-01-02T13:59:09.894Z</time>
      </trkpt>
      <trkpt lat="39.54166" lon="3.3361">
        <ele>48.904644</ele>
        <time>2023-01-02T13:59:11.901Z</time>
      </trkpt>
      <trkpt lat="39.54171" lon="3.33623">
        <ele>48.761375</ele>
        <time>2023-01-02T13:59:13.906Z</time>
      </trkpt>
      <trkpt lat="39.54176" lon="3.33636">
        <ele>49.03046</ele>
        <time>2023-01-02T13:59:15.899Z</time>
      </trkpt>
      <trkpt lat="39.5418" lon="3.33647">
        <ele>49.699677</ele>
        <time>2023-01-02T13:59:17.920Z</time>
      </trkpt>
      <trkpt lat="39.54186" lon="3.33658">
        <ele>50.463098</ele>
        <time>2023-01-02T13:59:21.891Z</time>
      </trkpt>
      <trkpt lat="39.5419" lon="3.33665">
        <ele>50.936079</ele>
        <time>2023-01-02T13:59:32.314Z</time>
      </trkpt>
      <trkpt lat="39.54245" lon="3.33833">
        <ele>60.927657</ele>
        <time>2023-01-02T14:01:46.893Z</time>
      </trkpt>
      <trkpt lat="39.54246" lon="3.33845">
        <ele>61.555917</ele>
        <time>2023-01-02T14:01:53.890Z</time>
      </trkpt>
      <trkpt lat="39.54249" lon="3.33857">
        <ele>61.984145</ele>
        <time>2023-01-02T14:01:58.887Z</time>
      </trkpt>
      <trkpt lat="39.54253" lon="3.3387">
        <ele>62.494171</ele>
        <time>2023-01-02T14:02:04.893Z</time>
      </trkpt>
      <trkpt lat="39.54257" lon="3.33881">
        <ele>62.943825</ele>
        <time>2023-01-02T14:02:10.899Z</time>
      </trkpt>
      <trkpt lat="39.54261" lon="3.33892">
        <ele>63.371327</ele>
        <time>2023-01-02T14:02:15.887Z</time>
      </trkpt>
      <trkpt lat="39.54262" lon="3.33906">
        <ele>63.852426</ele>
        <time>2023-01-02T14:02:21.897Z</time>
      </trkpt>
      <trkpt lat="39.54264" lon="3.33917">
        <ele>64.274374</ele>
        <time>2023-01-02T14:02:27.905Z</time>
      </trkpt>
      <trkpt lat="39.54266" lon="3.33929">
        <ele>64.720795</ele>
        <time>2023-01-02T14:02:33.906Z</time>
      </trkpt>
      <trkpt lat="39.54276" lon="3.33934">
        <ele>65.200965</ele>
        <time>2023-01-02T14:02:39.898Z</time>
      </trkpt>
      <trkpt lat="39.54286" lon="3.33932">
        <ele>65.690049</ele>
        <time>2023-01-02T14:02:43.911Z</time>
      </trkpt>
      <trkpt lat="39.54297" lon="3.3393">
        <ele>66.187745</ele>
        <time>2023-01-02T14:02:47.924Z</time>
      </trkpt>
      <trkpt lat="39.54306" lon="3.33928">
        <ele>66.624028</ele>
        <time>2023-01-02T14:02:51.900Z</time>
      </trkpt>
      <trkpt lat="39.54316" lon="3.33925">
        <ele>67.114001</ele>
        <time>2023-01-02T14:02:56.888Z</time>
      </trkpt>
      <trkpt lat="39.54321" lon="3.33935">
        <ele>67.536219</ele>
        <time>2023-01-02T14:03:03.896Z</time>
      </trkpt>
      <trkpt lat="39.54323" lon="3.33948">
        <ele>68.009796</ele>
        <time>2023-01-02T14:03:08.886Z</time>
      </trkpt>
      <trkpt lat="39.54326" lon="3.33961">
        <ele>68.505044</ele>
        <time>2023-01-02T14:03:12.905Z</time>
      </trkpt>
      <trkpt lat="39.5433" lon="3.33972">
        <ele>68.951038</ele>
        <time>2023-01-02T14:03:15.909Z</time>
      </trkpt>
      <trkpt lat="39.54331" lon="3.33986">
        <ele>69.451227</ele>
        <time>2023-01-02T14:03:19.916Z</time>
      </trkpt>
      <trkpt lat="39.54334" lon="3.33999">
        <ele>69.825932</ele>
        <time>2023-01-02T14:03:23.885Z</time>
      </trkpt>
      <trkpt lat="39.54337" lon="3.3401">
        <ele>69.889366</ele>
        <time>2023-01-02T14:03:27.917Z</time>
      </trkpt>
      <trkpt lat="39.54339" lon="3.34025">
        <ele>69.967212</ele>
        <time>2023-01-02T14:03:31.899Z</time>
      </trkpt>
      <trkpt lat="39.54341" lon="3.34037">
        <ele>70.032402</ele>
        <time>2023-01-02T14:03:34.898Z</time>
      </trkpt>
      <trkpt lat="39.54344" lon="3.34051">
        <ele>70.106879</ele>
        <time>2023-01-02T14:03:38.919Z</time>
      </trkpt>
      <trkpt lat="39.54351" lon="3.34058">
        <ele>70.1702</ele>
        <time>2023-01-02T14:03:42.893Z</time>
      </trkpt>
      <trkpt lat="39.5436" lon="3.34057">
        <ele>70.23295</ele>
        <time>2023-01-02T14:03:45.909Z</time>
      </trkpt>
      <trkpt lat="39.54371" lon="3.34053">
        <ele>70.309072</ele>
        <time>2023-01-02T14:03:49.897Z</time>
      </trkpt>
      <trkpt lat="39.54383" lon="3.34052">
        <ele>70.389362</ele>
        <time>2023-01-02T14:03:53.895Z</time>
      </trkpt>
      <trkpt lat="39.54392" lon="3.34049">
        <ele>70.453104</ele>
        <time>2023-01-02T14:03:56.903Z</time>
      </trkpt>
      <trkpt lat="39.54402" lon="3.34047">
        <ele>70.519987</ele>
        <time>2023-01-02T14:03:59.902Z</time>
      </trkpt>
      <trkpt lat="39.54413" lon="3.34043">
        <ele>70.593235</ele>
        <time>2023-01-02T14:04:02.902Z</time>
      </trkpt>
      <trkpt lat="39.54422" lon="3.3404">
        <ele>70.659352</ele>
        <time>2023-01-02T14:04:05.913Z</time>
      </trkpt>
      <trkpt lat="39.54432" lon="3.34037">
        <ele>70.730522</ele>
        <time>2023-01-02T14:04:08.907Z</time>
      </trkpt>
      <trkpt lat="39.54443" lon="3.34035">
        <ele>70.804601</ele>
        <time>2023-01-02T14:04:11.897Z</time>
      </trkpt>
      <trkpt lat="39.54454" lon="3.34033">
        <ele>70.880872</ele>
        <time>2023-01-02T14:04:14.894Z</time>
      </trkpt>
      <trkpt lat="39.54465" lon="3.3403">
        <ele>70.957229</ele>
        <time>2023-01-02T14:04:17.899Z</time>
      </trkpt>
      <trkpt lat="39.54477" lon="3.34027">
        <ele>71.035775</ele>
        <time>2023-01-02T14:04:20.889Z</time>
      </trkpt>
      <trkpt lat="39.54488" lon="3.34025">
        <ele>71.109148</ele>
        <time>2023-01-02T14:04:23.883Z</time>
      </trkpt>
      <trkpt lat="39.54497" lon="3.34024">
        <ele>71.172363</ele>
        <time>2023-01-02T14:04:26.907Z</time>
      </trkpt>
      <trkpt lat="39.54507" lon="3.34021">
        <ele>71.243133</ele>
        <time>2023-01-02T14:04:29.919Z</time>
      </trkpt>
      <trkpt lat="39.54517" lon="3.34019">
        <ele>71.313386</ele>
        <time>2023-01-02T14:04:32.896Z</time>
      </trkpt>
      <trkpt lat="39.5453" lon="3.34016">
        <ele>71.405346</ele>
        <time>2023-01-02T14:04:35.901Z</time>
      </trkpt>
      <trkpt lat="39.54543" lon="3.34011">
        <ele>71.492991</ele>
        <time>2023-01-02T14:04:38.894Z</time>
      </trkpt>
      <trkpt lat="39.54556" lon="3.34007">
        <ele>71.583006</ele>
        <time>2023-01-02T14:04:41.900Z</time>
      </trkpt>
      <trkpt lat="39.54568" lon="3.34004">
        <ele>71.670439</ele>
        <time>2023-01-02T14:04:44.897Z</time>
      </trkpt>
      <trkpt lat="39.5458" lon="3.34">
        <ele>71.753724</ele>
        <time>2023-01-02T14:04:47.905Z</time>
      </trkpt>
      <trkpt lat="39.54593" lon="3.33998">
        <ele>71.84378</ele>
        <time>2023-01-02T14:04:50.891Z</time>
      </trkpt>
      <trkpt lat="39.54605" lon="3.33994">
        <ele>71.928853</ele>
        <time>2023-01-02T14:04:53.882Z</time>
      </trkpt>
      <trkpt lat="39.54618" lon="3.33991">
        <ele>72.015599</ele>
        <time>2023-01-02T14:04:56.893Z</time>
      </trkpt>
      <trkpt lat="39.5463" lon="3.33987">
        <ele>72.104226</ele>
        <time>2023-01-02T14:04:59.895Z</time>
      </trkpt>
      <trkpt lat="39.54642" lon="3.33986">
        <ele>72.187095</ele>
        <time>2023-01-02T14:05:02.883Z</time>
      </trkpt>
      <trkpt lat="39.54655" lon="3.33983">
        <ele>72.217154</ele>
        <time>2023-01-02T14:05:05.915Z</time>
      </trkpt>
      <trkpt lat="39.54666" lon="3.3398">
        <ele>72.075106</ele>
        <time>2023-01-02T14:05:08.915Z</time>
      </trkpt>
      <trkpt lat="39.54677" lon="3.33976">
        <ele>71.94845</ele>
        <time>2023-01-02T14:05:11.894Z</time>
      </trkpt>
      <trkpt lat="39.54687" lon="3.33974">
        <ele>71.826775</ele>
        <time>2023-01-02T14:05:14.900Z</time>
      </trkpt>
      <trkpt lat="39.54697" lon="3.33972">
        <ele>71.707031</ele>
        <time>2023-01-02T14:05:17.902Z</time>
      </trkpt>
      <trkpt lat="39.54706" lon="3.33972">
        <ele>71.591644</ele>
        <time>2023-01-02T14:05:20.896Z</time>
      </trkpt>
      <trkpt lat="39.54716" lon="3.33971">
        <ele>71.471553</ele>
        <time>2023-01-02T14:05:23.901Z</time>
      </trkpt>
      <trkpt lat="39.54718" lon="3.33984">
        <ele>71.344944</ele>
        <time>2023-01-02T14:05:30.893Z</time>
      </trkpt>
      <trkpt lat="39.54728" lon="3.33987">
        <ele>71.223973</ele>
        <time>2023-01-02T14:05:35.894Z</time>
      </trkpt>
      <trkpt lat="39.54738" lon="3.3398">
        <ele>71.088606</ele>
        <time>2023-01-02T14:05:39.919Z</time>
      </trkpt>
      <trkpt lat="39.54746" lon="3.33974">
        <ele>70.976158</ele>
        <time>2023-01-02T14:05:42.897Z</time>
      </trkpt>
      <trkpt lat="39.54755" lon="3.33969">
        <ele>70.861088</ele>
        <time>2023-01-02T14:05:45.894Z</time>
      </trkpt>
      <trkpt lat="39.54767" lon="3.33971">
        <ele>70.713949</ele>
        <time>2023-01-02T14:05:48.885Z</time>
      </trkpt>
      <trkpt lat="39.5478" lon="3.33972">
        <ele>70.564538</ele>
        <time>2023-01-02T14:05:51.906Z</time>
      </trkpt>
      <trkpt lat="39.54791" lon="3.33977">
        <ele>70.418288</ele>
        <time>2023-01-02T14:05:54.899Z</time>
      </trkpt>
      <trkpt lat="39.54804" lon="3.33983">
        <ele>70.263864</ele>
        <time>2023-01-02T14:05:57.904Z</time>
      </trkpt>
      <trkpt lat="39.54812" lon="3.33989">
        <ele>70.154469</ele>
        <time>2023-01-02T14:05:59.900Z</time>
      </trkpt>
      <trkpt lat="39.54819" lon="3.33995">
        <ele>70.057111</ele>
        <time>2023-01-02T14:06:01.900Z</time>
      </trkpt>
      <trkpt lat="39.54827" lon="3.34002">
        <ele>69.962485</ele>
        <time>2023-01-02T14:06:03.891Z</time>
      </trkpt>
      <trkpt lat="39.54838" lon="3.34012">
        <ele>69.829786</ele>
        <time>2023-01-02T14:06:06.888Z</time>
      </trkpt>
      <trkpt lat="39.54848" lon="3.34024">
        <ele>69.695736</ele>
        <time>2023-01-02T14:06:09.910Z</time>
      </trkpt>
      <trkpt lat="39.54854" lon="3.34032">
        <ele>69.60255</ele>
        <time>2023-01-02T14:06:11.917Z</time>
      </trkpt>
      <trkpt lat="39.54863" lon="3.34044">
        <ele>69.476242</ele>
        <time>2023-01-02T14:06:14.895Z</time>
      </trkpt>
      <trkpt lat="39.54871" lon="3.34056">
        <ele>69.3527</ele>
        <time>2023-01-02T14:06:17.900Z</time>
      </trkpt>
      <trkpt lat="39.5488" lon="3.34069">
        <ele>69.219831</ele>
        <time>2023-01-02T14:06:20.895Z</time>
      </trkpt>
      <trkpt lat="39.54885" lon="3.34079">
        <ele>69.126836</ele>
        <time>2023-01-02T14:06:22.899Z</time>
      </trkpt>
      <trkpt lat="39.54892" lon="3.34088">
        <ele>69.026773</ele>
        <time>2023-01-02T14:06:24.897Z</time>
      </trkpt>
      <trkpt lat="39.54898" lon="3.34098">
        <ele>68.923171</ele>
        <time>2023-01-02T14:06:26.912Z</time>
      </trkpt>
      <trkpt lat="39.54905" lon="3.34108">
        <ele>68.819738</ele>
        <time>2023-01-02T14:06:28.919Z</time>
      </trkpt>
      <trkpt lat="39.54912" lon="3.34119">
        <ele>68.714607</ele>
        <time>2023-01-02T14:06:30.888Z</time>
      </trkpt>
      <trkpt lat="39.54918" lon="3.34129">
        <ele>68.608201</ele>
        <time>2023-01-02T14:06:32.904Z</time>
      </trkpt>
      <trkpt lat="39.54924" lon="3.3414">
        <ele>68.503048</ele>
        <time>2023-01-02T14:06:34.903Z</time>
      </trkpt>
      <trkpt lat="39.54931" lon="3.34151">
        <ele>68.397189</ele>
        <time>2023-01-02T14:06:36.903Z</time>
      </trkpt>
      <trkpt lat="39.54938" lon="3.34162">
        <ele>68.292412</ele>
        <time>2023-01-02T14:06:38.900Z</time>
      </trkpt>
      <trkpt lat="39.54945" lon="3.34172">
        <ele>68.231989</ele>
        <time>2023-01-02T14:06:40.888Z</time>
      </trkpt>
      <trkpt lat="39.54952" lon="3.34184">
        <ele>68.169488</ele>
        <time>2023-01-02T14:06:42.905Z</time>
      </trkpt>
      <trkpt lat="39.54959" lon="3.34195">
        <ele>68.105536</ele>
        <time>2023-01-02T14:06:44.894Z</time>
      </trkpt>
      <trkpt lat="39.54966" lon="3.34206">
        <ele>68.042315</ele>
        <time>2023-01-02T14:06:46.911Z</time>
      </trkpt>
      <trkpt lat="39.54973" lon="3.34218">
        <ele>67.976704</ele>
        <time>2023-01-02T14:06:48.901Z</time>
      </trkpt>
      <trkpt lat="39.54981" lon="3.34229">
        <ele>67.912712</ele>
        <time>2023-01-02T14:06:50.882Z</time>
      </trkpt>
      <trkpt lat="39.54988" lon="3.3424">
        <ele>67.847754</ele>
        <time>2023-01-02T14:06:52.899Z</time>
      </trkpt>
      <trkpt lat="39.54995" lon="3.34251">
        <ele>67.784224</ele>
        <time>2023-01-02T14:06:54.898Z</time>
      </trkpt>
      <trkpt lat="39.55002" lon="3.34262">
        <ele>67.722343</ele>
        <time>2023-01-02T14:06:56.899Z</time>
      </trkpt>
      <trkpt lat="39.55009" lon="3.34273">
        <ele>67.659843</ele>
        <time>2023-01-02T14:06:58.912Z</time>
      </trkpt>
      <trkpt lat="39.55016" lon="3.34285">
        <ele>67.596657</ele>
        <time>2023-01-02T14:07:00.882Z</time>
      </trkpt>
      <trkpt lat="39.55023" lon="3.34296">
        <ele>67.532775</ele>
        <time>2023-01-02T14:07:02.900Z</time>
      </trkpt>
      <trkpt lat="39.5503" lon="3.34306">
        <ele>67.472667</ele>
        <time>2023-01-02T14:07:04.896Z</time>
      </trkpt>
      <trkpt lat="39.55036" lon="3.34318">
        <ele>67.410868</ele>
        <time>2023-01-02T14:07:06.903Z</time>
      </trkpt>
      <trkpt lat="39.55043" lon="3.34329">
        <ele>67.349021</ele>
        <time>2023-01-02T14:07:08.901Z</time>
      </trkpt>
      <trkpt lat="39.5505" lon="3.34339">
        <ele>67.288613</ele>
        <time>2023-01-02T14:07:10.888Z</time>
      </trkpt>
      <trkpt lat="39.55057" lon="3.3435">
        <ele>67.278929</ele>
        <time>2023-01-02T14:07:12.899Z</time>
      </trkpt>
      <trkpt lat="39.55063" lon="3.34361">
        <ele>67.27952</ele>
        <time>2023-01-02T14:07:14.909Z</time>
      </trkpt>
      <trkpt lat="39.5507" lon="3.34372">
        <ele>67.280112</ele>
        <time>2023-01-02T14:07:16.909Z</time>
      </trkpt>
      <trkpt lat="39.55077" lon="3.34383">
        <ele>67.28072</ele>
        <time>2023-01-02T14:07:18.905Z</time>
      </trkpt>
      <trkpt lat="39.55084" lon="3.34394">
        <ele>67.281319</ele>
        <time>2023-01-02T14:07:20.876Z</time>
      </trkpt>
      <trkpt lat="39.55091" lon="3.34405">
        <ele>67.281934</ele>
        <time>2023-01-02T14:07:22.917Z</time>
      </trkpt>
      <trkpt lat="39.55098" lon="3.34416">
        <ele>67.282536</ele>
        <time>2023-01-02T14:07:24.902Z</time>
      </trkpt>
      <trkpt lat="39.55105" lon="3.34427">
        <ele>67.283148</ele>
        <time>2023-01-02T14:07:26.895Z</time>
      </trkpt>
      <trkpt lat="39.55112" lon="3.34438">
        <ele>67.283757</ele>
        <time>2023-01-02T14:07:28.897Z</time>
      </trkpt>
      <trkpt lat="39.55118" lon="3.34449">
        <ele>67.284332</ele>
        <time>2023-01-02T14:07:30.895Z</time>
      </trkpt>
      <trkpt lat="39.55125" lon="3.34459">
        <ele>67.284906</ele>
        <time>2023-01-02T14:07:32.899Z</time>
      </trkpt>
      <trkpt lat="39.55131" lon="3.3447">
        <ele>67.285501</ele>
        <time>2023-01-02T14:07:34.917Z</time>
      </trkpt>
      <trkpt lat="39.55138" lon="3.34481">
        <ele>67.286089</ele>
        <time>2023-01-02T14:07:36.904Z</time>
      </trkpt>
      <trkpt lat="39.55144" lon="3.34491">
        <ele>67.286654</ele>
        <time>2023-01-02T14:07:38.905Z</time>
      </trkpt>
      <trkpt lat="39.55151" lon="3.34501">
        <ele>67.28722</ele>
        <time>2023-01-02T14:07:40.891Z</time>
      </trkpt>
      <trkpt lat="39.55159" lon="3.34511">
        <ele>67.287801</ele>
        <time>2023-01-02T14:07:42.896Z</time>
      </trkpt>
      <trkpt lat="39.55165" lon="3.34521">
        <ele>67.288373</ele>
        <time>2023-01-02T14:07:44.905Z</time>
      </trkpt>
      <trkpt lat="39.55172" lon="3.34531">
        <ele>67.186158</ele>
        <time>2023-01-02T14:07:46.887Z</time>
      </trkpt>
      <trkpt lat="39.55179" lon="3.3454">
        <ele>67.086626</ele>
        <time>2023-01-02T14:07:48.914Z</time>
      </trkpt>
      <trkpt lat="39.55186" lon="3.3455">
        <ele>66.986553</ele>
        <time>2023-01-02T14:07:50.893Z</time>
      </trkpt>
      <trkpt lat="39.55193" lon="3.3456">
        <ele>66.885387</ele>
        <time>2023-01-02T14:07:52.901Z</time>
      </trkpt>
      <trkpt lat="39.552" lon="3.34569">
        <ele>66.78367</ele>
        <time>2023-01-02T14:07:54.915Z</time>
      </trkpt>
      <trkpt lat="39.55208" lon="3.34579">
        <ele>66.677555</ele>
        <time>2023-01-02T14:07:56.902Z</time>
      </trkpt>
      <trkpt lat="39.55215" lon="3.34588">
        <ele>66.574246</ele>
        <time>2023-01-02T14:07:58.895Z</time>
      </trkpt>
      <trkpt lat="39.55223" lon="3.34597">
        <ele>66.473969</ele>
        <time>2023-01-02T14:08:00.903Z</time>
      </trkpt>
      <trkpt lat="39.55231" lon="3.34606">
        <ele>66.372637</ele>
        <time>2023-01-02T14:08:02.903Z</time>
      </trkpt>
      <trkpt lat="39.55238" lon="3.34614">
        <ele>66.269859</ele>
        <time>2023-01-02T14:08:04.898Z</time>
      </trkpt>
      <trkpt lat="39.55247" lon="3.34623">
        <ele>66.164578</ele>
        <time>2023-01-02T14:08:06.898Z</time>
      </trkpt>
      <trkpt lat="39.55255" lon="3.34632">
        <ele>66.056796</ele>
        <time>2023-01-02T14:08:08.897Z</time>
      </trkpt>
      <trkpt lat="39.55264" lon="3.34641">
        <ele>65.945657</ele>
        <time>2023-01-02T14:08:10.883Z</time>
      </trkpt>
      <trkpt lat="39.55272" lon="3.3465">
        <ele>65.834989</ele>
        <time>2023-01-02T14:08:12.911Z</time>
      </trkpt>
      <trkpt lat="39.55281" lon="3.34659">
        <ele>65.723069</ele>
        <time>2023-01-02T14:08:14.896Z</time>
      </trkpt>
      <trkpt lat="39.55291" lon="3.34668">
        <ele>65.610603</ele>
        <time>2023-01-02T14:08:16.903Z</time>
      </trkpt>
      <trkpt lat="39.553" lon="3.34677">
        <ele>65.49208</ele>
        <time>2023-01-02T14:08:18.909Z</time>
      </trkpt>
      <trkpt lat="39.5531" lon="3.34686">
        <ele>65.354153</ele>
        <time>2023-01-02T14:08:20.886Z</time>
      </trkpt>
      <trkpt lat="39.55319" lon="3.34695">
        <ele>65.214757</ele>
        <time>2023-01-02T14:08:22.901Z</time>
      </trkpt>
      <trkpt lat="39.55329" lon="3.34704">
        <ele>65.074959</ele>
        <time>2023-01-02T14:08:24.905Z</time>
      </trkpt>
      <trkpt lat="39.55339" lon="3.34714">
        <ele>64.92953</ele>
        <time>2023-01-02T14:08:26.901Z</time>
      </trkpt>
      <trkpt lat="39.55349" lon="3.34724">
        <ele>64.783551</ele>
        <time>2023-01-02T14:08:28.903Z</time>
      </trkpt>
      <trkpt lat="39.55358" lon="3.34734">
        <ele>64.646185</ele>
        <time>2023-01-02T14:08:30.886Z</time>
      </trkpt>
      <trkpt lat="39.55367" lon="3.34743">
        <ele>64.513596</ele>
        <time>2023-01-02T14:08:32.900Z</time>
      </trkpt>
      <trkpt lat="39.55376" lon="3.34752">
        <ele>64.378305</ele>
        <time>2023-01-02T14:08:34.901Z</time>
      </trkpt>
      <trkpt lat="39.55386" lon="3.34761">
        <ele>64.238611</ele>
        <time>2023-01-02T14:08:36.918Z</time>
      </trkpt>
      <trkpt lat="39.55396" lon="3.3477">
        <ele>64.096054</ele>
        <time>2023-01-02T14:08:38.907Z</time>
      </trkpt>
      <trkpt lat="39.55407" lon="3.34779">
        <ele>63.951007</ele>
        <time>2023-01-02T14:08:40.892Z</time>
      </trkpt>
      <trkpt lat="39.55417" lon="3.34788">
        <ele>63.805959</ele>
        <time>2023-01-02T14:08:42.894Z</time>
      </trkpt>
      <trkpt lat="39.55426" lon="3.34797">
        <ele>63.669717</ele>
        <time>2023-01-02T14:08:44.899Z</time>
      </trkpt>
      <trkpt lat="39.55436" lon="3.34806">
        <ele>63.533648</ele>
        <time>2023-01-02T14:08:46.898Z</time>
      </trkpt>
      <trkpt lat="39.55445" lon="3.34815">
        <ele>63.41629</ele>
        <time>2023-01-02T14:08:48.900Z</time>
      </trkpt>
      <trkpt lat="39.55454" lon="3.34824">
        <ele>63.452559</ele>
        <time>2023-01-02T14:08:50.880Z</time>
      </trkpt>
      <trkpt lat="39.55463" lon="3.34832">
        <ele>63.489132</ele>
        <time>2023-01-02T14:08:52.902Z</time>
      </trkpt>
      <trkpt lat="39.55472" lon="3.34841">
        <ele>63.525632</ele>
        <time>2023-01-02T14:08:54.900Z</time>
      </trkpt>
      <trkpt lat="39.55481" lon="3.3485">
        <ele>63.561533</ele>
        <time>2023-01-02T14:08:56.903Z</time>
      </trkpt>
      <trkpt lat="39.5549" lon="3.34858">
        <ele>63.598105</ele>
        <time>2023-01-02T14:08:58.892Z</time>
      </trkpt>
      <trkpt lat="39.55498" lon="3.34867">
        <ele>63.633549</ele>
        <time>2023-01-02T14:09:00.895Z</time>
      </trkpt>
      <trkpt lat="39.55508" lon="3.34875">
        <ele>63.670569</ele>
        <time>2023-01-02T14:09:02.882Z</time>
      </trkpt>
      <trkpt lat="39.55517" lon="3.34883">
        <ele>63.707191</ele>
        <time>2023-01-02T14:09:04.887Z</time>
      </trkpt>
      <trkpt lat="39.55526" lon="3.34892">
        <ele>63.743161</ele>
        <time>2023-01-02T14:09:06.895Z</time>
      </trkpt>
      <trkpt lat="39.55534" lon="3.349">
        <ele>63.778908</ele>
        <time>2023-01-02T14:09:08.905Z</time>
      </trkpt>
      <trkpt lat="39.55543" lon="3.34908">
        <ele>63.812964</ele>
        <time>2023-01-02T14:09:10.891Z</time>
      </trkpt>
      <trkpt lat="39.55552" lon="3.34916">
        <ele>63.84811</ele>
        <time>2023-01-02T14:09:12.898Z</time>
      </trkpt>
      <trkpt lat="39.5556" lon="3.34924">
        <ele>63.883084</ele>
        <time>2023-01-02T14:09:14.907Z</time>
      </trkpt>
      <trkpt lat="39.55569" lon="3.34932">
        <ele>63.918081</ele>
        <time>2023-01-02T14:09:16.915Z</time>
      </trkpt>
      <trkpt lat="39.55578" lon="3.34941">
        <ele>63.953263</ele>
        <time>2023-01-02T14:09:18.902Z</time>
      </trkpt>
      <trkpt lat="39.55586" lon="3.34949">
        <ele>63.987557</ele>
        <time>2023-01-02T14:09:20.895Z</time>
      </trkpt>
      <trkpt lat="39.55594" lon="3.34956">
        <ele>63.930781</ele>
        <time>2023-01-02T14:09:22.899Z</time>
      </trkpt>
      <trkpt lat="39.55602" lon="3.34963">
        <ele>63.822244</ele>
        <time>2023-01-02T14:09:24.904Z</time>
      </trkpt>
      <trkpt lat="39.55611" lon="3.3497">
        <ele>63.711369</ele>
        <time>2023-01-02T14:09:26.895Z</time>
      </trkpt>
      <trkpt lat="39.55619" lon="3.34977">
        <ele>63.600043</ele>
        <time>2023-01-02T14:09:28.901Z</time>
      </trkpt>
      <trkpt lat="39.55627" lon="3.34984">
        <ele>63.491987</ele>
        <time>2023-01-02T14:09:30.873Z</time>
      </trkpt>
      <trkpt lat="39.55636" lon="3.34991">
        <ele>63.377293</ele>
        <time>2023-01-02T14:09:32.907Z</time>
      </trkpt>
      <trkpt lat="39.55645" lon="3.34997">
        <ele>63.259006</ele>
        <time>2023-01-02T14:09:34.898Z</time>
      </trkpt>
      <trkpt lat="39.55654" lon="3.35004">
        <ele>63.139139</ele>
        <time>2023-01-02T14:09:36.899Z</time>
      </trkpt>
      <trkpt lat="39.55664" lon="3.35011">
        <ele>63.014108</ele>
        <time>2023-01-02T14:09:38.899Z</time>
      </trkpt>
      <trkpt lat="39.55675" lon="3.35018">
        <ele>62.886229</ele>
        <time>2023-01-02T14:09:40.900Z</time>
      </trkpt>
      <trkpt lat="39.55685" lon="3.35024">
        <ele>62.755314</ele>
        <time>2023-01-02T14:09:42.894Z</time>
      </trkpt>
      <trkpt lat="39.55696" lon="3.3503">
        <ele>62.625777</ele>
        <time>2023-01-02T14:09:44.900Z</time>
      </trkpt>
      <trkpt lat="39.55706" lon="3.35036">
        <ele>62.497221</ele>
        <time>2023-01-02T14:09:46.890Z</time>
      </trkpt>
      <trkpt lat="39.55717" lon="3.35042">
        <ele>62.362582</ele>
        <time>2023-01-02T14:09:48.916Z</time>
      </trkpt>
      <trkpt lat="39.55728" lon="3.35048">
        <ele>62.228632</ele>
        <time>2023-01-02T14:09:50.873Z</time>
      </trkpt>
      <trkpt lat="39.55739" lon="3.35054">
        <ele>62.099115</ele>
        <time>2023-01-02T14:09:52.902Z</time>
      </trkpt>
      <trkpt lat="39.5575" lon="3.35059">
        <ele>61.95975</ele>
        <time>2023-01-02T14:09:54.897Z</time>
      </trkpt>
      <trkpt lat="39.55761" lon="3.35064">
        <ele>61.768716</ele>
        <time>2023-01-02T14:09:56.897Z</time>
      </trkpt>
      <trkpt lat="39.55772" lon="3.3507">
        <ele>61.569088</ele>
        <time>2023-01-02T14:09:58.899Z</time>
      </trkpt>
      <trkpt lat="39.55783" lon="3.35076">
        <ele>61.371287</ele>
        <time>2023-01-02T14:10:00.897Z</time>
      </trkpt>
      <trkpt lat="39.55795" lon="3.35081">
        <ele>61.172761</ele>
        <time>2023-01-02T14:10:02.896Z</time>
      </trkpt>
      <trkpt lat="39.55806" lon="3.35087">
        <ele>60.97004</ele>
        <time>2023-01-02T14:10:04.913Z</time>
      </trkpt>
      <trkpt lat="39.55818" lon="3.35092">
        <ele>60.766002</ele>
        <time>2023-01-02T14:10:06.893Z</time>
      </trkpt>
      <trkpt lat="39.55829" lon="3.35098">
        <ele>60.56395</ele>
        <time>2023-01-02T14:10:08.896Z</time>
      </trkpt>
      <trkpt lat="39.55841" lon="3.35104">
        <ele>60.35861</ele>
        <time>2023-01-02T14:10:10.895Z</time>
      </trkpt>
      <trkpt lat="39.55853" lon="3.35111">
        <ele>60.149196</ele>
        <time>2023-01-02T14:10:12.899Z</time>
      </trkpt>
      <trkpt lat="39.55864" lon="3.35117">
        <ele>59.943779</ele>
        <time>2023-01-02T14:10:14.902Z</time>
      </trkpt>
      <trkpt lat="39.55876" lon="3.35123">
        <ele>59.735405</ele>
        <time>2023-01-02T14:10:16.896Z</time>
      </trkpt>
      <trkpt lat="39.55888" lon="3.35129">
        <ele>59.524316</ele>
        <time>2023-01-02T14:10:18.898Z</time>
      </trkpt>
      <trkpt lat="39.559" lon="3.35135">
        <ele>59.309701</ele>
        <time>2023-01-02T14:10:20.884Z</time>
      </trkpt>
      <trkpt lat="39.55912" lon="3.35141">
        <ele>59.096168</ele>
        <time>2023-01-02T14:10:22.908Z</time>
      </trkpt>
      <trkpt lat="39.55925" lon="3.35147">
        <ele>58.975778</ele>
        <time>2023-01-02T14:10:24.899Z</time>
      </trkpt>
      <trkpt lat="39.55936" lon="3.35153">
        <ele>58.904755</ele>
        <time>2023-01-02T14:10:26.896Z</time>
      </trkpt>
      <trkpt lat="39.55949" lon="3.35158">
        <ele>58.830821</ele>
        <time>2023-01-02T14:10:28.898Z</time>
      </trkpt>
      <trkpt lat="39.55961" lon="3.35164">
        <ele>58.754899</ele>
        <time>2023-01-02T14:10:30.893Z</time>
      </trkpt>
      <trkpt lat="39.55973" lon="3.35171">
        <ele>58.67951</ele>
        <time>2023-01-02T14:10:32.925Z</time>
      </trkpt>
      <trkpt lat="39.55986" lon="3.35176">
        <ele>58.604741</ele>
        <time>2023-01-02T14:10:34.896Z</time>
      </trkpt>
      <trkpt lat="39.55998" lon="3.35182">
        <ele>58.530735</ele>
        <time>2023-01-02T14:10:36.897Z</time>
      </trkpt>
      <trkpt lat="39.5601" lon="3.35188">
        <ele>58.457727</ele>
        <time>2023-01-02T14:10:38.903Z</time>
      </trkpt>
      <trkpt lat="39.56022" lon="3.35194">
        <ele>58.384719</ele>
        <time>2023-01-02T14:10:40.900Z</time>
      </trkpt>
      <trkpt lat="39.56033" lon="3.352">
        <ele>58.313905</ele>
        <time>2023-01-02T14:10:42.899Z</time>
      </trkpt>
      <trkpt lat="39.56044" lon="3.35205">
        <ele>58.245487</ele>
        <time>2023-01-02T14:10:44.897Z</time>
      </trkpt>
      <trkpt lat="39.56056" lon="3.35211">
        <ele>58.175845</ele>
        <time>2023-01-02T14:10:46.893Z</time>
      </trkpt>
      <trkpt lat="39.56066" lon="3.35217">
        <ele>58.111515</ele>
        <time>2023-01-02T14:10:48.897Z</time>
      </trkpt>
      <trkpt lat="39.56077" lon="3.35222">
        <ele>58.047184</ele>
        <time>2023-01-02T14:10:50.895Z</time>
      </trkpt>
      <trkpt lat="39.56087" lon="3.35228">
        <ele>57.988604</ele>
        <time>2023-01-02T14:10:52.898Z</time>
      </trkpt>
      <trkpt lat="39.56098" lon="3.35234">
        <ele>57.94757</ele>
        <time>2023-01-02T14:10:54.897Z</time>
      </trkpt>
      <trkpt lat="39.56108" lon="3.35239">
        <ele>57.907646</ele>
        <time>2023-01-02T14:10:56.899Z</time>
      </trkpt>
      <trkpt lat="39.56118" lon="3.35244">
        <ele>57.867638</ele>
        <time>2023-01-02T14:10:58.898Z</time>
      </trkpt>
      <trkpt lat="39.56129" lon="3.35249">
        <ele>57.827424</ele>
        <time>2023-01-02T14:11:00.904Z</time>
      </trkpt>
      <trkpt lat="39.56138" lon="3.35255">
        <ele>57.789515</ele>
        <time>2023-01-02T14:11:02.897Z</time>
      </trkpt>
      <trkpt lat="39.56148" lon="3.3526">
        <ele>57.750366</ele>
        <time>2023-01-02T14:11:04.895Z</time>
      </trkpt>
      <trkpt lat="39.56158" lon="3.35265">
        <ele>57.711889</ele>
        <time>2023-01-02T14:11:06.895Z</time>
      </trkpt>
      <trkpt lat="39.56168" lon="3.3527">
        <ele>57.673412</ele>
        <time>2023-01-02T14:11:08.895Z</time>
      </trkpt>
      <trkpt lat="39.56178" lon="3.35275">
        <ele>57.635332</ele>
        <time>2023-01-02T14:11:10.890Z</time>
      </trkpt>
      <trkpt lat="39.56186" lon="3.3528">
        <ele>57.60102</ele>
        <time>2023-01-02T14:11:12.901Z</time>
      </trkpt>
      <trkpt lat="39.56195" lon="3.35286">
        <ele>57.566198</ele>
        <time>2023-01-02T14:11:14.895Z</time>
      </trkpt>
      <trkpt lat="39.56204" lon="3.35292">
        <ele>57.530913</ele>
        <time>2023-01-02T14:11:16.898Z</time>
      </trkpt>
      <trkpt lat="39.56212" lon="3.35298">
        <ele>57.496798</ele>
        <time>2023-01-02T14:11:18.907Z</time>
      </trkpt>
      <trkpt lat="39.5622" lon="3.35303">
        <ele>57.462934</ele>
        <time>2023-01-02T14:11:20.903Z</time>
      </trkpt>
      <trkpt lat="39.5623" lon="3.35313">
        <ele>57.41783</ele>
        <time>2023-01-02T14:11:23.904Z</time>
      </trkpt>
      <trkpt lat="39.56235" lon="3.35327">
        <ele>57.374253</ele>
        <time>2023-01-02T14:11:26.892Z</time>
      </trkpt>
      <trkpt lat="39.56233" lon="3.3534">
        <ele>57.351056</ele>
        <time>2023-01-02T14:11:31.888Z</time>
      </trkpt>
      <trkpt lat="39.56235" lon="3.35327">
        <ele>57.3535</ele>
        <time>2023-01-02T14:11:57.897Z</time>
      </trkpt>
      <trkpt lat="39.56232" lon="3.35316">
        <ele>57.355782</ele>
        <time>2023-01-02T14:12:01.897Z</time>
      </trkpt>
      <trkpt lat="39.56225" lon="3.35307">
        <ele>57.35824</ele>
        <time>2023-01-02T14:12:05.902Z</time>
      </trkpt>
      <trkpt lat="39.56213" lon="3.35299">
        <ele>57.361553</ele>
        <time>2023-01-02T14:12:32.899Z</time>
      </trkpt>
      <trkpt lat="39.56204" lon="3.35291">
        <ele>57.364299</ele>
        <time>2023-01-02T14:12:38.893Z</time>
      </trkpt>
      <trkpt lat="39.56195" lon="3.35285">
        <ele>57.366868</ele>
        <time>2023-01-02T14:12:42.899Z</time>
      </trkpt>
      <trkpt lat="39.56185" lon="3.35279">
        <ele>57.369444</ele>
        <time>2023-01-02T14:12:45.902Z</time>
      </trkpt>
      <trkpt lat="39.56176" lon="3.35273">
        <ele>57.372043</ele>
        <time>2023-01-02T14:12:48.912Z</time>
      </trkpt>
      <trkpt lat="39.56166" lon="3.35268">
        <ele>57.374832</ele>
        <time>2023-01-02T14:12:51.906Z</time>
      </trkpt>
      <trkpt lat="39.56155" lon="3.35262">
        <ele>57.377821</ele>
        <time>2023-01-02T14:12:54.901Z</time>
      </trkpt>
      <trkpt lat="39.56143" lon="3.35257">
        <ele>57.380836</ele>
        <time>2023-01-02T14:12:57.900Z</time>
      </trkpt>
      <trkpt lat="39.56132" lon="3.3525">
        <ele>57.383969</ele>
        <time>2023-01-02T14:13:00.885Z</time>
      </trkpt>
      <trkpt lat="39.5612" lon="3.35245">
        <ele>57.38697</ele>
        <time>2023-01-02T14:13:03.902Z</time>
      </trkpt>
      <trkpt lat="39.56109" lon="3.35239">
        <ele>57.390136</ele>
        <time>2023-01-02T14:13:06.913Z</time>
      </trkpt>
      <trkpt lat="39.561" lon="3.35235">
        <ele>57.392429</ele>
        <time>2023-01-02T14:13:08.907Z</time>
      </trkpt>
      <trkpt lat="39.56091" lon="3.3523">
        <ele>57.394741</ele>
        <time>2023-01-02T14:13:10.899Z</time>
      </trkpt>
      <trkpt lat="39.56083" lon="3.35226">
        <ele>57.419714</ele>
        <time>2023-01-02T14:13:12.911Z</time>
      </trkpt>
      <trkpt lat="39.56071" lon="3.3522">
        <ele>57.463146</ele>
        <time>2023-01-02T14:13:15.902Z</time>
      </trkpt>
      <trkpt lat="39.56061" lon="3.35214">
        <ele>57.498226</ele>
        <time>2023-01-02T14:13:18.902Z</time>
      </trkpt>
      <trkpt lat="39.56051" lon="3.3521">
        <ele>57.535328</ele>
        <time>2023-01-02T14:13:22.899Z</time>
      </trkpt>
      <trkpt lat="39.56041" lon="3.35209">
        <ele>57.567287</ele>
        <time>2023-01-02T14:13:26.912Z</time>
      </trkpt>
      <trkpt lat="39.56053" lon="3.35207">
        <ele>57.606299</ele>
        <time>2023-01-02T14:13:37.894Z</time>
      </trkpt>
      <trkpt lat="39.56063" lon="3.35212">
        <ele>57.643503</ele>
        <time>2023-01-02T14:13:40.889Z</time>
      </trkpt>
      <trkpt lat="39.56076" lon="3.35217">
        <ele>57.688451</ele>
        <time>2023-01-02T14:13:43.883Z</time>
      </trkpt>
      <trkpt lat="39.56088" lon="3.35223">
        <ele>57.731067</ele>
        <time>2023-01-02T14:13:46.912Z</time>
      </trkpt>
      <trkpt lat="39.56097" lon="3.35227">
        <ele>57.763631</ele>
        <time>2023-01-02T14:13:48.898Z</time>
      </trkpt>
      <trkpt lat="39.56106" lon="3.35231">
        <ele>57.796742</ele>
        <time>2023-01-02T14:13:50.895Z</time>
      </trkpt>
      <trkpt lat="39.56116" lon="3.35236">
        <ele>57.831244</ele>
        <time>2023-01-02T14:13:52.921Z</time>
      </trkpt>
      <trkpt lat="39.56125" lon="3.3524">
        <ele>57.865024</ele>
        <time>2023-01-02T14:13:54.904Z</time>
      </trkpt>
      <trkpt lat="39.56135" lon="3.35245">
        <ele>57.899841</ele>
        <time>2023-01-02T14:13:56.900Z</time>
      </trkpt>
      <trkpt lat="39.56145" lon="3.3525">
        <ele>57.935249</ele>
        <time>2023-01-02T14:13:58.900Z</time>
      </trkpt>
      <trkpt lat="39.56155" lon="3.35255">
        <ele>57.971598</ele>
        <time>2023-01-02T14:14:00.898Z</time>
      </trkpt>
      <trkpt lat="39.56165" lon="3.35261">
        <ele>57.993054</ele>
        <time>2023-01-02T14:14:02.905Z</time>
      </trkpt>
      <trkpt lat="39.56175" lon="3.35267">
        <ele>57.962679</ele>
        <time>2023-01-02T14:14:04.894Z</time>
      </trkpt>
      <trkpt lat="39.56185" lon="3.35273">
        <ele>57.932941</ele>
        <time>2023-01-02T14:14:06.895Z</time>
      </trkpt>
      <trkpt lat="39.56195" lon="3.35279">
        <ele>57.903223</ele>
        <time>2023-01-02T14:14:08.904Z</time>
      </trkpt>
      <trkpt lat="39.56205" lon="3.35285">
        <ele>57.872432</ele>
        <time>2023-01-02T14:14:10.884Z</time>
      </trkpt>
      <trkpt lat="39.56216" lon="3.3529">
        <ele>57.841221</ele>
        <time>2023-01-02T14:14:12.916Z</time>
      </trkpt>
      <trkpt lat="39.56227" lon="3.35296">
        <ele>57.810266</ele>
        <time>2023-01-02T14:14:14.901Z</time>
      </trkpt>
      <trkpt lat="39.56237" lon="3.35302">
        <ele>57.778153</ele>
        <time>2023-01-02T14:14:16.895Z</time>
      </trkpt>
      <trkpt lat="39.56248" lon="3.35308">
        <ele>57.747443</ele>
        <time>2023-01-02T14:14:18.899Z</time>
      </trkpt>
      <trkpt lat="39.56259" lon="3.35314">
        <ele>57.715822</ele>
        <time>2023-01-02T14:14:20.893Z</time>
      </trkpt>
      <trkpt lat="39.5627" lon="3.3532">
        <ele>57.683378</ele>
        <time>2023-01-02T14:14:22.895Z</time>
      </trkpt>
      <trkpt lat="39.56281" lon="3.35327">
        <ele>57.650812</ele>
        <time>2023-01-02T14:14:24.905Z</time>
      </trkpt>
      <trkpt lat="39.56291" lon="3.35335">
        <ele>57.616621</ele>
        <time>2023-01-02T14:14:26.891Z</time>
      </trkpt>
      <trkpt lat="39.56303" lon="3.35342">
        <ele>57.581939</ele>
        <time>2023-01-02T14:14:28.897Z</time>
      </trkpt>
      <trkpt lat="39.56315" lon="3.35348">
        <ele>57.547922</ele>
        <time>2023-01-02T14:14:30.908Z</time>
      </trkpt>
      <trkpt lat="39.56326" lon="3.35355">
        <ele>57.514401</ele>
        <time>2023-01-02T14:14:32.898Z</time>
      </trkpt>
      <trkpt lat="39.56337" lon="3.35361">
        <ele>57.494431</ele>
        <time>2023-01-02T14:14:34.899Z</time>
      </trkpt>
      <trkpt lat="39.56349" lon="3.35367">
        <ele>57.474557</ele>
        <time>2023-01-02T14:14:36.909Z</time>
      </trkpt>
      <trkpt lat="39.5636" lon="3.35373">
        <ele>57.454291</ele>
        <time>2023-01-02T14:14:38.915Z</time>
      </trkpt>
      <trkpt lat="39.56372" lon="3.3538">
        <ele>57.434269</ele>
        <time>2023-01-02T14:14:40.904Z</time>
      </trkpt>
      <trkpt lat="39.56383" lon="3.35386">
        <ele>57.414246</ele>
        <time>2023-01-02T14:14:42.908Z</time>
      </trkpt>
      <trkpt lat="39.56394" lon="3.35392">
        <ele>57.394818</ele>
        <time>2023-01-02T14:14:44.897Z</time>
      </trkpt>
      <trkpt lat="39.56405" lon="3.35398">
        <ele>57.375391</ele>
        <time>2023-01-02T14:14:46.916Z</time>
      </trkpt>
      <trkpt lat="39.56417" lon="3.35404">
        <ele>57.355368</ele>
        <time>2023-01-02T14:14:48.900Z</time>
      </trkpt>
      <trkpt lat="39.56428" lon="3.3541">
        <ele>57.335644</ele>
        <time>2023-01-02T14:14:50.904Z</time>
      </trkpt>
      <trkpt lat="39.56439" lon="3.35417">
        <ele>57.315723</ele>
        <time>2023-01-02T14:14:52.914Z</time>
      </trkpt>
      <trkpt lat="39.56451" lon="3.35423">
        <ele>57.295653</ele>
        <time>2023-01-02T14:14:54.901Z</time>
      </trkpt>
      <trkpt lat="39.56462" lon="3.3543">
        <ele>57.276069</ele>
        <time>2023-01-02T14:14:56.900Z</time>
      </trkpt>
      <trkpt lat="39.56473" lon="3.35437">
        <ele>57.256286</ele>
        <time>2023-01-02T14:14:58.923Z</time>
      </trkpt>
      <trkpt lat="39.56484" lon="3.35443">
        <ele>57.236357</ele>
        <time>2023-01-02T14:15:00.903Z</time>
      </trkpt>
      <trkpt lat="39.56496" lon="3.3545">
        <ele>57.258909</ele>
        <time>2023-01-02T14:15:02.903Z</time>
      </trkpt>
      <trkpt lat="39.56507" lon="3.35457">
        <ele>57.352069</ele>
        <time>2023-01-02T14:15:04.900Z</time>
      </trkpt>
      <trkpt lat="39.56519" lon="3.35464">
        <ele>57.445066</ele>
        <time>2023-01-02T14:15:06.897Z</time>
      </trkpt>
      <trkpt lat="39.5653" lon="3.3547">
        <ele>57.536191</ele>
        <time>2023-01-02T14:15:08.906Z</time>
      </trkpt>
      <trkpt lat="39.56542" lon="3.35476">
        <ele>57.628505</ele>
        <time>2023-01-02T14:15:10.901Z</time>
      </trkpt>
      <trkpt lat="39.56553" lon="3.35483">
        <ele>57.719874</ele>
        <time>2023-01-02T14:15:12.896Z</time>
      </trkpt>
      <trkpt lat="39.56565" lon="3.35489">
        <ele>57.813025</ele>
        <time>2023-01-02T14:15:14.914Z</time>
      </trkpt>
      <trkpt lat="39.56576" lon="3.35495">
        <ele>57.904608</ele>
        <time>2023-01-02T14:15:16.896Z</time>
      </trkpt>
      <trkpt lat="39.56587" lon="3.35501">
        <ele>57.992144</ele>
        <time>2023-01-02T14:15:18.903Z</time>
      </trkpt>
      <trkpt lat="39.56599" lon="3.35507">
        <ele>58.080415</ele>
        <time>2023-01-02T14:15:20.903Z</time>
      </trkpt>
      <trkpt lat="39.5661" lon="3.35513">
        <ele>58.169576</ele>
        <time>2023-01-02T14:15:22.909Z</time>
      </trkpt>
      <trkpt lat="39.56621" lon="3.35518">
        <ele>58.259137</ele>
        <time>2023-01-02T14:15:24.894Z</time>
      </trkpt>
      <trkpt lat="39.56632" lon="3.35523">
        <ele>58.34543</ele>
        <time>2023-01-02T14:15:26.897Z</time>
      </trkpt>
      <trkpt lat="39.56643" lon="3.35528">
        <ele>58.430346</ele>
        <time>2023-01-02T14:15:28.907Z</time>
      </trkpt>
      <trkpt lat="39.56654" lon="3.35533">
        <ele>58.51191</ele>
        <time>2023-01-02T14:15:30.893Z</time>
      </trkpt>
      <trkpt lat="39.56664" lon="3.35538">
        <ele>58.68262</ele>
        <time>2023-01-02T14:15:32.908Z</time>
      </trkpt>
      <trkpt lat="39.56674" lon="3.35543">
        <ele>58.894229</ele>
        <time>2023-01-02T14:15:34.906Z</time>
      </trkpt>
      <trkpt lat="39.56683" lon="3.35548">
        <ele>59.10996</ele>
        <time>2023-01-02T14:15:36.892Z</time>
      </trkpt>
      <trkpt lat="39.56693" lon="3.35552">
        <ele>59.328037</ele>
        <time>2023-01-02T14:15:38.898Z</time>
      </trkpt>
      <trkpt lat="39.56703" lon="3.35556">
        <ele>59.542157</ele>
        <time>2023-01-02T14:15:40.900Z</time>
      </trkpt>
      <trkpt lat="39.56712" lon="3.35561">
        <ele>59.747536</ele>
        <time>2023-01-02T14:15:42.916Z</time>
      </trkpt>
      <trkpt lat="39.56721" lon="3.35565">
        <ele>59.949291</ele>
        <time>2023-01-02T14:15:44.896Z</time>
      </trkpt>
      <trkpt lat="39.5673" lon="3.35569">
        <ele>60.15345</ele>
        <time>2023-01-02T14:15:46.913Z</time>
      </trkpt>
      <trkpt lat="39.5674" lon="3.35573">
        <ele>60.366057</ele>
        <time>2023-01-02T14:15:48.925Z</time>
      </trkpt>
      <trkpt lat="39.5675" lon="3.35577">
        <ele>60.57172</ele>
        <time>2023-01-02T14:15:50.884Z</time>
      </trkpt>
      <trkpt lat="39.56759" lon="3.35581">
        <ele>60.774398</ele>
        <time>2023-01-02T14:15:52.896Z</time>
      </trkpt>
      <trkpt lat="39.56768" lon="3.35584">
        <ele>60.981587</ele>
        <time>2023-01-02T14:15:54.900Z</time>
      </trkpt>
      <trkpt lat="39.56778" lon="3.35587">
        <ele>61.190261</ele>
        <time>2023-01-02T14:15:56.903Z</time>
      </trkpt>
      <trkpt lat="39.56787" lon="3.35592">
        <ele>61.39793</ele>
        <time>2023-01-02T14:15:58.915Z</time>
      </trkpt>
      <trkpt lat="39.56797" lon="3.35595">
        <ele>61.604216</ele>
        <time>2023-01-02T14:16:00.894Z</time>
      </trkpt>
      <trkpt lat="39.56807" lon="3.35599">
        <ele>61.814961</ele>
        <time>2023-01-02T14:16:02.903Z</time>
      </trkpt>
      <trkpt lat="39.56816" lon="3.35602">
        <ele>62.022409</ele>
        <time>2023-01-02T14:16:04.899Z</time>
      </trkpt>
      <trkpt lat="39.56826" lon="3.35606">
        <ele>62.24153</ele>
        <time>2023-01-02T14:16:06.896Z</time>
      </trkpt>
      <trkpt lat="39.56836" lon="3.3561">
        <ele>62.149762</ele>
        <time>2023-01-02T14:16:08.892Z</time>
      </trkpt>
      <trkpt lat="39.56846" lon="3.35613">
        <ele>61.927122</ele>
        <time>2023-01-02T14:16:10.889Z</time>
      </trkpt>
      <trkpt lat="39.56857" lon="3.35617">
        <ele>61.706379</ele>
        <time>2023-01-02T14:16:12.903Z</time>
      </trkpt>
      <trkpt lat="39.56867" lon="3.35621">
        <ele>61.476088</ele>
        <time>2023-01-02T14:16:14.893Z</time>
      </trkpt>
      <trkpt lat="39.56878" lon="3.35625">
        <ele>61.237779</ele>
        <time>2023-01-02T14:16:16.899Z</time>
      </trkpt>
      <trkpt lat="39.56889" lon="3.35629">
        <ele>61.001883</ele>
        <time>2023-01-02T14:16:18.894Z</time>
      </trkpt>
      <trkpt lat="39.56901" lon="3.35633">
        <ele>60.760945</ele>
        <time>2023-01-02T14:16:20.895Z</time>
      </trkpt>
      <trkpt lat="39.56912" lon="3.35637">
        <ele>60.514199</ele>
        <time>2023-01-02T14:16:22.898Z</time>
      </trkpt>
      <trkpt lat="39.56924" lon="3.35641">
        <ele>60.25689</ele>
        <time>2023-01-02T14:16:24.896Z</time>
      </trkpt>
      <trkpt lat="39.56937" lon="3.35646">
        <ele>59.986432</ele>
        <time>2023-01-02T14:16:26.899Z</time>
      </trkpt>
      <trkpt lat="39.56949" lon="3.35651">
        <ele>59.713373</ele>
        <time>2023-01-02T14:16:28.895Z</time>
      </trkpt>
      <trkpt lat="39.56963" lon="3.35655">
        <ele>59.416786</ele>
        <time>2023-01-02T14:16:30.880Z</time>
      </trkpt>
      <trkpt lat="39.56977" lon="3.3566">
        <ele>59.120609</ele>
        <time>2023-01-02T14:16:32.902Z</time>
      </trkpt>
      <trkpt lat="39.56991" lon="3.35664">
        <ele>58.808144</ele>
        <time>2023-01-02T14:16:34.900Z</time>
      </trkpt>
      <trkpt lat="39.57007" lon="3.35668">
        <ele>58.537182</ele>
        <time>2023-01-02T14:16:36.914Z</time>
      </trkpt>
      <trkpt lat="39.57023" lon="3.35671">
        <ele>58.41302</ele>
        <time>2023-01-02T14:16:38.899Z</time>
      </trkpt>
      <trkpt lat="39.5704" lon="3.35672">
        <ele>58.283542</ele>
        <time>2023-01-02T14:16:40.892Z</time>
      </trkpt>
      <trkpt lat="39.57057" lon="3.35673">
        <ele>58.150356</ele>
        <time>2023-01-02T14:16:42.916Z</time>
      </trkpt>
      <trkpt lat="39.57075" lon="3.35674">
        <ele>58.017294</ele>
        <time>2023-01-02T14:16:44.911Z</time>
      </trkpt>
      <trkpt lat="39.57093" lon="3.35675">
        <ele>57.87882</ele>
        <time>2023-01-02T14:16:46.898Z</time>
      </trkpt>
      <trkpt lat="39.5711" lon="3.35676">
        <ele>57.746427</ele>
        <time>2023-01-02T14:16:48.895Z</time>
      </trkpt>
      <trkpt lat="39.57127" lon="3.35677">
        <ele>57.617982</ele>
        <time>2023-01-02T14:16:50.885Z</time>
      </trkpt>
      <trkpt lat="39.57143" lon="3.35678">
        <ele>57.49707</ele>
        <time>2023-01-02T14:16:52.884Z</time>
      </trkpt>
      <trkpt lat="39.57158" lon="3.35678">
        <ele>57.380099</ele>
        <time>2023-01-02T14:16:54.896Z</time>
      </trkpt>
      <trkpt lat="39.57173" lon="3.35679">
        <ele>57.266821</ele>
        <time>2023-01-02T14:16:56.899Z</time>
      </trkpt>
      <trkpt lat="39.57187" lon="3.35681">
        <ele>57.238685</ele>
        <time>2023-01-02T14:16:58.896Z</time>
      </trkpt>
      <trkpt lat="39.57201" lon="3.35683">
        <ele>57.361009</ele>
        <time>2023-01-02T14:17:00.887Z</time>
      </trkpt>
      <trkpt lat="39.57214" lon="3.35686">
        <ele>57.477798</ele>
        <time>2023-01-02T14:17:02.894Z</time>
      </trkpt>
      <trkpt lat="39.57227" lon="3.35689">
        <ele>57.587712</ele>
        <time>2023-01-02T14:17:04.895Z</time>
      </trkpt>
      <trkpt lat="39.57238" lon="3.35692">
        <ele>57.689905</ele>
        <time>2023-01-02T14:17:06.915Z</time>
      </trkpt>
      <trkpt lat="39.57248" lon="3.35696">
        <ele>57.783505</ele>
        <time>2023-01-02T14:17:08.871Z</time>
      </trkpt>
      <trkpt lat="39.57258" lon="3.357">
        <ele>57.867108</ele>
        <time>2023-01-02T14:17:10.895Z</time>
      </trkpt>
      <trkpt lat="39.57266" lon="3.35704">
        <ele>57.946453</ele>
        <time>2023-01-02T14:17:12.894Z</time>
      </trkpt>
      <trkpt lat="39.57277" lon="3.35712">
        <ele>58.052999</ele>
        <time>2023-01-02T14:17:15.897Z</time>
      </trkpt>
      <trkpt lat="39.57284" lon="3.35723">
        <ele>58.154856</ele>
        <time>2023-01-02T14:17:18.903Z</time>
      </trkpt>
      <trkpt lat="39.57291" lon="3.35737">
        <ele>58.264336</ele>
        <time>2023-01-02T14:17:21.921Z</time>
      </trkpt>
      <trkpt lat="39.57303" lon="3.35741">
        <ele>58.369515</ele>
        <time>2023-01-02T14:17:24.900Z</time>
      </trkpt>
      <trkpt lat="39.57316" lon="3.35741">
        <ele>58.487375</ele>
        <time>2023-01-02T14:17:27.899Z</time>
      </trkpt>
      <trkpt lat="39.57326" lon="3.35741">
        <ele>58.567634</ele>
        <time>2023-01-02T14:17:29.915Z</time>
      </trkpt>
      <trkpt lat="39.57338" lon="3.35748">
        <ele>58.685871</ele>
        <time>2023-01-02T14:17:32.900Z</time>
      </trkpt>
      <trkpt lat="39.57346" lon="3.35754">
        <ele>58.752905</ele>
        <time>2023-01-02T14:17:34.886Z</time>
      </trkpt>
      <trkpt lat="39.57355" lon="3.3576">
        <ele>58.609825</ele>
        <time>2023-01-02T14:17:36.899Z</time>
      </trkpt>
      <trkpt lat="39.57364" lon="3.35767">
        <ele>58.462249</ele>
        <time>2023-01-02T14:17:38.899Z</time>
      </trkpt>
      <trkpt lat="39.57373" lon="3.35775">
        <ele>58.308652</ele>
        <time>2023-01-02T14:17:40.879Z</time>
      </trkpt>
      <trkpt lat="39.57383" lon="3.35782">
        <ele>58.141442</ele>
        <time>2023-01-02T14:17:42.896Z</time>
      </trkpt>
      <trkpt lat="39.57393" lon="3.3579">
        <ele>57.97143</ele>
        <time>2023-01-02T14:17:44.894Z</time>
      </trkpt>
      <trkpt lat="39.57403" lon="3.35797">
        <ele>57.802963</ele>
        <time>2023-01-02T14:17:46.908Z</time>
      </trkpt>
      <trkpt lat="39.57414" lon="3.35805">
        <ele>57.626035</ele>
        <time>2023-01-02T14:17:48.896Z</time>
      </trkpt>
      <trkpt lat="39.57425" lon="3.35813">
        <ele>57.444789</ele>
        <time>2023-01-02T14:17:50.885Z</time>
      </trkpt>
      <trkpt lat="39.57436" lon="3.35821">
        <ele>57.259218</ele>
        <time>2023-01-02T14:17:52.893Z</time>
      </trkpt>
      <trkpt lat="39.57448" lon="3.35829">
        <ele>57.067519</ele>
        <time>2023-01-02T14:17:54.918Z</time>
      </trkpt>
      <trkpt lat="39.57459" lon="3.35837">
        <ele>56.882477</ele>
        <time>2023-01-02T14:17:56.906Z</time>
      </trkpt>
      <trkpt lat="39.5747" lon="3.35846">
        <ele>56.694954</ele>
        <time>2023-01-02T14:17:58.895Z</time>
      </trkpt>
      <trkpt lat="39.57481" lon="3.35854">
        <ele>56.514424</ele>
        <time>2023-01-02T14:18:00.884Z</time>
      </trkpt>
      <trkpt lat="39.57492" lon="3.35862">
        <ele>56.335277</ele>
        <time>2023-01-02T14:18:02.894Z</time>
      </trkpt>
      <trkpt lat="39.57503" lon="3.3587">
        <ele>56.187467</ele>
        <time>2023-01-02T14:18:04.900Z</time>
      </trkpt>
      <trkpt lat="39.57514" lon="3.35878">
        <ele>56.361221</ele>
        <time>2023-01-02T14:18:06.895Z</time>
      </trkpt>
      <trkpt lat="39.57525" lon="3.35885">
        <ele>56.529447</ele>
        <time>2023-01-02T14:18:08.911Z</time>
      </trkpt>
      <trkpt lat="39.57535" lon="3.35894">
        <ele>56.703734</ele>
        <time>2023-01-02T14:18:10.890Z</time>
      </trkpt>
      <trkpt lat="39.57546" lon="3.35902">
        <ele>56.876103</ele>
        <time>2023-01-02T14:18:12.906Z</time>
      </trkpt>
      <trkpt lat="39.57557" lon="3.3591">
        <ele>57.045873</ele>
        <time>2023-01-02T14:18:14.910Z</time>
      </trkpt>
      <trkpt lat="39.57567" lon="3.35917">
        <ele>57.207524</ele>
        <time>2023-01-02T14:18:16.900Z</time>
      </trkpt>
      <trkpt lat="39.57576" lon="3.35924">
        <ele>57.355052</ele>
        <time>2023-01-02T14:18:18.895Z</time>
      </trkpt>
      <trkpt lat="39.57586" lon="3.35932">
        <ele>57.510166</ele>
        <time>2023-01-02T14:18:20.885Z</time>
      </trkpt>
      <trkpt lat="39.57595" lon="3.35938">
        <ele>57.654897</ele>
        <time>2023-01-02T14:18:22.889Z</time>
      </trkpt>
      <trkpt lat="39.57604" lon="3.35945">
        <ele>57.796576</ele>
        <time>2023-01-02T14:18:24.888Z</time>
      </trkpt>
      <trkpt lat="39.57612" lon="3.35951">
        <ele>57.933878</ele>
        <time>2023-01-02T14:18:26.894Z</time>
      </trkpt>
      <trkpt lat="39.57622" lon="3.35957">
        <ele>58.076053</ele>
        <time>2023-01-02T14:18:28.895Z</time>
      </trkpt>
      <trkpt lat="39.5763" lon="3.35964">
        <ele>58.216293</ele>
        <time>2023-01-02T14:18:30.883Z</time>
      </trkpt>
      <trkpt lat="39.57639" lon="3.3597">
        <ele>58.352233</ele>
        <time>2023-01-02T14:18:32.892Z</time>
      </trkpt>
      <trkpt lat="39.57647" lon="3.35975">
        <ele>58.480974</ele>
        <time>2023-01-02T14:18:34.903Z</time>
      </trkpt>
      <trkpt lat="39.57659" lon="3.35983">
        <ele>58.669133</ele>
        <time>2023-01-02T14:18:37.908Z</time>
      </trkpt>
      <trkpt lat="39.5767" lon="3.35992">
        <ele>59.038743</ele>
        <time>2023-01-02T14:18:40.888Z</time>
      </trkpt>
      <trkpt lat="39.57682" lon="3.35999">
        <ele>59.392612</ele>
        <time>2023-01-02T14:18:43.895Z</time>
      </trkpt>
      <trkpt lat="39.57693" lon="3.36007">
        <ele>59.753525</ele>
        <time>2023-01-02T14:18:46.897Z</time>
      </trkpt>
      <trkpt lat="39.57704" lon="3.36014">
        <ele>60.105885</ele>
        <time>2023-01-02T14:18:49.917Z</time>
      </trkpt>
      <trkpt lat="39.57715" lon="3.36021">
        <ele>60.457234</ele>
        <time>2023-01-02T14:18:52.889Z</time>
      </trkpt>
      <trkpt lat="39.57726" lon="3.36029">
        <ele>60.802542</ele>
        <time>2023-01-02T14:18:55.903Z</time>
      </trkpt>
      <trkpt lat="39.57737" lon="3.36036">
        <ele>61.146446</ele>
        <time>2023-01-02T14:18:58.887Z</time>
      </trkpt>
      <trkpt lat="39.57747" lon="3.36042">
        <ele>61.483339</ele>
        <time>2023-01-02T14:19:01.916Z</time>
      </trkpt>
      <trkpt lat="39.57759" lon="3.36049">
        <ele>61.842537</ele>
        <time>2023-01-02T14:19:04.897Z</time>
      </trkpt>
      <trkpt lat="39.5777" lon="3.36055">
        <ele>62.177553</ele>
        <time>2023-01-02T14:19:07.909Z</time>
      </trkpt>
      <trkpt lat="39.5778" lon="3.36061">
        <ele>62.508083</ele>
        <time>2023-01-02T14:19:10.888Z</time>
      </trkpt>
      <trkpt lat="39.57791" lon="3.36069">
        <ele>62.861951</ele>
        <time>2023-01-02T14:19:13.897Z</time>
      </trkpt>
      <trkpt lat="39.57803" lon="3.36076">
        <ele>63.229863</ele>
        <time>2023-01-02T14:19:16.892Z</time>
      </trkpt>
      <trkpt lat="39.57815" lon="3.36083">
        <ele>63.59705</ele>
        <time>2023-01-02T14:19:19.904Z</time>
      </trkpt>
      <trkpt lat="39.57826" lon="3.36089">
        <ele>63.741594</ele>
        <time>2023-01-02T14:19:22.903Z</time>
      </trkpt>
      <trkpt lat="39.57838" lon="3.36096">
        <ele>63.706698</ele>
        <time>2023-01-02T14:19:25.879Z</time>
      </trkpt>
      <trkpt lat="39.5785" lon="3.36103">
        <ele>63.672536</ele>
        <time>2023-01-02T14:19:28.898Z</time>
      </trkpt>
      <trkpt lat="39.57862" lon="3.3611">
        <ele>63.637704</ele>
        <time>2023-01-02T14:19:31.899Z</time>
      </trkpt>
      <trkpt lat="39.5787" lon="3.36114">
        <ele>63.613583</ele>
        <time>2023-01-02T14:19:33.917Z</time>
      </trkpt>
      <trkpt lat="39.57882" lon="3.36121">
        <ele>63.579586</ele>
        <time>2023-01-02T14:19:36.909Z</time>
      </trkpt>
      <trkpt lat="39.57893" lon="3.36128">
        <ele>63.545499</ele>
        <time>2023-01-02T14:19:39.909Z</time>
      </trkpt>
      <trkpt lat="39.57902" lon="3.36132">
        <ele>63.521129</ele>
        <time>2023-01-02T14:19:41.913Z</time>
      </trkpt>
      <trkpt lat="39.57914" lon="3.36139">
        <ele>63.485984</ele>
        <time>2023-01-02T14:19:44.902Z</time>
      </trkpt>
      <trkpt lat="39.57922" lon="3.36144">
        <ele>63.461711</ele>
        <time>2023-01-02T14:19:46.895Z</time>
      </trkpt>
      <trkpt lat="39.57931" lon="3.36148">
        <ele>63.435872</ele>
        <time>2023-01-02T14:19:48.895Z</time>
      </trkpt>
      <trkpt lat="39.57943" lon="3.36155">
        <ele>63.399995</ele>
        <time>2023-01-02T14:19:51.909Z</time>
      </trkpt>
      <trkpt lat="39.57952" lon="3.3616">
        <ele>63.375065</ele>
        <time>2023-01-02T14:19:53.896Z</time>
      </trkpt>
      <trkpt lat="39.57961" lon="3.36166">
        <ele>63.349214</ele>
        <time>2023-01-02T14:19:55.895Z</time>
      </trkpt>
      <trkpt lat="39.57969" lon="3.3617">
        <ele>63.324939</ele>
        <time>2023-01-02T14:19:57.901Z</time>
      </trkpt>
      <trkpt lat="39.57978" lon="3.36175">
        <ele>63.299686</ele>
        <time>2023-01-02T14:19:59.902Z</time>
      </trkpt>
      <trkpt lat="39.57986" lon="3.3618">
        <ele>63.269918</ele>
        <time>2023-01-02T14:20:01.914Z</time>
      </trkpt>
      <trkpt lat="39.57995" lon="3.36185">
        <ele>63.215539</ele>
        <time>2023-01-02T14:20:03.897Z</time>
      </trkpt>
      <trkpt lat="39.58003" lon="3.3619">
        <ele>63.162883</ele>
        <time>2023-01-02T14:20:05.914Z</time>
      </trkpt>
      <trkpt lat="39.58012" lon="3.36195">
        <ele>63.10952</ele>
        <time>2023-01-02T14:20:07.913Z</time>
      </trkpt>
      <trkpt lat="39.5802" lon="3.362">
        <ele>63.056543</ele>
        <time>2023-01-02T14:20:09.911Z</time>
      </trkpt>
      <trkpt lat="39.58029" lon="3.36205">
        <ele>63.002689</ele>
        <time>2023-01-02T14:20:11.903Z</time>
      </trkpt>
      <trkpt lat="39.58037" lon="3.3621">
        <ele>62.949883</ele>
        <time>2023-01-02T14:20:13.899Z</time>
      </trkpt>
      <trkpt lat="39.58046" lon="3.36215">
        <ele>62.896731</ele>
        <time>2023-01-02T14:20:15.905Z</time>
      </trkpt>
      <trkpt lat="39.58054" lon="3.36219">
        <ele>62.842498</ele>
        <time>2023-01-02T14:20:17.899Z</time>
      </trkpt>
      <trkpt lat="39.58063" lon="3.36224">
        <ele>62.788617</ele>
        <time>2023-01-02T14:20:19.899Z</time>
      </trkpt>
      <trkpt lat="39.58072" lon="3.36229">
        <ele>62.732825</ele>
        <time>2023-01-02T14:20:21.897Z</time>
      </trkpt>
      <trkpt lat="39.58081" lon="3.36234">
        <ele>62.676503</ele>
        <time>2023-01-02T14:20:23.897Z</time>
      </trkpt>
      <trkpt lat="39.58089" lon="3.36239">
        <ele>62.623266</ele>
        <time>2023-01-02T14:20:25.900Z</time>
      </trkpt>
      <trkpt lat="39.58099" lon="3.36244">
        <ele>62.565183</ele>
        <time>2023-01-02T14:20:27.910Z</time>
      </trkpt>
      <trkpt lat="39.58108" lon="3.36249">
        <ele>62.505174</ele>
        <time>2023-01-02T14:20:29.915Z</time>
      </trkpt>
      <trkpt lat="39.58117" lon="3.36255">
        <ele>62.448506</ele>
        <time>2023-01-02T14:20:31.906Z</time>
      </trkpt>
      <trkpt lat="39.58127" lon="3.3626">
        <ele>62.392183</ele>
        <time>2023-01-02T14:20:33.915Z</time>
      </trkpt>
      <trkpt lat="39.58136" lon="3.36265">
        <ele>62.333418</ele>
        <time>2023-01-02T14:20:35.901Z</time>
      </trkpt>
      <trkpt lat="39.58146" lon="3.36271">
        <ele>62.271475</ele>
        <time>2023-01-02T14:20:37.902Z</time>
      </trkpt>
      <trkpt lat="39.58156" lon="3.36276">
        <ele>62.151505</ele>
        <time>2023-01-02T14:20:39.897Z</time>
      </trkpt>
      <trkpt lat="39.58166" lon="3.36283">
        <ele>61.986428</ele>
        <time>2023-01-02T14:20:41.918Z</time>
      </trkpt>
      <trkpt lat="39.58177" lon="3.36289">
        <ele>61.811142</ele>
        <time>2023-01-02T14:20:43.908Z</time>
      </trkpt>
      <trkpt lat="39.58188" lon="3.36295">
        <ele>61.635909</ele>
        <time>2023-01-02T14:20:45.912Z</time>
      </trkpt>
      <trkpt lat="39.582" lon="3.36302">
        <ele>61.456691</ele>
        <time>2023-01-02T14:20:47.899Z</time>
      </trkpt>
      <trkpt lat="39.5821" lon="3.36308">
        <ele>61.283648</ele>
        <time>2023-01-02T14:20:49.905Z</time>
      </trkpt>
      <trkpt lat="39.58221" lon="3.36315">
        <ele>61.108233</ele>
        <time>2023-01-02T14:20:51.912Z</time>
      </trkpt>
      <trkpt lat="39.58232" lon="3.36322">
        <ele>60.930693</ele>
        <time>2023-01-02T14:20:53.920Z</time>
      </trkpt>
      <trkpt lat="39.58243" lon="3.36329">
        <ele>60.758398</ele>
        <time>2023-01-02T14:20:55.916Z</time>
      </trkpt>
      <trkpt lat="39.58253" lon="3.36336">
        <ele>60.591248</ele>
        <time>2023-01-02T14:20:57.905Z</time>
      </trkpt>
      <trkpt lat="39.58263" lon="3.36343">
        <ele>60.426154</ele>
        <time>2023-01-02T14:20:59.914Z</time>
      </trkpt>
      <trkpt lat="39.58273" lon="3.36349">
        <ele>60.272846</ele>
        <time>2023-01-02T14:21:01.904Z</time>
      </trkpt>
      <trkpt lat="39.58282" lon="3.36355">
        <ele>60.121619</ele>
        <time>2023-01-02T14:21:03.899Z</time>
      </trkpt>
      <trkpt lat="39.58291" lon="3.36361">
        <ele>59.969879</ele>
        <time>2023-01-02T14:21:05.904Z</time>
      </trkpt>
      <trkpt lat="39.58301" lon="3.36368">
        <ele>59.816025</ele>
        <time>2023-01-02T14:21:07.909Z</time>
      </trkpt>
      <trkpt lat="39.5831" lon="3.36375">
        <ele>59.659919</ele>
        <time>2023-01-02T14:21:09.902Z</time>
      </trkpt>
      <trkpt lat="39.5832" lon="3.36381">
        <ele>59.469851</ele>
        <time>2023-01-02T14:21:11.895Z</time>
      </trkpt>
      <trkpt lat="39.5833" lon="3.36388">
        <ele>59.289416</ele>
        <time>2023-01-02T14:21:13.912Z</time>
      </trkpt>
      <trkpt lat="39.58339" lon="3.36395">
        <ele>59.106262</ele>
        <time>2023-01-02T14:21:15.898Z</time>
      </trkpt>
      <trkpt lat="39.58348" lon="3.36403">
        <ele>58.91896</ele>
        <time>2023-01-02T14:21:17.909Z</time>
      </trkpt>
      <trkpt lat="39.58356" lon="3.36413">
        <ele>58.734037</ele>
        <time>2023-01-02T14:21:19.911Z</time>
      </trkpt>
      <trkpt lat="39.58361" lon="3.36426">
        <ele>58.552006</ele>
        <time>2023-01-02T14:21:21.901Z</time>
      </trkpt>
      <trkpt lat="39.58362" lon="3.36439">
        <ele>58.370042</ele>
        <time>2023-01-02T14:21:23.902Z</time>
      </trkpt>
      <trkpt lat="39.58359" lon="3.36453">
        <ele>58.191606</ele>
        <time>2023-01-02T14:21:25.890Z</time>
      </trkpt>
      <trkpt lat="39.58356" lon="3.36465">
        <ele>58.022704</ele>
        <time>2023-01-02T14:21:27.893Z</time>
      </trkpt>
      <trkpt lat="39.58352" lon="3.36477">
        <ele>57.855179</ele>
        <time>2023-01-02T14:21:29.903Z</time>
      </trkpt>
      <trkpt lat="39.58348" lon="3.36489">
        <ele>57.676758</ele>
        <time>2023-01-02T14:21:31.909Z</time>
      </trkpt>
      <trkpt lat="39.58343" lon="3.36501">
        <ele>57.503234</ele>
        <time>2023-01-02T14:21:33.902Z</time>
      </trkpt>
      <trkpt lat="39.58338" lon="3.36513">
        <ele>57.324617</ele>
        <time>2023-01-02T14:21:35.913Z</time>
      </trkpt>
      <trkpt lat="39.58333" lon="3.36524">
        <ele>57.160634</ele>
        <time>2023-01-02T14:21:37.902Z</time>
      </trkpt>
      <trkpt lat="39.58328" lon="3.36534">
        <ele>56.996413</ele>
        <time>2023-01-02T14:21:39.893Z</time>
      </trkpt>
      <trkpt lat="39.5832" lon="3.36544">
        <ele>56.823673</ele>
        <time>2023-01-02T14:21:41.902Z</time>
      </trkpt>
      <trkpt lat="39.58312" lon="3.36552">
        <ele>56.643333</ele>
        <time>2023-01-02T14:21:43.891Z</time>
      </trkpt>
      <trkpt lat="39.58302" lon="3.3656">
        <ele>56.482819</ele>
        <time>2023-01-02T14:21:45.892Z</time>
      </trkpt>
      <trkpt lat="39.58293" lon="3.36569">
        <ele>56.326895</ele>
        <time>2023-01-02T14:21:47.889Z</time>
      </trkpt>
      <trkpt lat="39.58283" lon="3.36577">
        <ele>56.170377</ele>
        <time>2023-01-02T14:21:49.898Z</time>
      </trkpt>
      <trkpt lat="39.58273" lon="3.36586">
        <ele>56.007139</ele>
        <time>2023-01-02T14:21:51.902Z</time>
      </trkpt>
      <trkpt lat="39.58263" lon="3.36593">
        <ele>55.845473</ele>
        <time>2023-01-02T14:21:53.899Z</time>
      </trkpt>
      <trkpt lat="39.58252" lon="3.36601">
        <ele>55.679947</ele>
        <time>2023-01-02T14:21:55.898Z</time>
      </trkpt>
      <trkpt lat="39.58242" lon="3.36611">
        <ele>55.509194</ele>
        <time>2023-01-02T14:21:57.898Z</time>
      </trkpt>
      <trkpt lat="39.58231" lon="3.3662">
        <ele>55.33858</ele>
        <time>2023-01-02T14:21:59.892Z</time>
      </trkpt>
      <trkpt lat="39.58221" lon="3.3663">
        <ele>55.163202</ele>
        <time>2023-01-02T14:22:01.904Z</time>
      </trkpt>
      <trkpt lat="39.58209" lon="3.36638">
        <ele>54.978968</ele>
        <time>2023-01-02T14:22:03.880Z</time>
      </trkpt>
      <trkpt lat="39.58198" lon="3.36648">
        <ele>54.802619</ele>
        <time>2023-01-02T14:22:05.915Z</time>
      </trkpt>
      <trkpt lat="39.58188" lon="3.36658">
        <ele>54.629247</ele>
        <time>2023-01-02T14:22:07.892Z</time>
      </trkpt>
      <trkpt lat="39.58178" lon="3.36666">
        <ele>54.46142</ele>
        <time>2023-01-02T14:22:09.896Z</time>
      </trkpt>
      <trkpt lat="39.58168" lon="3.36674">
        <ele>54.308391</ele>
        <time>2023-01-02T14:22:11.884Z</time>
      </trkpt>
      <trkpt lat="39.58159" lon="3.36682">
        <ele>54.179176</ele>
        <time>2023-01-02T14:22:13.893Z</time>
      </trkpt>
      <trkpt lat="39.58151" lon="3.3669">
        <ele>54.24819</ele>
        <time>2023-01-02T14:22:15.902Z</time>
      </trkpt>
      <trkpt lat="39.58142" lon="3.36696">
        <ele>54.314377</ele>
        <time>2023-01-02T14:22:17.914Z</time>
      </trkpt>
      <trkpt lat="39.58131" lon="3.36704">
        <ele>54.403446</ele>
        <time>2023-01-02T14:22:20.883Z</time>
      </trkpt>
      <trkpt lat="39.58121" lon="3.36714">
        <ele>54.48454</ele>
        <time>2023-01-02T14:22:23.897Z</time>
      </trkpt>
      <trkpt lat="39.58111" lon="3.3672">
        <ele>54.559544</ele>
        <time>2023-01-02T14:22:26.882Z</time>
      </trkpt>
      <trkpt lat="39.58104" lon="3.36727">
        <ele>54.623499</ele>
        <time>2023-01-02T14:22:29.898Z</time>
      </trkpt>
      <trkpt lat="39.58095" lon="3.36734">
        <ele>54.695574</ele>
        <time>2023-01-02T14:22:33.899Z</time>
      </trkpt>
      <trkpt lat="39.58087" lon="3.36741">
        <ele>54.757363</ele>
        <time>2023-01-02T14:22:37.912Z</time>
      </trkpt>
      <trkpt lat="39.58079" lon="3.36746">
        <ele>54.820764</ele>
        <time>2023-01-02T14:22:42.917Z</time>
      </trkpt>
      <trkpt lat="39.58076" lon="3.36748">
        <ele>54.842405</ele>
        <time>2023-01-02T14:22:52.799Z</time>
      </trkpt>
      <trkpt lat="39.5831" lon="3.36556">
        <ele>59.301114</ele>
        <time>2023-01-02T14:26:38.898Z</time>
      </trkpt>
      <trkpt lat="39.58302" lon="3.36561">
        <ele>59.210696</ele>
        <time>2023-01-02T14:26:42.904Z</time>
      </trkpt>
      <trkpt lat="39.58289" lon="3.36569">
        <ele>59.069251</ele>
        <time>2023-01-02T14:26:45.912Z</time>
      </trkpt>
      <trkpt lat="39.58279" lon="3.36578">
        <ele>58.948775</ele>
        <time>2023-01-02T14:26:48.911Z</time>
      </trkpt>
      <trkpt lat="39.58269" lon="3.36587">
        <ele>58.825733</ele>
        <time>2023-01-02T14:26:51.917Z</time>
      </trkpt>
      <trkpt lat="39.58257" lon="3.36596">
        <ele>58.692258</ele>
        <time>2023-01-02T14:26:54.913Z</time>
      </trkpt>
      <trkpt lat="39.58249" lon="3.36602">
        <ele>58.601311</ele>
        <time>2023-01-02T14:26:56.922Z</time>
      </trkpt>
      <trkpt lat="39.5824" lon="3.36608">
        <ele>58.505627</ele>
        <time>2023-01-02T14:26:58.911Z</time>
      </trkpt>
      <trkpt lat="39.58232" lon="3.36615">
        <ele>58.408153</ele>
        <time>2023-01-02T14:27:00.891Z</time>
      </trkpt>
      <trkpt lat="39.58223" lon="3.36623">
        <ele>58.302102</ele>
        <time>2023-01-02T14:27:02.897Z</time>
      </trkpt>
      <trkpt lat="39.58213" lon="3.3663">
        <ele>58.19019</ele>
        <time>2023-01-02T14:27:04.906Z</time>
      </trkpt>
      <trkpt lat="39.58204" lon="3.36639">
        <ele>58.077106</ele>
        <time>2023-01-02T14:27:06.900Z</time>
      </trkpt>
      <trkpt lat="39.58195" lon="3.36648">
        <ele>57.959812</ele>
        <time>2023-01-02T14:27:08.884Z</time>
      </trkpt>
      <trkpt lat="39.58185" lon="3.36657">
        <ele>57.844672</ele>
        <time>2023-01-02T14:27:10.892Z</time>
      </trkpt>
      <trkpt lat="39.58175" lon="3.36665">
        <ele>57.727081</ele>
        <time>2023-01-02T14:27:12.910Z</time>
      </trkpt>
      <trkpt lat="39.58166" lon="3.36672">
        <ele>57.523446</ele>
        <time>2023-01-02T14:27:14.921Z</time>
      </trkpt>
      <trkpt lat="39.58156" lon="3.3668">
        <ele>57.238221</ele>
        <time>2023-01-02T14:27:16.907Z</time>
      </trkpt>
      <trkpt lat="39.58148" lon="3.36687">
        <ele>56.980682</ele>
        <time>2023-01-02T14:27:18.901Z</time>
      </trkpt>
      <trkpt lat="39.58139" lon="3.36694">
        <ele>56.728449</ele>
        <time>2023-01-02T14:27:20.881Z</time>
      </trkpt>
      <trkpt lat="39.58131" lon="3.36701">
        <ele>56.482614</ele>
        <time>2023-01-02T14:27:22.906Z</time>
      </trkpt>
      <trkpt lat="39.58124" lon="3.36708">
        <ele>56.252745</ele>
        <time>2023-01-02T14:27:24.900Z</time>
      </trkpt>
      <trkpt lat="39.58116" lon="3.36714">
        <ele>56.024982</ele>
        <time>2023-01-02T14:27:26.895Z</time>
      </trkpt>
      <trkpt lat="39.58108" lon="3.36721">
        <ele>55.789764</ele>
        <time>2023-01-02T14:27:28.883Z</time>
      </trkpt>
      <trkpt lat="39.58097" lon="3.36729">
        <ele>55.469291</ele>
        <time>2023-01-02T14:27:31.909Z</time>
      </trkpt>
      <trkpt lat="39.58087" lon="3.36737">
        <ele>55.165887</ele>
        <time>2023-01-02T14:27:34.910Z</time>
      </trkpt>
      <trkpt lat="39.58077" lon="3.36745">
        <ele>54.871016</ele>
        <time>2023-01-02T14:27:37.907Z</time>
      </trkpt>
      <trkpt lat="39.58071" lon="3.36756">
        <ele>54.601441</ele>
        <time>2023-01-02T14:27:40.904Z</time>
      </trkpt>
      <trkpt lat="39.58067" lon="3.36772">
        <ele>54.279981</ele>
        <time>2023-01-02T14:27:43.901Z</time>
      </trkpt>
      <trkpt lat="39.58063" lon="3.36788">
        <ele>53.947618</ele>
        <time>2023-01-02T14:27:46.900Z</time>
      </trkpt>
      <trkpt lat="39.58061" lon="3.36799">
        <ele>53.715186</ele>
        <time>2023-01-02T14:27:48.894Z</time>
      </trkpt>
      <trkpt lat="39.58059" lon="3.36812">
        <ele>53.466986</ele>
        <time>2023-01-02T14:27:50.885Z</time>
      </trkpt>
      <trkpt lat="39.58057" lon="3.36825">
        <ele>53.193593</ele>
        <time>2023-01-02T14:27:52.902Z</time>
      </trkpt>
      <trkpt lat="39.58054" lon="3.36838">
        <ele>52.879419</ele>
        <time>2023-01-02T14:27:54.894Z</time>
      </trkpt>
      <trkpt lat="39.58051" lon="3.36852">
        <ele>52.537777</ele>
        <time>2023-01-02T14:27:56.921Z</time>
      </trkpt>
      <trkpt lat="39.58047" lon="3.36865">
        <ele>52.200467</ele>
        <time>2023-01-02T14:27:58.908Z</time>
      </trkpt>
      <trkpt lat="39.58044" lon="3.36879">
        <ele>51.856499</ele>
        <time>2023-01-02T14:28:00.884Z</time>
      </trkpt>
      <trkpt lat="39.5804" lon="3.36891">
        <ele>51.523756</ele>
        <time>2023-01-02T14:28:02.892Z</time>
      </trkpt>
      <trkpt lat="39.58037" lon="3.36904">
        <ele>51.210373</ele>
        <time>2023-01-02T14:28:04.895Z</time>
      </trkpt>
      <trkpt lat="39.58035" lon="3.36917">
        <ele>50.875699</ele>
        <time>2023-01-02T14:28:06.895Z</time>
      </trkpt>
      <trkpt lat="39.58032" lon="3.36931">
        <ele>50.543652</ele>
        <time>2023-01-02T14:28:08.903Z</time>
      </trkpt>
      <trkpt lat="39.58029" lon="3.36944">
        <ele>50.202894</ele>
        <time>2023-01-02T14:28:10.884Z</time>
      </trkpt>
      <trkpt lat="39.58026" lon="3.36958">
        <ele>49.857088</ele>
        <time>2023-01-02T14:28:12.918Z</time>
      </trkpt>
      <trkpt lat="39.58023" lon="3.36972">
        <ele>49.496453</ele>
        <time>2023-01-02T14:28:14.915Z</time>
      </trkpt>
      <trkpt lat="39.5802" lon="3.36986">
        <ele>49.140839</ele>
        <time>2023-01-02T14:28:16.899Z</time>
      </trkpt>
      <trkpt lat="39.58016" lon="3.37">
        <ele>48.786658</ele>
        <time>2023-01-02T14:28:18.897Z</time>
      </trkpt>
      <trkpt lat="39.58012" lon="3.37014">
        <ele>48.427387</ele>
        <time>2023-01-02T14:28:20.893Z</time>
      </trkpt>
      <trkpt lat="39.58009" lon="3.37028">
        <ele>48.053717</ele>
        <time>2023-01-02T14:28:22.901Z</time>
      </trkpt>
      <trkpt lat="39.58005" lon="3.37042">
        <ele>47.694761</ele>
        <time>2023-01-02T14:28:24.899Z</time>
      </trkpt>
      <trkpt lat="39.58001" lon="3.37056">
        <ele>47.470177</ele>
        <time>2023-01-02T14:28:26.912Z</time>
      </trkpt>
      <trkpt lat="39.57998" lon="3.37071">
        <ele>47.506052</ele>
        <time>2023-01-02T14:28:28.895Z</time>
      </trkpt>
      <trkpt lat="39.57994" lon="3.37085">
        <ele>47.540354</ele>
        <time>2023-01-02T14:28:30.903Z</time>
      </trkpt>
      <trkpt lat="39.57991" lon="3.37099">
        <ele>47.575201</ele>
        <time>2023-01-02T14:28:32.899Z</time>
      </trkpt>
      <trkpt lat="39.57989" lon="3.37113">
        <ele>47.609108</ele>
        <time>2023-01-02T14:28:34.892Z</time>
      </trkpt>
      <trkpt lat="39.57985" lon="3.37126">
        <ele>47.642272</ele>
        <time>2023-01-02T14:28:36.893Z</time>
      </trkpt>
      <trkpt lat="39.57981" lon="3.37139">
        <ele>47.67477</ele>
        <time>2023-01-02T14:28:38.912Z</time>
      </trkpt>
      <trkpt lat="39.57978" lon="3.37152">
        <ele>47.706513</ele>
        <time>2023-01-02T14:28:40.900Z</time>
      </trkpt>
      <trkpt lat="39.57974" lon="3.37164">
        <ele>47.738241</ele>
        <time>2023-01-02T14:28:42.908Z</time>
      </trkpt>
      <trkpt lat="39.57974" lon="3.37177">
        <ele>47.767577</ele>
        <time>2023-01-02T14:28:44.905Z</time>
      </trkpt>
      <trkpt lat="39.57984" lon="3.37186">
        <ele>47.805751</ele>
        <time>2023-01-02T14:28:47.891Z</time>
      </trkpt>
      <trkpt lat="39.57997" lon="3.37186">
        <ele>47.845888</ele>
        <time>2023-01-02T14:28:50.905Z</time>
      </trkpt>
      <trkpt lat="39.5801" lon="3.37189">
        <ele>47.886412</ele>
        <time>2023-01-02T14:28:53.913Z</time>
      </trkpt>
      <trkpt lat="39.58023" lon="3.37194">
        <ele>47.928112</ele>
        <time>2023-01-02T14:28:56.897Z</time>
      </trkpt>
      <trkpt lat="39.58032" lon="3.37198">
        <ele>47.957546</ele>
        <time>2023-01-02T14:28:58.898Z</time>
      </trkpt>
      <trkpt lat="39.58042" lon="3.37202">
        <ele>47.987778</ele>
        <time>2023-01-02T14:29:00.886Z</time>
      </trkpt>
      <trkpt lat="39.58051" lon="3.37206">
        <ele>48.009748</ele>
        <time>2023-01-02T14:29:02.884Z</time>
      </trkpt>
      <trkpt lat="39.58061" lon="3.3721">
        <ele>48.01223</ele>
        <time>2023-01-02T14:29:04.898Z</time>
      </trkpt>
      <trkpt lat="39.58071" lon="3.37213">
        <ele>48.014707</ele>
        <time>2023-01-02T14:29:06.902Z</time>
      </trkpt>
      <trkpt lat="39.58081" lon="3.37217">
        <ele>48.017194</ele>
        <time>2023-01-02T14:29:08.921Z</time>
      </trkpt>
      <trkpt lat="39.58091" lon="3.3722">
        <ele>48.0197</ele>
        <time>2023-01-02T14:29:10.896Z</time>
      </trkpt>
      <trkpt lat="39.58101" lon="3.37224">
        <ele>48.022221</ele>
        <time>2023-01-02T14:29:12.903Z</time>
      </trkpt>
      <trkpt lat="39.58111" lon="3.37228">
        <ele>48.024785</ele>
        <time>2023-01-02T14:29:14.913Z</time>
      </trkpt>
      <trkpt lat="39.58122" lon="3.37232">
        <ele>48.027323</ele>
        <time>2023-01-02T14:29:16.898Z</time>
      </trkpt>
      <trkpt lat="39.58132" lon="3.37235">
        <ele>48.029888</ele>
        <time>2023-01-02T14:29:18.898Z</time>
      </trkpt>
      <trkpt lat="39.58142" lon="3.37239">
        <ele>48.032368</ele>
        <time>2023-01-02T14:29:20.907Z</time>
      </trkpt>
      <trkpt lat="39.58152" lon="3.37242">
        <ele>48.034835</ele>
        <time>2023-01-02T14:29:22.906Z</time>
      </trkpt>
      <trkpt lat="39.58161" lon="3.37245">
        <ele>48.037227</ele>
        <time>2023-01-02T14:29:24.908Z</time>
      </trkpt>
      <trkpt lat="39.58171" lon="3.37249">
        <ele>48.039601</ele>
        <time>2023-01-02T14:29:26.884Z</time>
      </trkpt>
      <trkpt lat="39.5818" lon="3.37252">
        <ele>48.041922</ele>
        <time>2023-01-02T14:29:28.906Z</time>
      </trkpt>
      <trkpt lat="39.58189" lon="3.37256">
        <ele>48.044175</ele>
        <time>2023-01-02T14:29:30.915Z</time>
      </trkpt>
      <trkpt lat="39.58198" lon="3.37259">
        <ele>48.046437</ele>
        <time>2023-01-02T14:29:32.907Z</time>
      </trkpt>
      <trkpt lat="39.58208" lon="3.37262">
        <ele>48.048839</ele>
        <time>2023-01-02T14:29:34.903Z</time>
      </trkpt>
      <trkpt lat="39.58218" lon="3.37266">
        <ele>48.051362</ele>
        <time>2023-01-02T14:29:36.914Z</time>
      </trkpt>
      <trkpt lat="39.58228" lon="3.3727">
        <ele>48.026976</ele>
        <time>2023-01-02T14:29:38.902Z</time>
      </trkpt>
      <trkpt lat="39.58238" lon="3.37274">
        <ele>47.991224</ele>
        <time>2023-01-02T14:29:40.903Z</time>
      </trkpt>
      <trkpt lat="39.58247" lon="3.37278">
        <ele>47.953975</ele>
        <time>2023-01-02T14:29:42.908Z</time>
      </trkpt>
      <trkpt lat="39.58257" lon="3.37284">
        <ele>47.917087</ele>
        <time>2023-01-02T14:29:44.908Z</time>
      </trkpt>
      <trkpt lat="39.58266" lon="3.37289">
        <ele>47.880587</ele>
        <time>2023-01-02T14:29:46.905Z</time>
      </trkpt>
      <trkpt lat="39.58275" lon="3.37296">
        <ele>47.845287</ele>
        <time>2023-01-02T14:29:48.902Z</time>
      </trkpt>
      <trkpt lat="39.58286" lon="3.37304">
        <ele>47.798111</ele>
        <time>2023-01-02T14:29:51.911Z</time>
      </trkpt>
      <trkpt lat="39.58295" lon="3.37316">
        <ele>47.750924</ele>
        <time>2023-01-02T14:29:54.905Z</time>
      </trkpt>
      <trkpt lat="39.58299" lon="3.37328">
        <ele>47.715184</ele>
        <time>2023-01-02T14:29:56.896Z</time>
      </trkpt>
      <trkpt lat="39.58305" lon="3.37337">
        <ele>47.682529</ele>
        <time>2023-01-02T14:29:58.910Z</time>
      </trkpt>
      <trkpt lat="39.58316" lon="3.37347">
        <ele>47.634201</ele>
        <time>2023-01-02T14:30:01.907Z</time>
      </trkpt>
      <trkpt lat="39.58323" lon="3.37356">
        <ele>47.600892</ele>
        <time>2023-01-02T14:30:03.907Z</time>
      </trkpt>
      <trkpt lat="39.58327" lon="3.37367">
        <ele>47.565554</ele>
        <time>2023-01-02T14:30:05.905Z</time>
      </trkpt>
      <trkpt lat="39.58331" lon="3.37378">
        <ele>47.531939</ele>
        <time>2023-01-02T14:30:07.896Z</time>
      </trkpt>
      <trkpt lat="39.58335" lon="3.37389">
        <ele>47.498352</ele>
        <time>2023-01-02T14:30:09.917Z</time>
      </trkpt>
      <trkpt lat="39.58341" lon="3.37399">
        <ele>47.463964</ele>
        <time>2023-01-02T14:30:11.905Z</time>
      </trkpt>
      <trkpt lat="39.58346" lon="3.37409">
        <ele>47.429362</ele>
        <time>2023-01-02T14:30:13.888Z</time>
      </trkpt>
      <trkpt lat="39.58351" lon="3.3742">
        <ele>47.421451</ele>
        <time>2023-01-02T14:30:15.884Z</time>
      </trkpt>
      <trkpt lat="39.58355" lon="3.37431">
        <ele>47.467954</ele>
        <time>2023-01-02T14:30:17.882Z</time>
      </trkpt>
      <trkpt lat="39.5836" lon="3.37442">
        <ele>47.515435</ele>
        <time>2023-01-02T14:30:19.914Z</time>
      </trkpt>
      <trkpt lat="39.58365" lon="3.37453">
        <ele>47.564058</ele>
        <time>2023-01-02T14:30:21.904Z</time>
      </trkpt>
      <trkpt lat="39.5837" lon="3.37464">
        <ele>47.611292</ele>
        <time>2023-01-02T14:30:23.905Z</time>
      </trkpt>
      <trkpt lat="39.58375" lon="3.37475">
        <ele>47.660457</ele>
        <time>2023-01-02T14:30:25.901Z</time>
      </trkpt>
      <trkpt lat="39.5838" lon="3.37487">
        <ele>47.708193</ele>
        <time>2023-01-02T14:30:27.910Z</time>
      </trkpt>
      <trkpt lat="39.58385" lon="3.37498">
        <ele>47.757708</ele>
        <time>2023-01-02T14:30:29.922Z</time>
      </trkpt>
      <trkpt lat="39.5839" lon="3.37509">
        <ele>47.806012</ele>
        <time>2023-01-02T14:30:31.922Z</time>
      </trkpt>
      <trkpt lat="39.58395" lon="3.3752">
        <ele>47.85511</ele>
        <time>2023-01-02T14:30:33.906Z</time>
      </trkpt>
      <trkpt lat="39.584" lon="3.37531">
        <ele>47.902672</ele>
        <time>2023-01-02T14:30:35.904Z</time>
      </trkpt>
      <trkpt lat="39.58405" lon="3.37542">
        <ele>47.951171</ele>
        <time>2023-01-02T14:30:37.904Z</time>
      </trkpt>
      <trkpt lat="39.5841" lon="3.37554">
        <ele>48.001578</ele>
        <time>2023-01-02T14:30:39.906Z</time>
      </trkpt>
      <trkpt lat="39.58416" lon="3.37565">
        <ele>48.050919</ele>
        <time>2023-01-02T14:30:41.901Z</time>
      </trkpt>
      <trkpt lat="39.5842" lon="3.37577">
        <ele>48.101209</ele>
        <time>2023-01-02T14:30:43.896Z</time>
      </trkpt>
      <trkpt lat="39.58425" lon="3.37588">
        <ele>48.148689</ele>
        <time>2023-01-02T14:30:45.904Z</time>
      </trkpt>
      <trkpt lat="39.5843" lon="3.376">
        <ele>48.198525</ele>
        <time>2023-01-02T14:30:47.915Z</time>
      </trkpt>
      <trkpt lat="39.58435" lon="3.37611">
        <ele>48.247948</ele>
        <time>2023-01-02T14:30:49.888Z</time>
      </trkpt>
      <trkpt lat="39.5844" lon="3.37623">
        <ele>48.283618</ele>
        <time>2023-01-02T14:30:51.915Z</time>
      </trkpt>
      <trkpt lat="39.58445" lon="3.37634">
        <ele>48.291844</ele>
        <time>2023-01-02T14:30:53.907Z</time>
      </trkpt>
      <trkpt lat="39.5845" lon="3.37644">
        <ele>48.300119</ele>
        <time>2023-01-02T14:30:55.908Z</time>
      </trkpt>
      <trkpt lat="39.58457" lon="3.37653">
        <ele>48.308652</ele>
        <time>2023-01-02T14:30:57.896Z</time>
      </trkpt>
      <trkpt lat="39.58466" lon="3.37661">
        <ele>48.317503</ele>
        <time>2023-01-02T14:30:59.906Z</time>
      </trkpt>
      <trkpt lat="39.58475" lon="3.37667">
        <ele>48.326217</ele>
        <time>2023-01-02T14:31:01.905Z</time>
      </trkpt>
      <trkpt lat="39.58484" lon="3.37673">
        <ele>48.335195</ele>
        <time>2023-01-02T14:31:03.904Z</time>
      </trkpt>
      <trkpt lat="39.58493" lon="3.3768">
        <ele>48.344374</ele>
        <time>2023-01-02T14:31:05.903Z</time>
      </trkpt>
      <trkpt lat="39.58502" lon="3.37686">
        <ele>48.353011</ele>
        <time>2023-01-02T14:31:07.894Z</time>
      </trkpt>
      <trkpt lat="39.58511" lon="3.37692">
        <ele>48.36168</ele>
        <time>2023-01-02T14:31:09.919Z</time>
      </trkpt>
      <trkpt lat="39.58519" lon="3.37699">
        <ele>48.369955</ele>
        <time>2023-01-02T14:31:11.884Z</time>
      </trkpt>
      <trkpt lat="39.58524" lon="3.37709">
        <ele>48.378278</ele>
        <time>2023-01-02T14:31:13.887Z</time>
      </trkpt>
      <trkpt lat="39.58526" lon="3.37722">
        <ele>48.386622</ele>
        <time>2023-01-02T14:31:15.903Z</time>
      </trkpt>
      <trkpt lat="39.58523" lon="3.37733">
        <ele>48.394627</ele>
        <time>2023-01-02T14:31:17.906Z</time>
      </trkpt>
      <trkpt lat="39.58518" lon="3.37743">
        <ele>48.402461</ele>
        <time>2023-01-02T14:31:19.915Z</time>
      </trkpt>
      <trkpt lat="39.5851" lon="3.37757">
        <ele>48.414068</ele>
        <time>2023-01-02T14:31:22.903Z</time>
      </trkpt>
      <trkpt lat="39.58506" lon="3.37767">
        <ele>48.421797</ele>
        <time>2023-01-02T14:31:24.910Z</time>
      </trkpt>
      <trkpt lat="39.58502" lon="3.37778">
        <ele>48.42975</ele>
        <time>2023-01-02T14:31:26.908Z</time>
      </trkpt>
      <trkpt lat="39.58495" lon="3.37793">
        <ele>48.365878</ele>
        <time>2023-01-02T14:31:29.905Z</time>
      </trkpt>
      <trkpt lat="39.58488" lon="3.37807">
        <ele>48.227701</ele>
        <time>2023-01-02T14:31:32.908Z</time>
      </trkpt>
      <trkpt lat="39.58484" lon="3.37818">
        <ele>48.127751</ele>
        <time>2023-01-02T14:31:34.907Z</time>
      </trkpt>
      <trkpt lat="39.58476" lon="3.37832">
        <ele>47.98851</ele>
        <time>2023-01-02T14:31:37.900Z</time>
      </trkpt>
      <trkpt lat="39.58475" lon="3.37844">
        <ele>47.892633</ele>
        <time>2023-01-02T14:31:39.902Z</time>
      </trkpt>
      <trkpt lat="39.58478" lon="3.37859">
        <ele>47.765686</ele>
        <time>2023-01-02T14:31:42.903Z</time>
      </trkpt>
      <trkpt lat="39.58484" lon="3.37874">
        <ele>47.628853</ele>
        <time>2023-01-02T14:31:45.887Z</time>
      </trkpt>
      <trkpt lat="39.58488" lon="3.37885">
        <ele>47.531059</ele>
        <time>2023-01-02T14:31:47.903Z</time>
      </trkpt>
      <trkpt lat="39.58492" lon="3.37896">
        <ele>47.434731</ele>
        <time>2023-01-02T14:31:49.894Z</time>
      </trkpt>
      <trkpt lat="39.58496" lon="3.37906">
        <ele>47.334781</ele>
        <time>2023-01-02T14:31:51.905Z</time>
      </trkpt>
      <trkpt lat="39.585" lon="3.37918">
        <ele>47.230953</ele>
        <time>2023-01-02T14:31:53.900Z</time>
      </trkpt>
      <trkpt lat="39.58505" lon="3.37929">
        <ele>47.130763</ele>
        <time>2023-01-02T14:31:55.905Z</time>
      </trkpt>
      <trkpt lat="39.58509" lon="3.37941">
        <ele>47.024975</ele>
        <time>2023-01-02T14:31:57.922Z</time>
      </trkpt>
      <trkpt lat="39.58513" lon="3.37952">
        <ele>46.920683</ele>
        <time>2023-01-02T14:31:59.897Z</time>
      </trkpt>
      <trkpt lat="39.58517" lon="3.37963">
        <ele>46.819523</ele>
        <time>2023-01-02T14:32:01.891Z</time>
      </trkpt>
      <trkpt lat="39.58522" lon="3.37975">
        <ele>46.715934</ele>
        <time>2023-01-02T14:32:03.902Z</time>
      </trkpt>
      <trkpt lat="39.58527" lon="3.37986">
        <ele>46.610444</ele>
        <time>2023-01-02T14:32:05.901Z</time>
      </trkpt>
      <trkpt lat="39.58531" lon="3.37998">
        <ele>46.492037</ele>
        <time>2023-01-02T14:32:07.903Z</time>
      </trkpt>
      <trkpt lat="39.58536" lon="3.38009">
        <ele>46.356053</ele>
        <time>2023-01-02T14:32:09.912Z</time>
      </trkpt>
      <trkpt lat="39.5854" lon="3.3802">
        <ele>46.221559</ele>
        <time>2023-01-02T14:32:11.906Z</time>
      </trkpt>
      <trkpt lat="39.58545" lon="3.38031">
        <ele>46.084374</ele>
        <time>2023-01-02T14:32:13.909Z</time>
      </trkpt>
      <trkpt lat="39.5855" lon="3.38041">
        <ele>45.947439</ele>
        <time>2023-01-02T14:32:15.877Z</time>
      </trkpt>
      <trkpt lat="39.58558" lon="3.38054">
        <ele>45.764342</ele>
        <time>2023-01-02T14:32:18.899Z</time>
      </trkpt>
      <trkpt lat="39.58567" lon="3.38062">
        <ele>45.601053</ele>
        <time>2023-01-02T14:32:21.891Z</time>
      </trkpt>
      <trkpt lat="39.58577" lon="3.3807">
        <ele>45.437775</ele>
        <time>2023-01-02T14:32:24.889Z</time>
      </trkpt>
      <trkpt lat="39.58587" lon="3.38076">
        <ele>45.285913</ele>
        <time>2023-01-02T14:32:27.894Z</time>
      </trkpt>
      <trkpt lat="39.58595" lon="3.38083">
        <ele>45.143635</ele>
        <time>2023-01-02T14:32:30.882Z</time>
      </trkpt>
      <trkpt lat="39.58596" lon="3.38097">
        <ele>44.987507</ele>
        <time>2023-01-02T14:32:34.886Z</time>
      </trkpt>
      <trkpt lat="39.58598" lon="3.38109">
        <ele>44.857325</ele>
        <time>2023-01-02T14:32:37.898Z</time>
      </trkpt>
      <trkpt lat="39.58606" lon="3.38118">
        <ele>44.70426</ele>
        <time>2023-01-02T14:32:40.884Z</time>
      </trkpt>
      <trkpt lat="39.58615" lon="3.38128">
        <ele>44.534298</ele>
        <time>2023-01-02T14:32:43.902Z</time>
      </trkpt>
      <trkpt lat="39.58625" lon="3.38138">
        <ele>44.354267</ele>
        <time>2023-01-02T14:32:46.910Z</time>
      </trkpt>
      <trkpt lat="39.58632" lon="3.38146">
        <ele>44.219767</ele>
        <time>2023-01-02T14:32:48.902Z</time>
      </trkpt>
      <trkpt lat="39.5864" lon="3.38154">
        <ele>44.083197</ele>
        <time>2023-01-02T14:32:50.889Z</time>
      </trkpt>
      <trkpt lat="39.58647" lon="3.38163">
        <ele>43.96485</ele>
        <time>2023-01-02T14:32:52.901Z</time>
      </trkpt>
      <trkpt lat="39.58654" lon="3.38172">
        <ele>43.915877</ele>
        <time>2023-01-02T14:32:54.911Z</time>
      </trkpt>
      <trkpt lat="39.58662" lon="3.3818">
        <ele>43.866711</ele>
        <time>2023-01-02T14:32:56.902Z</time>
      </trkpt>
      <trkpt lat="39.58669" lon="3.38189">
        <ele>43.818397</ele>
        <time>2023-01-02T14:32:58.894Z</time>
      </trkpt>
      <trkpt lat="39.58677" lon="3.38198">
        <ele>43.767133</ele>
        <time>2023-01-02T14:33:00.889Z</time>
      </trkpt>
      <trkpt lat="39.58685" lon="3.38207">
        <ele>43.717353</ele>
        <time>2023-01-02T14:33:02.896Z</time>
      </trkpt>
      <trkpt lat="39.58693" lon="3.38215">
        <ele>43.666076</ele>
        <time>2023-01-02T14:33:04.896Z</time>
      </trkpt>
      <trkpt lat="39.58701" lon="3.38223">
        <ele>43.61664</ele>
        <time>2023-01-02T14:33:06.899Z</time>
      </trkpt>
      <trkpt lat="39.58709" lon="3.38232">
        <ele>43.56652</ele>
        <time>2023-01-02T14:33:08.910Z</time>
      </trkpt>
      <trkpt lat="39.58717" lon="3.3824">
        <ele>43.516324</ele>
        <time>2023-01-02T14:33:10.894Z</time>
      </trkpt>
      <trkpt lat="39.58725" lon="3.38248">
        <ele>43.467528</ele>
        <time>2023-01-02T14:33:12.898Z</time>
      </trkpt>
      <trkpt lat="39.58732" lon="3.38257">
        <ele>43.422023</ele>
        <time>2023-01-02T14:33:14.892Z</time>
      </trkpt>
      <trkpt lat="39.58739" lon="3.38264">
        <ele>43.377883</ele>
        <time>2023-01-02T14:33:16.903Z</time>
      </trkpt>
      <trkpt lat="39.58748" lon="3.38275">
        <ele>43.315961</ele>
        <time>2023-01-02T14:33:19.893Z</time>
      </trkpt>
      <trkpt lat="39.58758" lon="3.38285">
        <ele>43.254945</ele>
        <time>2023-01-02T14:33:22.904Z</time>
      </trkpt>
      <trkpt lat="39.58767" lon="3.38295">
        <ele>43.198377</ele>
        <time>2023-01-02T14:33:25.917Z</time>
      </trkpt>
      <trkpt lat="39.58775" lon="3.38303">
        <ele>43.151773</ele>
        <time>2023-01-02T14:33:28.891Z</time>
      </trkpt>
      <trkpt lat="39.58777" lon="3.38315">
        <ele>43.104448</ele>
        <time>2023-01-02T14:33:31.894Z</time>
      </trkpt>
      <trkpt lat="39.58776" lon="3.38328">
        <ele>43.101426</ele>
        <time>2023-01-02T14:33:34.896Z</time>
      </trkpt>
      <trkpt lat="39.58782" lon="3.38339">
        <ele>43.101426</ele>
        <time>2023-01-02T14:33:37.891Z</time>
      </trkpt>
      <trkpt lat="39.58792" lon="3.3835">
        <ele>43.101426</ele>
        <time>2023-01-02T14:33:40.895Z</time>
      </trkpt>
      <trkpt lat="39.588" lon="3.38358">
        <ele>43.101426</ele>
        <time>2023-01-02T14:33:42.910Z</time>
      </trkpt>
      <trkpt lat="39.58807" lon="3.38366">
        <ele>43.101426</ele>
        <time>2023-01-02T14:33:44.894Z</time>
      </trkpt>
      <trkpt lat="39.58814" lon="3.38375">
        <ele>43.101426</ele>
        <time>2023-01-02T14:33:46.894Z</time>
      </trkpt>
      <trkpt lat="39.58824" lon="3.38386">
        <ele>43.101426</ele>
        <time>2023-01-02T14:33:49.885Z</time>
      </trkpt>
      <trkpt lat="39.58834" lon="3.38394">
        <ele>43.101426</ele>
        <time>2023-01-02T14:33:52.899Z</time>
      </trkpt>
      <trkpt lat="39.58845" lon="3.384">
        <ele>43.101426</ele>
        <time>2023-01-02T14:33:55.887Z</time>
      </trkpt>
      <trkpt lat="39.58856" lon="3.38405">
        <ele>43.101426</ele>
        <time>2023-01-02T14:33:58.897Z</time>
      </trkpt>
      <trkpt lat="39.58866" lon="3.38409">
        <ele>43.101426</ele>
        <time>2023-01-02T14:34:01.903Z</time>
      </trkpt>
      <trkpt lat="39.58876" lon="3.38411">
        <ele>43.101426</ele>
        <time>2023-01-02T14:34:05.890Z</time>
      </trkpt>
      <trkpt lat="39.58887" lon="3.38411">
        <ele>43.101426</ele>
        <time>2023-01-02T14:34:10.074Z</time>
      </trkpt>
      <trkpt lat="39.58898" lon="3.38408">
        <ele>43.101426</ele>
        <time>2023-01-02T14:34:13.896Z</time>
      </trkpt>
      <trkpt lat="39.58907" lon="3.38409">
        <ele>43.101426</ele>
        <time>2023-01-02T14:34:17.891Z</time>
      </trkpt>
      <trkpt lat="39.58911" lon="3.38412">
        <ele>43.101426</ele>
        <time>2023-01-02T14:34:23.679Z</time>
      </trkpt>
    </trkseg>
  </trk>
</gpx>